<?xml version="1.0" encoding="UTF-8" standalone="no" ?>
<gpx xmlns="http://www.topografix.com/GPX/1/1" xmlns:xsi="http://www.w3.org/2001/XMLSchema-instance" xsi:schemaLocation="http://www.topografix.com/GPX/1/1 http://www.topografix.com/GPX/1/1/gpx.xsd" version="1.1" creator="VisuGPX - https://www.visugpx.com">
  <metadata>
    <name>Marche matinale</name>
  </metadata>
  <trk>
    <name><![CDATA[Marche matinale]]></name>
    <trkseg>
      <trkpt lat="49.27508" lon="-0.45223">
        <ele>29.2</ele>
        <time>2021-02-23T09:15:18Z</time>
      </trkpt>
      <trkpt lat="49.27506" lon="-0.4521">
        <ele>29.2</ele>
        <time>2021-02-23T09:15:19Z</time>
      </trkpt>
      <trkpt lat="49.27506" lon="-0.45209">
        <ele>29.2</ele>
        <time>2021-02-23T09:15:20Z</time>
      </trkpt>
      <trkpt lat="49.27505" lon="-0.45205">
        <ele>29.1</ele>
        <time>2021-02-23T09:15:22Z</time>
      </trkpt>
      <trkpt lat="49.27503" lon="-0.45204">
        <ele>29.1</ele>
        <time>2021-02-23T09:15:24Z</time>
      </trkpt>
      <trkpt lat="49.27503" lon="-0.45204">
        <ele>29.1</ele>
        <time>2021-02-23T09:15:25Z</time>
      </trkpt>
      <trkpt lat="49.27503" lon="-0.45204">
        <ele>29.1</ele>
        <time>2021-02-23T09:15:26Z</time>
      </trkpt>
      <trkpt lat="49.27503" lon="-0.45204">
        <ele>29.1</ele>
        <time>2021-02-23T09:15:28Z</time>
      </trkpt>
      <trkpt lat="49.27503" lon="-0.45204">
        <ele>29.1</ele>
        <time>2021-02-23T09:15:30Z</time>
      </trkpt>
      <trkpt lat="49.27503" lon="-0.45204">
        <ele>29.1</ele>
        <time>2021-02-23T09:15:31Z</time>
      </trkpt>
      <trkpt lat="49.27503" lon="-0.45204">
        <ele>29.1</ele>
        <time>2021-02-23T09:15:32Z</time>
      </trkpt>
      <trkpt lat="49.27503" lon="-0.45208">
        <ele>29.1</ele>
        <time>2021-02-23T09:15:34Z</time>
      </trkpt>
      <trkpt lat="49.27505" lon="-0.45212">
        <ele>29.1</ele>
        <time>2021-02-23T09:15:36Z</time>
      </trkpt>
      <trkpt lat="49.27506" lon="-0.45214">
        <ele>29.1</ele>
        <time>2021-02-23T09:15:37Z</time>
      </trkpt>
      <trkpt lat="49.27508" lon="-0.45218">
        <ele>29.1</ele>
        <time>2021-02-23T09:15:39Z</time>
      </trkpt>
      <trkpt lat="49.27509" lon="-0.4522">
        <ele>29.1</ele>
        <time>2021-02-23T09:15:41Z</time>
      </trkpt>
      <trkpt lat="49.2751" lon="-0.45221">
        <ele>29.1</ele>
        <time>2021-02-23T09:15:42Z</time>
      </trkpt>
      <trkpt lat="49.27511" lon="-0.45222">
        <ele>29.1</ele>
        <time>2021-02-23T09:15:43Z</time>
      </trkpt>
      <trkpt lat="49.27511" lon="-0.45222">
        <ele>29.1</ele>
        <time>2021-02-23T09:15:45Z</time>
      </trkpt>
      <trkpt lat="49.27511" lon="-0.45222">
        <ele>29.1</ele>
        <time>2021-02-23T09:15:46Z</time>
      </trkpt>
      <trkpt lat="49.2751" lon="-0.45221">
        <ele>29.1</ele>
        <time>2021-02-23T09:15:47Z</time>
      </trkpt>
      <trkpt lat="49.2751" lon="-0.45221">
        <ele>29.1</ele>
        <time>2021-02-23T09:15:49Z</time>
      </trkpt>
      <trkpt lat="49.2751" lon="-0.45221">
        <ele>29.1</ele>
        <time>2021-02-23T09:15:50Z</time>
      </trkpt>
      <trkpt lat="49.2751" lon="-0.4522">
        <ele>29.1</ele>
        <time>2021-02-23T09:15:51Z</time>
      </trkpt>
      <trkpt lat="49.2751" lon="-0.4522">
        <ele>29.1</ele>
        <time>2021-02-23T09:15:53Z</time>
      </trkpt>
      <trkpt lat="49.2751" lon="-0.4522">
        <ele>29.1</ele>
        <time>2021-02-23T09:15:54Z</time>
      </trkpt>
      <trkpt lat="49.2751" lon="-0.45219">
        <ele>29.1</ele>
        <time>2021-02-23T09:15:56Z</time>
      </trkpt>
      <trkpt lat="49.27509" lon="-0.45219">
        <ele>29.1</ele>
        <time>2021-02-23T09:15:57Z</time>
      </trkpt>
      <trkpt lat="49.27507" lon="-0.45214">
        <ele>29.1</ele>
        <time>2021-02-23T09:15:59Z</time>
      </trkpt>
      <trkpt lat="49.27505" lon="-0.45211">
        <ele>29.1</ele>
        <time>2021-02-23T09:16:00Z</time>
      </trkpt>
      <trkpt lat="49.27503" lon="-0.45206">
        <ele>29.1</ele>
        <time>2021-02-23T09:16:02Z</time>
      </trkpt>
      <trkpt lat="49.27502" lon="-0.45202">
        <ele>29.1</ele>
        <time>2021-02-23T09:16:03Z</time>
      </trkpt>
      <trkpt lat="49.27501" lon="-0.45201">
        <ele>29.1</ele>
        <time>2021-02-23T09:16:04Z</time>
      </trkpt>
      <trkpt lat="49.275" lon="-0.45199">
        <ele>29.1</ele>
        <time>2021-02-23T09:16:05Z</time>
      </trkpt>
      <trkpt lat="49.27499" lon="-0.45198">
        <ele>29.6</ele>
        <time>2021-02-23T09:16:06Z</time>
      </trkpt>
      <trkpt lat="49.27496" lon="-0.45198">
        <ele>29.8</ele>
        <time>2021-02-23T09:16:09Z</time>
      </trkpt>
      <trkpt lat="49.27495" lon="-0.45198">
        <ele>29.9</ele>
        <time>2021-02-23T09:16:10Z</time>
      </trkpt>
      <trkpt lat="49.27494" lon="-0.45198">
        <ele>30</ele>
        <time>2021-02-23T09:16:12Z</time>
      </trkpt>
      <trkpt lat="49.27492" lon="-0.452">
        <ele>30.1</ele>
        <time>2021-02-23T09:16:13Z</time>
      </trkpt>
      <trkpt lat="49.2749" lon="-0.45203">
        <ele>30.4</ele>
        <time>2021-02-23T09:16:14Z</time>
      </trkpt>
      <trkpt lat="49.27489" lon="-0.45205">
        <ele>30.5</ele>
        <time>2021-02-23T09:16:16Z</time>
      </trkpt>
      <trkpt lat="49.27488" lon="-0.45207">
        <ele>30.7</ele>
        <time>2021-02-23T09:16:17Z</time>
      </trkpt>
      <trkpt lat="49.27487" lon="-0.45208">
        <ele>30.8</ele>
        <time>2021-02-23T09:16:18Z</time>
      </trkpt>
      <trkpt lat="49.27485" lon="-0.45211">
        <ele>31</ele>
        <time>2021-02-23T09:16:19Z</time>
      </trkpt>
      <trkpt lat="49.27483" lon="-0.45215">
        <ele>31.3</ele>
        <time>2021-02-23T09:16:21Z</time>
      </trkpt>
      <trkpt lat="49.27481" lon="-0.45219">
        <ele>31.5</ele>
        <time>2021-02-23T09:16:23Z</time>
      </trkpt>
      <trkpt lat="49.27479" lon="-0.45223">
        <ele>31.8</ele>
        <time>2021-02-23T09:16:24Z</time>
      </trkpt>
      <trkpt lat="49.27476" lon="-0.45228">
        <ele>32.1</ele>
        <time>2021-02-23T09:16:26Z</time>
      </trkpt>
      <trkpt lat="49.27475" lon="-0.4523">
        <ele>32.3</ele>
        <time>2021-02-23T09:16:27Z</time>
      </trkpt>
      <trkpt lat="49.27474" lon="-0.45231">
        <ele>32.4</ele>
        <time>2021-02-23T09:16:28Z</time>
      </trkpt>
      <trkpt lat="49.27471" lon="-0.45237">
        <ele>32.7</ele>
        <time>2021-02-23T09:16:30Z</time>
      </trkpt>
      <trkpt lat="49.2747" lon="-0.45238">
        <ele>32.9</ele>
        <time>2021-02-23T09:16:31Z</time>
      </trkpt>
      <trkpt lat="49.2747" lon="-0.4524">
        <ele>33</ele>
        <time>2021-02-23T09:16:32Z</time>
      </trkpt>
      <trkpt lat="49.27468" lon="-0.45244">
        <ele>33.2</ele>
        <time>2021-02-23T09:16:33Z</time>
      </trkpt>
      <trkpt lat="49.27467" lon="-0.45246">
        <ele>33.3</ele>
        <time>2021-02-23T09:16:35Z</time>
      </trkpt>
      <trkpt lat="49.27465" lon="-0.45251">
        <ele>33.7</ele>
        <time>2021-02-23T09:16:36Z</time>
      </trkpt>
      <trkpt lat="49.27464" lon="-0.45253">
        <ele>33.8</ele>
        <time>2021-02-23T09:16:37Z</time>
      </trkpt>
      <trkpt lat="49.27462" lon="-0.45258">
        <ele>34</ele>
        <time>2021-02-23T09:16:39Z</time>
      </trkpt>
      <trkpt lat="49.27461" lon="-0.4526">
        <ele>34.1</ele>
        <time>2021-02-23T09:16:40Z</time>
      </trkpt>
      <trkpt lat="49.2746" lon="-0.45262">
        <ele>34.3</ele>
        <time>2021-02-23T09:16:42Z</time>
      </trkpt>
      <trkpt lat="49.27459" lon="-0.45264">
        <ele>34.4</ele>
        <time>2021-02-23T09:16:43Z</time>
      </trkpt>
      <trkpt lat="49.27458" lon="-0.45267">
        <ele>34.5</ele>
        <time>2021-02-23T09:16:44Z</time>
      </trkpt>
      <trkpt lat="49.27457" lon="-0.45269">
        <ele>34.6</ele>
        <time>2021-02-23T09:16:45Z</time>
      </trkpt>
      <trkpt lat="49.27456" lon="-0.45271">
        <ele>34.7</ele>
        <time>2021-02-23T09:16:46Z</time>
      </trkpt>
      <trkpt lat="49.27454" lon="-0.45273">
        <ele>34.9</ele>
        <time>2021-02-23T09:16:48Z</time>
      </trkpt>
      <trkpt lat="49.27453" lon="-0.45275">
        <ele>35</ele>
        <time>2021-02-23T09:16:49Z</time>
      </trkpt>
      <trkpt lat="49.27452" lon="-0.45277">
        <ele>35.1</ele>
        <time>2021-02-23T09:16:51Z</time>
      </trkpt>
      <trkpt lat="49.2745" lon="-0.45278">
        <ele>35.2</ele>
        <time>2021-02-23T09:16:52Z</time>
      </trkpt>
      <trkpt lat="49.27449" lon="-0.4528">
        <ele>35.3</ele>
        <time>2021-02-23T09:16:53Z</time>
      </trkpt>
      <trkpt lat="49.27447" lon="-0.45283">
        <ele>35.5</ele>
        <time>2021-02-23T09:16:55Z</time>
      </trkpt>
      <trkpt lat="49.27446" lon="-0.45287">
        <ele>35.7</ele>
        <time>2021-02-23T09:16:56Z</time>
      </trkpt>
      <trkpt lat="49.27445" lon="-0.45288">
        <ele>35.8</ele>
        <time>2021-02-23T09:16:57Z</time>
      </trkpt>
      <trkpt lat="49.27442" lon="-0.45293">
        <ele>36</ele>
        <time>2021-02-23T09:16:59Z</time>
      </trkpt>
      <trkpt lat="49.27441" lon="-0.45294">
        <ele>36.1</ele>
        <time>2021-02-23T09:17:00Z</time>
      </trkpt>
      <trkpt lat="49.2744" lon="-0.45297">
        <ele>36.2</ele>
        <time>2021-02-23T09:17:01Z</time>
      </trkpt>
      <trkpt lat="49.27438" lon="-0.453">
        <ele>36.4</ele>
        <time>2021-02-23T09:17:03Z</time>
      </trkpt>
      <trkpt lat="49.27436" lon="-0.45304">
        <ele>36.6</ele>
        <time>2021-02-23T09:17:05Z</time>
      </trkpt>
      <trkpt lat="49.27435" lon="-0.45306">
        <ele>36.7</ele>
        <time>2021-02-23T09:17:06Z</time>
      </trkpt>
      <trkpt lat="49.27434" lon="-0.45307">
        <ele>36.8</ele>
        <time>2021-02-23T09:17:07Z</time>
      </trkpt>
      <trkpt lat="49.27432" lon="-0.45309">
        <ele>36.9</ele>
        <time>2021-02-23T09:17:08Z</time>
      </trkpt>
      <trkpt lat="49.27431" lon="-0.45312">
        <ele>37</ele>
        <time>2021-02-23T09:17:09Z</time>
      </trkpt>
      <trkpt lat="49.27429" lon="-0.45315">
        <ele>37.2</ele>
        <time>2021-02-23T09:17:10Z</time>
      </trkpt>
      <trkpt lat="49.27427" lon="-0.45318">
        <ele>37.4</ele>
        <time>2021-02-23T09:17:12Z</time>
      </trkpt>
      <trkpt lat="49.27425" lon="-0.45322">
        <ele>37.5</ele>
        <time>2021-02-23T09:17:14Z</time>
      </trkpt>
      <trkpt lat="49.27424" lon="-0.45323">
        <ele>37.6</ele>
        <time>2021-02-23T09:17:15Z</time>
      </trkpt>
      <trkpt lat="49.27422" lon="-0.45327">
        <ele>37.8</ele>
        <time>2021-02-23T09:17:16Z</time>
      </trkpt>
      <trkpt lat="49.2742" lon="-0.4533">
        <ele>37.9</ele>
        <time>2021-02-23T09:17:18Z</time>
      </trkpt>
      <trkpt lat="49.27418" lon="-0.45334">
        <ele>38.1</ele>
        <time>2021-02-23T09:17:20Z</time>
      </trkpt>
      <trkpt lat="49.27415" lon="-0.45338">
        <ele>38.3</ele>
        <time>2021-02-23T09:17:22Z</time>
      </trkpt>
      <trkpt lat="49.27413" lon="-0.45342">
        <ele>38.5</ele>
        <time>2021-02-23T09:17:23Z</time>
      </trkpt>
      <trkpt lat="49.27411" lon="-0.45346">
        <ele>38.6</ele>
        <time>2021-02-23T09:17:25Z</time>
      </trkpt>
      <trkpt lat="49.27411" lon="-0.45346">
        <ele>38.6</ele>
        <time>2021-02-23T09:17:26Z</time>
      </trkpt>
      <trkpt lat="49.27409" lon="-0.45347">
        <ele>38.7</ele>
        <time>2021-02-23T09:17:27Z</time>
      </trkpt>
      <trkpt lat="49.27408" lon="-0.4535">
        <ele>38.8</ele>
        <time>2021-02-23T09:17:29Z</time>
      </trkpt>
      <trkpt lat="49.27407" lon="-0.45353">
        <ele>38.9</ele>
        <time>2021-02-23T09:17:31Z</time>
      </trkpt>
      <trkpt lat="49.27406" lon="-0.45354">
        <ele>38.9</ele>
        <time>2021-02-23T09:17:32Z</time>
      </trkpt>
      <trkpt lat="49.27406" lon="-0.45357">
        <ele>39</ele>
        <time>2021-02-23T09:17:34Z</time>
      </trkpt>
      <trkpt lat="49.27405" lon="-0.45358">
        <ele>39.1</ele>
        <time>2021-02-23T09:17:35Z</time>
      </trkpt>
      <trkpt lat="49.27403" lon="-0.45362">
        <ele>39.2</ele>
        <time>2021-02-23T09:17:37Z</time>
      </trkpt>
      <trkpt lat="49.27403" lon="-0.45363">
        <ele>39.3</ele>
        <time>2021-02-23T09:17:38Z</time>
      </trkpt>
      <trkpt lat="49.27402" lon="-0.45365">
        <ele>39.3</ele>
        <time>2021-02-23T09:17:39Z</time>
      </trkpt>
      <trkpt lat="49.27401" lon="-0.45367">
        <ele>39.4</ele>
        <time>2021-02-23T09:17:40Z</time>
      </trkpt>
      <trkpt lat="49.27399" lon="-0.45371">
        <ele>39.5</ele>
        <time>2021-02-23T09:17:42Z</time>
      </trkpt>
      <trkpt lat="49.27398" lon="-0.45373">
        <ele>39.6</ele>
        <time>2021-02-23T09:17:43Z</time>
      </trkpt>
      <trkpt lat="49.27397" lon="-0.45375">
        <ele>39.7</ele>
        <time>2021-02-23T09:17:44Z</time>
      </trkpt>
      <trkpt lat="49.27395" lon="-0.4538">
        <ele>39.8</ele>
        <time>2021-02-23T09:17:46Z</time>
      </trkpt>
      <trkpt lat="49.27393" lon="-0.45383">
        <ele>40</ele>
        <time>2021-02-23T09:17:47Z</time>
      </trkpt>
      <trkpt lat="49.2739" lon="-0.45388">
        <ele>40.1</ele>
        <time>2021-02-23T09:17:49Z</time>
      </trkpt>
      <trkpt lat="49.27388" lon="-0.4539">
        <ele>40.2</ele>
        <time>2021-02-23T09:17:50Z</time>
      </trkpt>
      <trkpt lat="49.27385" lon="-0.45394">
        <ele>40.3</ele>
        <time>2021-02-23T09:17:52Z</time>
      </trkpt>
      <trkpt lat="49.27382" lon="-0.45399">
        <ele>40.5</ele>
        <time>2021-02-23T09:17:54Z</time>
      </trkpt>
      <trkpt lat="49.2738" lon="-0.45402">
        <ele>40.6</ele>
        <time>2021-02-23T09:17:55Z</time>
      </trkpt>
      <trkpt lat="49.27379" lon="-0.45402">
        <ele>40.6</ele>
        <time>2021-02-23T09:17:56Z</time>
      </trkpt>
      <trkpt lat="49.27376" lon="-0.45405">
        <ele>40.7</ele>
        <time>2021-02-23T09:17:58Z</time>
      </trkpt>
      <trkpt lat="49.27375" lon="-0.45406">
        <ele>40.8</ele>
        <time>2021-02-23T09:17:59Z</time>
      </trkpt>
      <trkpt lat="49.27374" lon="-0.45408">
        <ele>40.8</ele>
        <time>2021-02-23T09:18:00Z</time>
      </trkpt>
      <trkpt lat="49.27371" lon="-0.4541">
        <ele>40.9</ele>
        <time>2021-02-23T09:18:01Z</time>
      </trkpt>
      <trkpt lat="49.27371" lon="-0.45411">
        <ele>40.9</ele>
        <time>2021-02-23T09:18:03Z</time>
      </trkpt>
      <trkpt lat="49.2737" lon="-0.45412">
        <ele>41</ele>
        <time>2021-02-23T09:18:04Z</time>
      </trkpt>
      <trkpt lat="49.27369" lon="-0.45414">
        <ele>41</ele>
        <time>2021-02-23T09:18:06Z</time>
      </trkpt>
      <trkpt lat="49.27368" lon="-0.45416">
        <ele>41.1</ele>
        <time>2021-02-23T09:18:07Z</time>
      </trkpt>
      <trkpt lat="49.27368" lon="-0.45417">
        <ele>41.1</ele>
        <time>2021-02-23T09:18:08Z</time>
      </trkpt>
      <trkpt lat="49.27366" lon="-0.4542">
        <ele>41.2</ele>
        <time>2021-02-23T09:18:10Z</time>
      </trkpt>
      <trkpt lat="49.27365" lon="-0.45423">
        <ele>41.3</ele>
        <time>2021-02-23T09:18:11Z</time>
      </trkpt>
      <trkpt lat="49.27362" lon="-0.45427">
        <ele>41.4</ele>
        <time>2021-02-23T09:18:13Z</time>
      </trkpt>
      <trkpt lat="49.27361" lon="-0.45429">
        <ele>41.5</ele>
        <time>2021-02-23T09:18:14Z</time>
      </trkpt>
      <trkpt lat="49.2736" lon="-0.4543">
        <ele>41.5</ele>
        <time>2021-02-23T09:18:15Z</time>
      </trkpt>
      <trkpt lat="49.27359" lon="-0.45433">
        <ele>41.6</ele>
        <time>2021-02-23T09:18:16Z</time>
      </trkpt>
      <trkpt lat="49.27357" lon="-0.45436">
        <ele>41.7</ele>
        <time>2021-02-23T09:18:18Z</time>
      </trkpt>
      <trkpt lat="49.27356" lon="-0.45439">
        <ele>41.8</ele>
        <time>2021-02-23T09:18:19Z</time>
      </trkpt>
      <trkpt lat="49.27354" lon="-0.45442">
        <ele>41.9</ele>
        <time>2021-02-23T09:18:21Z</time>
      </trkpt>
      <trkpt lat="49.27352" lon="-0.45446">
        <ele>42</ele>
        <time>2021-02-23T09:18:23Z</time>
      </trkpt>
      <trkpt lat="49.27351" lon="-0.45448">
        <ele>42</ele>
        <time>2021-02-23T09:18:24Z</time>
      </trkpt>
      <trkpt lat="49.2735" lon="-0.4545">
        <ele>42.1</ele>
        <time>2021-02-23T09:18:25Z</time>
      </trkpt>
      <trkpt lat="49.27348" lon="-0.45454">
        <ele>42.2</ele>
        <time>2021-02-23T09:18:26Z</time>
      </trkpt>
      <trkpt lat="49.27347" lon="-0.45454">
        <ele>42.2</ele>
        <time>2021-02-23T09:18:27Z</time>
      </trkpt>
      <trkpt lat="49.27345" lon="-0.45458">
        <ele>42.3</ele>
        <time>2021-02-23T09:18:29Z</time>
      </trkpt>
      <trkpt lat="49.27344" lon="-0.45459">
        <ele>42.3</ele>
        <time>2021-02-23T09:18:30Z</time>
      </trkpt>
      <trkpt lat="49.27341" lon="-0.45463">
        <ele>42.5</ele>
        <time>2021-02-23T09:18:31Z</time>
      </trkpt>
      <trkpt lat="49.2734" lon="-0.45464">
        <ele>42.5</ele>
        <time>2021-02-23T09:18:32Z</time>
      </trkpt>
      <trkpt lat="49.27338" lon="-0.45467">
        <ele>42.6</ele>
        <time>2021-02-23T09:18:34Z</time>
      </trkpt>
      <trkpt lat="49.27337" lon="-0.45468">
        <ele>42.6</ele>
        <time>2021-02-23T09:18:35Z</time>
      </trkpt>
      <trkpt lat="49.27335" lon="-0.4547">
        <ele>42.7</ele>
        <time>2021-02-23T09:18:36Z</time>
      </trkpt>
      <trkpt lat="49.27334" lon="-0.45472">
        <ele>42.7</ele>
        <time>2021-02-23T09:18:38Z</time>
      </trkpt>
      <trkpt lat="49.27332" lon="-0.45474">
        <ele>42.8</ele>
        <time>2021-02-23T09:18:39Z</time>
      </trkpt>
      <trkpt lat="49.2733" lon="-0.45477">
        <ele>42.9</ele>
        <time>2021-02-23T09:18:41Z</time>
      </trkpt>
      <trkpt lat="49.27328" lon="-0.4548">
        <ele>42.9</ele>
        <time>2021-02-23T09:18:42Z</time>
      </trkpt>
      <trkpt lat="49.27327" lon="-0.45481">
        <ele>43</ele>
        <time>2021-02-23T09:18:43Z</time>
      </trkpt>
      <trkpt lat="49.27326" lon="-0.45483">
        <ele>43</ele>
        <time>2021-02-23T09:18:45Z</time>
      </trkpt>
      <trkpt lat="49.27325" lon="-0.45485">
        <ele>43</ele>
        <time>2021-02-23T09:18:46Z</time>
      </trkpt>
      <trkpt lat="49.27324" lon="-0.45488">
        <ele>43.1</ele>
        <time>2021-02-23T09:18:47Z</time>
      </trkpt>
      <trkpt lat="49.27322" lon="-0.45491">
        <ele>43.2</ele>
        <time>2021-02-23T09:18:49Z</time>
      </trkpt>
      <trkpt lat="49.27319" lon="-0.45494">
        <ele>43.3</ele>
        <time>2021-02-23T09:18:50Z</time>
      </trkpt>
      <trkpt lat="49.27318" lon="-0.45496">
        <ele>43.3</ele>
        <time>2021-02-23T09:18:51Z</time>
      </trkpt>
      <trkpt lat="49.27316" lon="-0.45498">
        <ele>43.4</ele>
        <time>2021-02-23T09:18:52Z</time>
      </trkpt>
      <trkpt lat="49.27315" lon="-0.455">
        <ele>43.4</ele>
        <time>2021-02-23T09:18:54Z</time>
      </trkpt>
      <trkpt lat="49.27314" lon="-0.45502">
        <ele>43.4</ele>
        <time>2021-02-23T09:18:55Z</time>
      </trkpt>
      <trkpt lat="49.27311" lon="-0.45505">
        <ele>43.5</ele>
        <time>2021-02-23T09:18:56Z</time>
      </trkpt>
      <trkpt lat="49.2731" lon="-0.45506">
        <ele>43.6</ele>
        <time>2021-02-23T09:18:57Z</time>
      </trkpt>
      <trkpt lat="49.27307" lon="-0.45509">
        <ele>43.6</ele>
        <time>2021-02-23T09:18:59Z</time>
      </trkpt>
      <trkpt lat="49.27306" lon="-0.4551">
        <ele>43.7</ele>
        <time>2021-02-23T09:19:00Z</time>
      </trkpt>
      <trkpt lat="49.27303" lon="-0.45514">
        <ele>43.8</ele>
        <time>2021-02-23T09:19:02Z</time>
      </trkpt>
      <trkpt lat="49.27302" lon="-0.45516">
        <ele>43.8</ele>
        <time>2021-02-23T09:19:03Z</time>
      </trkpt>
      <trkpt lat="49.273" lon="-0.45517">
        <ele>43.9</ele>
        <time>2021-02-23T09:19:04Z</time>
      </trkpt>
      <trkpt lat="49.27298" lon="-0.4552">
        <ele>43.9</ele>
        <time>2021-02-23T09:19:05Z</time>
      </trkpt>
      <trkpt lat="49.27295" lon="-0.45521">
        <ele>44</ele>
        <time>2021-02-23T09:19:07Z</time>
      </trkpt>
      <trkpt lat="49.27294" lon="-0.45521">
        <ele>44</ele>
        <time>2021-02-23T09:19:08Z</time>
      </trkpt>
      <trkpt lat="49.27292" lon="-0.45522">
        <ele>44.1</ele>
        <time>2021-02-23T09:19:09Z</time>
      </trkpt>
      <trkpt lat="49.2729" lon="-0.45523">
        <ele>44.1</ele>
        <time>2021-02-23T09:19:11Z</time>
      </trkpt>
      <trkpt lat="49.27287" lon="-0.45524">
        <ele>44.1</ele>
        <time>2021-02-23T09:19:12Z</time>
      </trkpt>
      <trkpt lat="49.27285" lon="-0.45524">
        <ele>44.2</ele>
        <time>2021-02-23T09:19:14Z</time>
      </trkpt>
      <trkpt lat="49.27283" lon="-0.45525">
        <ele>44.2</ele>
        <time>2021-02-23T09:19:15Z</time>
      </trkpt>
      <trkpt lat="49.27283" lon="-0.45525">
        <ele>44.2</ele>
        <time>2021-02-23T09:19:16Z</time>
      </trkpt>
      <trkpt lat="49.27282" lon="-0.45525">
        <ele>44.2</ele>
        <time>2021-02-23T09:19:17Z</time>
      </trkpt>
      <trkpt lat="49.2728" lon="-0.45526">
        <ele>44.2</ele>
        <time>2021-02-23T09:19:19Z</time>
      </trkpt>
      <trkpt lat="49.27278" lon="-0.45527">
        <ele>44.2</ele>
        <time>2021-02-23T09:19:20Z</time>
      </trkpt>
      <trkpt lat="49.27276" lon="-0.45528">
        <ele>44.3</ele>
        <time>2021-02-23T09:19:21Z</time>
      </trkpt>
      <trkpt lat="49.27274" lon="-0.45528">
        <ele>44.4</ele>
        <time>2021-02-23T09:19:23Z</time>
      </trkpt>
      <trkpt lat="49.27272" lon="-0.45529">
        <ele>44.4</ele>
        <time>2021-02-23T09:19:24Z</time>
      </trkpt>
      <trkpt lat="49.2727" lon="-0.45529">
        <ele>44.5</ele>
        <time>2021-02-23T09:19:25Z</time>
      </trkpt>
      <trkpt lat="49.27266" lon="-0.4553">
        <ele>44.6</ele>
        <time>2021-02-23T09:19:27Z</time>
      </trkpt>
      <trkpt lat="49.27263" lon="-0.45531">
        <ele>44.7</ele>
        <time>2021-02-23T09:19:28Z</time>
      </trkpt>
      <trkpt lat="49.2726" lon="-0.45532">
        <ele>44.8</ele>
        <time>2021-02-23T09:19:29Z</time>
      </trkpt>
      <trkpt lat="49.27256" lon="-0.45533">
        <ele>44.9</ele>
        <time>2021-02-23T09:19:31Z</time>
      </trkpt>
      <trkpt lat="49.27254" lon="-0.45533">
        <ele>45</ele>
        <time>2021-02-23T09:19:32Z</time>
      </trkpt>
      <trkpt lat="49.2725" lon="-0.45533">
        <ele>45.1</ele>
        <time>2021-02-23T09:19:34Z</time>
      </trkpt>
      <trkpt lat="49.27248" lon="-0.45534">
        <ele>45.2</ele>
        <time>2021-02-23T09:19:35Z</time>
      </trkpt>
      <trkpt lat="49.27246" lon="-0.45534">
        <ele>45.2</ele>
        <time>2021-02-23T09:19:37Z</time>
      </trkpt>
      <trkpt lat="49.27244" lon="-0.45534">
        <ele>45.3</ele>
        <time>2021-02-23T09:19:38Z</time>
      </trkpt>
      <trkpt lat="49.27241" lon="-0.45534">
        <ele>45.4</ele>
        <time>2021-02-23T09:19:40Z</time>
      </trkpt>
      <trkpt lat="49.27238" lon="-0.45535">
        <ele>45.5</ele>
        <time>2021-02-23T09:19:42Z</time>
      </trkpt>
      <trkpt lat="49.27235" lon="-0.45535">
        <ele>45.6</ele>
        <time>2021-02-23T09:19:43Z</time>
      </trkpt>
      <trkpt lat="49.27233" lon="-0.45536">
        <ele>45.7</ele>
        <time>2021-02-23T09:19:45Z</time>
      </trkpt>
      <trkpt lat="49.27229" lon="-0.45536">
        <ele>45.8</ele>
        <time>2021-02-23T09:19:46Z</time>
      </trkpt>
      <trkpt lat="49.27228" lon="-0.45536">
        <ele>45.8</ele>
        <time>2021-02-23T09:19:47Z</time>
      </trkpt>
      <trkpt lat="49.27224" lon="-0.45536">
        <ele>46</ele>
        <time>2021-02-23T09:19:49Z</time>
      </trkpt>
      <trkpt lat="49.27222" lon="-0.45536">
        <ele>46</ele>
        <time>2021-02-23T09:19:50Z</time>
      </trkpt>
      <trkpt lat="49.2722" lon="-0.45536">
        <ele>46.1</ele>
        <time>2021-02-23T09:19:51Z</time>
      </trkpt>
      <trkpt lat="49.27217" lon="-0.45536">
        <ele>46.2</ele>
        <time>2021-02-23T09:19:53Z</time>
      </trkpt>
      <trkpt lat="49.27216" lon="-0.45536">
        <ele>46.2</ele>
        <time>2021-02-23T09:19:54Z</time>
      </trkpt>
      <trkpt lat="49.27213" lon="-0.45536">
        <ele>46.3</ele>
        <time>2021-02-23T09:19:56Z</time>
      </trkpt>
      <trkpt lat="49.27211" lon="-0.45536">
        <ele>46.4</ele>
        <time>2021-02-23T09:19:57Z</time>
      </trkpt>
      <trkpt lat="49.27209" lon="-0.45536">
        <ele>46.4</ele>
        <time>2021-02-23T09:19:58Z</time>
      </trkpt>
      <trkpt lat="49.27207" lon="-0.45535">
        <ele>46.5</ele>
        <time>2021-02-23T09:19:59Z</time>
      </trkpt>
      <trkpt lat="49.27205" lon="-0.45535">
        <ele>46.6</ele>
        <time>2021-02-23T09:20:01Z</time>
      </trkpt>
      <trkpt lat="49.27201" lon="-0.45535">
        <ele>46.7</ele>
        <time>2021-02-23T09:20:02Z</time>
      </trkpt>
      <trkpt lat="49.272" lon="-0.45535">
        <ele>46.7</ele>
        <time>2021-02-23T09:20:03Z</time>
      </trkpt>
      <trkpt lat="49.27197" lon="-0.45534">
        <ele>46.8</ele>
        <time>2021-02-23T09:20:05Z</time>
      </trkpt>
      <trkpt lat="49.27196" lon="-0.45534">
        <ele>46.8</ele>
        <time>2021-02-23T09:20:06Z</time>
      </trkpt>
      <trkpt lat="49.27193" lon="-0.45533">
        <ele>46.9</ele>
        <time>2021-02-23T09:20:08Z</time>
      </trkpt>
      <trkpt lat="49.27191" lon="-0.45533">
        <ele>46.9</ele>
        <time>2021-02-23T09:20:09Z</time>
      </trkpt>
      <trkpt lat="49.27189" lon="-0.45533">
        <ele>47</ele>
        <time>2021-02-23T09:20:11Z</time>
      </trkpt>
      <trkpt lat="49.27186" lon="-0.45533">
        <ele>47</ele>
        <time>2021-02-23T09:20:12Z</time>
      </trkpt>
      <trkpt lat="49.27182" lon="-0.45533">
        <ele>47.1</ele>
        <time>2021-02-23T09:20:14Z</time>
      </trkpt>
      <trkpt lat="49.27181" lon="-0.45533">
        <ele>47.2</ele>
        <time>2021-02-23T09:20:15Z</time>
      </trkpt>
      <trkpt lat="49.27179" lon="-0.45532">
        <ele>47.2</ele>
        <time>2021-02-23T09:20:16Z</time>
      </trkpt>
      <trkpt lat="49.27177" lon="-0.45532">
        <ele>47.2</ele>
        <time>2021-02-23T09:20:18Z</time>
      </trkpt>
      <trkpt lat="49.27174" lon="-0.45532">
        <ele>47.3</ele>
        <time>2021-02-23T09:20:19Z</time>
      </trkpt>
      <trkpt lat="49.27172" lon="-0.45532">
        <ele>47.3</ele>
        <time>2021-02-23T09:20:21Z</time>
      </trkpt>
      <trkpt lat="49.27171" lon="-0.45531">
        <ele>47.3</ele>
        <time>2021-02-23T09:20:22Z</time>
      </trkpt>
      <trkpt lat="49.27169" lon="-0.45531">
        <ele>47.3</ele>
        <time>2021-02-23T09:20:23Z</time>
      </trkpt>
      <trkpt lat="49.27165" lon="-0.4553">
        <ele>47.4</ele>
        <time>2021-02-23T09:20:25Z</time>
      </trkpt>
      <trkpt lat="49.27163" lon="-0.4553">
        <ele>47.4</ele>
        <time>2021-02-23T09:20:26Z</time>
      </trkpt>
      <trkpt lat="49.27158" lon="-0.45528">
        <ele>47.5</ele>
        <time>2021-02-23T09:20:28Z</time>
      </trkpt>
      <trkpt lat="49.27157" lon="-0.45528">
        <ele>47.5</ele>
        <time>2021-02-23T09:20:30Z</time>
      </trkpt>
      <trkpt lat="49.27155" lon="-0.45527">
        <ele>47.5</ele>
        <time>2021-02-23T09:20:31Z</time>
      </trkpt>
      <trkpt lat="49.27152" lon="-0.45526">
        <ele>47.5</ele>
        <time>2021-02-23T09:20:32Z</time>
      </trkpt>
      <trkpt lat="49.27151" lon="-0.45525">
        <ele>47.5</ele>
        <time>2021-02-23T09:20:33Z</time>
      </trkpt>
      <trkpt lat="49.27148" lon="-0.45524">
        <ele>47.6</ele>
        <time>2021-02-23T09:20:35Z</time>
      </trkpt>
      <trkpt lat="49.27147" lon="-0.45524">
        <ele>47.6</ele>
        <time>2021-02-23T09:20:36Z</time>
      </trkpt>
      <trkpt lat="49.27144" lon="-0.45523">
        <ele>47.6</ele>
        <time>2021-02-23T09:20:38Z</time>
      </trkpt>
      <trkpt lat="49.27143" lon="-0.45523">
        <ele>47.6</ele>
        <time>2021-02-23T09:20:39Z</time>
      </trkpt>
      <trkpt lat="49.2714" lon="-0.45522">
        <ele>47.6</ele>
        <time>2021-02-23T09:20:40Z</time>
      </trkpt>
      <trkpt lat="49.27138" lon="-0.45521">
        <ele>47.6</ele>
        <time>2021-02-23T09:20:41Z</time>
      </trkpt>
      <trkpt lat="49.27134" lon="-0.4552">
        <ele>47.7</ele>
        <time>2021-02-23T09:20:43Z</time>
      </trkpt>
      <trkpt lat="49.27133" lon="-0.45519">
        <ele>47.7</ele>
        <time>2021-02-23T09:20:44Z</time>
      </trkpt>
      <trkpt lat="49.27129" lon="-0.45518">
        <ele>47.7</ele>
        <time>2021-02-23T09:20:46Z</time>
      </trkpt>
      <trkpt lat="49.27128" lon="-0.45518">
        <ele>47.7</ele>
        <time>2021-02-23T09:20:47Z</time>
      </trkpt>
      <trkpt lat="49.27126" lon="-0.45517">
        <ele>47.7</ele>
        <time>2021-02-23T09:20:49Z</time>
      </trkpt>
      <trkpt lat="49.27125" lon="-0.45517">
        <ele>47.7</ele>
        <time>2021-02-23T09:20:50Z</time>
      </trkpt>
      <trkpt lat="49.27122" lon="-0.45516">
        <ele>47.7</ele>
        <time>2021-02-23T09:20:51Z</time>
      </trkpt>
      <trkpt lat="49.27121" lon="-0.45515">
        <ele>47.7</ele>
        <time>2021-02-23T09:20:52Z</time>
      </trkpt>
      <trkpt lat="49.27117" lon="-0.45514">
        <ele>47.7</ele>
        <time>2021-02-23T09:20:54Z</time>
      </trkpt>
      <trkpt lat="49.27115" lon="-0.45514">
        <ele>47.7</ele>
        <time>2021-02-23T09:20:55Z</time>
      </trkpt>
      <trkpt lat="49.27113" lon="-0.45513">
        <ele>47.8</ele>
        <time>2021-02-23T09:20:56Z</time>
      </trkpt>
      <trkpt lat="49.2711" lon="-0.45512">
        <ele>47.8</ele>
        <time>2021-02-23T09:20:58Z</time>
      </trkpt>
      <trkpt lat="49.27107" lon="-0.45511">
        <ele>47.8</ele>
        <time>2021-02-23T09:21:00Z</time>
      </trkpt>
      <trkpt lat="49.27107" lon="-0.45511">
        <ele>47.8</ele>
        <time>2021-02-23T09:21:01Z</time>
      </trkpt>
      <trkpt lat="49.27102" lon="-0.45509">
        <ele>47.8</ele>
        <time>2021-02-23T09:21:03Z</time>
      </trkpt>
      <trkpt lat="49.27101" lon="-0.45509">
        <ele>47.8</ele>
        <time>2021-02-23T09:21:04Z</time>
      </trkpt>
      <trkpt lat="49.271" lon="-0.45508">
        <ele>47.8</ele>
        <time>2021-02-23T09:21:05Z</time>
      </trkpt>
      <trkpt lat="49.27097" lon="-0.45507">
        <ele>47.8</ele>
        <time>2021-02-23T09:21:07Z</time>
      </trkpt>
      <trkpt lat="49.27095" lon="-0.45507">
        <ele>47.8</ele>
        <time>2021-02-23T09:21:08Z</time>
      </trkpt>
      <trkpt lat="49.27092" lon="-0.45505">
        <ele>47.8</ele>
        <time>2021-02-23T09:21:09Z</time>
      </trkpt>
      <trkpt lat="49.27091" lon="-0.45505">
        <ele>47.8</ele>
        <time>2021-02-23T09:21:10Z</time>
      </trkpt>
      <trkpt lat="49.27087" lon="-0.45504">
        <ele>47.9</ele>
        <time>2021-02-23T09:21:12Z</time>
      </trkpt>
      <trkpt lat="49.27086" lon="-0.45503">
        <ele>47.9</ele>
        <time>2021-02-23T09:21:13Z</time>
      </trkpt>
      <trkpt lat="49.27083" lon="-0.45502">
        <ele>47.9</ele>
        <time>2021-02-23T09:21:15Z</time>
      </trkpt>
      <trkpt lat="49.27081" lon="-0.45502">
        <ele>47.9</ele>
        <time>2021-02-23T09:21:16Z</time>
      </trkpt>
      <trkpt lat="49.27079" lon="-0.45501">
        <ele>47.9</ele>
        <time>2021-02-23T09:21:17Z</time>
      </trkpt>
      <trkpt lat="49.27077" lon="-0.455">
        <ele>47.9</ele>
        <time>2021-02-23T09:21:19Z</time>
      </trkpt>
      <trkpt lat="49.27073" lon="-0.45498">
        <ele>47.9</ele>
        <time>2021-02-23T09:21:20Z</time>
      </trkpt>
      <trkpt lat="49.27069" lon="-0.45497">
        <ele>47.9</ele>
        <time>2021-02-23T09:21:22Z</time>
      </trkpt>
      <trkpt lat="49.27068" lon="-0.45496">
        <ele>47.9</ele>
        <time>2021-02-23T09:21:23Z</time>
      </trkpt>
      <trkpt lat="49.27065" lon="-0.45495">
        <ele>47.9</ele>
        <time>2021-02-23T09:21:25Z</time>
      </trkpt>
      <trkpt lat="49.27064" lon="-0.45495">
        <ele>47.9</ele>
        <time>2021-02-23T09:21:26Z</time>
      </trkpt>
      <trkpt lat="49.27063" lon="-0.45494">
        <ele>47.9</ele>
        <time>2021-02-23T09:21:27Z</time>
      </trkpt>
      <trkpt lat="49.27061" lon="-0.45494">
        <ele>47.9</ele>
        <time>2021-02-23T09:21:28Z</time>
      </trkpt>
      <trkpt lat="49.27059" lon="-0.45493">
        <ele>47.9</ele>
        <time>2021-02-23T09:21:29Z</time>
      </trkpt>
      <trkpt lat="49.27057" lon="-0.45492">
        <ele>47.9</ele>
        <time>2021-02-23T09:21:31Z</time>
      </trkpt>
      <trkpt lat="49.27054" lon="-0.45491">
        <ele>47.9</ele>
        <time>2021-02-23T09:21:32Z</time>
      </trkpt>
      <trkpt lat="49.27051" lon="-0.4549">
        <ele>47.9</ele>
        <time>2021-02-23T09:21:34Z</time>
      </trkpt>
      <trkpt lat="49.2705" lon="-0.4549">
        <ele>47.9</ele>
        <time>2021-02-23T09:21:35Z</time>
      </trkpt>
      <trkpt lat="49.27046" lon="-0.45488">
        <ele>47.9</ele>
        <time>2021-02-23T09:21:36Z</time>
      </trkpt>
      <trkpt lat="49.27045" lon="-0.45488">
        <ele>47.9</ele>
        <time>2021-02-23T09:21:37Z</time>
      </trkpt>
      <trkpt lat="49.27043" lon="-0.45487">
        <ele>47.9</ele>
        <time>2021-02-23T09:21:39Z</time>
      </trkpt>
      <trkpt lat="49.27042" lon="-0.45487">
        <ele>47.9</ele>
        <time>2021-02-23T09:21:40Z</time>
      </trkpt>
      <trkpt lat="49.2704" lon="-0.45486">
        <ele>47.9</ele>
        <time>2021-02-23T09:21:41Z</time>
      </trkpt>
      <trkpt lat="49.27038" lon="-0.45485">
        <ele>47.9</ele>
        <time>2021-02-23T09:21:43Z</time>
      </trkpt>
      <trkpt lat="49.27035" lon="-0.45484">
        <ele>47.9</ele>
        <time>2021-02-23T09:21:44Z</time>
      </trkpt>
      <trkpt lat="49.27034" lon="-0.45483">
        <ele>47.9</ele>
        <time>2021-02-23T09:21:45Z</time>
      </trkpt>
      <trkpt lat="49.27031" lon="-0.45482">
        <ele>47.9</ele>
        <time>2021-02-23T09:21:46Z</time>
      </trkpt>
      <trkpt lat="49.27027" lon="-0.45481">
        <ele>47.9</ele>
        <time>2021-02-23T09:21:48Z</time>
      </trkpt>
      <trkpt lat="49.27026" lon="-0.45481">
        <ele>47.9</ele>
        <time>2021-02-23T09:21:49Z</time>
      </trkpt>
      <trkpt lat="49.27022" lon="-0.4548">
        <ele>47.9</ele>
        <time>2021-02-23T09:21:51Z</time>
      </trkpt>
      <trkpt lat="49.27021" lon="-0.45479">
        <ele>47.9</ele>
        <time>2021-02-23T09:21:52Z</time>
      </trkpt>
      <trkpt lat="49.27018" lon="-0.45478">
        <ele>47.9</ele>
        <time>2021-02-23T09:21:54Z</time>
      </trkpt>
      <trkpt lat="49.27016" lon="-0.45477">
        <ele>47.9</ele>
        <time>2021-02-23T09:21:55Z</time>
      </trkpt>
      <trkpt lat="49.27014" lon="-0.45477">
        <ele>47.9</ele>
        <time>2021-02-23T09:21:57Z</time>
      </trkpt>
      <trkpt lat="49.27011" lon="-0.45476">
        <ele>47.9</ele>
        <time>2021-02-23T09:21:58Z</time>
      </trkpt>
      <trkpt lat="49.2701" lon="-0.45475">
        <ele>47.9</ele>
        <time>2021-02-23T09:21:59Z</time>
      </trkpt>
      <trkpt lat="49.27006" lon="-0.45474">
        <ele>47.9</ele>
        <time>2021-02-23T09:22:01Z</time>
      </trkpt>
      <trkpt lat="49.27004" lon="-0.45473">
        <ele>47.9</ele>
        <time>2021-02-23T09:22:02Z</time>
      </trkpt>
      <trkpt lat="49.27003" lon="-0.45472">
        <ele>47.9</ele>
        <time>2021-02-23T09:22:03Z</time>
      </trkpt>
      <trkpt lat="49.26999" lon="-0.45471">
        <ele>47.8</ele>
        <time>2021-02-23T09:22:05Z</time>
      </trkpt>
      <trkpt lat="49.26997" lon="-0.45471">
        <ele>47.8</ele>
        <time>2021-02-23T09:22:06Z</time>
      </trkpt>
      <trkpt lat="49.26995" lon="-0.4547">
        <ele>47.8</ele>
        <time>2021-02-23T09:22:07Z</time>
      </trkpt>
      <trkpt lat="49.26993" lon="-0.45469">
        <ele>47.8</ele>
        <time>2021-02-23T09:22:09Z</time>
      </trkpt>
      <trkpt lat="49.26991" lon="-0.45469">
        <ele>47.8</ele>
        <time>2021-02-23T09:22:10Z</time>
      </trkpt>
      <trkpt lat="49.26989" lon="-0.45468">
        <ele>47.8</ele>
        <time>2021-02-23T09:22:12Z</time>
      </trkpt>
      <trkpt lat="49.26987" lon="-0.45467">
        <ele>47.7</ele>
        <time>2021-02-23T09:22:13Z</time>
      </trkpt>
      <trkpt lat="49.26985" lon="-0.45467">
        <ele>47.7</ele>
        <time>2021-02-23T09:22:14Z</time>
      </trkpt>
      <trkpt lat="49.26983" lon="-0.45466">
        <ele>47.7</ele>
        <time>2021-02-23T09:22:16Z</time>
      </trkpt>
      <trkpt lat="49.2698" lon="-0.45466">
        <ele>47.7</ele>
        <time>2021-02-23T09:22:18Z</time>
      </trkpt>
      <trkpt lat="49.26978" lon="-0.45466">
        <ele>47.6</ele>
        <time>2021-02-23T09:22:19Z</time>
      </trkpt>
      <trkpt lat="49.26975" lon="-0.45465">
        <ele>47.6</ele>
        <time>2021-02-23T09:22:21Z</time>
      </trkpt>
      <trkpt lat="49.26971" lon="-0.45464">
        <ele>47.6</ele>
        <time>2021-02-23T09:22:22Z</time>
      </trkpt>
      <trkpt lat="49.2697" lon="-0.45463">
        <ele>47.5</ele>
        <time>2021-02-23T09:22:23Z</time>
      </trkpt>
      <trkpt lat="49.26967" lon="-0.45463">
        <ele>47.5</ele>
        <time>2021-02-23T09:22:24Z</time>
      </trkpt>
      <trkpt lat="49.26965" lon="-0.45462">
        <ele>47.5</ele>
        <time>2021-02-23T09:22:26Z</time>
      </trkpt>
      <trkpt lat="49.26962" lon="-0.45461">
        <ele>47.4</ele>
        <time>2021-02-23T09:22:28Z</time>
      </trkpt>
      <trkpt lat="49.26959" lon="-0.4546">
        <ele>47.4</ele>
        <time>2021-02-23T09:22:29Z</time>
      </trkpt>
      <trkpt lat="49.26957" lon="-0.45459">
        <ele>47.4</ele>
        <time>2021-02-23T09:22:31Z</time>
      </trkpt>
      <trkpt lat="49.26954" lon="-0.45459">
        <ele>47.4</ele>
        <time>2021-02-23T09:22:33Z</time>
      </trkpt>
      <trkpt lat="49.26953" lon="-0.45458">
        <ele>47.3</ele>
        <time>2021-02-23T09:22:34Z</time>
      </trkpt>
      <trkpt lat="49.26949" lon="-0.45457">
        <ele>47.3</ele>
        <time>2021-02-23T09:22:36Z</time>
      </trkpt>
      <trkpt lat="49.26947" lon="-0.45456">
        <ele>47.3</ele>
        <time>2021-02-23T09:22:37Z</time>
      </trkpt>
      <trkpt lat="49.26945" lon="-0.45456">
        <ele>47.3</ele>
        <time>2021-02-23T09:22:38Z</time>
      </trkpt>
      <trkpt lat="49.26943" lon="-0.45455">
        <ele>47.3</ele>
        <time>2021-02-23T09:22:39Z</time>
      </trkpt>
      <trkpt lat="49.26941" lon="-0.45455">
        <ele>47.2</ele>
        <time>2021-02-23T09:22:41Z</time>
      </trkpt>
      <trkpt lat="49.26938" lon="-0.45455">
        <ele>47.2</ele>
        <time>2021-02-23T09:22:42Z</time>
      </trkpt>
      <trkpt lat="49.26935" lon="-0.45455">
        <ele>47.2</ele>
        <time>2021-02-23T09:22:44Z</time>
      </trkpt>
      <trkpt lat="49.26933" lon="-0.45455">
        <ele>47.2</ele>
        <time>2021-02-23T09:22:45Z</time>
      </trkpt>
      <trkpt lat="49.2693" lon="-0.45455">
        <ele>47.2</ele>
        <time>2021-02-23T09:22:47Z</time>
      </trkpt>
      <trkpt lat="49.26929" lon="-0.45455">
        <ele>47.2</ele>
        <time>2021-02-23T09:22:48Z</time>
      </trkpt>
      <trkpt lat="49.26927" lon="-0.45456">
        <ele>47.1</ele>
        <time>2021-02-23T09:22:49Z</time>
      </trkpt>
      <trkpt lat="49.26924" lon="-0.45456">
        <ele>47.1</ele>
        <time>2021-02-23T09:22:51Z</time>
      </trkpt>
      <trkpt lat="49.26922" lon="-0.45456">
        <ele>47.1</ele>
        <time>2021-02-23T09:22:52Z</time>
      </trkpt>
      <trkpt lat="49.26919" lon="-0.45456">
        <ele>47.1</ele>
        <time>2021-02-23T09:22:54Z</time>
      </trkpt>
      <trkpt lat="49.26915" lon="-0.45455">
        <ele>47.1</ele>
        <time>2021-02-23T09:22:55Z</time>
      </trkpt>
      <trkpt lat="49.26913" lon="-0.45455">
        <ele>47.1</ele>
        <time>2021-02-23T09:22:56Z</time>
      </trkpt>
      <trkpt lat="49.26909" lon="-0.45455">
        <ele>47</ele>
        <time>2021-02-23T09:22:58Z</time>
      </trkpt>
      <trkpt lat="49.26908" lon="-0.45455">
        <ele>47</ele>
        <time>2021-02-23T09:22:59Z</time>
      </trkpt>
      <trkpt lat="49.26904" lon="-0.45455">
        <ele>47</ele>
        <time>2021-02-23T09:23:01Z</time>
      </trkpt>
      <trkpt lat="49.26903" lon="-0.45454">
        <ele>47</ele>
        <time>2021-02-23T09:23:02Z</time>
      </trkpt>
      <trkpt lat="49.26901" lon="-0.45454">
        <ele>47</ele>
        <time>2021-02-23T09:23:03Z</time>
      </trkpt>
      <trkpt lat="49.26899" lon="-0.45453">
        <ele>47</ele>
        <time>2021-02-23T09:23:05Z</time>
      </trkpt>
      <trkpt lat="49.26896" lon="-0.45453">
        <ele>47</ele>
        <time>2021-02-23T09:23:07Z</time>
      </trkpt>
      <trkpt lat="49.26895" lon="-0.45452">
        <ele>47</ele>
        <time>2021-02-23T09:23:08Z</time>
      </trkpt>
      <trkpt lat="49.26893" lon="-0.45452">
        <ele>47</ele>
        <time>2021-02-23T09:23:09Z</time>
      </trkpt>
      <trkpt lat="49.26891" lon="-0.45451">
        <ele>46.9</ele>
        <time>2021-02-23T09:23:11Z</time>
      </trkpt>
      <trkpt lat="49.26888" lon="-0.4545">
        <ele>46.9</ele>
        <time>2021-02-23T09:23:12Z</time>
      </trkpt>
      <trkpt lat="49.26886" lon="-0.45449">
        <ele>46.9</ele>
        <time>2021-02-23T09:23:14Z</time>
      </trkpt>
      <trkpt lat="49.26882" lon="-0.45448">
        <ele>46.9</ele>
        <time>2021-02-23T09:23:15Z</time>
      </trkpt>
      <trkpt lat="49.26882" lon="-0.45448">
        <ele>46.9</ele>
        <time>2021-02-23T09:23:16Z</time>
      </trkpt>
      <trkpt lat="49.26879" lon="-0.45448">
        <ele>46.9</ele>
        <time>2021-02-23T09:23:17Z</time>
      </trkpt>
      <trkpt lat="49.26875" lon="-0.45447">
        <ele>46.9</ele>
        <time>2021-02-23T09:23:19Z</time>
      </trkpt>
      <trkpt lat="49.26874" lon="-0.45447">
        <ele>46.9</ele>
        <time>2021-02-23T09:23:20Z</time>
      </trkpt>
      <trkpt lat="49.26872" lon="-0.45447">
        <ele>46.9</ele>
        <time>2021-02-23T09:23:21Z</time>
      </trkpt>
      <trkpt lat="49.26869" lon="-0.45446">
        <ele>46.9</ele>
        <time>2021-02-23T09:23:23Z</time>
      </trkpt>
      <trkpt lat="49.26867" lon="-0.45445">
        <ele>46.9</ele>
        <time>2021-02-23T09:23:25Z</time>
      </trkpt>
      <trkpt lat="49.26865" lon="-0.45444">
        <ele>46.9</ele>
        <time>2021-02-23T09:23:26Z</time>
      </trkpt>
      <trkpt lat="49.26863" lon="-0.45443">
        <ele>46.9</ele>
        <time>2021-02-23T09:23:28Z</time>
      </trkpt>
      <trkpt lat="49.26861" lon="-0.45442">
        <ele>46.9</ele>
        <time>2021-02-23T09:23:30Z</time>
      </trkpt>
      <trkpt lat="49.26858" lon="-0.45441">
        <ele>46.9</ele>
        <time>2021-02-23T09:23:32Z</time>
      </trkpt>
      <trkpt lat="49.26857" lon="-0.45441">
        <ele>46.9</ele>
        <time>2021-02-23T09:23:33Z</time>
      </trkpt>
      <trkpt lat="49.26854" lon="-0.4544">
        <ele>46.9</ele>
        <time>2021-02-23T09:23:35Z</time>
      </trkpt>
      <trkpt lat="49.26853" lon="-0.4544">
        <ele>46.9</ele>
        <time>2021-02-23T09:23:36Z</time>
      </trkpt>
      <trkpt lat="49.2685" lon="-0.45439">
        <ele>46.9</ele>
        <time>2021-02-23T09:23:38Z</time>
      </trkpt>
      <trkpt lat="49.26846" lon="-0.45438">
        <ele>46.9</ele>
        <time>2021-02-23T09:23:39Z</time>
      </trkpt>
      <trkpt lat="49.26845" lon="-0.45438">
        <ele>46.9</ele>
        <time>2021-02-23T09:23:40Z</time>
      </trkpt>
      <trkpt lat="49.26839" lon="-0.45435">
        <ele>46.9</ele>
        <time>2021-02-23T09:23:42Z</time>
      </trkpt>
      <trkpt lat="49.26836" lon="-0.45434">
        <ele>46.9</ele>
        <time>2021-02-23T09:23:43Z</time>
      </trkpt>
      <trkpt lat="49.26833" lon="-0.45433">
        <ele>46.9</ele>
        <time>2021-02-23T09:23:45Z</time>
      </trkpt>
      <trkpt lat="49.26831" lon="-0.45432">
        <ele>46.9</ele>
        <time>2021-02-23T09:23:46Z</time>
      </trkpt>
      <trkpt lat="49.26828" lon="-0.45431">
        <ele>46.9</ele>
        <time>2021-02-23T09:23:48Z</time>
      </trkpt>
      <trkpt lat="49.26826" lon="-0.4543">
        <ele>46.9</ele>
        <time>2021-02-23T09:23:49Z</time>
      </trkpt>
      <trkpt lat="49.26825" lon="-0.4543">
        <ele>46.9</ele>
        <time>2021-02-23T09:23:50Z</time>
      </trkpt>
      <trkpt lat="49.26821" lon="-0.45428">
        <ele>46.9</ele>
        <time>2021-02-23T09:23:52Z</time>
      </trkpt>
      <trkpt lat="49.2682" lon="-0.45428">
        <ele>46.9</ele>
        <time>2021-02-23T09:23:53Z</time>
      </trkpt>
      <trkpt lat="49.26817" lon="-0.45427">
        <ele>46.9</ele>
        <time>2021-02-23T09:23:55Z</time>
      </trkpt>
      <trkpt lat="49.26816" lon="-0.45427">
        <ele>46.9</ele>
        <time>2021-02-23T09:23:56Z</time>
      </trkpt>
      <trkpt lat="49.26814" lon="-0.45427">
        <ele>46.9</ele>
        <time>2021-02-23T09:23:58Z</time>
      </trkpt>
      <trkpt lat="49.26813" lon="-0.45426">
        <ele>46.9</ele>
        <time>2021-02-23T09:23:59Z</time>
      </trkpt>
      <trkpt lat="49.26811" lon="-0.45426">
        <ele>46.9</ele>
        <time>2021-02-23T09:24:00Z</time>
      </trkpt>
      <trkpt lat="49.26807" lon="-0.45424">
        <ele>46.9</ele>
        <time>2021-02-23T09:24:02Z</time>
      </trkpt>
      <trkpt lat="49.26804" lon="-0.45423">
        <ele>46.9</ele>
        <time>2021-02-23T09:24:03Z</time>
      </trkpt>
      <trkpt lat="49.26801" lon="-0.45422">
        <ele>46.9</ele>
        <time>2021-02-23T09:24:05Z</time>
      </trkpt>
      <trkpt lat="49.26797" lon="-0.4542">
        <ele>46.9</ele>
        <time>2021-02-23T09:24:07Z</time>
      </trkpt>
      <trkpt lat="49.26793" lon="-0.45419">
        <ele>46.9</ele>
        <time>2021-02-23T09:24:08Z</time>
      </trkpt>
      <trkpt lat="49.26792" lon="-0.45418">
        <ele>46.9</ele>
        <time>2021-02-23T09:24:09Z</time>
      </trkpt>
      <trkpt lat="49.26789" lon="-0.45417">
        <ele>46.9</ele>
        <time>2021-02-23T09:24:11Z</time>
      </trkpt>
      <trkpt lat="49.26788" lon="-0.45416">
        <ele>46.9</ele>
        <time>2021-02-23T09:24:12Z</time>
      </trkpt>
      <trkpt lat="49.26785" lon="-0.45415">
        <ele>46.9</ele>
        <time>2021-02-23T09:24:13Z</time>
      </trkpt>
      <trkpt lat="49.26783" lon="-0.45414">
        <ele>46.9</ele>
        <time>2021-02-23T09:24:15Z</time>
      </trkpt>
      <trkpt lat="49.26782" lon="-0.45414">
        <ele>46.9</ele>
        <time>2021-02-23T09:24:16Z</time>
      </trkpt>
      <trkpt lat="49.2678" lon="-0.45413">
        <ele>46.9</ele>
        <time>2021-02-23T09:24:17Z</time>
      </trkpt>
      <trkpt lat="49.26777" lon="-0.45412">
        <ele>46.9</ele>
        <time>2021-02-23T09:24:19Z</time>
      </trkpt>
      <trkpt lat="49.26773" lon="-0.4541">
        <ele>46.9</ele>
        <time>2021-02-23T09:24:20Z</time>
      </trkpt>
      <trkpt lat="49.26772" lon="-0.4541">
        <ele>46.9</ele>
        <time>2021-02-23T09:24:21Z</time>
      </trkpt>
      <trkpt lat="49.26768" lon="-0.45408">
        <ele>46.9</ele>
        <time>2021-02-23T09:24:23Z</time>
      </trkpt>
      <trkpt lat="49.26767" lon="-0.45408">
        <ele>46.9</ele>
        <time>2021-02-23T09:24:24Z</time>
      </trkpt>
      <trkpt lat="49.26764" lon="-0.45408">
        <ele>46.9</ele>
        <time>2021-02-23T09:24:26Z</time>
      </trkpt>
      <trkpt lat="49.26762" lon="-0.45407">
        <ele>46.9</ele>
        <time>2021-02-23T09:24:27Z</time>
      </trkpt>
      <trkpt lat="49.2676" lon="-0.45406">
        <ele>46.9</ele>
        <time>2021-02-23T09:24:29Z</time>
      </trkpt>
      <trkpt lat="49.26756" lon="-0.45405">
        <ele>46.9</ele>
        <time>2021-02-23T09:24:31Z</time>
      </trkpt>
      <trkpt lat="49.26753" lon="-0.45404">
        <ele>46.8</ele>
        <time>2021-02-23T09:24:32Z</time>
      </trkpt>
      <trkpt lat="49.26752" lon="-0.45404">
        <ele>46.8</ele>
        <time>2021-02-23T09:24:33Z</time>
      </trkpt>
      <trkpt lat="49.26749" lon="-0.45402">
        <ele>46.8</ele>
        <time>2021-02-23T09:24:34Z</time>
      </trkpt>
      <trkpt lat="49.26746" lon="-0.45401">
        <ele>46.8</ele>
        <time>2021-02-23T09:24:36Z</time>
      </trkpt>
      <trkpt lat="49.26744" lon="-0.45401">
        <ele>46.8</ele>
        <time>2021-02-23T09:24:37Z</time>
      </trkpt>
      <trkpt lat="49.26741" lon="-0.454">
        <ele>46.8</ele>
        <time>2021-02-23T09:24:39Z</time>
      </trkpt>
      <trkpt lat="49.2674" lon="-0.454">
        <ele>46.7</ele>
        <time>2021-02-23T09:24:40Z</time>
      </trkpt>
      <trkpt lat="49.26738" lon="-0.45399">
        <ele>46.7</ele>
        <time>2021-02-23T09:24:41Z</time>
      </trkpt>
      <trkpt lat="49.26737" lon="-0.45399">
        <ele>46.7</ele>
        <time>2021-02-23T09:24:42Z</time>
      </trkpt>
      <trkpt lat="49.26734" lon="-0.45398">
        <ele>46.7</ele>
        <time>2021-02-23T09:24:44Z</time>
      </trkpt>
      <trkpt lat="49.26731" lon="-0.45397">
        <ele>46.6</ele>
        <time>2021-02-23T09:24:45Z</time>
      </trkpt>
      <trkpt lat="49.2673" lon="-0.45397">
        <ele>46.6</ele>
        <time>2021-02-23T09:24:47Z</time>
      </trkpt>
      <trkpt lat="49.26727" lon="-0.45396">
        <ele>46.5</ele>
        <time>2021-02-23T09:24:48Z</time>
      </trkpt>
      <trkpt lat="49.26726" lon="-0.45395">
        <ele>46.5</ele>
        <time>2021-02-23T09:24:49Z</time>
      </trkpt>
      <trkpt lat="49.26723" lon="-0.45393">
        <ele>46.4</ele>
        <time>2021-02-23T09:24:51Z</time>
      </trkpt>
      <trkpt lat="49.26722" lon="-0.45392">
        <ele>46.4</ele>
        <time>2021-02-23T09:24:52Z</time>
      </trkpt>
      <trkpt lat="49.2672" lon="-0.45391">
        <ele>46.4</ele>
        <time>2021-02-23T09:24:53Z</time>
      </trkpt>
      <trkpt lat="49.26719" lon="-0.45388">
        <ele>46.3</ele>
        <time>2021-02-23T09:24:54Z</time>
      </trkpt>
      <trkpt lat="49.26719" lon="-0.45386">
        <ele>46</ele>
        <time>2021-02-23T09:24:55Z</time>
      </trkpt>
      <trkpt lat="49.26718" lon="-0.45384">
        <ele>46</ele>
        <time>2021-02-23T09:24:57Z</time>
      </trkpt>
      <trkpt lat="49.26718" lon="-0.45382">
        <ele>45.9</ele>
        <time>2021-02-23T09:24:58Z</time>
      </trkpt>
      <trkpt lat="49.26718" lon="-0.4538">
        <ele>45.9</ele>
        <time>2021-02-23T09:24:59Z</time>
      </trkpt>
      <trkpt lat="49.26718" lon="-0.45379">
        <ele>45.9</ele>
        <time>2021-02-23T09:25:00Z</time>
      </trkpt>
      <trkpt lat="49.26719" lon="-0.45377">
        <ele>45.8</ele>
        <time>2021-02-23T09:25:02Z</time>
      </trkpt>
      <trkpt lat="49.26719" lon="-0.45373">
        <ele>45.7</ele>
        <time>2021-02-23T09:25:04Z</time>
      </trkpt>
      <trkpt lat="49.26719" lon="-0.45371">
        <ele>45.7</ele>
        <time>2021-02-23T09:25:05Z</time>
      </trkpt>
      <trkpt lat="49.26719" lon="-0.45368">
        <ele>45.6</ele>
        <time>2021-02-23T09:25:06Z</time>
      </trkpt>
      <trkpt lat="49.26719" lon="-0.45363">
        <ele>45.5</ele>
        <time>2021-02-23T09:25:08Z</time>
      </trkpt>
      <trkpt lat="49.26719" lon="-0.4536">
        <ele>45.4</ele>
        <time>2021-02-23T09:25:09Z</time>
      </trkpt>
      <trkpt lat="49.26719" lon="-0.45358">
        <ele>45.3</ele>
        <time>2021-02-23T09:25:10Z</time>
      </trkpt>
      <trkpt lat="49.26719" lon="-0.45352">
        <ele>45.2</ele>
        <time>2021-02-23T09:25:12Z</time>
      </trkpt>
      <trkpt lat="49.26719" lon="-0.45349">
        <ele>45.1</ele>
        <time>2021-02-23T09:25:13Z</time>
      </trkpt>
      <trkpt lat="49.26719" lon="-0.45343">
        <ele>44.9</ele>
        <time>2021-02-23T09:25:15Z</time>
      </trkpt>
      <trkpt lat="49.26719" lon="-0.4534">
        <ele>44.8</ele>
        <time>2021-02-23T09:25:16Z</time>
      </trkpt>
      <trkpt lat="49.26721" lon="-0.45328">
        <ele>44.4</ele>
        <time>2021-02-23T09:25:18Z</time>
      </trkpt>
      <trkpt lat="49.26721" lon="-0.45323">
        <ele>44.3</ele>
        <time>2021-02-23T09:25:19Z</time>
      </trkpt>
      <trkpt lat="49.26721" lon="-0.45322">
        <ele>44.3</ele>
        <time>2021-02-23T09:25:20Z</time>
      </trkpt>
      <trkpt lat="49.26722" lon="-0.45319">
        <ele>44.2</ele>
        <time>2021-02-23T09:25:21Z</time>
      </trkpt>
      <trkpt lat="49.26722" lon="-0.45313">
        <ele>44</ele>
        <time>2021-02-23T09:25:23Z</time>
      </trkpt>
      <trkpt lat="49.26723" lon="-0.45311">
        <ele>43.9</ele>
        <time>2021-02-23T09:25:24Z</time>
      </trkpt>
      <trkpt lat="49.26723" lon="-0.45308">
        <ele>43.8</ele>
        <time>2021-02-23T09:25:25Z</time>
      </trkpt>
      <trkpt lat="49.26723" lon="-0.45303">
        <ele>43.7</ele>
        <time>2021-02-23T09:25:27Z</time>
      </trkpt>
      <trkpt lat="49.26723" lon="-0.45301">
        <ele>43.6</ele>
        <time>2021-02-23T09:25:28Z</time>
      </trkpt>
      <trkpt lat="49.26722" lon="-0.45296">
        <ele>43.4</ele>
        <time>2021-02-23T09:25:30Z</time>
      </trkpt>
      <trkpt lat="49.26722" lon="-0.45293">
        <ele>43.3</ele>
        <time>2021-02-23T09:25:31Z</time>
      </trkpt>
      <trkpt lat="49.26722" lon="-0.45289">
        <ele>43.1</ele>
        <time>2021-02-23T09:25:33Z</time>
      </trkpt>
      <trkpt lat="49.26723" lon="-0.45284">
        <ele>42.9</ele>
        <time>2021-02-23T09:25:35Z</time>
      </trkpt>
      <trkpt lat="49.26723" lon="-0.45282">
        <ele>42.8</ele>
        <time>2021-02-23T09:25:36Z</time>
      </trkpt>
      <trkpt lat="49.26723" lon="-0.45279">
        <ele>42.7</ele>
        <time>2021-02-23T09:25:38Z</time>
      </trkpt>
      <trkpt lat="49.26723" lon="-0.45278">
        <ele>42.7</ele>
        <time>2021-02-23T09:25:39Z</time>
      </trkpt>
      <trkpt lat="49.26723" lon="-0.45277">
        <ele>42.6</ele>
        <time>2021-02-23T09:25:41Z</time>
      </trkpt>
      <trkpt lat="49.26723" lon="-0.45275">
        <ele>42.5</ele>
        <time>2021-02-23T09:25:43Z</time>
      </trkpt>
      <trkpt lat="49.26722" lon="-0.45271">
        <ele>42.3</ele>
        <time>2021-02-23T09:25:45Z</time>
      </trkpt>
      <trkpt lat="49.26722" lon="-0.45269">
        <ele>42.2</ele>
        <time>2021-02-23T09:25:46Z</time>
      </trkpt>
      <trkpt lat="49.26721" lon="-0.45265">
        <ele>42</ele>
        <time>2021-02-23T09:25:48Z</time>
      </trkpt>
      <trkpt lat="49.26721" lon="-0.45263">
        <ele>41.9</ele>
        <time>2021-02-23T09:25:49Z</time>
      </trkpt>
      <trkpt lat="49.26721" lon="-0.45258">
        <ele>41.6</ele>
        <time>2021-02-23T09:25:51Z</time>
      </trkpt>
      <trkpt lat="49.26721" lon="-0.45256">
        <ele>41.4</ele>
        <time>2021-02-23T09:25:52Z</time>
      </trkpt>
      <trkpt lat="49.26721" lon="-0.45252">
        <ele>41.1</ele>
        <time>2021-02-23T09:25:54Z</time>
      </trkpt>
      <trkpt lat="49.26721" lon="-0.45247">
        <ele>40.7</ele>
        <time>2021-02-23T09:25:55Z</time>
      </trkpt>
      <trkpt lat="49.26721" lon="-0.45245">
        <ele>40.6</ele>
        <time>2021-02-23T09:25:56Z</time>
      </trkpt>
      <trkpt lat="49.26721" lon="-0.4524">
        <ele>40.1</ele>
        <time>2021-02-23T09:25:58Z</time>
      </trkpt>
      <trkpt lat="49.26721" lon="-0.45238">
        <ele>39.8</ele>
        <time>2021-02-23T09:25:59Z</time>
      </trkpt>
      <trkpt lat="49.26722" lon="-0.45233">
        <ele>39.3</ele>
        <time>2021-02-23T09:26:01Z</time>
      </trkpt>
      <trkpt lat="49.26722" lon="-0.45232">
        <ele>39.1</ele>
        <time>2021-02-23T09:26:02Z</time>
      </trkpt>
      <trkpt lat="49.26722" lon="-0.45229">
        <ele>38.8</ele>
        <time>2021-02-23T09:26:03Z</time>
      </trkpt>
      <trkpt lat="49.26722" lon="-0.45226">
        <ele>38.4</ele>
        <time>2021-02-23T09:26:05Z</time>
      </trkpt>
      <trkpt lat="49.26721" lon="-0.45224">
        <ele>38.1</ele>
        <time>2021-02-23T09:26:06Z</time>
      </trkpt>
      <trkpt lat="49.2672" lon="-0.45223">
        <ele>37.8</ele>
        <time>2021-02-23T09:26:07Z</time>
      </trkpt>
      <trkpt lat="49.26719" lon="-0.45223">
        <ele>37.6</ele>
        <time>2021-02-23T09:26:08Z</time>
      </trkpt>
      <trkpt lat="49.26719" lon="-0.45225">
        <ele>37.1</ele>
        <time>2021-02-23T09:26:10Z</time>
      </trkpt>
      <trkpt lat="49.26717" lon="-0.45224">
        <ele>36.7</ele>
        <time>2021-02-23T09:26:12Z</time>
      </trkpt>
      <trkpt lat="49.26716" lon="-0.45222">
        <ele>36.3</ele>
        <time>2021-02-23T09:26:13Z</time>
      </trkpt>
      <trkpt lat="49.26714" lon="-0.4522">
        <ele>35.7</ele>
        <time>2021-02-23T09:26:15Z</time>
      </trkpt>
      <trkpt lat="49.26712" lon="-0.45218">
        <ele>35</ele>
        <time>2021-02-23T09:26:16Z</time>
      </trkpt>
      <trkpt lat="49.26711" lon="-0.45217">
        <ele>34.8</ele>
        <time>2021-02-23T09:26:17Z</time>
      </trkpt>
      <trkpt lat="49.26708" lon="-0.45215">
        <ele>34.2</ele>
        <time>2021-02-23T09:26:19Z</time>
      </trkpt>
      <trkpt lat="49.26707" lon="-0.45215">
        <ele>33.9</ele>
        <time>2021-02-23T09:26:20Z</time>
      </trkpt>
      <trkpt lat="49.26706" lon="-0.45214">
        <ele>33.5</ele>
        <time>2021-02-23T09:26:21Z</time>
      </trkpt>
      <trkpt lat="49.26704" lon="-0.45214">
        <ele>33</ele>
        <time>2021-02-23T09:26:23Z</time>
      </trkpt>
      <trkpt lat="49.26701" lon="-0.45213">
        <ele>32.4</ele>
        <time>2021-02-23T09:26:24Z</time>
      </trkpt>
      <trkpt lat="49.26696" lon="-0.45213">
        <ele>31.3</ele>
        <time>2021-02-23T09:26:26Z</time>
      </trkpt>
      <trkpt lat="49.26694" lon="-0.45214">
        <ele>30.9</ele>
        <time>2021-02-23T09:26:27Z</time>
      </trkpt>
      <trkpt lat="49.26691" lon="-0.45212">
        <ele>30.2</ele>
        <time>2021-02-23T09:26:29Z</time>
      </trkpt>
      <trkpt lat="49.26687" lon="-0.45211">
        <ele>29.4</ele>
        <time>2021-02-23T09:26:30Z</time>
      </trkpt>
      <trkpt lat="49.26685" lon="-0.45211">
        <ele>28.9</ele>
        <time>2021-02-23T09:26:31Z</time>
      </trkpt>
      <trkpt lat="49.26683" lon="-0.45211">
        <ele>28.4</ele>
        <time>2021-02-23T09:26:33Z</time>
      </trkpt>
      <trkpt lat="49.26681" lon="-0.4521">
        <ele>28</ele>
        <time>2021-02-23T09:26:35Z</time>
      </trkpt>
      <trkpt lat="49.2668" lon="-0.4521">
        <ele>27.7</ele>
        <time>2021-02-23T09:26:36Z</time>
      </trkpt>
      <trkpt lat="49.26677" lon="-0.45209">
        <ele>27.1</ele>
        <time>2021-02-23T09:26:38Z</time>
      </trkpt>
      <trkpt lat="49.26674" lon="-0.45208">
        <ele>26.6</ele>
        <time>2021-02-23T09:26:39Z</time>
      </trkpt>
      <trkpt lat="49.26671" lon="-0.45206">
        <ele>25.9</ele>
        <time>2021-02-23T09:26:40Z</time>
      </trkpt>
      <trkpt lat="49.26667" lon="-0.45201">
        <ele>25</ele>
        <time>2021-02-23T09:26:42Z</time>
      </trkpt>
      <trkpt lat="49.26665" lon="-0.45199">
        <ele>24.6</ele>
        <time>2021-02-23T09:26:43Z</time>
      </trkpt>
      <trkpt lat="49.26663" lon="-0.45197">
        <ele>24.3</ele>
        <time>2021-02-23T09:26:44Z</time>
      </trkpt>
      <trkpt lat="49.2666" lon="-0.45193">
        <ele>23.6</ele>
        <time>2021-02-23T09:26:46Z</time>
      </trkpt>
      <trkpt lat="49.26659" lon="-0.45191">
        <ele>23.4</ele>
        <time>2021-02-23T09:26:47Z</time>
      </trkpt>
      <trkpt lat="49.26658" lon="-0.45189">
        <ele>23.2</ele>
        <time>2021-02-23T09:26:48Z</time>
      </trkpt>
      <trkpt lat="49.26657" lon="-0.45185">
        <ele>22.8</ele>
        <time>2021-02-23T09:26:49Z</time>
      </trkpt>
      <trkpt lat="49.26655" lon="-0.45179">
        <ele>22.3</ele>
        <time>2021-02-23T09:26:51Z</time>
      </trkpt>
      <trkpt lat="49.26655" lon="-0.45176">
        <ele>22.1</ele>
        <time>2021-02-23T09:26:52Z</time>
      </trkpt>
      <trkpt lat="49.26654" lon="-0.45174">
        <ele>21.9</ele>
        <time>2021-02-23T09:26:53Z</time>
      </trkpt>
      <trkpt lat="49.26653" lon="-0.45167">
        <ele>21.4</ele>
        <time>2021-02-23T09:26:55Z</time>
      </trkpt>
      <trkpt lat="49.26652" lon="-0.45164">
        <ele>21.3</ele>
        <time>2021-02-23T09:26:56Z</time>
      </trkpt>
      <trkpt lat="49.26652" lon="-0.45162">
        <ele>21.2</ele>
        <time>2021-02-23T09:26:57Z</time>
      </trkpt>
      <trkpt lat="49.26652" lon="-0.45156">
        <ele>20.9</ele>
        <time>2021-02-23T09:26:58Z</time>
      </trkpt>
      <trkpt lat="49.26651" lon="-0.45152">
        <ele>20.8</ele>
        <time>2021-02-23T09:27:00Z</time>
      </trkpt>
      <trkpt lat="49.2665" lon="-0.45147">
        <ele>20.6</ele>
        <time>2021-02-23T09:27:01Z</time>
      </trkpt>
      <trkpt lat="49.2665" lon="-0.45143">
        <ele>20.5</ele>
        <time>2021-02-23T09:27:02Z</time>
      </trkpt>
      <trkpt lat="49.2665" lon="-0.45138">
        <ele>20.3</ele>
        <time>2021-02-23T09:27:04Z</time>
      </trkpt>
      <trkpt lat="49.26651" lon="-0.45134">
        <ele>20.2</ele>
        <time>2021-02-23T09:27:06Z</time>
      </trkpt>
      <trkpt lat="49.2665" lon="-0.4513">
        <ele>20.1</ele>
        <time>2021-02-23T09:27:07Z</time>
      </trkpt>
      <trkpt lat="49.2665" lon="-0.45126">
        <ele>20.1</ele>
        <time>2021-02-23T09:27:09Z</time>
      </trkpt>
      <trkpt lat="49.2665" lon="-0.45122">
        <ele>20</ele>
        <time>2021-02-23T09:27:10Z</time>
      </trkpt>
      <trkpt lat="49.2665" lon="-0.4512">
        <ele>20</ele>
        <time>2021-02-23T09:27:11Z</time>
      </trkpt>
      <trkpt lat="49.26649" lon="-0.45116">
        <ele>19.9</ele>
        <time>2021-02-23T09:27:12Z</time>
      </trkpt>
      <trkpt lat="49.26649" lon="-0.4511">
        <ele>19.8</ele>
        <time>2021-02-23T09:27:14Z</time>
      </trkpt>
      <trkpt lat="49.2665" lon="-0.45108">
        <ele>19.8</ele>
        <time>2021-02-23T09:27:15Z</time>
      </trkpt>
      <trkpt lat="49.2665" lon="-0.45105">
        <ele>19.8</ele>
        <time>2021-02-23T09:27:16Z</time>
      </trkpt>
      <trkpt lat="49.2665" lon="-0.451">
        <ele>19.7</ele>
        <time>2021-02-23T09:27:18Z</time>
      </trkpt>
      <trkpt lat="49.2665" lon="-0.45096">
        <ele>19.7</ele>
        <time>2021-02-23T09:27:20Z</time>
      </trkpt>
      <trkpt lat="49.2665" lon="-0.45093">
        <ele>19.7</ele>
        <time>2021-02-23T09:27:21Z</time>
      </trkpt>
      <trkpt lat="49.2665" lon="-0.45091">
        <ele>19.7</ele>
        <time>2021-02-23T09:27:22Z</time>
      </trkpt>
      <trkpt lat="49.2665" lon="-0.45083">
        <ele>19.6</ele>
        <time>2021-02-23T09:27:24Z</time>
      </trkpt>
      <trkpt lat="49.26651" lon="-0.45081">
        <ele>19.6</ele>
        <time>2021-02-23T09:27:25Z</time>
      </trkpt>
      <trkpt lat="49.26651" lon="-0.45079">
        <ele>19.6</ele>
        <time>2021-02-23T09:27:26Z</time>
      </trkpt>
      <trkpt lat="49.2665" lon="-0.45073">
        <ele>19.6</ele>
        <time>2021-02-23T09:27:28Z</time>
      </trkpt>
      <trkpt lat="49.26649" lon="-0.45072">
        <ele>19.6</ele>
        <time>2021-02-23T09:27:29Z</time>
      </trkpt>
      <trkpt lat="49.26648" lon="-0.45066">
        <ele>19.6</ele>
        <time>2021-02-23T09:27:30Z</time>
      </trkpt>
      <trkpt lat="49.26648" lon="-0.45064">
        <ele>19.6</ele>
        <time>2021-02-23T09:27:31Z</time>
      </trkpt>
      <trkpt lat="49.26647" lon="-0.45059">
        <ele>19.6</ele>
        <time>2021-02-23T09:27:33Z</time>
      </trkpt>
      <trkpt lat="49.26647" lon="-0.45057">
        <ele>19.6</ele>
        <time>2021-02-23T09:27:34Z</time>
      </trkpt>
      <trkpt lat="49.26646" lon="-0.45052">
        <ele>19.6</ele>
        <time>2021-02-23T09:27:36Z</time>
      </trkpt>
      <trkpt lat="49.26645" lon="-0.4505">
        <ele>19.6</ele>
        <time>2021-02-23T09:27:37Z</time>
      </trkpt>
      <trkpt lat="49.26645" lon="-0.45047">
        <ele>19.6</ele>
        <time>2021-02-23T09:27:39Z</time>
      </trkpt>
      <trkpt lat="49.26643" lon="-0.45042">
        <ele>19.6</ele>
        <time>2021-02-23T09:27:41Z</time>
      </trkpt>
      <trkpt lat="49.26643" lon="-0.4504">
        <ele>19.6</ele>
        <time>2021-02-23T09:27:42Z</time>
      </trkpt>
      <trkpt lat="49.26642" lon="-0.45036">
        <ele>19.6</ele>
        <time>2021-02-23T09:27:44Z</time>
      </trkpt>
      <trkpt lat="49.26641" lon="-0.45035">
        <ele>19.7</ele>
        <time>2021-02-23T09:27:45Z</time>
      </trkpt>
      <trkpt lat="49.26639" lon="-0.45031">
        <ele>19.7</ele>
        <time>2021-02-23T09:27:47Z</time>
      </trkpt>
      <trkpt lat="49.26638" lon="-0.45027">
        <ele>19.7</ele>
        <time>2021-02-23T09:27:48Z</time>
      </trkpt>
      <trkpt lat="49.26638" lon="-0.45025">
        <ele>19.7</ele>
        <time>2021-02-23T09:27:49Z</time>
      </trkpt>
      <trkpt lat="49.26636" lon="-0.45021">
        <ele>19.8</ele>
        <time>2021-02-23T09:27:50Z</time>
      </trkpt>
      <trkpt lat="49.26634" lon="-0.45015">
        <ele>19.8</ele>
        <time>2021-02-23T09:27:52Z</time>
      </trkpt>
      <trkpt lat="49.26633" lon="-0.45012">
        <ele>19.8</ele>
        <time>2021-02-23T09:27:54Z</time>
      </trkpt>
      <trkpt lat="49.26632" lon="-0.4501">
        <ele>19.9</ele>
        <time>2021-02-23T09:27:55Z</time>
      </trkpt>
      <trkpt lat="49.2663" lon="-0.45006">
        <ele>19.9</ele>
        <time>2021-02-23T09:27:56Z</time>
      </trkpt>
      <trkpt lat="49.2663" lon="-0.45004">
        <ele>19.9</ele>
        <time>2021-02-23T09:27:58Z</time>
      </trkpt>
      <trkpt lat="49.26629" lon="-0.45002">
        <ele>19.9</ele>
        <time>2021-02-23T09:27:59Z</time>
      </trkpt>
      <trkpt lat="49.26629" lon="-0.44999">
        <ele>19.9</ele>
        <time>2021-02-23T09:28:00Z</time>
      </trkpt>
      <trkpt lat="49.26627" lon="-0.44994">
        <ele>19.9</ele>
        <time>2021-02-23T09:28:02Z</time>
      </trkpt>
      <trkpt lat="49.26627" lon="-0.44993">
        <ele>19.9</ele>
        <time>2021-02-23T09:28:03Z</time>
      </trkpt>
      <trkpt lat="49.26626" lon="-0.44991">
        <ele>19.9</ele>
        <time>2021-02-23T09:28:04Z</time>
      </trkpt>
      <trkpt lat="49.26625" lon="-0.44989">
        <ele>19.9</ele>
        <time>2021-02-23T09:28:05Z</time>
      </trkpt>
      <trkpt lat="49.26624" lon="-0.44987">
        <ele>19.9</ele>
        <time>2021-02-23T09:28:06Z</time>
      </trkpt>
      <trkpt lat="49.26623" lon="-0.44986">
        <ele>20</ele>
        <time>2021-02-23T09:28:07Z</time>
      </trkpt>
      <trkpt lat="49.26618" lon="-0.44987">
        <ele>20</ele>
        <time>2021-02-23T09:28:09Z</time>
      </trkpt>
      <trkpt lat="49.26616" lon="-0.44987">
        <ele>20</ele>
        <time>2021-02-23T09:28:11Z</time>
      </trkpt>
      <trkpt lat="49.26615" lon="-0.44988">
        <ele>20</ele>
        <time>2021-02-23T09:28:12Z</time>
      </trkpt>
      <trkpt lat="49.26611" lon="-0.44988">
        <ele>20</ele>
        <time>2021-02-23T09:28:14Z</time>
      </trkpt>
      <trkpt lat="49.26609" lon="-0.44989">
        <ele>20</ele>
        <time>2021-02-23T09:28:15Z</time>
      </trkpt>
      <trkpt lat="49.26606" lon="-0.4499">
        <ele>20</ele>
        <time>2021-02-23T09:28:17Z</time>
      </trkpt>
      <trkpt lat="49.26603" lon="-0.44991">
        <ele>20</ele>
        <time>2021-02-23T09:28:18Z</time>
      </trkpt>
      <trkpt lat="49.26598" lon="-0.44993">
        <ele>20</ele>
        <time>2021-02-23T09:28:20Z</time>
      </trkpt>
      <trkpt lat="49.26597" lon="-0.44994">
        <ele>20</ele>
        <time>2021-02-23T09:28:22Z</time>
      </trkpt>
      <trkpt lat="49.26595" lon="-0.44995">
        <ele>20</ele>
        <time>2021-02-23T09:28:23Z</time>
      </trkpt>
      <trkpt lat="49.26593" lon="-0.44996">
        <ele>20.1</ele>
        <time>2021-02-23T09:28:24Z</time>
      </trkpt>
      <trkpt lat="49.26591" lon="-0.44998">
        <ele>20.1</ele>
        <time>2021-02-23T09:28:26Z</time>
      </trkpt>
      <trkpt lat="49.26589" lon="-0.45">
        <ele>20.1</ele>
        <time>2021-02-23T09:28:28Z</time>
      </trkpt>
      <trkpt lat="49.26586" lon="-0.45001">
        <ele>20.1</ele>
        <time>2021-02-23T09:28:29Z</time>
      </trkpt>
      <trkpt lat="49.26585" lon="-0.45001">
        <ele>20.1</ele>
        <time>2021-02-23T09:28:30Z</time>
      </trkpt>
      <trkpt lat="49.26582" lon="-0.45002">
        <ele>20.1</ele>
        <time>2021-02-23T09:28:32Z</time>
      </trkpt>
      <trkpt lat="49.26581" lon="-0.45002">
        <ele>20.1</ele>
        <time>2021-02-23T09:28:33Z</time>
      </trkpt>
      <trkpt lat="49.26579" lon="-0.45003">
        <ele>20.1</ele>
        <time>2021-02-23T09:28:35Z</time>
      </trkpt>
      <trkpt lat="49.26576" lon="-0.45003">
        <ele>20.1</ele>
        <time>2021-02-23T09:28:37Z</time>
      </trkpt>
      <trkpt lat="49.26572" lon="-0.45003">
        <ele>20.1</ele>
        <time>2021-02-23T09:28:38Z</time>
      </trkpt>
      <trkpt lat="49.26571" lon="-0.45003">
        <ele>20.1</ele>
        <time>2021-02-23T09:28:39Z</time>
      </trkpt>
      <trkpt lat="49.26568" lon="-0.45004">
        <ele>20.1</ele>
        <time>2021-02-23T09:28:40Z</time>
      </trkpt>
      <trkpt lat="49.26567" lon="-0.45004">
        <ele>20.1</ele>
        <time>2021-02-23T09:28:41Z</time>
      </trkpt>
      <trkpt lat="49.26565" lon="-0.45005">
        <ele>20.1</ele>
        <time>2021-02-23T09:28:43Z</time>
      </trkpt>
      <trkpt lat="49.26563" lon="-0.45007">
        <ele>20.1</ele>
        <time>2021-02-23T09:28:45Z</time>
      </trkpt>
      <trkpt lat="49.26563" lon="-0.45009">
        <ele>20.1</ele>
        <time>2021-02-23T09:28:46Z</time>
      </trkpt>
      <trkpt lat="49.26561" lon="-0.4501">
        <ele>20.1</ele>
        <time>2021-02-23T09:28:48Z</time>
      </trkpt>
      <trkpt lat="49.26561" lon="-0.4501">
        <ele>20.1</ele>
        <time>2021-02-23T09:28:49Z</time>
      </trkpt>
      <trkpt lat="49.2656" lon="-0.45014">
        <ele>20.1</ele>
        <time>2021-02-23T09:28:51Z</time>
      </trkpt>
      <trkpt lat="49.2656" lon="-0.45015">
        <ele>20.1</ele>
        <time>2021-02-23T09:28:52Z</time>
      </trkpt>
      <trkpt lat="49.2656" lon="-0.45016">
        <ele>20.1</ele>
        <time>2021-02-23T09:28:53Z</time>
      </trkpt>
      <trkpt lat="49.2656" lon="-0.45016">
        <ele>20.1</ele>
        <time>2021-02-23T09:28:55Z</time>
      </trkpt>
      <trkpt lat="49.2656" lon="-0.45016">
        <ele>20.1</ele>
        <time>2021-02-23T09:28:56Z</time>
      </trkpt>
      <trkpt lat="49.2656" lon="-0.45014">
        <ele>20.1</ele>
        <time>2021-02-23T09:28:57Z</time>
      </trkpt>
      <trkpt lat="49.2656" lon="-0.45013">
        <ele>20.1</ele>
        <time>2021-02-23T09:28:59Z</time>
      </trkpt>
      <trkpt lat="49.26559" lon="-0.45012">
        <ele>20.1</ele>
        <time>2021-02-23T09:29:01Z</time>
      </trkpt>
      <trkpt lat="49.26558" lon="-0.45012">
        <ele>20.1</ele>
        <time>2021-02-23T09:29:02Z</time>
      </trkpt>
      <trkpt lat="49.26557" lon="-0.4501">
        <ele>20.1</ele>
        <time>2021-02-23T09:29:04Z</time>
      </trkpt>
      <trkpt lat="49.26558" lon="-0.45008">
        <ele>20.1</ele>
        <time>2021-02-23T09:29:06Z</time>
      </trkpt>
      <trkpt lat="49.26559" lon="-0.45007">
        <ele>20.2</ele>
        <time>2021-02-23T09:29:08Z</time>
      </trkpt>
      <trkpt lat="49.26559" lon="-0.45006">
        <ele>20.2</ele>
        <time>2021-02-23T09:29:09Z</time>
      </trkpt>
      <trkpt lat="49.2656" lon="-0.45005">
        <ele>20.2</ele>
        <time>2021-02-23T09:29:11Z</time>
      </trkpt>
      <trkpt lat="49.2656" lon="-0.45005">
        <ele>20.2</ele>
        <time>2021-02-23T09:29:12Z</time>
      </trkpt>
      <trkpt lat="49.26561" lon="-0.45004">
        <ele>20.2</ele>
        <time>2021-02-23T09:29:14Z</time>
      </trkpt>
      <trkpt lat="49.26561" lon="-0.45004">
        <ele>20.2</ele>
        <time>2021-02-23T09:29:15Z</time>
      </trkpt>
      <trkpt lat="49.26562" lon="-0.45003">
        <ele>20.2</ele>
        <time>2021-02-23T09:29:17Z</time>
      </trkpt>
      <trkpt lat="49.26563" lon="-0.45003">
        <ele>20.2</ele>
        <time>2021-02-23T09:29:19Z</time>
      </trkpt>
      <trkpt lat="49.26562" lon="-0.45002">
        <ele>20.2</ele>
        <time>2021-02-23T09:29:20Z</time>
      </trkpt>
      <trkpt lat="49.26562" lon="-0.45002">
        <ele>20.2</ele>
        <time>2021-02-23T09:29:21Z</time>
      </trkpt>
      <trkpt lat="49.26563" lon="-0.45001">
        <ele>20.2</ele>
        <time>2021-02-23T09:29:23Z</time>
      </trkpt>
      <trkpt lat="49.26563" lon="-0.45001">
        <ele>20.2</ele>
        <time>2021-02-23T09:29:24Z</time>
      </trkpt>
      <trkpt lat="49.26563" lon="-0.45002">
        <ele>20.2</ele>
        <time>2021-02-23T09:29:26Z</time>
      </trkpt>
      <trkpt lat="49.26563" lon="-0.45002">
        <ele>20.2</ele>
        <time>2021-02-23T09:29:28Z</time>
      </trkpt>
      <trkpt lat="49.26563" lon="-0.45002">
        <ele>20.2</ele>
        <time>2021-02-23T09:29:29Z</time>
      </trkpt>
      <trkpt lat="49.26563" lon="-0.45002">
        <ele>20.2</ele>
        <time>2021-02-23T09:29:31Z</time>
      </trkpt>
      <trkpt lat="49.26563" lon="-0.45002">
        <ele>20.2</ele>
        <time>2021-02-23T09:29:33Z</time>
      </trkpt>
      <trkpt lat="49.26563" lon="-0.45002">
        <ele>20.2</ele>
        <time>2021-02-23T09:29:34Z</time>
      </trkpt>
      <trkpt lat="49.26563" lon="-0.45002">
        <ele>20.2</ele>
        <time>2021-02-23T09:29:36Z</time>
      </trkpt>
      <trkpt lat="49.26564" lon="-0.45002">
        <ele>20.2</ele>
        <time>2021-02-23T09:29:38Z</time>
      </trkpt>
      <trkpt lat="49.26564" lon="-0.45003">
        <ele>20.2</ele>
        <time>2021-02-23T09:29:39Z</time>
      </trkpt>
      <trkpt lat="49.26563" lon="-0.45004">
        <ele>20.2</ele>
        <time>2021-02-23T09:29:41Z</time>
      </trkpt>
      <trkpt lat="49.26561" lon="-0.45004">
        <ele>20.2</ele>
        <time>2021-02-23T09:29:43Z</time>
      </trkpt>
      <trkpt lat="49.26561" lon="-0.45004">
        <ele>20.2</ele>
        <time>2021-02-23T09:29:44Z</time>
      </trkpt>
      <trkpt lat="49.26561" lon="-0.45004">
        <ele>20.2</ele>
        <time>2021-02-23T09:29:46Z</time>
      </trkpt>
      <trkpt lat="49.26561" lon="-0.45003">
        <ele>20.2</ele>
        <time>2021-02-23T09:29:48Z</time>
      </trkpt>
      <trkpt lat="49.2656" lon="-0.45003">
        <ele>20.2</ele>
        <time>2021-02-23T09:29:49Z</time>
      </trkpt>
      <trkpt lat="49.2656" lon="-0.45003">
        <ele>20.2</ele>
        <time>2021-02-23T09:29:51Z</time>
      </trkpt>
      <trkpt lat="49.2656" lon="-0.45003">
        <ele>20.2</ele>
        <time>2021-02-23T09:29:52Z</time>
      </trkpt>
      <trkpt lat="49.2656" lon="-0.45003">
        <ele>20.2</ele>
        <time>2021-02-23T09:29:53Z</time>
      </trkpt>
      <trkpt lat="49.2656" lon="-0.45003">
        <ele>20.2</ele>
        <time>2021-02-23T09:29:55Z</time>
      </trkpt>
      <trkpt lat="49.2656" lon="-0.45003">
        <ele>20.2</ele>
        <time>2021-02-23T09:29:57Z</time>
      </trkpt>
      <trkpt lat="49.2656" lon="-0.45002">
        <ele>20.2</ele>
        <time>2021-02-23T09:29:58Z</time>
      </trkpt>
      <trkpt lat="49.26561" lon="-0.45002">
        <ele>20.2</ele>
        <time>2021-02-23T09:29:59Z</time>
      </trkpt>
      <trkpt lat="49.26561" lon="-0.45002">
        <ele>20.2</ele>
        <time>2021-02-23T09:30:01Z</time>
      </trkpt>
      <trkpt lat="49.26561" lon="-0.45001">
        <ele>20.2</ele>
        <time>2021-02-23T09:30:02Z</time>
      </trkpt>
      <trkpt lat="49.26561" lon="-0.45001">
        <ele>20.2</ele>
        <time>2021-02-23T09:30:04Z</time>
      </trkpt>
      <trkpt lat="49.26561" lon="-0.45">
        <ele>20.2</ele>
        <time>2021-02-23T09:30:05Z</time>
      </trkpt>
      <trkpt lat="49.26561" lon="-0.45">
        <ele>20.2</ele>
        <time>2021-02-23T09:30:07Z</time>
      </trkpt>
      <trkpt lat="49.26561" lon="-0.45">
        <ele>20.2</ele>
        <time>2021-02-23T09:30:08Z</time>
      </trkpt>
      <trkpt lat="49.26561" lon="-0.45">
        <ele>20.2</ele>
        <time>2021-02-23T09:30:10Z</time>
      </trkpt>
      <trkpt lat="49.26561" lon="-0.45">
        <ele>20.2</ele>
        <time>2021-02-23T09:30:11Z</time>
      </trkpt>
      <trkpt lat="49.26561" lon="-0.45">
        <ele>20.2</ele>
        <time>2021-02-23T09:30:12Z</time>
      </trkpt>
      <trkpt lat="49.26561" lon="-0.45001">
        <ele>20.2</ele>
        <time>2021-02-23T09:30:13Z</time>
      </trkpt>
      <trkpt lat="49.26561" lon="-0.45001">
        <ele>20.2</ele>
        <time>2021-02-23T09:30:15Z</time>
      </trkpt>
      <trkpt lat="49.26561" lon="-0.45001">
        <ele>20.2</ele>
        <time>2021-02-23T09:30:17Z</time>
      </trkpt>
      <trkpt lat="49.26564" lon="-0.45002">
        <ele>20.2</ele>
        <time>2021-02-23T09:30:19Z</time>
      </trkpt>
      <trkpt lat="49.26564" lon="-0.45003">
        <ele>20.2</ele>
        <time>2021-02-23T09:30:21Z</time>
      </trkpt>
      <trkpt lat="49.26564" lon="-0.45003">
        <ele>20.2</ele>
        <time>2021-02-23T09:30:22Z</time>
      </trkpt>
      <trkpt lat="49.26564" lon="-0.45003">
        <ele>20.2</ele>
        <time>2021-02-23T09:30:24Z</time>
      </trkpt>
      <trkpt lat="49.26564" lon="-0.45001">
        <ele>20.2</ele>
        <time>2021-02-23T09:30:26Z</time>
      </trkpt>
      <trkpt lat="49.26565" lon="-0.45">
        <ele>20.2</ele>
        <time>2021-02-23T09:30:27Z</time>
      </trkpt>
      <trkpt lat="49.26565" lon="-0.44998">
        <ele>20.2</ele>
        <time>2021-02-23T09:30:28Z</time>
      </trkpt>
      <trkpt lat="49.26565" lon="-0.44992">
        <ele>20.2</ele>
        <time>2021-02-23T09:30:30Z</time>
      </trkpt>
      <trkpt lat="49.26564" lon="-0.44991">
        <ele>20.2</ele>
        <time>2021-02-23T09:30:31Z</time>
      </trkpt>
      <trkpt lat="49.26564" lon="-0.4499">
        <ele>20.2</ele>
        <time>2021-02-23T09:30:33Z</time>
      </trkpt>
      <trkpt lat="49.26564" lon="-0.44989">
        <ele>20.2</ele>
        <time>2021-02-23T09:30:35Z</time>
      </trkpt>
      <trkpt lat="49.26564" lon="-0.44988">
        <ele>20.2</ele>
        <time>2021-02-23T09:30:37Z</time>
      </trkpt>
      <trkpt lat="49.26564" lon="-0.44988">
        <ele>20.2</ele>
        <time>2021-02-23T09:30:39Z</time>
      </trkpt>
      <trkpt lat="49.26564" lon="-0.44988">
        <ele>20.2</ele>
        <time>2021-02-23T09:30:41Z</time>
      </trkpt>
      <trkpt lat="49.26563" lon="-0.44988">
        <ele>20.2</ele>
        <time>2021-02-23T09:30:42Z</time>
      </trkpt>
      <trkpt lat="49.26563" lon="-0.44988">
        <ele>20.2</ele>
        <time>2021-02-23T09:30:44Z</time>
      </trkpt>
      <trkpt lat="49.26563" lon="-0.44988">
        <ele>20.2</ele>
        <time>2021-02-23T09:30:45Z</time>
      </trkpt>
      <trkpt lat="49.26563" lon="-0.44988">
        <ele>20.2</ele>
        <time>2021-02-23T09:30:46Z</time>
      </trkpt>
      <trkpt lat="49.26563" lon="-0.44988">
        <ele>20.2</ele>
        <time>2021-02-23T09:30:48Z</time>
      </trkpt>
      <trkpt lat="49.26563" lon="-0.44988">
        <ele>20.2</ele>
        <time>2021-02-23T09:30:50Z</time>
      </trkpt>
      <trkpt lat="49.26562" lon="-0.44989">
        <ele>20.2</ele>
        <time>2021-02-23T09:30:51Z</time>
      </trkpt>
      <trkpt lat="49.26561" lon="-0.4499">
        <ele>20.2</ele>
        <time>2021-02-23T09:30:52Z</time>
      </trkpt>
      <trkpt lat="49.26561" lon="-0.44991">
        <ele>20.2</ele>
        <time>2021-02-23T09:30:53Z</time>
      </trkpt>
      <trkpt lat="49.2656" lon="-0.44993">
        <ele>20.2</ele>
        <time>2021-02-23T09:30:55Z</time>
      </trkpt>
      <trkpt lat="49.2656" lon="-0.44995">
        <ele>20.2</ele>
        <time>2021-02-23T09:30:57Z</time>
      </trkpt>
      <trkpt lat="49.2656" lon="-0.44995">
        <ele>20.2</ele>
        <time>2021-02-23T09:30:58Z</time>
      </trkpt>
      <trkpt lat="49.2656" lon="-0.44996">
        <ele>20.2</ele>
        <time>2021-02-23T09:31:00Z</time>
      </trkpt>
      <trkpt lat="49.2656" lon="-0.44997">
        <ele>20.2</ele>
        <time>2021-02-23T09:31:02Z</time>
      </trkpt>
      <trkpt lat="49.2656" lon="-0.44997">
        <ele>20.2</ele>
        <time>2021-02-23T09:31:04Z</time>
      </trkpt>
      <trkpt lat="49.2656" lon="-0.44997">
        <ele>20.2</ele>
        <time>2021-02-23T09:31:05Z</time>
      </trkpt>
      <trkpt lat="49.2656" lon="-0.44997">
        <ele>20.2</ele>
        <time>2021-02-23T09:31:07Z</time>
      </trkpt>
      <trkpt lat="49.26559" lon="-0.44997">
        <ele>20.2</ele>
        <time>2021-02-23T09:31:08Z</time>
      </trkpt>
      <trkpt lat="49.26559" lon="-0.44997">
        <ele>20.2</ele>
        <time>2021-02-23T09:31:09Z</time>
      </trkpt>
      <trkpt lat="49.26559" lon="-0.44998">
        <ele>20.2</ele>
        <time>2021-02-23T09:31:11Z</time>
      </trkpt>
      <trkpt lat="49.26559" lon="-0.44998">
        <ele>20.2</ele>
        <time>2021-02-23T09:31:13Z</time>
      </trkpt>
      <trkpt lat="49.26559" lon="-0.44998">
        <ele>20.2</ele>
        <time>2021-02-23T09:31:14Z</time>
      </trkpt>
      <trkpt lat="49.26559" lon="-0.44999">
        <ele>20.2</ele>
        <time>2021-02-23T09:31:16Z</time>
      </trkpt>
      <trkpt lat="49.26558" lon="-0.44999">
        <ele>20.2</ele>
        <time>2021-02-23T09:31:18Z</time>
      </trkpt>
      <trkpt lat="49.26558" lon="-0.45001">
        <ele>20.2</ele>
        <time>2021-02-23T09:31:19Z</time>
      </trkpt>
      <trkpt lat="49.26558" lon="-0.45001">
        <ele>20.2</ele>
        <time>2021-02-23T09:31:20Z</time>
      </trkpt>
      <trkpt lat="49.26558" lon="-0.45002">
        <ele>20.2</ele>
        <time>2021-02-23T09:31:22Z</time>
      </trkpt>
      <trkpt lat="49.26558" lon="-0.45002">
        <ele>20.2</ele>
        <time>2021-02-23T09:31:24Z</time>
      </trkpt>
      <trkpt lat="49.26558" lon="-0.45002">
        <ele>20.2</ele>
        <time>2021-02-23T09:31:25Z</time>
      </trkpt>
      <trkpt lat="49.26558" lon="-0.45003">
        <ele>20.2</ele>
        <time>2021-02-23T09:31:27Z</time>
      </trkpt>
      <trkpt lat="49.26558" lon="-0.45003">
        <ele>20.2</ele>
        <time>2021-02-23T09:31:28Z</time>
      </trkpt>
      <trkpt lat="49.26558" lon="-0.45003">
        <ele>20.2</ele>
        <time>2021-02-23T09:31:29Z</time>
      </trkpt>
      <trkpt lat="49.26558" lon="-0.45004">
        <ele>20.2</ele>
        <time>2021-02-23T09:31:31Z</time>
      </trkpt>
      <trkpt lat="49.26558" lon="-0.45004">
        <ele>20.2</ele>
        <time>2021-02-23T09:31:32Z</time>
      </trkpt>
      <trkpt lat="49.26558" lon="-0.45005">
        <ele>20.2</ele>
        <time>2021-02-23T09:31:33Z</time>
      </trkpt>
      <trkpt lat="49.26558" lon="-0.45006">
        <ele>20.2</ele>
        <time>2021-02-23T09:31:35Z</time>
      </trkpt>
      <trkpt lat="49.26558" lon="-0.45007">
        <ele>20.2</ele>
        <time>2021-02-23T09:31:36Z</time>
      </trkpt>
      <trkpt lat="49.26558" lon="-0.45007">
        <ele>20.2</ele>
        <time>2021-02-23T09:31:37Z</time>
      </trkpt>
      <trkpt lat="49.26558" lon="-0.45006">
        <ele>20.2</ele>
        <time>2021-02-23T09:31:39Z</time>
      </trkpt>
      <trkpt lat="49.26558" lon="-0.45006">
        <ele>20.2</ele>
        <time>2021-02-23T09:31:41Z</time>
      </trkpt>
      <trkpt lat="49.26558" lon="-0.45006">
        <ele>20.2</ele>
        <time>2021-02-23T09:31:42Z</time>
      </trkpt>
      <trkpt lat="49.26558" lon="-0.45006">
        <ele>20.2</ele>
        <time>2021-02-23T09:31:43Z</time>
      </trkpt>
      <trkpt lat="49.26558" lon="-0.45006">
        <ele>20.2</ele>
        <time>2021-02-23T09:31:45Z</time>
      </trkpt>
      <trkpt lat="49.26558" lon="-0.45006">
        <ele>20.2</ele>
        <time>2021-02-23T09:31:46Z</time>
      </trkpt>
      <trkpt lat="49.26558" lon="-0.45006">
        <ele>20.2</ele>
        <time>2021-02-23T09:31:48Z</time>
      </trkpt>
      <trkpt lat="49.26558" lon="-0.45006">
        <ele>20.2</ele>
        <time>2021-02-23T09:31:49Z</time>
      </trkpt>
      <trkpt lat="49.26558" lon="-0.45009">
        <ele>20.2</ele>
        <time>2021-02-23T09:31:51Z</time>
      </trkpt>
      <trkpt lat="49.26558" lon="-0.45009">
        <ele>20.2</ele>
        <time>2021-02-23T09:31:52Z</time>
      </trkpt>
      <trkpt lat="49.26558" lon="-0.4501">
        <ele>20.2</ele>
        <time>2021-02-23T09:31:53Z</time>
      </trkpt>
      <trkpt lat="49.26558" lon="-0.4501">
        <ele>20.2</ele>
        <time>2021-02-23T09:31:54Z</time>
      </trkpt>
      <trkpt lat="49.26558" lon="-0.4501">
        <ele>20.2</ele>
        <time>2021-02-23T09:31:56Z</time>
      </trkpt>
      <trkpt lat="49.26558" lon="-0.4501">
        <ele>20.2</ele>
        <time>2021-02-23T09:31:57Z</time>
      </trkpt>
      <trkpt lat="49.26558" lon="-0.4501">
        <ele>20.2</ele>
        <time>2021-02-23T09:31:59Z</time>
      </trkpt>
      <trkpt lat="49.26559" lon="-0.4501">
        <ele>20.2</ele>
        <time>2021-02-23T09:32:00Z</time>
      </trkpt>
      <trkpt lat="49.26559" lon="-0.4501">
        <ele>20.2</ele>
        <time>2021-02-23T09:32:02Z</time>
      </trkpt>
      <trkpt lat="49.2656" lon="-0.45011">
        <ele>20.2</ele>
        <time>2021-02-23T09:32:03Z</time>
      </trkpt>
      <trkpt lat="49.26561" lon="-0.45011">
        <ele>20.2</ele>
        <time>2021-02-23T09:32:05Z</time>
      </trkpt>
      <trkpt lat="49.26562" lon="-0.4501">
        <ele>20.3</ele>
        <time>2021-02-23T09:32:06Z</time>
      </trkpt>
      <trkpt lat="49.26563" lon="-0.45007">
        <ele>20.3</ele>
        <time>2021-02-23T09:32:07Z</time>
      </trkpt>
      <trkpt lat="49.26564" lon="-0.45003">
        <ele>20.3</ele>
        <time>2021-02-23T09:32:09Z</time>
      </trkpt>
      <trkpt lat="49.26564" lon="-0.45002">
        <ele>20.3</ele>
        <time>2021-02-23T09:32:10Z</time>
      </trkpt>
      <trkpt lat="49.26565" lon="-0.45001">
        <ele>20.3</ele>
        <time>2021-02-23T09:32:11Z</time>
      </trkpt>
      <trkpt lat="49.26566" lon="-0.45">
        <ele>20.3</ele>
        <time>2021-02-23T09:32:13Z</time>
      </trkpt>
      <trkpt lat="49.26566" lon="-0.45003">
        <ele>20.3</ele>
        <time>2021-02-23T09:32:15Z</time>
      </trkpt>
      <trkpt lat="49.26564" lon="-0.45013">
        <ele>20.3</ele>
        <time>2021-02-23T09:32:17Z</time>
      </trkpt>
      <trkpt lat="49.26562" lon="-0.45019">
        <ele>20.3</ele>
        <time>2021-02-23T09:32:18Z</time>
      </trkpt>
      <trkpt lat="49.26561" lon="-0.4502">
        <ele>20.3</ele>
        <time>2021-02-23T09:32:19Z</time>
      </trkpt>
      <trkpt lat="49.26561" lon="-0.45022">
        <ele>20.3</ele>
        <time>2021-02-23T09:32:21Z</time>
      </trkpt>
      <trkpt lat="49.2656" lon="-0.45022">
        <ele>20.3</ele>
        <time>2021-02-23T09:32:22Z</time>
      </trkpt>
      <trkpt lat="49.2656" lon="-0.45021">
        <ele>20.3</ele>
        <time>2021-02-23T09:32:25Z</time>
      </trkpt>
      <trkpt lat="49.26561" lon="-0.4502">
        <ele>20.3</ele>
        <time>2021-02-23T09:32:27Z</time>
      </trkpt>
      <trkpt lat="49.26561" lon="-0.4502">
        <ele>20.3</ele>
        <time>2021-02-23T09:32:28Z</time>
      </trkpt>
      <trkpt lat="49.26561" lon="-0.4502">
        <ele>20.3</ele>
        <time>2021-02-23T09:32:30Z</time>
      </trkpt>
      <trkpt lat="49.26561" lon="-0.4502">
        <ele>20.3</ele>
        <time>2021-02-23T09:32:32Z</time>
      </trkpt>
      <trkpt lat="49.26561" lon="-0.4502">
        <ele>20.3</ele>
        <time>2021-02-23T09:32:33Z</time>
      </trkpt>
      <trkpt lat="49.26561" lon="-0.45022">
        <ele>20.3</ele>
        <time>2021-02-23T09:32:35Z</time>
      </trkpt>
      <trkpt lat="49.26562" lon="-0.45025">
        <ele>20.3</ele>
        <time>2021-02-23T09:32:36Z</time>
      </trkpt>
      <trkpt lat="49.26561" lon="-0.45031">
        <ele>20.3</ele>
        <time>2021-02-23T09:32:38Z</time>
      </trkpt>
      <trkpt lat="49.26561" lon="-0.45033">
        <ele>20.3</ele>
        <time>2021-02-23T09:32:39Z</time>
      </trkpt>
      <trkpt lat="49.2656" lon="-0.45035">
        <ele>20.3</ele>
        <time>2021-02-23T09:32:40Z</time>
      </trkpt>
      <trkpt lat="49.26559" lon="-0.45038">
        <ele>20.3</ele>
        <time>2021-02-23T09:32:41Z</time>
      </trkpt>
      <trkpt lat="49.26558" lon="-0.45038">
        <ele>20.3</ele>
        <time>2021-02-23T09:32:42Z</time>
      </trkpt>
      <trkpt lat="49.26557" lon="-0.45039">
        <ele>20.3</ele>
        <time>2021-02-23T09:32:43Z</time>
      </trkpt>
      <trkpt lat="49.26556" lon="-0.45041">
        <ele>20.3</ele>
        <time>2021-02-23T09:32:44Z</time>
      </trkpt>
      <trkpt lat="49.26556" lon="-0.45043">
        <ele>20.3</ele>
        <time>2021-02-23T09:32:46Z</time>
      </trkpt>
      <trkpt lat="49.26555" lon="-0.45045">
        <ele>20.3</ele>
        <time>2021-02-23T09:32:47Z</time>
      </trkpt>
      <trkpt lat="49.26554" lon="-0.45047">
        <ele>20.3</ele>
        <time>2021-02-23T09:32:48Z</time>
      </trkpt>
      <trkpt lat="49.26554" lon="-0.45049">
        <ele>20.3</ele>
        <time>2021-02-23T09:32:49Z</time>
      </trkpt>
      <trkpt lat="49.26554" lon="-0.45052">
        <ele>20.3</ele>
        <time>2021-02-23T09:32:50Z</time>
      </trkpt>
      <trkpt lat="49.26554" lon="-0.45054">
        <ele>20.3</ele>
        <time>2021-02-23T09:32:51Z</time>
      </trkpt>
      <trkpt lat="49.26555" lon="-0.45059">
        <ele>20.3</ele>
        <time>2021-02-23T09:32:53Z</time>
      </trkpt>
      <trkpt lat="49.26555" lon="-0.45064">
        <ele>20.3</ele>
        <time>2021-02-23T09:32:54Z</time>
      </trkpt>
      <trkpt lat="49.26555" lon="-0.45065">
        <ele>20.3</ele>
        <time>2021-02-23T09:32:55Z</time>
      </trkpt>
      <trkpt lat="49.26555" lon="-0.45068">
        <ele>20.3</ele>
        <time>2021-02-23T09:32:57Z</time>
      </trkpt>
      <trkpt lat="49.26555" lon="-0.4507">
        <ele>20.3</ele>
        <time>2021-02-23T09:32:58Z</time>
      </trkpt>
      <trkpt lat="49.26555" lon="-0.45073">
        <ele>20.4</ele>
        <time>2021-02-23T09:32:59Z</time>
      </trkpt>
      <trkpt lat="49.26555" lon="-0.45076">
        <ele>20.4</ele>
        <time>2021-02-23T09:33:01Z</time>
      </trkpt>
      <trkpt lat="49.26555" lon="-0.45078">
        <ele>20.4</ele>
        <time>2021-02-23T09:33:02Z</time>
      </trkpt>
      <trkpt lat="49.26555" lon="-0.45079">
        <ele>20.4</ele>
        <time>2021-02-23T09:33:03Z</time>
      </trkpt>
      <trkpt lat="49.26556" lon="-0.45081">
        <ele>20.4</ele>
        <time>2021-02-23T09:33:05Z</time>
      </trkpt>
      <trkpt lat="49.26556" lon="-0.45079">
        <ele>20.4</ele>
        <time>2021-02-23T09:33:06Z</time>
      </trkpt>
      <trkpt lat="49.26555" lon="-0.45079">
        <ele>20.4</ele>
        <time>2021-02-23T09:33:08Z</time>
      </trkpt>
      <trkpt lat="49.26555" lon="-0.45078">
        <ele>20.4</ele>
        <time>2021-02-23T09:33:09Z</time>
      </trkpt>
      <trkpt lat="49.26555" lon="-0.45077">
        <ele>20.4</ele>
        <time>2021-02-23T09:33:10Z</time>
      </trkpt>
      <trkpt lat="49.26556" lon="-0.45076">
        <ele>20.4</ele>
        <time>2021-02-23T09:33:12Z</time>
      </trkpt>
      <trkpt lat="49.26556" lon="-0.45075">
        <ele>20.4</ele>
        <time>2021-02-23T09:33:14Z</time>
      </trkpt>
      <trkpt lat="49.26556" lon="-0.45075">
        <ele>20.4</ele>
        <time>2021-02-23T09:33:15Z</time>
      </trkpt>
      <trkpt lat="49.26556" lon="-0.45075">
        <ele>20.4</ele>
        <time>2021-02-23T09:33:16Z</time>
      </trkpt>
      <trkpt lat="49.26557" lon="-0.45074">
        <ele>20.4</ele>
        <time>2021-02-23T09:33:18Z</time>
      </trkpt>
      <trkpt lat="49.26557" lon="-0.45072">
        <ele>20.4</ele>
        <time>2021-02-23T09:33:20Z</time>
      </trkpt>
      <trkpt lat="49.26557" lon="-0.45071">
        <ele>20.4</ele>
        <time>2021-02-23T09:33:21Z</time>
      </trkpt>
      <trkpt lat="49.26557" lon="-0.4507">
        <ele>20.4</ele>
        <time>2021-02-23T09:33:22Z</time>
      </trkpt>
      <trkpt lat="49.26557" lon="-0.4507">
        <ele>20.4</ele>
        <time>2021-02-23T09:33:23Z</time>
      </trkpt>
      <trkpt lat="49.26558" lon="-0.45068">
        <ele>20.4</ele>
        <time>2021-02-23T09:33:25Z</time>
      </trkpt>
      <trkpt lat="49.26558" lon="-0.45073">
        <ele>20.4</ele>
        <time>2021-02-23T09:33:26Z</time>
      </trkpt>
      <trkpt lat="49.26558" lon="-0.45074">
        <ele>20.4</ele>
        <time>2021-02-23T09:33:27Z</time>
      </trkpt>
      <trkpt lat="49.2656" lon="-0.45072">
        <ele>20.4</ele>
        <time>2021-02-23T09:33:28Z</time>
      </trkpt>
      <trkpt lat="49.2656" lon="-0.4507">
        <ele>20.4</ele>
        <time>2021-02-23T09:33:29Z</time>
      </trkpt>
      <trkpt lat="49.2656" lon="-0.45067">
        <ele>20.4</ele>
        <time>2021-02-23T09:33:30Z</time>
      </trkpt>
      <trkpt lat="49.2656" lon="-0.45061">
        <ele>20.4</ele>
        <time>2021-02-23T09:33:32Z</time>
      </trkpt>
      <trkpt lat="49.2656" lon="-0.45057">
        <ele>20.4</ele>
        <time>2021-02-23T09:33:33Z</time>
      </trkpt>
      <trkpt lat="49.2656" lon="-0.45051">
        <ele>20.4</ele>
        <time>2021-02-23T09:33:34Z</time>
      </trkpt>
      <trkpt lat="49.2656" lon="-0.45049">
        <ele>20.4</ele>
        <time>2021-02-23T09:33:35Z</time>
      </trkpt>
      <trkpt lat="49.2656" lon="-0.45043">
        <ele>20.4</ele>
        <time>2021-02-23T09:33:36Z</time>
      </trkpt>
      <trkpt lat="49.2656" lon="-0.45039">
        <ele>20.4</ele>
        <time>2021-02-23T09:33:38Z</time>
      </trkpt>
      <trkpt lat="49.2656" lon="-0.45034">
        <ele>20.4</ele>
        <time>2021-02-23T09:33:39Z</time>
      </trkpt>
      <trkpt lat="49.2656" lon="-0.45032">
        <ele>20.4</ele>
        <time>2021-02-23T09:33:40Z</time>
      </trkpt>
      <trkpt lat="49.26561" lon="-0.45029">
        <ele>20.4</ele>
        <time>2021-02-23T09:33:41Z</time>
      </trkpt>
      <trkpt lat="49.26561" lon="-0.45027">
        <ele>20.4</ele>
        <time>2021-02-23T09:33:43Z</time>
      </trkpt>
      <trkpt lat="49.26562" lon="-0.45024">
        <ele>20.4</ele>
        <time>2021-02-23T09:33:44Z</time>
      </trkpt>
      <trkpt lat="49.26562" lon="-0.45021">
        <ele>20.4</ele>
        <time>2021-02-23T09:33:45Z</time>
      </trkpt>
      <trkpt lat="49.26563" lon="-0.45019">
        <ele>20.4</ele>
        <time>2021-02-23T09:33:46Z</time>
      </trkpt>
      <trkpt lat="49.26563" lon="-0.45018">
        <ele>20.4</ele>
        <time>2021-02-23T09:33:47Z</time>
      </trkpt>
      <trkpt lat="49.26563" lon="-0.45017">
        <ele>20.4</ele>
        <time>2021-02-23T09:33:48Z</time>
      </trkpt>
      <trkpt lat="49.26563" lon="-0.45015">
        <ele>20.4</ele>
        <time>2021-02-23T09:33:49Z</time>
      </trkpt>
      <trkpt lat="49.26564" lon="-0.45013">
        <ele>20.4</ele>
        <time>2021-02-23T09:33:51Z</time>
      </trkpt>
      <trkpt lat="49.26563" lon="-0.45011">
        <ele>20.5</ele>
        <time>2021-02-23T09:33:52Z</time>
      </trkpt>
      <trkpt lat="49.26562" lon="-0.45008">
        <ele>20.5</ele>
        <time>2021-02-23T09:33:53Z</time>
      </trkpt>
      <trkpt lat="49.26561" lon="-0.45008">
        <ele>20.5</ele>
        <time>2021-02-23T09:33:55Z</time>
      </trkpt>
      <trkpt lat="49.2656" lon="-0.45007">
        <ele>20.5</ele>
        <time>2021-02-23T09:33:56Z</time>
      </trkpt>
      <trkpt lat="49.26559" lon="-0.45005">
        <ele>20.5</ele>
        <time>2021-02-23T09:33:57Z</time>
      </trkpt>
      <trkpt lat="49.26558" lon="-0.45001">
        <ele>20.5</ele>
        <time>2021-02-23T09:33:59Z</time>
      </trkpt>
      <trkpt lat="49.26557" lon="-0.44999">
        <ele>20.5</ele>
        <time>2021-02-23T09:34:01Z</time>
      </trkpt>
      <trkpt lat="49.26554" lon="-0.44995">
        <ele>20.5</ele>
        <time>2021-02-23T09:34:02Z</time>
      </trkpt>
      <trkpt lat="49.26554" lon="-0.44994">
        <ele>20.5</ele>
        <time>2021-02-23T09:34:03Z</time>
      </trkpt>
      <trkpt lat="49.26552" lon="-0.44992">
        <ele>20.5</ele>
        <time>2021-02-23T09:34:04Z</time>
      </trkpt>
      <trkpt lat="49.26549" lon="-0.44989">
        <ele>20.5</ele>
        <time>2021-02-23T09:34:06Z</time>
      </trkpt>
      <trkpt lat="49.26546" lon="-0.44988">
        <ele>20.5</ele>
        <time>2021-02-23T09:34:07Z</time>
      </trkpt>
      <trkpt lat="49.26543" lon="-0.44986">
        <ele>20.5</ele>
        <time>2021-02-23T09:34:09Z</time>
      </trkpt>
      <trkpt lat="49.26541" lon="-0.44985">
        <ele>20.5</ele>
        <time>2021-02-23T09:34:10Z</time>
      </trkpt>
      <trkpt lat="49.26537" lon="-0.44984">
        <ele>20.5</ele>
        <time>2021-02-23T09:34:12Z</time>
      </trkpt>
      <trkpt lat="49.26537" lon="-0.44984">
        <ele>20.5</ele>
        <time>2021-02-23T09:34:13Z</time>
      </trkpt>
      <trkpt lat="49.26535" lon="-0.44984">
        <ele>20.5</ele>
        <time>2021-02-23T09:34:14Z</time>
      </trkpt>
      <trkpt lat="49.26534" lon="-0.44985">
        <ele>20.5</ele>
        <time>2021-02-23T09:34:15Z</time>
      </trkpt>
      <trkpt lat="49.26532" lon="-0.44987">
        <ele>20.5</ele>
        <time>2021-02-23T09:34:17Z</time>
      </trkpt>
      <trkpt lat="49.26531" lon="-0.44987">
        <ele>20.5</ele>
        <time>2021-02-23T09:34:18Z</time>
      </trkpt>
      <trkpt lat="49.2653" lon="-0.4499">
        <ele>20.5</ele>
        <time>2021-02-23T09:34:19Z</time>
      </trkpt>
      <trkpt lat="49.2653" lon="-0.44994">
        <ele>20.5</ele>
        <time>2021-02-23T09:34:21Z</time>
      </trkpt>
      <trkpt lat="49.2653" lon="-0.44995">
        <ele>20.5</ele>
        <time>2021-02-23T09:34:22Z</time>
      </trkpt>
      <trkpt lat="49.2653" lon="-0.44997">
        <ele>20.5</ele>
        <time>2021-02-23T09:34:24Z</time>
      </trkpt>
      <trkpt lat="49.2653" lon="-0.44997">
        <ele>20.5</ele>
        <time>2021-02-23T09:34:25Z</time>
      </trkpt>
      <trkpt lat="49.2653" lon="-0.44997">
        <ele>20.5</ele>
        <time>2021-02-23T09:34:27Z</time>
      </trkpt>
      <trkpt lat="49.2653" lon="-0.44997">
        <ele>20.5</ele>
        <time>2021-02-23T09:34:29Z</time>
      </trkpt>
      <trkpt lat="49.2653" lon="-0.44998">
        <ele>20.5</ele>
        <time>2021-02-23T09:34:31Z</time>
      </trkpt>
      <trkpt lat="49.2653" lon="-0.44998">
        <ele>20.5</ele>
        <time>2021-02-23T09:34:33Z</time>
      </trkpt>
      <trkpt lat="49.26529" lon="-0.44998">
        <ele>20.5</ele>
        <time>2021-02-23T09:34:34Z</time>
      </trkpt>
      <trkpt lat="49.26528" lon="-0.44998">
        <ele>20.5</ele>
        <time>2021-02-23T09:34:36Z</time>
      </trkpt>
      <trkpt lat="49.26527" lon="-0.44996">
        <ele>20.5</ele>
        <time>2021-02-23T09:34:38Z</time>
      </trkpt>
      <trkpt lat="49.26526" lon="-0.44996">
        <ele>20.5</ele>
        <time>2021-02-23T09:34:39Z</time>
      </trkpt>
      <trkpt lat="49.26526" lon="-0.44995">
        <ele>20.5</ele>
        <time>2021-02-23T09:34:40Z</time>
      </trkpt>
      <trkpt lat="49.26525" lon="-0.44995">
        <ele>20.5</ele>
        <time>2021-02-23T09:34:42Z</time>
      </trkpt>
      <trkpt lat="49.26525" lon="-0.44995">
        <ele>20.5</ele>
        <time>2021-02-23T09:34:43Z</time>
      </trkpt>
      <trkpt lat="49.26525" lon="-0.44995">
        <ele>20.5</ele>
        <time>2021-02-23T09:34:45Z</time>
      </trkpt>
      <trkpt lat="49.26525" lon="-0.44995">
        <ele>20.5</ele>
        <time>2021-02-23T09:34:46Z</time>
      </trkpt>
      <trkpt lat="49.26525" lon="-0.44995">
        <ele>20.5</ele>
        <time>2021-02-23T09:34:48Z</time>
      </trkpt>
      <trkpt lat="49.26525" lon="-0.44995">
        <ele>20.5</ele>
        <time>2021-02-23T09:34:49Z</time>
      </trkpt>
      <trkpt lat="49.26525" lon="-0.44995">
        <ele>20.5</ele>
        <time>2021-02-23T09:34:51Z</time>
      </trkpt>
      <trkpt lat="49.26525" lon="-0.44995">
        <ele>20.5</ele>
        <time>2021-02-23T09:34:52Z</time>
      </trkpt>
      <trkpt lat="49.26525" lon="-0.44995">
        <ele>20.5</ele>
        <time>2021-02-23T09:34:53Z</time>
      </trkpt>
      <trkpt lat="49.26525" lon="-0.44995">
        <ele>20.5</ele>
        <time>2021-02-23T09:34:54Z</time>
      </trkpt>
      <trkpt lat="49.26525" lon="-0.44995">
        <ele>20.5</ele>
        <time>2021-02-23T09:34:56Z</time>
      </trkpt>
      <trkpt lat="49.26525" lon="-0.44995">
        <ele>20.5</ele>
        <time>2021-02-23T09:34:57Z</time>
      </trkpt>
      <trkpt lat="49.26525" lon="-0.44995">
        <ele>20.5</ele>
        <time>2021-02-23T09:34:59Z</time>
      </trkpt>
      <trkpt lat="49.26525" lon="-0.44995">
        <ele>20.5</ele>
        <time>2021-02-23T09:35:01Z</time>
      </trkpt>
      <trkpt lat="49.26525" lon="-0.44995">
        <ele>20.5</ele>
        <time>2021-02-23T09:35:03Z</time>
      </trkpt>
      <trkpt lat="49.26525" lon="-0.44995">
        <ele>20.5</ele>
        <time>2021-02-23T09:35:05Z</time>
      </trkpt>
      <trkpt lat="49.26525" lon="-0.44995">
        <ele>20.5</ele>
        <time>2021-02-23T09:35:06Z</time>
      </trkpt>
      <trkpt lat="49.26525" lon="-0.44995">
        <ele>20.5</ele>
        <time>2021-02-23T09:35:08Z</time>
      </trkpt>
      <trkpt lat="49.26525" lon="-0.44995">
        <ele>20.5</ele>
        <time>2021-02-23T09:35:10Z</time>
      </trkpt>
      <trkpt lat="49.26523" lon="-0.44991">
        <ele>20.5</ele>
        <time>2021-02-23T09:35:12Z</time>
      </trkpt>
      <trkpt lat="49.26524" lon="-0.44987">
        <ele>20.5</ele>
        <time>2021-02-23T09:35:14Z</time>
      </trkpt>
      <trkpt lat="49.26525" lon="-0.44986">
        <ele>20.5</ele>
        <time>2021-02-23T09:35:15Z</time>
      </trkpt>
      <trkpt lat="49.26526" lon="-0.44986">
        <ele>20.5</ele>
        <time>2021-02-23T09:35:17Z</time>
      </trkpt>
      <trkpt lat="49.26527" lon="-0.44987">
        <ele>20.5</ele>
        <time>2021-02-23T09:35:18Z</time>
      </trkpt>
      <trkpt lat="49.26528" lon="-0.44987">
        <ele>20.5</ele>
        <time>2021-02-23T09:35:19Z</time>
      </trkpt>
      <trkpt lat="49.26529" lon="-0.44987">
        <ele>20.5</ele>
        <time>2021-02-23T09:35:20Z</time>
      </trkpt>
      <trkpt lat="49.2653" lon="-0.44987">
        <ele>20.5</ele>
        <time>2021-02-23T09:35:21Z</time>
      </trkpt>
      <trkpt lat="49.26532" lon="-0.44986">
        <ele>20.5</ele>
        <time>2021-02-23T09:35:22Z</time>
      </trkpt>
      <trkpt lat="49.26535" lon="-0.44988">
        <ele>20.5</ele>
        <time>2021-02-23T09:35:24Z</time>
      </trkpt>
      <trkpt lat="49.26536" lon="-0.44988">
        <ele>20.5</ele>
        <time>2021-02-23T09:35:25Z</time>
      </trkpt>
      <trkpt lat="49.26538" lon="-0.44989">
        <ele>20.5</ele>
        <time>2021-02-23T09:35:26Z</time>
      </trkpt>
      <trkpt lat="49.2654" lon="-0.44989">
        <ele>20.5</ele>
        <time>2021-02-23T09:35:28Z</time>
      </trkpt>
      <trkpt lat="49.26542" lon="-0.4499">
        <ele>20.5</ele>
        <time>2021-02-23T09:35:30Z</time>
      </trkpt>
      <trkpt lat="49.26543" lon="-0.4499">
        <ele>20.5</ele>
        <time>2021-02-23T09:35:31Z</time>
      </trkpt>
      <trkpt lat="49.26546" lon="-0.44991">
        <ele>20.5</ele>
        <time>2021-02-23T09:35:33Z</time>
      </trkpt>
      <trkpt lat="49.26547" lon="-0.44989">
        <ele>20.5</ele>
        <time>2021-02-23T09:35:34Z</time>
      </trkpt>
      <trkpt lat="49.26549" lon="-0.44991">
        <ele>20.5</ele>
        <time>2021-02-23T09:35:35Z</time>
      </trkpt>
      <trkpt lat="49.26552" lon="-0.44993">
        <ele>20.5</ele>
        <time>2021-02-23T09:35:37Z</time>
      </trkpt>
      <trkpt lat="49.26555" lon="-0.44993">
        <ele>20.5</ele>
        <time>2021-02-23T09:35:39Z</time>
      </trkpt>
      <trkpt lat="49.26558" lon="-0.44993">
        <ele>20.5</ele>
        <time>2021-02-23T09:35:40Z</time>
      </trkpt>
      <trkpt lat="49.26559" lon="-0.44994">
        <ele>20.5</ele>
        <time>2021-02-23T09:35:41Z</time>
      </trkpt>
      <trkpt lat="49.26562" lon="-0.44997">
        <ele>20.4</ele>
        <time>2021-02-23T09:35:42Z</time>
      </trkpt>
      <trkpt lat="49.26567" lon="-0.44995">
        <ele>20.4</ele>
        <time>2021-02-23T09:35:44Z</time>
      </trkpt>
      <trkpt lat="49.26566" lon="-0.44996">
        <ele>20.4</ele>
        <time>2021-02-23T09:35:46Z</time>
      </trkpt>
      <trkpt lat="49.26568" lon="-0.44999">
        <ele>20.4</ele>
        <time>2021-02-23T09:35:48Z</time>
      </trkpt>
      <trkpt lat="49.26569" lon="-0.45">
        <ele>20.4</ele>
        <time>2021-02-23T09:35:49Z</time>
      </trkpt>
      <trkpt lat="49.2657" lon="-0.45001">
        <ele>20.4</ele>
        <time>2021-02-23T09:35:50Z</time>
      </trkpt>
      <trkpt lat="49.26571" lon="-0.45002">
        <ele>20.4</ele>
        <time>2021-02-23T09:35:52Z</time>
      </trkpt>
      <trkpt lat="49.26571" lon="-0.45003">
        <ele>20.4</ele>
        <time>2021-02-23T09:35:53Z</time>
      </trkpt>
      <trkpt lat="49.26571" lon="-0.45004">
        <ele>20.4</ele>
        <time>2021-02-23T09:35:54Z</time>
      </trkpt>
      <trkpt lat="49.2657" lon="-0.45005">
        <ele>20.4</ele>
        <time>2021-02-23T09:35:56Z</time>
      </trkpt>
      <trkpt lat="49.26569" lon="-0.45004">
        <ele>20.4</ele>
        <time>2021-02-23T09:35:58Z</time>
      </trkpt>
      <trkpt lat="49.26568" lon="-0.45003">
        <ele>20.3</ele>
        <time>2021-02-23T09:35:59Z</time>
      </trkpt>
      <trkpt lat="49.26568" lon="-0.45003">
        <ele>20.3</ele>
        <time>2021-02-23T09:36:01Z</time>
      </trkpt>
      <trkpt lat="49.26568" lon="-0.45003">
        <ele>20.3</ele>
        <time>2021-02-23T09:36:02Z</time>
      </trkpt>
      <trkpt lat="49.26568" lon="-0.45003">
        <ele>20.3</ele>
        <time>2021-02-23T09:36:04Z</time>
      </trkpt>
      <trkpt lat="49.26568" lon="-0.45003">
        <ele>20.3</ele>
        <time>2021-02-23T09:36:06Z</time>
      </trkpt>
      <trkpt lat="49.26568" lon="-0.45003">
        <ele>20.3</ele>
        <time>2021-02-23T09:36:08Z</time>
      </trkpt>
      <trkpt lat="49.26568" lon="-0.45003">
        <ele>20.3</ele>
        <time>2021-02-23T09:36:09Z</time>
      </trkpt>
      <trkpt lat="49.26568" lon="-0.45003">
        <ele>20.3</ele>
        <time>2021-02-23T09:36:11Z</time>
      </trkpt>
      <trkpt lat="49.26569" lon="-0.45003">
        <ele>20.3</ele>
        <time>2021-02-23T09:36:13Z</time>
      </trkpt>
      <trkpt lat="49.26569" lon="-0.45004">
        <ele>20.3</ele>
        <time>2021-02-23T09:36:15Z</time>
      </trkpt>
      <trkpt lat="49.26569" lon="-0.45002">
        <ele>20.3</ele>
        <time>2021-02-23T09:36:16Z</time>
      </trkpt>
      <trkpt lat="49.26568" lon="-0.45002">
        <ele>20.3</ele>
        <time>2021-02-23T09:36:17Z</time>
      </trkpt>
      <trkpt lat="49.26568" lon="-0.45001">
        <ele>20.3</ele>
        <time>2021-02-23T09:36:18Z</time>
      </trkpt>
      <trkpt lat="49.26568" lon="-0.45001">
        <ele>20.3</ele>
        <time>2021-02-23T09:36:20Z</time>
      </trkpt>
      <trkpt lat="49.26568" lon="-0.45001">
        <ele>20.3</ele>
        <time>2021-02-23T09:36:21Z</time>
      </trkpt>
      <trkpt lat="49.26568" lon="-0.45">
        <ele>20.3</ele>
        <time>2021-02-23T09:36:23Z</time>
      </trkpt>
      <trkpt lat="49.26568" lon="-0.45">
        <ele>20.3</ele>
        <time>2021-02-23T09:36:24Z</time>
      </trkpt>
      <trkpt lat="49.26568" lon="-0.45">
        <ele>20.3</ele>
        <time>2021-02-23T09:36:25Z</time>
      </trkpt>
      <trkpt lat="49.26568" lon="-0.45">
        <ele>20.3</ele>
        <time>2021-02-23T09:36:27Z</time>
      </trkpt>
      <trkpt lat="49.2657" lon="-0.44998">
        <ele>20.3</ele>
        <time>2021-02-23T09:36:29Z</time>
      </trkpt>
      <trkpt lat="49.26572" lon="-0.44996">
        <ele>20.3</ele>
        <time>2021-02-23T09:36:30Z</time>
      </trkpt>
      <trkpt lat="49.26574" lon="-0.44996">
        <ele>20.3</ele>
        <time>2021-02-23T09:36:32Z</time>
      </trkpt>
      <trkpt lat="49.26575" lon="-0.44995">
        <ele>20.3</ele>
        <time>2021-02-23T09:36:34Z</time>
      </trkpt>
      <trkpt lat="49.26576" lon="-0.44993">
        <ele>20.3</ele>
        <time>2021-02-23T09:36:35Z</time>
      </trkpt>
      <trkpt lat="49.26576" lon="-0.44992">
        <ele>20.3</ele>
        <time>2021-02-23T09:36:36Z</time>
      </trkpt>
      <trkpt lat="49.26577" lon="-0.44991">
        <ele>20.3</ele>
        <time>2021-02-23T09:36:38Z</time>
      </trkpt>
      <trkpt lat="49.26578" lon="-0.4499">
        <ele>20.3</ele>
        <time>2021-02-23T09:36:39Z</time>
      </trkpt>
      <trkpt lat="49.26582" lon="-0.44988">
        <ele>20.2</ele>
        <time>2021-02-23T09:36:40Z</time>
      </trkpt>
      <trkpt lat="49.26583" lon="-0.44987">
        <ele>20.2</ele>
        <time>2021-02-23T09:36:41Z</time>
      </trkpt>
      <trkpt lat="49.26587" lon="-0.44985">
        <ele>20.2</ele>
        <time>2021-02-23T09:36:43Z</time>
      </trkpt>
      <trkpt lat="49.26591" lon="-0.44984">
        <ele>20.2</ele>
        <time>2021-02-23T09:36:45Z</time>
      </trkpt>
      <trkpt lat="49.26595" lon="-0.44982">
        <ele>20.1</ele>
        <time>2021-02-23T09:36:46Z</time>
      </trkpt>
      <trkpt lat="49.26596" lon="-0.44981">
        <ele>20.1</ele>
        <time>2021-02-23T09:36:47Z</time>
      </trkpt>
      <trkpt lat="49.26599" lon="-0.4498">
        <ele>20.1</ele>
        <time>2021-02-23T09:36:49Z</time>
      </trkpt>
      <trkpt lat="49.266" lon="-0.4498">
        <ele>20.1</ele>
        <time>2021-02-23T09:36:50Z</time>
      </trkpt>
      <trkpt lat="49.26601" lon="-0.44979">
        <ele>20.1</ele>
        <time>2021-02-23T09:36:51Z</time>
      </trkpt>
      <trkpt lat="49.26603" lon="-0.44979">
        <ele>20.1</ele>
        <time>2021-02-23T09:36:53Z</time>
      </trkpt>
      <trkpt lat="49.26604" lon="-0.44979">
        <ele>20.1</ele>
        <time>2021-02-23T09:36:54Z</time>
      </trkpt>
      <trkpt lat="49.26605" lon="-0.44978">
        <ele>20.1</ele>
        <time>2021-02-23T09:36:55Z</time>
      </trkpt>
      <trkpt lat="49.26606" lon="-0.44978">
        <ele>20.1</ele>
        <time>2021-02-23T09:36:56Z</time>
      </trkpt>
      <trkpt lat="49.26608" lon="-0.44977">
        <ele>20.1</ele>
        <time>2021-02-23T09:36:58Z</time>
      </trkpt>
      <trkpt lat="49.26609" lon="-0.44976">
        <ele>20.1</ele>
        <time>2021-02-23T09:36:59Z</time>
      </trkpt>
      <trkpt lat="49.26611" lon="-0.44975">
        <ele>20</ele>
        <time>2021-02-23T09:37:00Z</time>
      </trkpt>
      <trkpt lat="49.26613" lon="-0.44973">
        <ele>20</ele>
        <time>2021-02-23T09:37:02Z</time>
      </trkpt>
      <trkpt lat="49.26615" lon="-0.4497">
        <ele>20</ele>
        <time>2021-02-23T09:37:04Z</time>
      </trkpt>
      <trkpt lat="49.26618" lon="-0.44968">
        <ele>20</ele>
        <time>2021-02-23T09:37:05Z</time>
      </trkpt>
      <trkpt lat="49.26621" lon="-0.44964">
        <ele>19.9</ele>
        <time>2021-02-23T09:37:06Z</time>
      </trkpt>
      <trkpt lat="49.26624" lon="-0.4496">
        <ele>20</ele>
        <time>2021-02-23T09:37:08Z</time>
      </trkpt>
      <trkpt lat="49.26626" lon="-0.44959">
        <ele>20.1</ele>
        <time>2021-02-23T09:37:09Z</time>
      </trkpt>
      <trkpt lat="49.26629" lon="-0.44955">
        <ele>20.2</ele>
        <time>2021-02-23T09:37:11Z</time>
      </trkpt>
      <trkpt lat="49.26631" lon="-0.44951">
        <ele>20.2</ele>
        <time>2021-02-23T09:37:13Z</time>
      </trkpt>
      <trkpt lat="49.26632" lon="-0.4495">
        <ele>20.3</ele>
        <time>2021-02-23T09:37:14Z</time>
      </trkpt>
      <trkpt lat="49.26634" lon="-0.44946">
        <ele>20.4</ele>
        <time>2021-02-23T09:37:15Z</time>
      </trkpt>
      <trkpt lat="49.26635" lon="-0.44945">
        <ele>20.4</ele>
        <time>2021-02-23T09:37:16Z</time>
      </trkpt>
      <trkpt lat="49.26638" lon="-0.4494">
        <ele>20.5</ele>
        <time>2021-02-23T09:37:18Z</time>
      </trkpt>
      <trkpt lat="49.26639" lon="-0.44936">
        <ele>20.7</ele>
        <time>2021-02-23T09:37:19Z</time>
      </trkpt>
      <trkpt lat="49.2664" lon="-0.44934">
        <ele>20.7</ele>
        <time>2021-02-23T09:37:20Z</time>
      </trkpt>
      <trkpt lat="49.26643" lon="-0.44928">
        <ele>20.9</ele>
        <time>2021-02-23T09:37:22Z</time>
      </trkpt>
      <trkpt lat="49.26644" lon="-0.44927">
        <ele>20.9</ele>
        <time>2021-02-23T09:37:23Z</time>
      </trkpt>
      <trkpt lat="49.26645" lon="-0.44925">
        <ele>21</ele>
        <time>2021-02-23T09:37:24Z</time>
      </trkpt>
      <trkpt lat="49.26647" lon="-0.44921">
        <ele>21.1</ele>
        <time>2021-02-23T09:37:26Z</time>
      </trkpt>
      <trkpt lat="49.26648" lon="-0.4492">
        <ele>21.2</ele>
        <time>2021-02-23T09:37:27Z</time>
      </trkpt>
      <trkpt lat="49.26649" lon="-0.44917">
        <ele>21.2</ele>
        <time>2021-02-23T09:37:28Z</time>
      </trkpt>
      <trkpt lat="49.2665" lon="-0.44915">
        <ele>21.3</ele>
        <time>2021-02-23T09:37:29Z</time>
      </trkpt>
      <trkpt lat="49.26651" lon="-0.44912">
        <ele>21.4</ele>
        <time>2021-02-23T09:37:31Z</time>
      </trkpt>
      <trkpt lat="49.26653" lon="-0.44909">
        <ele>21.5</ele>
        <time>2021-02-23T09:37:32Z</time>
      </trkpt>
      <trkpt lat="49.26655" lon="-0.44905">
        <ele>21.6</ele>
        <time>2021-02-23T09:37:34Z</time>
      </trkpt>
      <trkpt lat="49.26656" lon="-0.44901">
        <ele>21.7</ele>
        <time>2021-02-23T09:37:36Z</time>
      </trkpt>
      <trkpt lat="49.26657" lon="-0.449">
        <ele>21.8</ele>
        <time>2021-02-23T09:37:37Z</time>
      </trkpt>
      <trkpt lat="49.26658" lon="-0.44895">
        <ele>21.9</ele>
        <time>2021-02-23T09:37:39Z</time>
      </trkpt>
      <trkpt lat="49.26658" lon="-0.44894">
        <ele>21.9</ele>
        <time>2021-02-23T09:37:40Z</time>
      </trkpt>
      <trkpt lat="49.2666" lon="-0.44888">
        <ele>22</ele>
        <time>2021-02-23T09:37:42Z</time>
      </trkpt>
      <trkpt lat="49.26661" lon="-0.44887">
        <ele>22</ele>
        <time>2021-02-23T09:37:44Z</time>
      </trkpt>
      <trkpt lat="49.26661" lon="-0.44885">
        <ele>22.1</ele>
        <time>2021-02-23T09:37:45Z</time>
      </trkpt>
      <trkpt lat="49.26661" lon="-0.44879">
        <ele>22.2</ele>
        <time>2021-02-23T09:37:47Z</time>
      </trkpt>
      <trkpt lat="49.26662" lon="-0.44877">
        <ele>22.2</ele>
        <time>2021-02-23T09:37:48Z</time>
      </trkpt>
      <trkpt lat="49.26663" lon="-0.44873">
        <ele>22.2</ele>
        <time>2021-02-23T09:37:50Z</time>
      </trkpt>
      <trkpt lat="49.26664" lon="-0.44872">
        <ele>22.3</ele>
        <time>2021-02-23T09:37:51Z</time>
      </trkpt>
      <trkpt lat="49.26666" lon="-0.44869">
        <ele>22.3</ele>
        <time>2021-02-23T09:37:53Z</time>
      </trkpt>
      <trkpt lat="49.26667" lon="-0.44867">
        <ele>22.3</ele>
        <time>2021-02-23T09:37:54Z</time>
      </trkpt>
      <trkpt lat="49.26668" lon="-0.44864">
        <ele>22.4</ele>
        <time>2021-02-23T09:37:56Z</time>
      </trkpt>
      <trkpt lat="49.26669" lon="-0.44861">
        <ele>22.4</ele>
        <time>2021-02-23T09:37:58Z</time>
      </trkpt>
      <trkpt lat="49.2667" lon="-0.4486">
        <ele>22.4</ele>
        <time>2021-02-23T09:37:59Z</time>
      </trkpt>
      <trkpt lat="49.2667" lon="-0.44857">
        <ele>22.5</ele>
        <time>2021-02-23T09:38:01Z</time>
      </trkpt>
      <trkpt lat="49.26671" lon="-0.44855">
        <ele>22.5</ele>
        <time>2021-02-23T09:38:02Z</time>
      </trkpt>
      <trkpt lat="49.26671" lon="-0.44854">
        <ele>22.5</ele>
        <time>2021-02-23T09:38:03Z</time>
      </trkpt>
      <trkpt lat="49.26673" lon="-0.44848">
        <ele>22.6</ele>
        <time>2021-02-23T09:38:05Z</time>
      </trkpt>
      <trkpt lat="49.26674" lon="-0.44845">
        <ele>22.6</ele>
        <time>2021-02-23T09:38:06Z</time>
      </trkpt>
      <trkpt lat="49.26675" lon="-0.44843">
        <ele>22.7</ele>
        <time>2021-02-23T09:38:07Z</time>
      </trkpt>
      <trkpt lat="49.26678" lon="-0.44837">
        <ele>22.8</ele>
        <time>2021-02-23T09:38:09Z</time>
      </trkpt>
      <trkpt lat="49.26679" lon="-0.44834">
        <ele>22.8</ele>
        <time>2021-02-23T09:38:10Z</time>
      </trkpt>
      <trkpt lat="49.26683" lon="-0.44828">
        <ele>22.9</ele>
        <time>2021-02-23T09:38:12Z</time>
      </trkpt>
      <trkpt lat="49.26686" lon="-0.44824">
        <ele>23</ele>
        <time>2021-02-23T09:38:13Z</time>
      </trkpt>
      <trkpt lat="49.26686" lon="-0.44823">
        <ele>23</ele>
        <time>2021-02-23T09:38:14Z</time>
      </trkpt>
      <trkpt lat="49.26689" lon="-0.44819">
        <ele>23</ele>
        <time>2021-02-23T09:38:16Z</time>
      </trkpt>
      <trkpt lat="49.26691" lon="-0.44818">
        <ele>23</ele>
        <time>2021-02-23T09:38:17Z</time>
      </trkpt>
      <trkpt lat="49.26692" lon="-0.44816">
        <ele>23</ele>
        <time>2021-02-23T09:38:18Z</time>
      </trkpt>
      <trkpt lat="49.26694" lon="-0.44813">
        <ele>23</ele>
        <time>2021-02-23T09:38:20Z</time>
      </trkpt>
      <trkpt lat="49.26696" lon="-0.4481">
        <ele>23.1</ele>
        <time>2021-02-23T09:38:22Z</time>
      </trkpt>
      <trkpt lat="49.26698" lon="-0.44807">
        <ele>23.1</ele>
        <time>2021-02-23T09:38:24Z</time>
      </trkpt>
      <trkpt lat="49.26699" lon="-0.44803">
        <ele>23.1</ele>
        <time>2021-02-23T09:38:26Z</time>
      </trkpt>
      <trkpt lat="49.267" lon="-0.44801">
        <ele>23.1</ele>
        <time>2021-02-23T09:38:27Z</time>
      </trkpt>
      <trkpt lat="49.26702" lon="-0.44797">
        <ele>23.1</ele>
        <time>2021-02-23T09:38:29Z</time>
      </trkpt>
      <trkpt lat="49.26703" lon="-0.44794">
        <ele>23.1</ele>
        <time>2021-02-23T09:38:31Z</time>
      </trkpt>
      <trkpt lat="49.26704" lon="-0.44791">
        <ele>23.1</ele>
        <time>2021-02-23T09:38:33Z</time>
      </trkpt>
      <trkpt lat="49.26705" lon="-0.44787">
        <ele>23</ele>
        <time>2021-02-23T09:38:35Z</time>
      </trkpt>
      <trkpt lat="49.26707" lon="-0.44783">
        <ele>23</ele>
        <time>2021-02-23T09:38:37Z</time>
      </trkpt>
      <trkpt lat="49.26708" lon="-0.4478">
        <ele>23</ele>
        <time>2021-02-23T09:38:39Z</time>
      </trkpt>
      <trkpt lat="49.2671" lon="-0.44776">
        <ele>23</ele>
        <time>2021-02-23T09:38:41Z</time>
      </trkpt>
      <trkpt lat="49.26711" lon="-0.44772">
        <ele>23</ele>
        <time>2021-02-23T09:38:43Z</time>
      </trkpt>
      <trkpt lat="49.26712" lon="-0.44769">
        <ele>23</ele>
        <time>2021-02-23T09:38:44Z</time>
      </trkpt>
      <trkpt lat="49.26714" lon="-0.44765">
        <ele>23</ele>
        <time>2021-02-23T09:38:46Z</time>
      </trkpt>
      <trkpt lat="49.26715" lon="-0.44761">
        <ele>23</ele>
        <time>2021-02-23T09:38:48Z</time>
      </trkpt>
      <trkpt lat="49.26716" lon="-0.4476">
        <ele>23</ele>
        <time>2021-02-23T09:38:49Z</time>
      </trkpt>
      <trkpt lat="49.26718" lon="-0.44756">
        <ele>23</ele>
        <time>2021-02-23T09:38:51Z</time>
      </trkpt>
      <trkpt lat="49.26719" lon="-0.44754">
        <ele>23</ele>
        <time>2021-02-23T09:38:52Z</time>
      </trkpt>
      <trkpt lat="49.2672" lon="-0.44752">
        <ele>23</ele>
        <time>2021-02-23T09:38:53Z</time>
      </trkpt>
      <trkpt lat="49.26722" lon="-0.44748">
        <ele>23</ele>
        <time>2021-02-23T09:38:55Z</time>
      </trkpt>
      <trkpt lat="49.26724" lon="-0.44744">
        <ele>23</ele>
        <time>2021-02-23T09:38:57Z</time>
      </trkpt>
      <trkpt lat="49.26726" lon="-0.4474">
        <ele>23</ele>
        <time>2021-02-23T09:38:59Z</time>
      </trkpt>
      <trkpt lat="49.26728" lon="-0.44736">
        <ele>23</ele>
        <time>2021-02-23T09:39:01Z</time>
      </trkpt>
      <trkpt lat="49.26729" lon="-0.44732">
        <ele>23</ele>
        <time>2021-02-23T09:39:03Z</time>
      </trkpt>
      <trkpt lat="49.2673" lon="-0.4473">
        <ele>22.9</ele>
        <time>2021-02-23T09:39:04Z</time>
      </trkpt>
      <trkpt lat="49.26731" lon="-0.44728">
        <ele>22.9</ele>
        <time>2021-02-23T09:39:05Z</time>
      </trkpt>
      <trkpt lat="49.26732" lon="-0.44724">
        <ele>22.9</ele>
        <time>2021-02-23T09:39:07Z</time>
      </trkpt>
      <trkpt lat="49.26733" lon="-0.44722">
        <ele>22.9</ele>
        <time>2021-02-23T09:39:08Z</time>
      </trkpt>
      <trkpt lat="49.26734" lon="-0.4472">
        <ele>22.9</ele>
        <time>2021-02-23T09:39:09Z</time>
      </trkpt>
      <trkpt lat="49.26735" lon="-0.44715">
        <ele>22.8</ele>
        <time>2021-02-23T09:39:11Z</time>
      </trkpt>
      <trkpt lat="49.26737" lon="-0.44711">
        <ele>22.8</ele>
        <time>2021-02-23T09:39:13Z</time>
      </trkpt>
      <trkpt lat="49.26738" lon="-0.44709">
        <ele>22.8</ele>
        <time>2021-02-23T09:39:14Z</time>
      </trkpt>
      <trkpt lat="49.2674" lon="-0.44706">
        <ele>22.7</ele>
        <time>2021-02-23T09:39:16Z</time>
      </trkpt>
      <trkpt lat="49.26742" lon="-0.44702">
        <ele>22.7</ele>
        <time>2021-02-23T09:39:18Z</time>
      </trkpt>
      <trkpt lat="49.26742" lon="-0.44701">
        <ele>22.7</ele>
        <time>2021-02-23T09:39:19Z</time>
      </trkpt>
      <trkpt lat="49.26744" lon="-0.44697">
        <ele>22.6</ele>
        <time>2021-02-23T09:39:21Z</time>
      </trkpt>
      <trkpt lat="49.26745" lon="-0.44696">
        <ele>22.6</ele>
        <time>2021-02-23T09:39:22Z</time>
      </trkpt>
      <trkpt lat="49.26746" lon="-0.44693">
        <ele>22.6</ele>
        <time>2021-02-23T09:39:24Z</time>
      </trkpt>
      <trkpt lat="49.26748" lon="-0.44689">
        <ele>22.5</ele>
        <time>2021-02-23T09:39:26Z</time>
      </trkpt>
      <trkpt lat="49.26749" lon="-0.44687">
        <ele>22.5</ele>
        <time>2021-02-23T09:39:27Z</time>
      </trkpt>
      <trkpt lat="49.2675" lon="-0.44683">
        <ele>22.4</ele>
        <time>2021-02-23T09:39:29Z</time>
      </trkpt>
      <trkpt lat="49.26751" lon="-0.44679">
        <ele>22.4</ele>
        <time>2021-02-23T09:39:31Z</time>
      </trkpt>
      <trkpt lat="49.26751" lon="-0.44677">
        <ele>22.4</ele>
        <time>2021-02-23T09:39:32Z</time>
      </trkpt>
      <trkpt lat="49.26753" lon="-0.44673">
        <ele>22.3</ele>
        <time>2021-02-23T09:39:34Z</time>
      </trkpt>
      <trkpt lat="49.26754" lon="-0.4467">
        <ele>22.3</ele>
        <time>2021-02-23T09:39:36Z</time>
      </trkpt>
      <trkpt lat="49.26754" lon="-0.44668">
        <ele>22.3</ele>
        <time>2021-02-23T09:39:37Z</time>
      </trkpt>
      <trkpt lat="49.26755" lon="-0.44665">
        <ele>22.3</ele>
        <time>2021-02-23T09:39:39Z</time>
      </trkpt>
      <trkpt lat="49.26756" lon="-0.44661">
        <ele>22.2</ele>
        <time>2021-02-23T09:39:41Z</time>
      </trkpt>
      <trkpt lat="49.26756" lon="-0.44659">
        <ele>22.2</ele>
        <time>2021-02-23T09:39:42Z</time>
      </trkpt>
      <trkpt lat="49.26757" lon="-0.44656">
        <ele>22.2</ele>
        <time>2021-02-23T09:39:44Z</time>
      </trkpt>
      <trkpt lat="49.26758" lon="-0.44654">
        <ele>22.2</ele>
        <time>2021-02-23T09:39:45Z</time>
      </trkpt>
      <trkpt lat="49.26759" lon="-0.4465">
        <ele>22.2</ele>
        <time>2021-02-23T09:39:47Z</time>
      </trkpt>
      <trkpt lat="49.26761" lon="-0.44646">
        <ele>22.1</ele>
        <time>2021-02-23T09:39:49Z</time>
      </trkpt>
      <trkpt lat="49.26761" lon="-0.44643">
        <ele>22.1</ele>
        <time>2021-02-23T09:39:50Z</time>
      </trkpt>
      <trkpt lat="49.26762" lon="-0.44639">
        <ele>22.1</ele>
        <time>2021-02-23T09:39:52Z</time>
      </trkpt>
      <trkpt lat="49.26763" lon="-0.44637">
        <ele>22.1</ele>
        <time>2021-02-23T09:39:53Z</time>
      </trkpt>
      <trkpt lat="49.26763" lon="-0.44634">
        <ele>22.1</ele>
        <time>2021-02-23T09:39:54Z</time>
      </trkpt>
      <trkpt lat="49.26764" lon="-0.44632">
        <ele>22.1</ele>
        <time>2021-02-23T09:39:55Z</time>
      </trkpt>
      <trkpt lat="49.26766" lon="-0.44627">
        <ele>22</ele>
        <time>2021-02-23T09:39:57Z</time>
      </trkpt>
      <trkpt lat="49.26767" lon="-0.44624">
        <ele>22</ele>
        <time>2021-02-23T09:39:58Z</time>
      </trkpt>
      <trkpt lat="49.26769" lon="-0.44619">
        <ele>22</ele>
        <time>2021-02-23T09:40:00Z</time>
      </trkpt>
      <trkpt lat="49.2677" lon="-0.44617">
        <ele>22</ele>
        <time>2021-02-23T09:40:01Z</time>
      </trkpt>
      <trkpt lat="49.26772" lon="-0.44613">
        <ele>22</ele>
        <time>2021-02-23T09:40:03Z</time>
      </trkpt>
      <trkpt lat="49.26772" lon="-0.4461">
        <ele>22</ele>
        <time>2021-02-23T09:40:04Z</time>
      </trkpt>
      <trkpt lat="49.26773" lon="-0.44608">
        <ele>22</ele>
        <time>2021-02-23T09:40:05Z</time>
      </trkpt>
      <trkpt lat="49.26773" lon="-0.44606">
        <ele>22</ele>
        <time>2021-02-23T09:40:06Z</time>
      </trkpt>
      <trkpt lat="49.26774" lon="-0.44601">
        <ele>22</ele>
        <time>2021-02-23T09:40:08Z</time>
      </trkpt>
      <trkpt lat="49.26773" lon="-0.44597">
        <ele>22</ele>
        <time>2021-02-23T09:40:10Z</time>
      </trkpt>
      <trkpt lat="49.26773" lon="-0.44594">
        <ele>22</ele>
        <time>2021-02-23T09:40:12Z</time>
      </trkpt>
      <trkpt lat="49.26773" lon="-0.44589">
        <ele>22</ele>
        <time>2021-02-23T09:40:14Z</time>
      </trkpt>
      <trkpt lat="49.26773" lon="-0.44587">
        <ele>22</ele>
        <time>2021-02-23T09:40:15Z</time>
      </trkpt>
      <trkpt lat="49.26774" lon="-0.44582">
        <ele>22</ele>
        <time>2021-02-23T09:40:17Z</time>
      </trkpt>
      <trkpt lat="49.26775" lon="-0.4458">
        <ele>22</ele>
        <time>2021-02-23T09:40:18Z</time>
      </trkpt>
      <trkpt lat="49.26776" lon="-0.44578">
        <ele>22</ele>
        <time>2021-02-23T09:40:19Z</time>
      </trkpt>
      <trkpt lat="49.26778" lon="-0.44575">
        <ele>22</ele>
        <time>2021-02-23T09:40:20Z</time>
      </trkpt>
      <trkpt lat="49.26779" lon="-0.44574">
        <ele>22</ele>
        <time>2021-02-23T09:40:21Z</time>
      </trkpt>
      <trkpt lat="49.26781" lon="-0.44571">
        <ele>22</ele>
        <time>2021-02-23T09:40:22Z</time>
      </trkpt>
      <trkpt lat="49.26782" lon="-0.44569">
        <ele>22</ele>
        <time>2021-02-23T09:40:24Z</time>
      </trkpt>
      <trkpt lat="49.26785" lon="-0.44564">
        <ele>22</ele>
        <time>2021-02-23T09:40:26Z</time>
      </trkpt>
      <trkpt lat="49.26786" lon="-0.44562">
        <ele>22</ele>
        <time>2021-02-23T09:40:27Z</time>
      </trkpt>
      <trkpt lat="49.26787" lon="-0.44561">
        <ele>21.9</ele>
        <time>2021-02-23T09:40:28Z</time>
      </trkpt>
      <trkpt lat="49.26789" lon="-0.44558">
        <ele>21.9</ele>
        <time>2021-02-23T09:40:29Z</time>
      </trkpt>
      <trkpt lat="49.2679" lon="-0.44557">
        <ele>21.9</ele>
        <time>2021-02-23T09:40:31Z</time>
      </trkpt>
      <trkpt lat="49.26791" lon="-0.44556">
        <ele>21.9</ele>
        <time>2021-02-23T09:40:32Z</time>
      </trkpt>
      <trkpt lat="49.26792" lon="-0.44555">
        <ele>21.9</ele>
        <time>2021-02-23T09:40:33Z</time>
      </trkpt>
      <trkpt lat="49.26793" lon="-0.44554">
        <ele>21.9</ele>
        <time>2021-02-23T09:40:34Z</time>
      </trkpt>
      <trkpt lat="49.26795" lon="-0.44552">
        <ele>21.9</ele>
        <time>2021-02-23T09:40:36Z</time>
      </trkpt>
      <trkpt lat="49.26796" lon="-0.44552">
        <ele>21.9</ele>
        <time>2021-02-23T09:40:37Z</time>
      </trkpt>
      <trkpt lat="49.26798" lon="-0.4455">
        <ele>21.9</ele>
        <time>2021-02-23T09:40:38Z</time>
      </trkpt>
      <trkpt lat="49.268" lon="-0.44547">
        <ele>21.8</ele>
        <time>2021-02-23T09:40:40Z</time>
      </trkpt>
      <trkpt lat="49.26802" lon="-0.44545">
        <ele>21.8</ele>
        <time>2021-02-23T09:40:41Z</time>
      </trkpt>
      <trkpt lat="49.26803" lon="-0.44543">
        <ele>21.8</ele>
        <time>2021-02-23T09:40:42Z</time>
      </trkpt>
      <trkpt lat="49.26805" lon="-0.44541">
        <ele>21.8</ele>
        <time>2021-02-23T09:40:44Z</time>
      </trkpt>
      <trkpt lat="49.26806" lon="-0.44539">
        <ele>21.8</ele>
        <time>2021-02-23T09:40:45Z</time>
      </trkpt>
      <trkpt lat="49.26807" lon="-0.44538">
        <ele>21.8</ele>
        <time>2021-02-23T09:40:46Z</time>
      </trkpt>
      <trkpt lat="49.26809" lon="-0.44536">
        <ele>21.8</ele>
        <time>2021-02-23T09:40:47Z</time>
      </trkpt>
      <trkpt lat="49.2681" lon="-0.44534">
        <ele>21.7</ele>
        <time>2021-02-23T09:40:49Z</time>
      </trkpt>
      <trkpt lat="49.26811" lon="-0.44531">
        <ele>21.7</ele>
        <time>2021-02-23T09:40:50Z</time>
      </trkpt>
      <trkpt lat="49.26812" lon="-0.44528">
        <ele>21.7</ele>
        <time>2021-02-23T09:40:52Z</time>
      </trkpt>
      <trkpt lat="49.26814" lon="-0.44523">
        <ele>21.7</ele>
        <time>2021-02-23T09:40:53Z</time>
      </trkpt>
      <trkpt lat="49.26815" lon="-0.44521">
        <ele>21.6</ele>
        <time>2021-02-23T09:40:54Z</time>
      </trkpt>
      <trkpt lat="49.26817" lon="-0.44517">
        <ele>21.6</ele>
        <time>2021-02-23T09:40:56Z</time>
      </trkpt>
      <trkpt lat="49.26817" lon="-0.44515">
        <ele>21.6</ele>
        <time>2021-02-23T09:40:57Z</time>
      </trkpt>
      <trkpt lat="49.26819" lon="-0.44511">
        <ele>21.5</ele>
        <time>2021-02-23T09:40:59Z</time>
      </trkpt>
      <trkpt lat="49.2682" lon="-0.4451">
        <ele>21.5</ele>
        <time>2021-02-23T09:41:00Z</time>
      </trkpt>
      <trkpt lat="49.2682" lon="-0.44508">
        <ele>21.5</ele>
        <time>2021-02-23T09:41:01Z</time>
      </trkpt>
      <trkpt lat="49.26821" lon="-0.44506">
        <ele>21.5</ele>
        <time>2021-02-23T09:41:02Z</time>
      </trkpt>
      <trkpt lat="49.26823" lon="-0.44503">
        <ele>21.5</ele>
        <time>2021-02-23T09:41:04Z</time>
      </trkpt>
      <trkpt lat="49.26825" lon="-0.44499">
        <ele>21.4</ele>
        <time>2021-02-23T09:41:05Z</time>
      </trkpt>
      <trkpt lat="49.26826" lon="-0.44495">
        <ele>21.3</ele>
        <time>2021-02-23T09:41:06Z</time>
      </trkpt>
      <trkpt lat="49.26829" lon="-0.44491">
        <ele>21.3</ele>
        <time>2021-02-23T09:41:08Z</time>
      </trkpt>
      <trkpt lat="49.26829" lon="-0.44489">
        <ele>21.2</ele>
        <time>2021-02-23T09:41:09Z</time>
      </trkpt>
      <trkpt lat="49.26832" lon="-0.44483">
        <ele>21.2</ele>
        <time>2021-02-23T09:41:11Z</time>
      </trkpt>
      <trkpt lat="49.26833" lon="-0.44481">
        <ele>21.2</ele>
        <time>2021-02-23T09:41:12Z</time>
      </trkpt>
      <trkpt lat="49.26833" lon="-0.44479">
        <ele>21.2</ele>
        <time>2021-02-23T09:41:13Z</time>
      </trkpt>
      <trkpt lat="49.26835" lon="-0.44477">
        <ele>21.2</ele>
        <time>2021-02-23T09:41:14Z</time>
      </trkpt>
      <trkpt lat="49.26837" lon="-0.44473">
        <ele>21.2</ele>
        <time>2021-02-23T09:41:16Z</time>
      </trkpt>
      <trkpt lat="49.2684" lon="-0.44469">
        <ele>21.1</ele>
        <time>2021-02-23T09:41:17Z</time>
      </trkpt>
      <trkpt lat="49.26841" lon="-0.44467">
        <ele>21.1</ele>
        <time>2021-02-23T09:41:18Z</time>
      </trkpt>
      <trkpt lat="49.26845" lon="-0.44462">
        <ele>21.1</ele>
        <time>2021-02-23T09:41:20Z</time>
      </trkpt>
      <trkpt lat="49.26847" lon="-0.4446">
        <ele>21.1</ele>
        <time>2021-02-23T09:41:22Z</time>
      </trkpt>
      <trkpt lat="49.26849" lon="-0.44458">
        <ele>21.1</ele>
        <time>2021-02-23T09:41:23Z</time>
      </trkpt>
      <trkpt lat="49.2685" lon="-0.44455">
        <ele>21.1</ele>
        <time>2021-02-23T09:41:24Z</time>
      </trkpt>
      <trkpt lat="49.26852" lon="-0.44452">
        <ele>21.1</ele>
        <time>2021-02-23T09:41:26Z</time>
      </trkpt>
      <trkpt lat="49.26854" lon="-0.44449">
        <ele>21.1</ele>
        <time>2021-02-23T09:41:27Z</time>
      </trkpt>
      <trkpt lat="49.26855" lon="-0.44447">
        <ele>21.1</ele>
        <time>2021-02-23T09:41:28Z</time>
      </trkpt>
      <trkpt lat="49.26857" lon="-0.44444">
        <ele>21.1</ele>
        <time>2021-02-23T09:41:30Z</time>
      </trkpt>
      <trkpt lat="49.26858" lon="-0.44442">
        <ele>21.1</ele>
        <time>2021-02-23T09:41:31Z</time>
      </trkpt>
      <trkpt lat="49.2686" lon="-0.44437">
        <ele>21.1</ele>
        <time>2021-02-23T09:41:33Z</time>
      </trkpt>
      <trkpt lat="49.26863" lon="-0.44434">
        <ele>21</ele>
        <time>2021-02-23T09:41:34Z</time>
      </trkpt>
      <trkpt lat="49.26863" lon="-0.44433">
        <ele>21</ele>
        <time>2021-02-23T09:41:35Z</time>
      </trkpt>
      <trkpt lat="49.26866" lon="-0.4443">
        <ele>21</ele>
        <time>2021-02-23T09:41:37Z</time>
      </trkpt>
      <trkpt lat="49.26868" lon="-0.44428">
        <ele>21</ele>
        <time>2021-02-23T09:41:39Z</time>
      </trkpt>
      <trkpt lat="49.2687" lon="-0.44427">
        <ele>21</ele>
        <time>2021-02-23T09:41:40Z</time>
      </trkpt>
      <trkpt lat="49.26871" lon="-0.44426">
        <ele>21</ele>
        <time>2021-02-23T09:41:41Z</time>
      </trkpt>
      <trkpt lat="49.26874" lon="-0.44424">
        <ele>21</ele>
        <time>2021-02-23T09:41:43Z</time>
      </trkpt>
      <trkpt lat="49.26875" lon="-0.44423">
        <ele>21</ele>
        <time>2021-02-23T09:41:44Z</time>
      </trkpt>
      <trkpt lat="49.26876" lon="-0.44422">
        <ele>21</ele>
        <time>2021-02-23T09:41:45Z</time>
      </trkpt>
      <trkpt lat="49.26878" lon="-0.44421">
        <ele>21</ele>
        <time>2021-02-23T09:41:46Z</time>
      </trkpt>
      <trkpt lat="49.2688" lon="-0.4442">
        <ele>21.1</ele>
        <time>2021-02-23T09:41:47Z</time>
      </trkpt>
      <trkpt lat="49.26881" lon="-0.44419">
        <ele>21.1</ele>
        <time>2021-02-23T09:41:49Z</time>
      </trkpt>
      <trkpt lat="49.26883" lon="-0.44418">
        <ele>21.1</ele>
        <time>2021-02-23T09:41:50Z</time>
      </trkpt>
      <trkpt lat="49.26884" lon="-0.44416">
        <ele>21.1</ele>
        <time>2021-02-23T09:41:51Z</time>
      </trkpt>
      <trkpt lat="49.26886" lon="-0.44415">
        <ele>21.1</ele>
        <time>2021-02-23T09:41:52Z</time>
      </trkpt>
      <trkpt lat="49.26888" lon="-0.44413">
        <ele>21.1</ele>
        <time>2021-02-23T09:41:54Z</time>
      </trkpt>
      <trkpt lat="49.26891" lon="-0.4441">
        <ele>21.2</ele>
        <time>2021-02-23T09:41:56Z</time>
      </trkpt>
      <trkpt lat="49.26892" lon="-0.4441">
        <ele>21.2</ele>
        <time>2021-02-23T09:41:57Z</time>
      </trkpt>
      <trkpt lat="49.26894" lon="-0.44409">
        <ele>21.2</ele>
        <time>2021-02-23T09:41:58Z</time>
      </trkpt>
      <trkpt lat="49.26895" lon="-0.44408">
        <ele>21.2</ele>
        <time>2021-02-23T09:41:59Z</time>
      </trkpt>
      <trkpt lat="49.26896" lon="-0.44407">
        <ele>21.2</ele>
        <time>2021-02-23T09:42:01Z</time>
      </trkpt>
      <trkpt lat="49.26899" lon="-0.44406">
        <ele>21.3</ele>
        <time>2021-02-23T09:42:02Z</time>
      </trkpt>
      <trkpt lat="49.26901" lon="-0.44405">
        <ele>21.3</ele>
        <time>2021-02-23T09:42:04Z</time>
      </trkpt>
      <trkpt lat="49.26902" lon="-0.44405">
        <ele>21.3</ele>
        <time>2021-02-23T09:42:05Z</time>
      </trkpt>
      <trkpt lat="49.26904" lon="-0.44404">
        <ele>21.4</ele>
        <time>2021-02-23T09:42:07Z</time>
      </trkpt>
      <trkpt lat="49.26906" lon="-0.44403">
        <ele>21.4</ele>
        <time>2021-02-23T09:42:08Z</time>
      </trkpt>
      <trkpt lat="49.26907" lon="-0.44403">
        <ele>21.4</ele>
        <time>2021-02-23T09:42:09Z</time>
      </trkpt>
      <trkpt lat="49.26909" lon="-0.44401">
        <ele>21.5</ele>
        <time>2021-02-23T09:42:11Z</time>
      </trkpt>
      <trkpt lat="49.2691" lon="-0.444">
        <ele>21.5</ele>
        <time>2021-02-23T09:42:13Z</time>
      </trkpt>
      <trkpt lat="49.26912" lon="-0.44399">
        <ele>21.5</ele>
        <time>2021-02-23T09:42:14Z</time>
      </trkpt>
      <trkpt lat="49.26913" lon="-0.44398">
        <ele>21.6</ele>
        <time>2021-02-23T09:42:15Z</time>
      </trkpt>
      <trkpt lat="49.26915" lon="-0.44396">
        <ele>21.6</ele>
        <time>2021-02-23T09:42:17Z</time>
      </trkpt>
      <trkpt lat="49.26917" lon="-0.44395">
        <ele>21.6</ele>
        <time>2021-02-23T09:42:18Z</time>
      </trkpt>
      <trkpt lat="49.26919" lon="-0.44394">
        <ele>21.7</ele>
        <time>2021-02-23T09:42:19Z</time>
      </trkpt>
      <trkpt lat="49.26921" lon="-0.44393">
        <ele>21.8</ele>
        <time>2021-02-23T09:42:21Z</time>
      </trkpt>
      <trkpt lat="49.26924" lon="-0.44391">
        <ele>21.8</ele>
        <time>2021-02-23T09:42:22Z</time>
      </trkpt>
      <trkpt lat="49.26925" lon="-0.44391">
        <ele>21.8</ele>
        <time>2021-02-23T09:42:23Z</time>
      </trkpt>
      <trkpt lat="49.26929" lon="-0.44387">
        <ele>22</ele>
        <time>2021-02-23T09:42:25Z</time>
      </trkpt>
      <trkpt lat="49.26931" lon="-0.44386">
        <ele>22</ele>
        <time>2021-02-23T09:42:26Z</time>
      </trkpt>
      <trkpt lat="49.26933" lon="-0.44384">
        <ele>22</ele>
        <time>2021-02-23T09:42:27Z</time>
      </trkpt>
      <trkpt lat="49.26935" lon="-0.44383">
        <ele>22.1</ele>
        <time>2021-02-23T09:42:28Z</time>
      </trkpt>
      <trkpt lat="49.26937" lon="-0.44381">
        <ele>22.1</ele>
        <time>2021-02-23T09:42:30Z</time>
      </trkpt>
      <trkpt lat="49.2694" lon="-0.44378">
        <ele>22.1</ele>
        <time>2021-02-23T09:42:31Z</time>
      </trkpt>
      <trkpt lat="49.26943" lon="-0.44376">
        <ele>22.2</ele>
        <time>2021-02-23T09:42:33Z</time>
      </trkpt>
      <trkpt lat="49.26944" lon="-0.44376">
        <ele>22.2</ele>
        <time>2021-02-23T09:42:34Z</time>
      </trkpt>
      <trkpt lat="49.26947" lon="-0.44374">
        <ele>22.2</ele>
        <time>2021-02-23T09:42:36Z</time>
      </trkpt>
      <trkpt lat="49.26948" lon="-0.44374">
        <ele>22.2</ele>
        <time>2021-02-23T09:42:37Z</time>
      </trkpt>
      <trkpt lat="49.2695" lon="-0.44373">
        <ele>22.2</ele>
        <time>2021-02-23T09:42:38Z</time>
      </trkpt>
      <trkpt lat="49.26954" lon="-0.44371">
        <ele>22.2</ele>
        <time>2021-02-23T09:42:40Z</time>
      </trkpt>
      <trkpt lat="49.26957" lon="-0.44371">
        <ele>22.1</ele>
        <time>2021-02-23T09:42:41Z</time>
      </trkpt>
      <trkpt lat="49.26959" lon="-0.4437">
        <ele>22.1</ele>
        <time>2021-02-23T09:42:42Z</time>
      </trkpt>
      <trkpt lat="49.26961" lon="-0.4437">
        <ele>22.1</ele>
        <time>2021-02-23T09:42:44Z</time>
      </trkpt>
      <trkpt lat="49.26962" lon="-0.4437">
        <ele>22.1</ele>
        <time>2021-02-23T09:42:45Z</time>
      </trkpt>
      <trkpt lat="49.26966" lon="-0.44369">
        <ele>22.1</ele>
        <time>2021-02-23T09:42:46Z</time>
      </trkpt>
      <trkpt lat="49.26969" lon="-0.44369">
        <ele>22</ele>
        <time>2021-02-23T09:42:48Z</time>
      </trkpt>
      <trkpt lat="49.26972" lon="-0.44368">
        <ele>22</ele>
        <time>2021-02-23T09:42:49Z</time>
      </trkpt>
      <trkpt lat="49.26975" lon="-0.44367">
        <ele>21.9</ele>
        <time>2021-02-23T09:42:51Z</time>
      </trkpt>
      <trkpt lat="49.26979" lon="-0.44366">
        <ele>21.8</ele>
        <time>2021-02-23T09:42:52Z</time>
      </trkpt>
      <trkpt lat="49.26982" lon="-0.44366">
        <ele>21.8</ele>
        <time>2021-02-23T09:42:54Z</time>
      </trkpt>
      <trkpt lat="49.26985" lon="-0.44365">
        <ele>21.7</ele>
        <time>2021-02-23T09:42:56Z</time>
      </trkpt>
      <trkpt lat="49.26986" lon="-0.44365">
        <ele>21.7</ele>
        <time>2021-02-23T09:42:57Z</time>
      </trkpt>
      <trkpt lat="49.26989" lon="-0.44364">
        <ele>21.6</ele>
        <time>2021-02-23T09:42:59Z</time>
      </trkpt>
      <trkpt lat="49.26992" lon="-0.44363">
        <ele>21.6</ele>
        <time>2021-02-23T09:43:00Z</time>
      </trkpt>
      <trkpt lat="49.26993" lon="-0.44363">
        <ele>21.6</ele>
        <time>2021-02-23T09:43:01Z</time>
      </trkpt>
      <trkpt lat="49.26996" lon="-0.44363">
        <ele>21.5</ele>
        <time>2021-02-23T09:43:03Z</time>
      </trkpt>
      <trkpt lat="49.26997" lon="-0.44363">
        <ele>21.5</ele>
        <time>2021-02-23T09:43:04Z</time>
      </trkpt>
      <trkpt lat="49.27" lon="-0.44361">
        <ele>21.4</ele>
        <time>2021-02-23T09:43:06Z</time>
      </trkpt>
      <trkpt lat="49.27001" lon="-0.44361">
        <ele>21.4</ele>
        <time>2021-02-23T09:43:07Z</time>
      </trkpt>
      <trkpt lat="49.27004" lon="-0.44361">
        <ele>21.3</ele>
        <time>2021-02-23T09:43:09Z</time>
      </trkpt>
      <trkpt lat="49.27005" lon="-0.44361">
        <ele>21.3</ele>
        <time>2021-02-23T09:43:10Z</time>
      </trkpt>
      <trkpt lat="49.27008" lon="-0.4436">
        <ele>21.3</ele>
        <time>2021-02-23T09:43:12Z</time>
      </trkpt>
      <trkpt lat="49.27009" lon="-0.44359">
        <ele>21.3</ele>
        <time>2021-02-23T09:43:13Z</time>
      </trkpt>
      <trkpt lat="49.27011" lon="-0.44359">
        <ele>21.2</ele>
        <time>2021-02-23T09:43:14Z</time>
      </trkpt>
      <trkpt lat="49.27015" lon="-0.44358">
        <ele>21.1</ele>
        <time>2021-02-23T09:43:16Z</time>
      </trkpt>
      <trkpt lat="49.27019" lon="-0.44357">
        <ele>21.1</ele>
        <time>2021-02-23T09:43:17Z</time>
      </trkpt>
      <trkpt lat="49.27023" lon="-0.44356">
        <ele>21</ele>
        <time>2021-02-23T09:43:19Z</time>
      </trkpt>
      <trkpt lat="49.27026" lon="-0.44355">
        <ele>20.9</ele>
        <time>2021-02-23T09:43:20Z</time>
      </trkpt>
      <trkpt lat="49.27029" lon="-0.44354">
        <ele>20.9</ele>
        <time>2021-02-23T09:43:21Z</time>
      </trkpt>
      <trkpt lat="49.27031" lon="-0.44353">
        <ele>20.8</ele>
        <time>2021-02-23T09:43:23Z</time>
      </trkpt>
      <trkpt lat="49.27033" lon="-0.44352">
        <ele>20.8</ele>
        <time>2021-02-23T09:43:24Z</time>
      </trkpt>
      <trkpt lat="49.27035" lon="-0.44351">
        <ele>20.8</ele>
        <time>2021-02-23T09:43:26Z</time>
      </trkpt>
      <trkpt lat="49.27039" lon="-0.4435">
        <ele>20.7</ele>
        <time>2021-02-23T09:43:28Z</time>
      </trkpt>
      <trkpt lat="49.2704" lon="-0.44349">
        <ele>20.7</ele>
        <time>2021-02-23T09:43:29Z</time>
      </trkpt>
      <trkpt lat="49.27043" lon="-0.44347">
        <ele>20.6</ele>
        <time>2021-02-23T09:43:31Z</time>
      </trkpt>
      <trkpt lat="49.27044" lon="-0.44347">
        <ele>20.6</ele>
        <time>2021-02-23T09:43:32Z</time>
      </trkpt>
      <trkpt lat="49.27046" lon="-0.44346">
        <ele>20.6</ele>
        <time>2021-02-23T09:43:33Z</time>
      </trkpt>
      <trkpt lat="49.27047" lon="-0.44345">
        <ele>20.5</ele>
        <time>2021-02-23T09:43:34Z</time>
      </trkpt>
      <trkpt lat="49.2705" lon="-0.44344">
        <ele>20.5</ele>
        <time>2021-02-23T09:43:36Z</time>
      </trkpt>
      <trkpt lat="49.27052" lon="-0.44343">
        <ele>20.5</ele>
        <time>2021-02-23T09:43:38Z</time>
      </trkpt>
      <trkpt lat="49.27053" lon="-0.44342">
        <ele>20.4</ele>
        <time>2021-02-23T09:43:39Z</time>
      </trkpt>
      <trkpt lat="49.27055" lon="-0.44341">
        <ele>20.4</ele>
        <time>2021-02-23T09:43:40Z</time>
      </trkpt>
      <trkpt lat="49.27056" lon="-0.44339">
        <ele>20.4</ele>
        <time>2021-02-23T09:43:41Z</time>
      </trkpt>
      <trkpt lat="49.27059" lon="-0.44336">
        <ele>20.3</ele>
        <time>2021-02-23T09:43:43Z</time>
      </trkpt>
      <trkpt lat="49.27061" lon="-0.44335">
        <ele>20.3</ele>
        <time>2021-02-23T09:43:44Z</time>
      </trkpt>
      <trkpt lat="49.27064" lon="-0.44333">
        <ele>20.3</ele>
        <time>2021-02-23T09:43:46Z</time>
      </trkpt>
      <trkpt lat="49.27067" lon="-0.44332">
        <ele>20.2</ele>
        <time>2021-02-23T09:43:47Z</time>
      </trkpt>
      <trkpt lat="49.2707" lon="-0.44331">
        <ele>20.2</ele>
        <time>2021-02-23T09:43:49Z</time>
      </trkpt>
      <trkpt lat="49.27072" lon="-0.4433">
        <ele>20.2</ele>
        <time>2021-02-23T09:43:50Z</time>
      </trkpt>
      <trkpt lat="49.27073" lon="-0.4433">
        <ele>20.2</ele>
        <time>2021-02-23T09:43:51Z</time>
      </trkpt>
      <trkpt lat="49.27076" lon="-0.44329">
        <ele>20.1</ele>
        <time>2021-02-23T09:43:52Z</time>
      </trkpt>
      <trkpt lat="49.27077" lon="-0.44328">
        <ele>20.1</ele>
        <time>2021-02-23T09:43:53Z</time>
      </trkpt>
      <trkpt lat="49.2708" lon="-0.44327">
        <ele>20.1</ele>
        <time>2021-02-23T09:43:55Z</time>
      </trkpt>
      <trkpt lat="49.27081" lon="-0.44326">
        <ele>20.1</ele>
        <time>2021-02-23T09:43:56Z</time>
      </trkpt>
      <trkpt lat="49.27084" lon="-0.44325">
        <ele>20.1</ele>
        <time>2021-02-23T09:43:57Z</time>
      </trkpt>
      <trkpt lat="49.27086" lon="-0.44325">
        <ele>20.1</ele>
        <time>2021-02-23T09:43:58Z</time>
      </trkpt>
      <trkpt lat="49.27089" lon="-0.44324">
        <ele>20</ele>
        <time>2021-02-23T09:44:00Z</time>
      </trkpt>
      <trkpt lat="49.27091" lon="-0.44323">
        <ele>20</ele>
        <time>2021-02-23T09:44:01Z</time>
      </trkpt>
      <trkpt lat="49.27093" lon="-0.44323">
        <ele>20</ele>
        <time>2021-02-23T09:44:03Z</time>
      </trkpt>
      <trkpt lat="49.27096" lon="-0.44322">
        <ele>20</ele>
        <time>2021-02-23T09:44:05Z</time>
      </trkpt>
      <trkpt lat="49.27097" lon="-0.44322">
        <ele>20</ele>
        <time>2021-02-23T09:44:06Z</time>
      </trkpt>
      <trkpt lat="49.27101" lon="-0.44321">
        <ele>20</ele>
        <time>2021-02-23T09:44:08Z</time>
      </trkpt>
      <trkpt lat="49.27105" lon="-0.44319">
        <ele>20</ele>
        <time>2021-02-23T09:44:09Z</time>
      </trkpt>
      <trkpt lat="49.27106" lon="-0.44318">
        <ele>20</ele>
        <time>2021-02-23T09:44:10Z</time>
      </trkpt>
      <trkpt lat="49.2711" lon="-0.44317">
        <ele>20</ele>
        <time>2021-02-23T09:44:12Z</time>
      </trkpt>
      <trkpt lat="49.27112" lon="-0.44317">
        <ele>19.9</ele>
        <time>2021-02-23T09:44:13Z</time>
      </trkpt>
      <trkpt lat="49.27115" lon="-0.44316">
        <ele>19.9</ele>
        <time>2021-02-23T09:44:15Z</time>
      </trkpt>
      <trkpt lat="49.27118" lon="-0.44315">
        <ele>19.9</ele>
        <time>2021-02-23T09:44:16Z</time>
      </trkpt>
      <trkpt lat="49.2712" lon="-0.44314">
        <ele>19.9</ele>
        <time>2021-02-23T09:44:18Z</time>
      </trkpt>
      <trkpt lat="49.27123" lon="-0.44312">
        <ele>19.9</ele>
        <time>2021-02-23T09:44:19Z</time>
      </trkpt>
      <trkpt lat="49.27127" lon="-0.4431">
        <ele>19.9</ele>
        <time>2021-02-23T09:44:21Z</time>
      </trkpt>
      <trkpt lat="49.27128" lon="-0.44309">
        <ele>19.9</ele>
        <time>2021-02-23T09:44:22Z</time>
      </trkpt>
      <trkpt lat="49.27131" lon="-0.44308">
        <ele>19.9</ele>
        <time>2021-02-23T09:44:24Z</time>
      </trkpt>
      <trkpt lat="49.27133" lon="-0.44307">
        <ele>19.9</ele>
        <time>2021-02-23T09:44:25Z</time>
      </trkpt>
      <trkpt lat="49.27135" lon="-0.44305">
        <ele>19.9</ele>
        <time>2021-02-23T09:44:27Z</time>
      </trkpt>
      <trkpt lat="49.27138" lon="-0.44303">
        <ele>19.9</ele>
        <time>2021-02-23T09:44:28Z</time>
      </trkpt>
      <trkpt lat="49.27139" lon="-0.44301">
        <ele>19.9</ele>
        <time>2021-02-23T09:44:29Z</time>
      </trkpt>
      <trkpt lat="49.27142" lon="-0.44299">
        <ele>19.9</ele>
        <time>2021-02-23T09:44:31Z</time>
      </trkpt>
      <trkpt lat="49.27143" lon="-0.44299">
        <ele>19.9</ele>
        <time>2021-02-23T09:44:32Z</time>
      </trkpt>
      <trkpt lat="49.27145" lon="-0.44297">
        <ele>19.9</ele>
        <time>2021-02-23T09:44:34Z</time>
      </trkpt>
      <trkpt lat="49.27146" lon="-0.44296">
        <ele>19.9</ele>
        <time>2021-02-23T09:44:35Z</time>
      </trkpt>
      <trkpt lat="49.27148" lon="-0.44295">
        <ele>19.9</ele>
        <time>2021-02-23T09:44:36Z</time>
      </trkpt>
      <trkpt lat="49.27149" lon="-0.44294">
        <ele>19.9</ele>
        <time>2021-02-23T09:44:37Z</time>
      </trkpt>
      <trkpt lat="49.27151" lon="-0.44293">
        <ele>19.9</ele>
        <time>2021-02-23T09:44:38Z</time>
      </trkpt>
      <trkpt lat="49.27154" lon="-0.44292">
        <ele>19.8</ele>
        <time>2021-02-23T09:44:40Z</time>
      </trkpt>
      <trkpt lat="49.27157" lon="-0.44291">
        <ele>19.8</ele>
        <time>2021-02-23T09:44:41Z</time>
      </trkpt>
      <trkpt lat="49.27161" lon="-0.44291">
        <ele>19.8</ele>
        <time>2021-02-23T09:44:43Z</time>
      </trkpt>
      <trkpt lat="49.27162" lon="-0.4429">
        <ele>19.8</ele>
        <time>2021-02-23T09:44:44Z</time>
      </trkpt>
      <trkpt lat="49.27166" lon="-0.4429">
        <ele>19.8</ele>
        <time>2021-02-23T09:44:46Z</time>
      </trkpt>
      <trkpt lat="49.27167" lon="-0.4429">
        <ele>19.8</ele>
        <time>2021-02-23T09:44:47Z</time>
      </trkpt>
      <trkpt lat="49.2717" lon="-0.44289">
        <ele>19.8</ele>
        <time>2021-02-23T09:44:48Z</time>
      </trkpt>
      <trkpt lat="49.27171" lon="-0.44289">
        <ele>19.8</ele>
        <time>2021-02-23T09:44:49Z</time>
      </trkpt>
      <trkpt lat="49.27176" lon="-0.44288">
        <ele>19.8</ele>
        <time>2021-02-23T09:44:51Z</time>
      </trkpt>
      <trkpt lat="49.27177" lon="-0.44288">
        <ele>19.8</ele>
        <time>2021-02-23T09:44:52Z</time>
      </trkpt>
      <trkpt lat="49.27179" lon="-0.44288">
        <ele>19.8</ele>
        <time>2021-02-23T09:44:53Z</time>
      </trkpt>
      <trkpt lat="49.27182" lon="-0.44287">
        <ele>19.8</ele>
        <time>2021-02-23T09:44:55Z</time>
      </trkpt>
      <trkpt lat="49.27183" lon="-0.44287">
        <ele>19.8</ele>
        <time>2021-02-23T09:44:56Z</time>
      </trkpt>
      <trkpt lat="49.27187" lon="-0.44288">
        <ele>19.8</ele>
        <time>2021-02-23T09:44:58Z</time>
      </trkpt>
      <trkpt lat="49.27188" lon="-0.44288">
        <ele>19.8</ele>
        <time>2021-02-23T09:44:59Z</time>
      </trkpt>
      <trkpt lat="49.27192" lon="-0.44292">
        <ele>19.8</ele>
        <time>2021-02-23T09:45:00Z</time>
      </trkpt>
      <trkpt lat="49.27193" lon="-0.44294">
        <ele>19.7</ele>
        <time>2021-02-23T09:45:01Z</time>
      </trkpt>
      <trkpt lat="49.27195" lon="-0.44297">
        <ele>19.7</ele>
        <time>2021-02-23T09:45:02Z</time>
      </trkpt>
      <trkpt lat="49.27196" lon="-0.443">
        <ele>19.6</ele>
        <time>2021-02-23T09:45:04Z</time>
      </trkpt>
      <trkpt lat="49.27198" lon="-0.44304">
        <ele>19.6</ele>
        <time>2021-02-23T09:45:05Z</time>
      </trkpt>
      <trkpt lat="49.27198" lon="-0.44305">
        <ele>19.5</ele>
        <time>2021-02-23T09:45:06Z</time>
      </trkpt>
      <trkpt lat="49.272" lon="-0.44309">
        <ele>19.5</ele>
        <time>2021-02-23T09:45:07Z</time>
      </trkpt>
      <trkpt lat="49.27201" lon="-0.44311">
        <ele>19.5</ele>
        <time>2021-02-23T09:45:08Z</time>
      </trkpt>
      <trkpt lat="49.27203" lon="-0.44315">
        <ele>19.4</ele>
        <time>2021-02-23T09:45:10Z</time>
      </trkpt>
      <trkpt lat="49.27205" lon="-0.44318">
        <ele>19.4</ele>
        <time>2021-02-23T09:45:11Z</time>
      </trkpt>
      <trkpt lat="49.27208" lon="-0.44324">
        <ele>19.3</ele>
        <time>2021-02-23T09:45:13Z</time>
      </trkpt>
      <trkpt lat="49.27208" lon="-0.44326">
        <ele>19.3</ele>
        <time>2021-02-23T09:45:14Z</time>
      </trkpt>
      <trkpt lat="49.27209" lon="-0.44328">
        <ele>19.3</ele>
        <time>2021-02-23T09:45:15Z</time>
      </trkpt>
      <trkpt lat="49.27211" lon="-0.44332">
        <ele>19.2</ele>
        <time>2021-02-23T09:45:16Z</time>
      </trkpt>
      <trkpt lat="49.27214" lon="-0.44337">
        <ele>19.2</ele>
        <time>2021-02-23T09:45:18Z</time>
      </trkpt>
      <trkpt lat="49.27215" lon="-0.44338">
        <ele>19.2</ele>
        <time>2021-02-23T09:45:19Z</time>
      </trkpt>
      <trkpt lat="49.27216" lon="-0.44341">
        <ele>19.1</ele>
        <time>2021-02-23T09:45:20Z</time>
      </trkpt>
      <trkpt lat="49.27218" lon="-0.44343">
        <ele>19.1</ele>
        <time>2021-02-23T09:45:22Z</time>
      </trkpt>
      <trkpt lat="49.2722" lon="-0.44346">
        <ele>19.1</ele>
        <time>2021-02-23T09:45:24Z</time>
      </trkpt>
      <trkpt lat="49.27221" lon="-0.44348">
        <ele>19</ele>
        <time>2021-02-23T09:45:25Z</time>
      </trkpt>
      <trkpt lat="49.27223" lon="-0.4435">
        <ele>19</ele>
        <time>2021-02-23T09:45:27Z</time>
      </trkpt>
      <trkpt lat="49.27224" lon="-0.44352">
        <ele>19</ele>
        <time>2021-02-23T09:45:28Z</time>
      </trkpt>
      <trkpt lat="49.27225" lon="-0.44354">
        <ele>19</ele>
        <time>2021-02-23T09:45:29Z</time>
      </trkpt>
      <trkpt lat="49.27227" lon="-0.44357">
        <ele>18.9</ele>
        <time>2021-02-23T09:45:30Z</time>
      </trkpt>
      <trkpt lat="49.27228" lon="-0.44359">
        <ele>18.9</ele>
        <time>2021-02-23T09:45:32Z</time>
      </trkpt>
      <trkpt lat="49.2723" lon="-0.44363">
        <ele>18.8</ele>
        <time>2021-02-23T09:45:33Z</time>
      </trkpt>
      <trkpt lat="49.27231" lon="-0.44365">
        <ele>18.8</ele>
        <time>2021-02-23T09:45:34Z</time>
      </trkpt>
      <trkpt lat="49.27234" lon="-0.44367">
        <ele>18.8</ele>
        <time>2021-02-23T09:45:36Z</time>
      </trkpt>
      <trkpt lat="49.27235" lon="-0.44368">
        <ele>18.8</ele>
        <time>2021-02-23T09:45:37Z</time>
      </trkpt>
      <trkpt lat="49.27237" lon="-0.4437">
        <ele>18.7</ele>
        <time>2021-02-23T09:45:39Z</time>
      </trkpt>
      <trkpt lat="49.27239" lon="-0.44373">
        <ele>18.7</ele>
        <time>2021-02-23T09:45:41Z</time>
      </trkpt>
      <trkpt lat="49.27242" lon="-0.44377">
        <ele>18.7</ele>
        <time>2021-02-23T09:45:42Z</time>
      </trkpt>
      <trkpt lat="49.27242" lon="-0.44378">
        <ele>18.7</ele>
        <time>2021-02-23T09:45:43Z</time>
      </trkpt>
      <trkpt lat="49.27245" lon="-0.44382">
        <ele>18.6</ele>
        <time>2021-02-23T09:45:45Z</time>
      </trkpt>
      <trkpt lat="49.27246" lon="-0.44383">
        <ele>18.6</ele>
        <time>2021-02-23T09:45:46Z</time>
      </trkpt>
      <trkpt lat="49.27247" lon="-0.44385">
        <ele>18.6</ele>
        <time>2021-02-23T09:45:47Z</time>
      </trkpt>
      <trkpt lat="49.27249" lon="-0.44388">
        <ele>18.6</ele>
        <time>2021-02-23T09:45:49Z</time>
      </trkpt>
      <trkpt lat="49.27252" lon="-0.44392">
        <ele>18.5</ele>
        <time>2021-02-23T09:45:51Z</time>
      </trkpt>
      <trkpt lat="49.27255" lon="-0.44396">
        <ele>18.5</ele>
        <time>2021-02-23T09:45:53Z</time>
      </trkpt>
      <trkpt lat="49.27256" lon="-0.44398">
        <ele>18.5</ele>
        <time>2021-02-23T09:45:54Z</time>
      </trkpt>
      <trkpt lat="49.27258" lon="-0.44401">
        <ele>18.5</ele>
        <time>2021-02-23T09:45:56Z</time>
      </trkpt>
      <trkpt lat="49.2726" lon="-0.44404">
        <ele>18.5</ele>
        <time>2021-02-23T09:45:57Z</time>
      </trkpt>
      <trkpt lat="49.27261" lon="-0.44406">
        <ele>18.5</ele>
        <time>2021-02-23T09:45:58Z</time>
      </trkpt>
      <trkpt lat="49.27263" lon="-0.44409">
        <ele>18.5</ele>
        <time>2021-02-23T09:46:00Z</time>
      </trkpt>
      <trkpt lat="49.27264" lon="-0.44411">
        <ele>18.5</ele>
        <time>2021-02-23T09:46:01Z</time>
      </trkpt>
      <trkpt lat="49.27265" lon="-0.44413">
        <ele>18.4</ele>
        <time>2021-02-23T09:46:03Z</time>
      </trkpt>
      <trkpt lat="49.27266" lon="-0.44415">
        <ele>18.4</ele>
        <time>2021-02-23T09:46:04Z</time>
      </trkpt>
      <trkpt lat="49.27267" lon="-0.44417">
        <ele>18.4</ele>
        <time>2021-02-23T09:46:05Z</time>
      </trkpt>
      <trkpt lat="49.2727" lon="-0.44423">
        <ele>18.4</ele>
        <time>2021-02-23T09:46:07Z</time>
      </trkpt>
      <trkpt lat="49.27271" lon="-0.44425">
        <ele>18.4</ele>
        <time>2021-02-23T09:46:08Z</time>
      </trkpt>
      <trkpt lat="49.27272" lon="-0.44427">
        <ele>18.4</ele>
        <time>2021-02-23T09:46:09Z</time>
      </trkpt>
      <trkpt lat="49.27275" lon="-0.44431">
        <ele>18.4</ele>
        <time>2021-02-23T09:46:11Z</time>
      </trkpt>
      <trkpt lat="49.27275" lon="-0.44433">
        <ele>18.4</ele>
        <time>2021-02-23T09:46:12Z</time>
      </trkpt>
      <trkpt lat="49.27276" lon="-0.44436">
        <ele>18.4</ele>
        <time>2021-02-23T09:46:13Z</time>
      </trkpt>
      <trkpt lat="49.27277" lon="-0.44439">
        <ele>18.4</ele>
        <time>2021-02-23T09:46:15Z</time>
      </trkpt>
      <trkpt lat="49.27279" lon="-0.44444">
        <ele>18.3</ele>
        <time>2021-02-23T09:46:17Z</time>
      </trkpt>
      <trkpt lat="49.27279" lon="-0.44446">
        <ele>18.3</ele>
        <time>2021-02-23T09:46:18Z</time>
      </trkpt>
      <trkpt lat="49.2728" lon="-0.44449">
        <ele>18.3</ele>
        <time>2021-02-23T09:46:20Z</time>
      </trkpt>
      <trkpt lat="49.27281" lon="-0.44451">
        <ele>18.3</ele>
        <time>2021-02-23T09:46:21Z</time>
      </trkpt>
      <trkpt lat="49.27281" lon="-0.44454">
        <ele>18.3</ele>
        <time>2021-02-23T09:46:22Z</time>
      </trkpt>
      <trkpt lat="49.27282" lon="-0.44457">
        <ele>18.3</ele>
        <time>2021-02-23T09:46:24Z</time>
      </trkpt>
      <trkpt lat="49.27282" lon="-0.44462">
        <ele>18.3</ele>
        <time>2021-02-23T09:46:25Z</time>
      </trkpt>
      <trkpt lat="49.27284" lon="-0.4447">
        <ele>18.3</ele>
        <time>2021-02-23T09:46:27Z</time>
      </trkpt>
      <trkpt lat="49.27284" lon="-0.44472">
        <ele>18.3</ele>
        <time>2021-02-23T09:46:29Z</time>
      </trkpt>
      <trkpt lat="49.27284" lon="-0.44474">
        <ele>18.2</ele>
        <time>2021-02-23T09:46:30Z</time>
      </trkpt>
      <trkpt lat="49.27285" lon="-0.44479">
        <ele>18.2</ele>
        <time>2021-02-23T09:46:32Z</time>
      </trkpt>
      <trkpt lat="49.27286" lon="-0.44483">
        <ele>18.2</ele>
        <time>2021-02-23T09:46:33Z</time>
      </trkpt>
      <trkpt lat="49.27286" lon="-0.44489">
        <ele>18.2</ele>
        <time>2021-02-23T09:46:35Z</time>
      </trkpt>
      <trkpt lat="49.27287" lon="-0.44493">
        <ele>18.2</ele>
        <time>2021-02-23T09:46:36Z</time>
      </trkpt>
      <trkpt lat="49.27288" lon="-0.44498">
        <ele>18.2</ele>
        <time>2021-02-23T09:46:38Z</time>
      </trkpt>
      <trkpt lat="49.27288" lon="-0.44502">
        <ele>18.2</ele>
        <time>2021-02-23T09:46:39Z</time>
      </trkpt>
      <trkpt lat="49.27289" lon="-0.44507">
        <ele>18.1</ele>
        <time>2021-02-23T09:46:40Z</time>
      </trkpt>
      <trkpt lat="49.27289" lon="-0.44513">
        <ele>18.1</ele>
        <time>2021-02-23T09:46:42Z</time>
      </trkpt>
      <trkpt lat="49.2729" lon="-0.44515">
        <ele>18.1</ele>
        <time>2021-02-23T09:46:43Z</time>
      </trkpt>
      <trkpt lat="49.2729" lon="-0.4452">
        <ele>18.1</ele>
        <time>2021-02-23T09:46:45Z</time>
      </trkpt>
      <trkpt lat="49.2729" lon="-0.44521">
        <ele>18.1</ele>
        <time>2021-02-23T09:46:46Z</time>
      </trkpt>
      <trkpt lat="49.2729" lon="-0.44527">
        <ele>18</ele>
        <time>2021-02-23T09:46:48Z</time>
      </trkpt>
      <trkpt lat="49.2729" lon="-0.44529">
        <ele>18</ele>
        <time>2021-02-23T09:46:49Z</time>
      </trkpt>
      <trkpt lat="49.27291" lon="-0.44533">
        <ele>18</ele>
        <time>2021-02-23T09:46:51Z</time>
      </trkpt>
      <trkpt lat="49.27291" lon="-0.44535">
        <ele>18</ele>
        <time>2021-02-23T09:46:52Z</time>
      </trkpt>
      <trkpt lat="49.27292" lon="-0.44538">
        <ele>18</ele>
        <time>2021-02-23T09:46:53Z</time>
      </trkpt>
      <trkpt lat="49.27292" lon="-0.44541">
        <ele>18</ele>
        <time>2021-02-23T09:46:55Z</time>
      </trkpt>
      <trkpt lat="49.27293" lon="-0.44545">
        <ele>18</ele>
        <time>2021-02-23T09:46:56Z</time>
      </trkpt>
      <trkpt lat="49.27293" lon="-0.44547">
        <ele>18</ele>
        <time>2021-02-23T09:46:57Z</time>
      </trkpt>
      <trkpt lat="49.27294" lon="-0.4455">
        <ele>18</ele>
        <time>2021-02-23T09:46:58Z</time>
      </trkpt>
      <trkpt lat="49.27294" lon="-0.44553">
        <ele>18</ele>
        <time>2021-02-23T09:47:00Z</time>
      </trkpt>
      <trkpt lat="49.27295" lon="-0.44559">
        <ele>18</ele>
        <time>2021-02-23T09:47:01Z</time>
      </trkpt>
      <trkpt lat="49.27295" lon="-0.44561">
        <ele>18</ele>
        <time>2021-02-23T09:47:02Z</time>
      </trkpt>
      <trkpt lat="49.27295" lon="-0.44566">
        <ele>18.1</ele>
        <time>2021-02-23T09:47:04Z</time>
      </trkpt>
      <trkpt lat="49.27295" lon="-0.44568">
        <ele>18.1</ele>
        <time>2021-02-23T09:47:05Z</time>
      </trkpt>
      <trkpt lat="49.27295" lon="-0.44571">
        <ele>18.1</ele>
        <time>2021-02-23T09:47:06Z</time>
      </trkpt>
      <trkpt lat="49.27295" lon="-0.44575">
        <ele>18.1</ele>
        <time>2021-02-23T09:47:08Z</time>
      </trkpt>
      <trkpt lat="49.27295" lon="-0.4458">
        <ele>18.2</ele>
        <time>2021-02-23T09:47:09Z</time>
      </trkpt>
      <trkpt lat="49.27295" lon="-0.44582">
        <ele>18.2</ele>
        <time>2021-02-23T09:47:10Z</time>
      </trkpt>
      <trkpt lat="49.27294" lon="-0.44587">
        <ele>18.2</ele>
        <time>2021-02-23T09:47:11Z</time>
      </trkpt>
      <trkpt lat="49.27294" lon="-0.44592">
        <ele>18.3</ele>
        <time>2021-02-23T09:47:13Z</time>
      </trkpt>
      <trkpt lat="49.27293" lon="-0.44597">
        <ele>18.4</ele>
        <time>2021-02-23T09:47:14Z</time>
      </trkpt>
      <trkpt lat="49.27293" lon="-0.446">
        <ele>18.5</ele>
        <time>2021-02-23T09:47:15Z</time>
      </trkpt>
      <trkpt lat="49.27293" lon="-0.44604">
        <ele>18.5</ele>
        <time>2021-02-23T09:47:17Z</time>
      </trkpt>
      <trkpt lat="49.27293" lon="-0.4461">
        <ele>18.7</ele>
        <time>2021-02-23T09:47:19Z</time>
      </trkpt>
      <trkpt lat="49.27292" lon="-0.44613">
        <ele>18.7</ele>
        <time>2021-02-23T09:47:20Z</time>
      </trkpt>
      <trkpt lat="49.27292" lon="-0.4462">
        <ele>18.9</ele>
        <time>2021-02-23T09:47:22Z</time>
      </trkpt>
      <trkpt lat="49.27292" lon="-0.44625">
        <ele>19</ele>
        <time>2021-02-23T09:47:23Z</time>
      </trkpt>
      <trkpt lat="49.27292" lon="-0.44626">
        <ele>19.1</ele>
        <time>2021-02-23T09:47:24Z</time>
      </trkpt>
      <trkpt lat="49.27292" lon="-0.4463">
        <ele>19.2</ele>
        <time>2021-02-23T09:47:25Z</time>
      </trkpt>
      <trkpt lat="49.27293" lon="-0.44636">
        <ele>19.3</ele>
        <time>2021-02-23T09:47:27Z</time>
      </trkpt>
      <trkpt lat="49.27294" lon="-0.44638">
        <ele>19.4</ele>
        <time>2021-02-23T09:47:28Z</time>
      </trkpt>
      <trkpt lat="49.27295" lon="-0.4464">
        <ele>19.5</ele>
        <time>2021-02-23T09:47:29Z</time>
      </trkpt>
      <trkpt lat="49.27296" lon="-0.44642">
        <ele>19.6</ele>
        <time>2021-02-23T09:47:31Z</time>
      </trkpt>
      <trkpt lat="49.27297" lon="-0.44644">
        <ele>19.7</ele>
        <time>2021-02-23T09:47:32Z</time>
      </trkpt>
      <trkpt lat="49.27299" lon="-0.44647">
        <ele>19.8</ele>
        <time>2021-02-23T09:47:34Z</time>
      </trkpt>
      <trkpt lat="49.273" lon="-0.44648">
        <ele>19.9</ele>
        <time>2021-02-23T09:47:35Z</time>
      </trkpt>
      <trkpt lat="49.27301" lon="-0.44649">
        <ele>20</ele>
        <time>2021-02-23T09:47:36Z</time>
      </trkpt>
      <trkpt lat="49.27303" lon="-0.44651">
        <ele>20.1</ele>
        <time>2021-02-23T09:47:37Z</time>
      </trkpt>
      <trkpt lat="49.27306" lon="-0.44652">
        <ele>20.3</ele>
        <time>2021-02-23T09:47:39Z</time>
      </trkpt>
      <trkpt lat="49.27309" lon="-0.44653">
        <ele>20.5</ele>
        <time>2021-02-23T09:47:40Z</time>
      </trkpt>
      <trkpt lat="49.27309" lon="-0.44654">
        <ele>20.5</ele>
        <time>2021-02-23T09:47:41Z</time>
      </trkpt>
      <trkpt lat="49.27311" lon="-0.44654">
        <ele>20.6</ele>
        <time>2021-02-23T09:47:42Z</time>
      </trkpt>
      <trkpt lat="49.27313" lon="-0.44655">
        <ele>20.7</ele>
        <time>2021-02-23T09:47:44Z</time>
      </trkpt>
      <trkpt lat="49.27314" lon="-0.44655">
        <ele>20.8</ele>
        <time>2021-02-23T09:47:45Z</time>
      </trkpt>
      <trkpt lat="49.27316" lon="-0.44656">
        <ele>20.9</ele>
        <time>2021-02-23T09:47:46Z</time>
      </trkpt>
      <trkpt lat="49.27318" lon="-0.44658">
        <ele>21.1</ele>
        <time>2021-02-23T09:47:47Z</time>
      </trkpt>
      <trkpt lat="49.27319" lon="-0.44658">
        <ele>21.2</ele>
        <time>2021-02-23T09:47:48Z</time>
      </trkpt>
      <trkpt lat="49.27323" lon="-0.4466">
        <ele>21.5</ele>
        <time>2021-02-23T09:47:50Z</time>
      </trkpt>
      <trkpt lat="49.27325" lon="-0.44661">
        <ele>21.6</ele>
        <time>2021-02-23T09:47:52Z</time>
      </trkpt>
      <trkpt lat="49.27326" lon="-0.44661">
        <ele>21.7</ele>
        <time>2021-02-23T09:47:53Z</time>
      </trkpt>
      <trkpt lat="49.27328" lon="-0.44662">
        <ele>21.8</ele>
        <time>2021-02-23T09:47:54Z</time>
      </trkpt>
      <trkpt lat="49.2733" lon="-0.44662">
        <ele>22</ele>
        <time>2021-02-23T09:47:56Z</time>
      </trkpt>
      <trkpt lat="49.27333" lon="-0.44664">
        <ele>22.2</ele>
        <time>2021-02-23T09:47:57Z</time>
      </trkpt>
      <trkpt lat="49.27335" lon="-0.44664">
        <ele>22.3</ele>
        <time>2021-02-23T09:47:59Z</time>
      </trkpt>
      <trkpt lat="49.27338" lon="-0.44666">
        <ele>22.5</ele>
        <time>2021-02-23T09:48:00Z</time>
      </trkpt>
      <trkpt lat="49.2734" lon="-0.44667">
        <ele>22.6</ele>
        <time>2021-02-23T09:48:02Z</time>
      </trkpt>
      <trkpt lat="49.27342" lon="-0.44668">
        <ele>22.8</ele>
        <time>2021-02-23T09:48:03Z</time>
      </trkpt>
      <trkpt lat="49.27344" lon="-0.44668">
        <ele>22.8</ele>
        <time>2021-02-23T09:48:04Z</time>
      </trkpt>
      <trkpt lat="49.27346" lon="-0.44669">
        <ele>23</ele>
        <time>2021-02-23T09:48:05Z</time>
      </trkpt>
      <trkpt lat="49.27348" lon="-0.44669">
        <ele>23.1</ele>
        <time>2021-02-23T09:48:07Z</time>
      </trkpt>
      <trkpt lat="49.27351" lon="-0.4467">
        <ele>23.2</ele>
        <time>2021-02-23T09:48:08Z</time>
      </trkpt>
      <trkpt lat="49.27352" lon="-0.44671">
        <ele>23.3</ele>
        <time>2021-02-23T09:48:09Z</time>
      </trkpt>
      <trkpt lat="49.27355" lon="-0.44671">
        <ele>23.4</ele>
        <time>2021-02-23T09:48:11Z</time>
      </trkpt>
      <trkpt lat="49.27356" lon="-0.44671">
        <ele>23.5</ele>
        <time>2021-02-23T09:48:12Z</time>
      </trkpt>
      <trkpt lat="49.27358" lon="-0.44671">
        <ele>23.6</ele>
        <time>2021-02-23T09:48:14Z</time>
      </trkpt>
      <trkpt lat="49.27361" lon="-0.44672">
        <ele>23.7</ele>
        <time>2021-02-23T09:48:16Z</time>
      </trkpt>
      <trkpt lat="49.27364" lon="-0.44673">
        <ele>23.9</ele>
        <time>2021-02-23T09:48:17Z</time>
      </trkpt>
      <trkpt lat="49.27368" lon="-0.44674">
        <ele>24</ele>
        <time>2021-02-23T09:48:19Z</time>
      </trkpt>
      <trkpt lat="49.2737" lon="-0.44675">
        <ele>24.1</ele>
        <time>2021-02-23T09:48:20Z</time>
      </trkpt>
      <trkpt lat="49.27373" lon="-0.44676">
        <ele>24.2</ele>
        <time>2021-02-23T09:48:22Z</time>
      </trkpt>
      <trkpt lat="49.27375" lon="-0.44677">
        <ele>24.3</ele>
        <time>2021-02-23T09:48:23Z</time>
      </trkpt>
      <trkpt lat="49.27377" lon="-0.44678">
        <ele>24.4</ele>
        <time>2021-02-23T09:48:25Z</time>
      </trkpt>
      <trkpt lat="49.27379" lon="-0.44679">
        <ele>24.4</ele>
        <time>2021-02-23T09:48:26Z</time>
      </trkpt>
      <trkpt lat="49.27382" lon="-0.4468">
        <ele>24.5</ele>
        <time>2021-02-23T09:48:28Z</time>
      </trkpt>
      <trkpt lat="49.27384" lon="-0.44681">
        <ele>24.6</ele>
        <time>2021-02-23T09:48:29Z</time>
      </trkpt>
      <trkpt lat="49.27387" lon="-0.44682">
        <ele>24.7</ele>
        <time>2021-02-23T09:48:31Z</time>
      </trkpt>
      <trkpt lat="49.2739" lon="-0.44683">
        <ele>24.7</ele>
        <time>2021-02-23T09:48:32Z</time>
      </trkpt>
      <trkpt lat="49.27393" lon="-0.44685">
        <ele>24.8</ele>
        <time>2021-02-23T09:48:34Z</time>
      </trkpt>
      <trkpt lat="49.27394" lon="-0.44685">
        <ele>24.9</ele>
        <time>2021-02-23T09:48:35Z</time>
      </trkpt>
      <trkpt lat="49.27397" lon="-0.44687">
        <ele>24.9</ele>
        <time>2021-02-23T09:48:37Z</time>
      </trkpt>
      <trkpt lat="49.27398" lon="-0.44687">
        <ele>25</ele>
        <time>2021-02-23T09:48:38Z</time>
      </trkpt>
      <trkpt lat="49.27401" lon="-0.44689">
        <ele>25</ele>
        <time>2021-02-23T09:48:40Z</time>
      </trkpt>
      <trkpt lat="49.27402" lon="-0.44689">
        <ele>25.1</ele>
        <time>2021-02-23T09:48:41Z</time>
      </trkpt>
      <trkpt lat="49.27406" lon="-0.44691">
        <ele>25.2</ele>
        <time>2021-02-23T09:48:43Z</time>
      </trkpt>
      <trkpt lat="49.27407" lon="-0.44692">
        <ele>25.2</ele>
        <time>2021-02-23T09:48:44Z</time>
      </trkpt>
      <trkpt lat="49.27409" lon="-0.44693">
        <ele>25.2</ele>
        <time>2021-02-23T09:48:45Z</time>
      </trkpt>
      <trkpt lat="49.27411" lon="-0.44694">
        <ele>25.3</ele>
        <time>2021-02-23T09:48:47Z</time>
      </trkpt>
      <trkpt lat="49.27412" lon="-0.44695">
        <ele>25.3</ele>
        <time>2021-02-23T09:48:48Z</time>
      </trkpt>
      <trkpt lat="49.27413" lon="-0.44695">
        <ele>25.3</ele>
        <time>2021-02-23T09:48:49Z</time>
      </trkpt>
      <trkpt lat="49.27415" lon="-0.44696">
        <ele>25.3</ele>
        <time>2021-02-23T09:48:50Z</time>
      </trkpt>
      <trkpt lat="49.27416" lon="-0.44697">
        <ele>25.3</ele>
        <time>2021-02-23T09:48:51Z</time>
      </trkpt>
      <trkpt lat="49.2742" lon="-0.44699">
        <ele>25.3</ele>
        <time>2021-02-23T09:48:53Z</time>
      </trkpt>
      <trkpt lat="49.2742" lon="-0.44699">
        <ele>25.3</ele>
        <time>2021-02-23T09:48:54Z</time>
      </trkpt>
      <trkpt lat="49.27423" lon="-0.447">
        <ele>25.3</ele>
        <time>2021-02-23T09:48:55Z</time>
      </trkpt>
      <trkpt lat="49.27424" lon="-0.44701">
        <ele>25.3</ele>
        <time>2021-02-23T09:48:57Z</time>
      </trkpt>
      <trkpt lat="49.27427" lon="-0.44702">
        <ele>25.3</ele>
        <time>2021-02-23T09:48:58Z</time>
      </trkpt>
      <trkpt lat="49.2743" lon="-0.44704">
        <ele>25.2</ele>
        <time>2021-02-23T09:49:00Z</time>
      </trkpt>
      <trkpt lat="49.27431" lon="-0.44704">
        <ele>25.2</ele>
        <time>2021-02-23T09:49:01Z</time>
      </trkpt>
      <trkpt lat="49.27433" lon="-0.44705">
        <ele>25.1</ele>
        <time>2021-02-23T09:49:02Z</time>
      </trkpt>
      <trkpt lat="49.27435" lon="-0.44706">
        <ele>25.1</ele>
        <time>2021-02-23T09:49:04Z</time>
      </trkpt>
      <trkpt lat="49.27438" lon="-0.44707">
        <ele>25</ele>
        <time>2021-02-23T09:49:05Z</time>
      </trkpt>
      <trkpt lat="49.2744" lon="-0.44707">
        <ele>24.9</ele>
        <time>2021-02-23T09:49:07Z</time>
      </trkpt>
      <trkpt lat="49.27443" lon="-0.44708">
        <ele>24.8</ele>
        <time>2021-02-23T09:49:09Z</time>
      </trkpt>
      <trkpt lat="49.27445" lon="-0.44709">
        <ele>24.7</ele>
        <time>2021-02-23T09:49:10Z</time>
      </trkpt>
      <trkpt lat="49.27448" lon="-0.44709">
        <ele>24.6</ele>
        <time>2021-02-23T09:49:12Z</time>
      </trkpt>
      <trkpt lat="49.27453" lon="-0.4471">
        <ele>24.3</ele>
        <time>2021-02-23T09:49:14Z</time>
      </trkpt>
      <trkpt lat="49.27454" lon="-0.4471">
        <ele>24.2</ele>
        <time>2021-02-23T09:49:15Z</time>
      </trkpt>
      <trkpt lat="49.27456" lon="-0.4471">
        <ele>24.1</ele>
        <time>2021-02-23T09:49:16Z</time>
      </trkpt>
      <trkpt lat="49.2746" lon="-0.4471">
        <ele>23.8</ele>
        <time>2021-02-23T09:49:18Z</time>
      </trkpt>
      <trkpt lat="49.27461" lon="-0.4471">
        <ele>23.8</ele>
        <time>2021-02-23T09:49:19Z</time>
      </trkpt>
      <trkpt lat="49.27463" lon="-0.4471">
        <ele>23.6</ele>
        <time>2021-02-23T09:49:20Z</time>
      </trkpt>
      <trkpt lat="49.27466" lon="-0.4471">
        <ele>23.5</ele>
        <time>2021-02-23T09:49:22Z</time>
      </trkpt>
      <trkpt lat="49.27469" lon="-0.4471">
        <ele>23.2</ele>
        <time>2021-02-23T09:49:24Z</time>
      </trkpt>
      <trkpt lat="49.2747" lon="-0.4471">
        <ele>23.2</ele>
        <time>2021-02-23T09:49:25Z</time>
      </trkpt>
      <trkpt lat="49.27473" lon="-0.4471">
        <ele>23</ele>
        <time>2021-02-23T09:49:26Z</time>
      </trkpt>
      <trkpt lat="49.27478" lon="-0.4471">
        <ele>22.7</ele>
        <time>2021-02-23T09:49:28Z</time>
      </trkpt>
      <trkpt lat="49.27479" lon="-0.4471">
        <ele>22.6</ele>
        <time>2021-02-23T09:49:29Z</time>
      </trkpt>
      <trkpt lat="49.2748" lon="-0.4471">
        <ele>22.5</ele>
        <time>2021-02-23T09:49:30Z</time>
      </trkpt>
      <trkpt lat="49.27483" lon="-0.44709">
        <ele>22.3</ele>
        <time>2021-02-23T09:49:32Z</time>
      </trkpt>
      <trkpt lat="49.27485" lon="-0.44709">
        <ele>22.2</ele>
        <time>2021-02-23T09:49:33Z</time>
      </trkpt>
      <trkpt lat="49.27486" lon="-0.44708">
        <ele>22.1</ele>
        <time>2021-02-23T09:49:34Z</time>
      </trkpt>
      <trkpt lat="49.27488" lon="-0.44707">
        <ele>22</ele>
        <time>2021-02-23T09:49:35Z</time>
      </trkpt>
      <trkpt lat="49.2749" lon="-0.44707">
        <ele>21.9</ele>
        <time>2021-02-23T09:49:37Z</time>
      </trkpt>
      <trkpt lat="49.27492" lon="-0.44706">
        <ele>21.7</ele>
        <time>2021-02-23T09:49:38Z</time>
      </trkpt>
      <trkpt lat="49.27495" lon="-0.44705">
        <ele>21.5</ele>
        <time>2021-02-23T09:49:40Z</time>
      </trkpt>
      <trkpt lat="49.27496" lon="-0.44704">
        <ele>21.4</ele>
        <time>2021-02-23T09:49:41Z</time>
      </trkpt>
      <trkpt lat="49.27498" lon="-0.44704">
        <ele>21.3</ele>
        <time>2021-02-23T09:49:43Z</time>
      </trkpt>
      <trkpt lat="49.27501" lon="-0.44703">
        <ele>21.2</ele>
        <time>2021-02-23T09:49:45Z</time>
      </trkpt>
      <trkpt lat="49.27502" lon="-0.44702">
        <ele>21.1</ele>
        <time>2021-02-23T09:49:46Z</time>
      </trkpt>
      <trkpt lat="49.27503" lon="-0.44702">
        <ele>21</ele>
        <time>2021-02-23T09:49:47Z</time>
      </trkpt>
      <trkpt lat="49.27505" lon="-0.44701">
        <ele>20.9</ele>
        <time>2021-02-23T09:49:48Z</time>
      </trkpt>
      <trkpt lat="49.27507" lon="-0.44701">
        <ele>20.7</ele>
        <time>2021-02-23T09:49:50Z</time>
      </trkpt>
      <trkpt lat="49.27509" lon="-0.44701">
        <ele>20.6</ele>
        <time>2021-02-23T09:49:52Z</time>
      </trkpt>
      <trkpt lat="49.27512" lon="-0.44701">
        <ele>20.3</ele>
        <time>2021-02-23T09:49:53Z</time>
      </trkpt>
      <trkpt lat="49.27513" lon="-0.44701">
        <ele>20.3</ele>
        <time>2021-02-23T09:49:54Z</time>
      </trkpt>
      <trkpt lat="49.27515" lon="-0.44701">
        <ele>20.2</ele>
        <time>2021-02-23T09:49:56Z</time>
      </trkpt>
      <trkpt lat="49.27516" lon="-0.44701">
        <ele>20.1</ele>
        <time>2021-02-23T09:49:57Z</time>
      </trkpt>
      <trkpt lat="49.27519" lon="-0.44701">
        <ele>19.9</ele>
        <time>2021-02-23T09:49:58Z</time>
      </trkpt>
      <trkpt lat="49.27521" lon="-0.44701">
        <ele>19.8</ele>
        <time>2021-02-23T09:50:00Z</time>
      </trkpt>
      <trkpt lat="49.27523" lon="-0.44702">
        <ele>19.6</ele>
        <time>2021-02-23T09:50:01Z</time>
      </trkpt>
      <trkpt lat="49.27526" lon="-0.44703">
        <ele>19.4</ele>
        <time>2021-02-23T09:50:03Z</time>
      </trkpt>
      <trkpt lat="49.27529" lon="-0.44705">
        <ele>19.2</ele>
        <time>2021-02-23T09:50:04Z</time>
      </trkpt>
      <trkpt lat="49.27533" lon="-0.44707">
        <ele>19</ele>
        <time>2021-02-23T09:50:06Z</time>
      </trkpt>
      <trkpt lat="49.27537" lon="-0.4471">
        <ele>18.7</ele>
        <time>2021-02-23T09:50:07Z</time>
      </trkpt>
      <trkpt lat="49.27539" lon="-0.44711">
        <ele>18.6</ele>
        <time>2021-02-23T09:50:08Z</time>
      </trkpt>
      <trkpt lat="49.27543" lon="-0.44714">
        <ele>18.3</ele>
        <time>2021-02-23T09:50:10Z</time>
      </trkpt>
      <trkpt lat="49.27546" lon="-0.44716">
        <ele>18.1</ele>
        <time>2021-02-23T09:50:11Z</time>
      </trkpt>
      <trkpt lat="49.27549" lon="-0.44718">
        <ele>17.8</ele>
        <time>2021-02-23T09:50:12Z</time>
      </trkpt>
      <trkpt lat="49.27552" lon="-0.44719">
        <ele>17.8</ele>
        <time>2021-02-23T09:50:13Z</time>
      </trkpt>
      <trkpt lat="49.27555" lon="-0.4472">
        <ele>17.7</ele>
        <time>2021-02-23T09:50:15Z</time>
      </trkpt>
      <trkpt lat="49.27558" lon="-0.4472">
        <ele>17.6</ele>
        <time>2021-02-23T09:50:17Z</time>
      </trkpt>
      <trkpt lat="49.2756" lon="-0.44721">
        <ele>17.5</ele>
        <time>2021-02-23T09:50:18Z</time>
      </trkpt>
      <trkpt lat="49.27561" lon="-0.44721">
        <ele>17.5</ele>
        <time>2021-02-23T09:50:19Z</time>
      </trkpt>
      <trkpt lat="49.27565" lon="-0.44723">
        <ele>17.4</ele>
        <time>2021-02-23T09:50:21Z</time>
      </trkpt>
      <trkpt lat="49.27566" lon="-0.44724">
        <ele>17.3</ele>
        <time>2021-02-23T09:50:22Z</time>
      </trkpt>
      <trkpt lat="49.2757" lon="-0.44726">
        <ele>17.2</ele>
        <time>2021-02-23T09:50:24Z</time>
      </trkpt>
      <trkpt lat="49.27571" lon="-0.44726">
        <ele>17.2</ele>
        <time>2021-02-23T09:50:25Z</time>
      </trkpt>
      <trkpt lat="49.27573" lon="-0.44727">
        <ele>17.1</ele>
        <time>2021-02-23T09:50:27Z</time>
      </trkpt>
      <trkpt lat="49.27574" lon="-0.44727">
        <ele>17.1</ele>
        <time>2021-02-23T09:50:28Z</time>
      </trkpt>
      <trkpt lat="49.27576" lon="-0.44726">
        <ele>17</ele>
        <time>2021-02-23T09:50:30Z</time>
      </trkpt>
      <trkpt lat="49.27578" lon="-0.44726">
        <ele>17</ele>
        <time>2021-02-23T09:50:31Z</time>
      </trkpt>
      <trkpt lat="49.2758" lon="-0.44725">
        <ele>17</ele>
        <time>2021-02-23T09:50:32Z</time>
      </trkpt>
      <trkpt lat="49.27582" lon="-0.44725">
        <ele>16.9</ele>
        <time>2021-02-23T09:50:34Z</time>
      </trkpt>
      <trkpt lat="49.27584" lon="-0.44725">
        <ele>16.9</ele>
        <time>2021-02-23T09:50:35Z</time>
      </trkpt>
      <trkpt lat="49.27586" lon="-0.44725">
        <ele>16.9</ele>
        <time>2021-02-23T09:50:36Z</time>
      </trkpt>
      <trkpt lat="49.27587" lon="-0.44724">
        <ele>16.9</ele>
        <time>2021-02-23T09:50:37Z</time>
      </trkpt>
      <trkpt lat="49.27589" lon="-0.44724">
        <ele>16.9</ele>
        <time>2021-02-23T09:50:38Z</time>
      </trkpt>
      <trkpt lat="49.27591" lon="-0.44724">
        <ele>16.9</ele>
        <time>2021-02-23T09:50:39Z</time>
      </trkpt>
      <trkpt lat="49.27594" lon="-0.44724">
        <ele>16.9</ele>
        <time>2021-02-23T09:50:41Z</time>
      </trkpt>
      <trkpt lat="49.27596" lon="-0.44723">
        <ele>16.9</ele>
        <time>2021-02-23T09:50:42Z</time>
      </trkpt>
      <trkpt lat="49.27598" lon="-0.44724">
        <ele>16.9</ele>
        <time>2021-02-23T09:50:44Z</time>
      </trkpt>
      <trkpt lat="49.276" lon="-0.44723">
        <ele>16.9</ele>
        <time>2021-02-23T09:50:45Z</time>
      </trkpt>
      <trkpt lat="49.27602" lon="-0.44724">
        <ele>16.9</ele>
        <time>2021-02-23T09:50:47Z</time>
      </trkpt>
      <trkpt lat="49.27604" lon="-0.44724">
        <ele>16.9</ele>
        <time>2021-02-23T09:50:48Z</time>
      </trkpt>
      <trkpt lat="49.27606" lon="-0.44725">
        <ele>16.9</ele>
        <time>2021-02-23T09:50:50Z</time>
      </trkpt>
      <trkpt lat="49.2761" lon="-0.44726">
        <ele>16.9</ele>
        <time>2021-02-23T09:50:51Z</time>
      </trkpt>
      <trkpt lat="49.27611" lon="-0.44727">
        <ele>16.9</ele>
        <time>2021-02-23T09:50:52Z</time>
      </trkpt>
      <trkpt lat="49.27613" lon="-0.44726">
        <ele>16.9</ele>
        <time>2021-02-23T09:50:54Z</time>
      </trkpt>
      <trkpt lat="49.27614" lon="-0.44726">
        <ele>16.9</ele>
        <time>2021-02-23T09:50:55Z</time>
      </trkpt>
      <trkpt lat="49.27617" lon="-0.44725">
        <ele>17</ele>
        <time>2021-02-23T09:50:56Z</time>
      </trkpt>
      <trkpt lat="49.27618" lon="-0.44725">
        <ele>17</ele>
        <time>2021-02-23T09:50:57Z</time>
      </trkpt>
      <trkpt lat="49.27621" lon="-0.44725">
        <ele>17</ele>
        <time>2021-02-23T09:50:59Z</time>
      </trkpt>
      <trkpt lat="49.27623" lon="-0.44725">
        <ele>17.1</ele>
        <time>2021-02-23T09:51:00Z</time>
      </trkpt>
      <trkpt lat="49.27624" lon="-0.44725">
        <ele>17.1</ele>
        <time>2021-02-23T09:51:01Z</time>
      </trkpt>
      <trkpt lat="49.27626" lon="-0.44724">
        <ele>17.1</ele>
        <time>2021-02-23T09:51:03Z</time>
      </trkpt>
      <trkpt lat="49.27627" lon="-0.44724">
        <ele>17.2</ele>
        <time>2021-02-23T09:51:04Z</time>
      </trkpt>
      <trkpt lat="49.2763" lon="-0.44725">
        <ele>17.2</ele>
        <time>2021-02-23T09:51:06Z</time>
      </trkpt>
      <trkpt lat="49.2763" lon="-0.44727">
        <ele>17.2</ele>
        <time>2021-02-23T09:51:07Z</time>
      </trkpt>
      <trkpt lat="49.27631" lon="-0.4473">
        <ele>17.3</ele>
        <time>2021-02-23T09:51:09Z</time>
      </trkpt>
      <trkpt lat="49.27631" lon="-0.4473">
        <ele>17.3</ele>
        <time>2021-02-23T09:51:11Z</time>
      </trkpt>
      <trkpt lat="49.27631" lon="-0.44729">
        <ele>17.3</ele>
        <time>2021-02-23T09:51:13Z</time>
      </trkpt>
      <trkpt lat="49.27631" lon="-0.44729">
        <ele>17.3</ele>
        <time>2021-02-23T09:51:15Z</time>
      </trkpt>
      <trkpt lat="49.27631" lon="-0.44729">
        <ele>17.3</ele>
        <time>2021-02-23T09:51:17Z</time>
      </trkpt>
      <trkpt lat="49.27631" lon="-0.44729">
        <ele>17.3</ele>
        <time>2021-02-23T09:51:19Z</time>
      </trkpt>
      <trkpt lat="49.27631" lon="-0.44729">
        <ele>17.3</ele>
        <time>2021-02-23T09:51:20Z</time>
      </trkpt>
      <trkpt lat="49.27631" lon="-0.44729">
        <ele>17.3</ele>
        <time>2021-02-23T09:51:22Z</time>
      </trkpt>
      <trkpt lat="49.27631" lon="-0.44728">
        <ele>17.3</ele>
        <time>2021-02-23T09:51:23Z</time>
      </trkpt>
      <trkpt lat="49.27632" lon="-0.44728">
        <ele>17.3</ele>
        <time>2021-02-23T09:51:25Z</time>
      </trkpt>
      <trkpt lat="49.27632" lon="-0.44728">
        <ele>17.3</ele>
        <time>2021-02-23T09:51:26Z</time>
      </trkpt>
      <trkpt lat="49.27632" lon="-0.44728">
        <ele>17.3</ele>
        <time>2021-02-23T09:51:27Z</time>
      </trkpt>
      <trkpt lat="49.27632" lon="-0.44728">
        <ele>17.3</ele>
        <time>2021-02-23T09:51:28Z</time>
      </trkpt>
      <trkpt lat="49.27632" lon="-0.44728">
        <ele>17.3</ele>
        <time>2021-02-23T09:51:30Z</time>
      </trkpt>
      <trkpt lat="49.27632" lon="-0.44728">
        <ele>17.3</ele>
        <time>2021-02-23T09:51:32Z</time>
      </trkpt>
      <trkpt lat="49.27632" lon="-0.44727">
        <ele>17.3</ele>
        <time>2021-02-23T09:51:33Z</time>
      </trkpt>
      <trkpt lat="49.27632" lon="-0.44727">
        <ele>17.3</ele>
        <time>2021-02-23T09:51:35Z</time>
      </trkpt>
      <trkpt lat="49.27632" lon="-0.44727">
        <ele>17.3</ele>
        <time>2021-02-23T09:51:37Z</time>
      </trkpt>
      <trkpt lat="49.27633" lon="-0.44727">
        <ele>17.3</ele>
        <time>2021-02-23T09:51:38Z</time>
      </trkpt>
      <trkpt lat="49.27633" lon="-0.44727">
        <ele>17.3</ele>
        <time>2021-02-23T09:51:39Z</time>
      </trkpt>
      <trkpt lat="49.27633" lon="-0.44727">
        <ele>17.4</ele>
        <time>2021-02-23T09:51:40Z</time>
      </trkpt>
      <trkpt lat="49.27633" lon="-0.44726">
        <ele>17.4</ele>
        <time>2021-02-23T09:51:42Z</time>
      </trkpt>
      <trkpt lat="49.27633" lon="-0.44726">
        <ele>17.4</ele>
        <time>2021-02-23T09:51:43Z</time>
      </trkpt>
      <trkpt lat="49.27633" lon="-0.44726">
        <ele>17.4</ele>
        <time>2021-02-23T09:51:45Z</time>
      </trkpt>
      <trkpt lat="49.27633" lon="-0.44726">
        <ele>17.4</ele>
        <time>2021-02-23T09:51:46Z</time>
      </trkpt>
      <trkpt lat="49.27633" lon="-0.44726">
        <ele>17.4</ele>
        <time>2021-02-23T09:51:48Z</time>
      </trkpt>
      <trkpt lat="49.27633" lon="-0.44726">
        <ele>17.4</ele>
        <time>2021-02-23T09:51:50Z</time>
      </trkpt>
      <trkpt lat="49.27634" lon="-0.44726">
        <ele>17.4</ele>
        <time>2021-02-23T09:51:51Z</time>
      </trkpt>
      <trkpt lat="49.27634" lon="-0.44725">
        <ele>17.4</ele>
        <time>2021-02-23T09:51:53Z</time>
      </trkpt>
      <trkpt lat="49.27634" lon="-0.44725">
        <ele>17.4</ele>
        <time>2021-02-23T09:51:54Z</time>
      </trkpt>
      <trkpt lat="49.27634" lon="-0.44725">
        <ele>17.4</ele>
        <time>2021-02-23T09:51:56Z</time>
      </trkpt>
      <trkpt lat="49.27634" lon="-0.44725">
        <ele>17.4</ele>
        <time>2021-02-23T09:51:58Z</time>
      </trkpt>
      <trkpt lat="49.27634" lon="-0.44725">
        <ele>17.4</ele>
        <time>2021-02-23T09:52:00Z</time>
      </trkpt>
      <trkpt lat="49.27634" lon="-0.44725">
        <ele>17.4</ele>
        <time>2021-02-23T09:52:01Z</time>
      </trkpt>
      <trkpt lat="49.27634" lon="-0.44724">
        <ele>17.4</ele>
        <time>2021-02-23T09:52:03Z</time>
      </trkpt>
      <trkpt lat="49.27634" lon="-0.44724">
        <ele>17.4</ele>
        <time>2021-02-23T09:52:04Z</time>
      </trkpt>
      <trkpt lat="49.27634" lon="-0.44724">
        <ele>17.4</ele>
        <time>2021-02-23T09:52:05Z</time>
      </trkpt>
      <trkpt lat="49.27639" lon="-0.44724">
        <ele>17.6</ele>
        <time>2021-02-23T09:52:06Z</time>
      </trkpt>
      <trkpt lat="49.27641" lon="-0.44724">
        <ele>17.6</ele>
        <time>2021-02-23T09:52:07Z</time>
      </trkpt>
      <trkpt lat="49.27642" lon="-0.44723">
        <ele>17.7</ele>
        <time>2021-02-23T09:52:09Z</time>
      </trkpt>
      <trkpt lat="49.27642" lon="-0.44723">
        <ele>17.7</ele>
        <time>2021-02-23T09:52:10Z</time>
      </trkpt>
      <trkpt lat="49.27642" lon="-0.44722">
        <ele>17.7</ele>
        <time>2021-02-23T09:52:11Z</time>
      </trkpt>
      <trkpt lat="49.27643" lon="-0.44721">
        <ele>17.7</ele>
        <time>2021-02-23T09:52:12Z</time>
      </trkpt>
      <trkpt lat="49.27643" lon="-0.44722">
        <ele>17.8</ele>
        <time>2021-02-23T09:52:13Z</time>
      </trkpt>
      <trkpt lat="49.27644" lon="-0.44723">
        <ele>17.8</ele>
        <time>2021-02-23T09:52:14Z</time>
      </trkpt>
      <trkpt lat="49.27645" lon="-0.44724">
        <ele>17.8</ele>
        <time>2021-02-23T09:52:15Z</time>
      </trkpt>
      <trkpt lat="49.27647" lon="-0.44725">
        <ele>17.9</ele>
        <time>2021-02-23T09:52:16Z</time>
      </trkpt>
      <trkpt lat="49.27649" lon="-0.44726">
        <ele>18</ele>
        <time>2021-02-23T09:52:18Z</time>
      </trkpt>
      <trkpt lat="49.27651" lon="-0.44726">
        <ele>18.1</ele>
        <time>2021-02-23T09:52:19Z</time>
      </trkpt>
      <trkpt lat="49.27652" lon="-0.44726">
        <ele>18.1</ele>
        <time>2021-02-23T09:52:20Z</time>
      </trkpt>
      <trkpt lat="49.27656" lon="-0.44727">
        <ele>18.3</ele>
        <time>2021-02-23T09:52:22Z</time>
      </trkpt>
      <trkpt lat="49.27657" lon="-0.44727">
        <ele>18.3</ele>
        <time>2021-02-23T09:52:23Z</time>
      </trkpt>
      <trkpt lat="49.2766" lon="-0.44729">
        <ele>18.5</ele>
        <time>2021-02-23T09:52:24Z</time>
      </trkpt>
      <trkpt lat="49.27664" lon="-0.4473">
        <ele>18.6</ele>
        <time>2021-02-23T09:52:26Z</time>
      </trkpt>
      <trkpt lat="49.27668" lon="-0.4473">
        <ele>18.8</ele>
        <time>2021-02-23T09:52:28Z</time>
      </trkpt>
      <trkpt lat="49.27671" lon="-0.4473">
        <ele>18.9</ele>
        <time>2021-02-23T09:52:29Z</time>
      </trkpt>
      <trkpt lat="49.27672" lon="-0.44731">
        <ele>18.9</ele>
        <time>2021-02-23T09:52:30Z</time>
      </trkpt>
      <trkpt lat="49.27675" lon="-0.44731">
        <ele>19</ele>
        <time>2021-02-23T09:52:32Z</time>
      </trkpt>
      <trkpt lat="49.27677" lon="-0.44732">
        <ele>19.1</ele>
        <time>2021-02-23T09:52:33Z</time>
      </trkpt>
      <trkpt lat="49.27679" lon="-0.44732">
        <ele>19.1</ele>
        <time>2021-02-23T09:52:34Z</time>
      </trkpt>
      <trkpt lat="49.27681" lon="-0.44732">
        <ele>19.2</ele>
        <time>2021-02-23T09:52:36Z</time>
      </trkpt>
      <trkpt lat="49.27684" lon="-0.44733">
        <ele>19.3</ele>
        <time>2021-02-23T09:52:38Z</time>
      </trkpt>
      <trkpt lat="49.27686" lon="-0.44735">
        <ele>19.4</ele>
        <time>2021-02-23T09:52:39Z</time>
      </trkpt>
      <trkpt lat="49.27687" lon="-0.44736">
        <ele>19.4</ele>
        <time>2021-02-23T09:52:40Z</time>
      </trkpt>
      <trkpt lat="49.27688" lon="-0.44737">
        <ele>19.4</ele>
        <time>2021-02-23T09:52:41Z</time>
      </trkpt>
      <trkpt lat="49.27689" lon="-0.44738">
        <ele>19.5</ele>
        <time>2021-02-23T09:52:42Z</time>
      </trkpt>
      <trkpt lat="49.27692" lon="-0.44739">
        <ele>19.6</ele>
        <time>2021-02-23T09:52:44Z</time>
      </trkpt>
      <trkpt lat="49.27695" lon="-0.44742">
        <ele>19.7</ele>
        <time>2021-02-23T09:52:46Z</time>
      </trkpt>
      <trkpt lat="49.27697" lon="-0.44743">
        <ele>19.7</ele>
        <time>2021-02-23T09:52:47Z</time>
      </trkpt>
      <trkpt lat="49.27698" lon="-0.44744">
        <ele>19.8</ele>
        <time>2021-02-23T09:52:48Z</time>
      </trkpt>
      <trkpt lat="49.277" lon="-0.44744">
        <ele>19.8</ele>
        <time>2021-02-23T09:52:50Z</time>
      </trkpt>
      <trkpt lat="49.27701" lon="-0.44744">
        <ele>19.9</ele>
        <time>2021-02-23T09:52:51Z</time>
      </trkpt>
      <trkpt lat="49.27702" lon="-0.44743">
        <ele>19.9</ele>
        <time>2021-02-23T09:52:53Z</time>
      </trkpt>
      <trkpt lat="49.27703" lon="-0.44742">
        <ele>19.9</ele>
        <time>2021-02-23T09:52:54Z</time>
      </trkpt>
      <trkpt lat="49.27704" lon="-0.44743">
        <ele>20</ele>
        <time>2021-02-23T09:52:55Z</time>
      </trkpt>
      <trkpt lat="49.27706" lon="-0.44744">
        <ele>20</ele>
        <time>2021-02-23T09:52:56Z</time>
      </trkpt>
      <trkpt lat="49.27708" lon="-0.44744">
        <ele>20.1</ele>
        <time>2021-02-23T09:52:58Z</time>
      </trkpt>
      <trkpt lat="49.27708" lon="-0.44745">
        <ele>20.1</ele>
        <time>2021-02-23T09:52:59Z</time>
      </trkpt>
      <trkpt lat="49.27708" lon="-0.44746">
        <ele>20.1</ele>
        <time>2021-02-23T09:53:00Z</time>
      </trkpt>
      <trkpt lat="49.27709" lon="-0.44748">
        <ele>20.1</ele>
        <time>2021-02-23T09:53:01Z</time>
      </trkpt>
      <trkpt lat="49.2771" lon="-0.4475">
        <ele>20.2</ele>
        <time>2021-02-23T09:53:03Z</time>
      </trkpt>
      <trkpt lat="49.2771" lon="-0.44751">
        <ele>20.2</ele>
        <time>2021-02-23T09:53:04Z</time>
      </trkpt>
      <trkpt lat="49.27712" lon="-0.44753">
        <ele>20.2</ele>
        <time>2021-02-23T09:53:06Z</time>
      </trkpt>
      <trkpt lat="49.27713" lon="-0.44754">
        <ele>20.3</ele>
        <time>2021-02-23T09:53:07Z</time>
      </trkpt>
      <trkpt lat="49.27714" lon="-0.44755">
        <ele>20.3</ele>
        <time>2021-02-23T09:53:08Z</time>
      </trkpt>
      <trkpt lat="49.27718" lon="-0.44755">
        <ele>20.3</ele>
        <time>2021-02-23T09:53:10Z</time>
      </trkpt>
      <trkpt lat="49.27719" lon="-0.44755">
        <ele>20.3</ele>
        <time>2021-02-23T09:53:11Z</time>
      </trkpt>
      <trkpt lat="49.2772" lon="-0.44755">
        <ele>20.4</ele>
        <time>2021-02-23T09:53:12Z</time>
      </trkpt>
      <trkpt lat="49.27724" lon="-0.44756">
        <ele>20.4</ele>
        <time>2021-02-23T09:53:14Z</time>
      </trkpt>
      <trkpt lat="49.27727" lon="-0.44755">
        <ele>20.4</ele>
        <time>2021-02-23T09:53:15Z</time>
      </trkpt>
      <trkpt lat="49.27729" lon="-0.44754">
        <ele>20.4</ele>
        <time>2021-02-23T09:53:16Z</time>
      </trkpt>
      <trkpt lat="49.27732" lon="-0.44756">
        <ele>20.4</ele>
        <time>2021-02-23T09:53:17Z</time>
      </trkpt>
      <trkpt lat="49.27736" lon="-0.44758">
        <ele>20.4</ele>
        <time>2021-02-23T09:53:19Z</time>
      </trkpt>
      <trkpt lat="49.2774" lon="-0.44761">
        <ele>20.3</ele>
        <time>2021-02-23T09:53:20Z</time>
      </trkpt>
      <trkpt lat="49.27744" lon="-0.44765">
        <ele>20.2</ele>
        <time>2021-02-23T09:53:22Z</time>
      </trkpt>
      <trkpt lat="49.27748" lon="-0.44768">
        <ele>20</ele>
        <time>2021-02-23T09:53:24Z</time>
      </trkpt>
      <trkpt lat="49.27749" lon="-0.44769">
        <ele>20</ele>
        <time>2021-02-23T09:53:25Z</time>
      </trkpt>
      <trkpt lat="49.27753" lon="-0.44773">
        <ele>19.8</ele>
        <time>2021-02-23T09:53:27Z</time>
      </trkpt>
      <trkpt lat="49.27755" lon="-0.44775">
        <ele>19.7</ele>
        <time>2021-02-23T09:53:28Z</time>
      </trkpt>
      <trkpt lat="49.27756" lon="-0.44777">
        <ele>19.7</ele>
        <time>2021-02-23T09:53:29Z</time>
      </trkpt>
      <trkpt lat="49.27759" lon="-0.44781">
        <ele>19.5</ele>
        <time>2021-02-23T09:53:31Z</time>
      </trkpt>
      <trkpt lat="49.27761" lon="-0.44782">
        <ele>19.5</ele>
        <time>2021-02-23T09:53:32Z</time>
      </trkpt>
      <trkpt lat="49.27764" lon="-0.44785">
        <ele>19.3</ele>
        <time>2021-02-23T09:53:34Z</time>
      </trkpt>
      <trkpt lat="49.27766" lon="-0.44788">
        <ele>19.2</ele>
        <time>2021-02-23T09:53:36Z</time>
      </trkpt>
      <trkpt lat="49.27768" lon="-0.44791">
        <ele>19.2</ele>
        <time>2021-02-23T09:53:37Z</time>
      </trkpt>
      <trkpt lat="49.27771" lon="-0.44793">
        <ele>19.1</ele>
        <time>2021-02-23T09:53:39Z</time>
      </trkpt>
      <trkpt lat="49.27773" lon="-0.44794">
        <ele>19.1</ele>
        <time>2021-02-23T09:53:40Z</time>
      </trkpt>
      <trkpt lat="49.27775" lon="-0.44796">
        <ele>19</ele>
        <time>2021-02-23T09:53:42Z</time>
      </trkpt>
      <trkpt lat="49.27778" lon="-0.44799">
        <ele>19</ele>
        <time>2021-02-23T09:53:44Z</time>
      </trkpt>
      <trkpt lat="49.2778" lon="-0.44801">
        <ele>19</ele>
        <time>2021-02-23T09:53:45Z</time>
      </trkpt>
      <trkpt lat="49.27782" lon="-0.44804">
        <ele>19</ele>
        <time>2021-02-23T09:53:46Z</time>
      </trkpt>
      <trkpt lat="49.27783" lon="-0.44805">
        <ele>19</ele>
        <time>2021-02-23T09:53:47Z</time>
      </trkpt>
      <trkpt lat="49.27786" lon="-0.44808">
        <ele>19</ele>
        <time>2021-02-23T09:53:49Z</time>
      </trkpt>
      <trkpt lat="49.27787" lon="-0.44809">
        <ele>19</ele>
        <time>2021-02-23T09:53:50Z</time>
      </trkpt>
      <trkpt lat="49.2779" lon="-0.44813">
        <ele>19</ele>
        <time>2021-02-23T09:53:52Z</time>
      </trkpt>
      <trkpt lat="49.27792" lon="-0.44815">
        <ele>19</ele>
        <time>2021-02-23T09:53:53Z</time>
      </trkpt>
      <trkpt lat="49.27794" lon="-0.44817">
        <ele>19</ele>
        <time>2021-02-23T09:53:55Z</time>
      </trkpt>
      <trkpt lat="49.27796" lon="-0.44819">
        <ele>19.1</ele>
        <time>2021-02-23T09:53:56Z</time>
      </trkpt>
      <trkpt lat="49.27798" lon="-0.44822">
        <ele>19.1</ele>
        <time>2021-02-23T09:53:58Z</time>
      </trkpt>
      <trkpt lat="49.278" lon="-0.44826">
        <ele>19.1</ele>
        <time>2021-02-23T09:54:00Z</time>
      </trkpt>
      <trkpt lat="49.27801" lon="-0.44827">
        <ele>19.2</ele>
        <time>2021-02-23T09:54:01Z</time>
      </trkpt>
      <trkpt lat="49.27802" lon="-0.44829">
        <ele>19.2</ele>
        <time>2021-02-23T09:54:02Z</time>
      </trkpt>
      <trkpt lat="49.27804" lon="-0.44832">
        <ele>19.2</ele>
        <time>2021-02-23T09:54:04Z</time>
      </trkpt>
      <trkpt lat="49.27806" lon="-0.44835">
        <ele>19.3</ele>
        <time>2021-02-23T09:54:05Z</time>
      </trkpt>
      <trkpt lat="49.27807" lon="-0.44838">
        <ele>19.3</ele>
        <time>2021-02-23T09:54:07Z</time>
      </trkpt>
      <trkpt lat="49.27808" lon="-0.4484">
        <ele>19.3</ele>
        <time>2021-02-23T09:54:08Z</time>
      </trkpt>
      <trkpt lat="49.27809" lon="-0.44842">
        <ele>19.3</ele>
        <time>2021-02-23T09:54:09Z</time>
      </trkpt>
      <trkpt lat="49.27811" lon="-0.44846">
        <ele>19.4</ele>
        <time>2021-02-23T09:54:10Z</time>
      </trkpt>
      <trkpt lat="49.27811" lon="-0.44849">
        <ele>19.4</ele>
        <time>2021-02-23T09:54:12Z</time>
      </trkpt>
      <trkpt lat="49.27812" lon="-0.44852">
        <ele>19.4</ele>
        <time>2021-02-23T09:54:13Z</time>
      </trkpt>
      <trkpt lat="49.27814" lon="-0.44857">
        <ele>19.5</ele>
        <time>2021-02-23T09:54:15Z</time>
      </trkpt>
      <trkpt lat="49.27814" lon="-0.4486">
        <ele>19.5</ele>
        <time>2021-02-23T09:54:16Z</time>
      </trkpt>
      <trkpt lat="49.27815" lon="-0.44862">
        <ele>19.5</ele>
        <time>2021-02-23T09:54:18Z</time>
      </trkpt>
      <trkpt lat="49.27816" lon="-0.44864">
        <ele>19.5</ele>
        <time>2021-02-23T09:54:19Z</time>
      </trkpt>
      <trkpt lat="49.27817" lon="-0.44867">
        <ele>19.5</ele>
        <time>2021-02-23T09:54:20Z</time>
      </trkpt>
      <trkpt lat="49.27819" lon="-0.44873">
        <ele>19.5</ele>
        <time>2021-02-23T09:54:22Z</time>
      </trkpt>
      <trkpt lat="49.2782" lon="-0.44875">
        <ele>19.5</ele>
        <time>2021-02-23T09:54:24Z</time>
      </trkpt>
      <trkpt lat="49.27821" lon="-0.44877">
        <ele>19.5</ele>
        <time>2021-02-23T09:54:25Z</time>
      </trkpt>
      <trkpt lat="49.27822" lon="-0.4488">
        <ele>19.5</ele>
        <time>2021-02-23T09:54:27Z</time>
      </trkpt>
      <trkpt lat="49.27822" lon="-0.44882">
        <ele>19.5</ele>
        <time>2021-02-23T09:54:28Z</time>
      </trkpt>
      <trkpt lat="49.27823" lon="-0.44886">
        <ele>19.6</ele>
        <time>2021-02-23T09:54:29Z</time>
      </trkpt>
      <trkpt lat="49.27823" lon="-0.44887">
        <ele>19.6</ele>
        <time>2021-02-23T09:54:30Z</time>
      </trkpt>
      <trkpt lat="49.27824" lon="-0.44892">
        <ele>19.6</ele>
        <time>2021-02-23T09:54:32Z</time>
      </trkpt>
      <trkpt lat="49.27825" lon="-0.44894">
        <ele>19.6</ele>
        <time>2021-02-23T09:54:33Z</time>
      </trkpt>
      <trkpt lat="49.27825" lon="-0.44897">
        <ele>19.6</ele>
        <time>2021-02-23T09:54:34Z</time>
      </trkpt>
      <trkpt lat="49.27826" lon="-0.449">
        <ele>19.6</ele>
        <time>2021-02-23T09:54:36Z</time>
      </trkpt>
      <trkpt lat="49.27826" lon="-0.44904">
        <ele>19.6</ele>
        <time>2021-02-23T09:54:37Z</time>
      </trkpt>
      <trkpt lat="49.27827" lon="-0.44909">
        <ele>19.6</ele>
        <time>2021-02-23T09:54:39Z</time>
      </trkpt>
      <trkpt lat="49.27827" lon="-0.44912">
        <ele>19.7</ele>
        <time>2021-02-23T09:54:40Z</time>
      </trkpt>
      <trkpt lat="49.27828" lon="-0.44916">
        <ele>19.7</ele>
        <time>2021-02-23T09:54:42Z</time>
      </trkpt>
      <trkpt lat="49.27828" lon="-0.44922">
        <ele>19.7</ele>
        <time>2021-02-23T09:54:44Z</time>
      </trkpt>
      <trkpt lat="49.27828" lon="-0.44924">
        <ele>19.8</ele>
        <time>2021-02-23T09:54:45Z</time>
      </trkpt>
      <trkpt lat="49.27829" lon="-0.44926">
        <ele>19.8</ele>
        <time>2021-02-23T09:54:46Z</time>
      </trkpt>
      <trkpt lat="49.27829" lon="-0.44933">
        <ele>19.8</ele>
        <time>2021-02-23T09:54:48Z</time>
      </trkpt>
      <trkpt lat="49.27828" lon="-0.44936">
        <ele>19.9</ele>
        <time>2021-02-23T09:54:50Z</time>
      </trkpt>
      <trkpt lat="49.27828" lon="-0.44939">
        <ele>19.9</ele>
        <time>2021-02-23T09:54:52Z</time>
      </trkpt>
      <trkpt lat="49.27827" lon="-0.44941">
        <ele>19.9</ele>
        <time>2021-02-23T09:54:53Z</time>
      </trkpt>
      <trkpt lat="49.27827" lon="-0.44944">
        <ele>20</ele>
        <time>2021-02-23T09:54:54Z</time>
      </trkpt>
      <trkpt lat="49.27827" lon="-0.44946">
        <ele>20</ele>
        <time>2021-02-23T09:54:55Z</time>
      </trkpt>
      <trkpt lat="49.27826" lon="-0.44951">
        <ele>20</ele>
        <time>2021-02-23T09:54:57Z</time>
      </trkpt>
      <trkpt lat="49.27826" lon="-0.44953">
        <ele>20.1</ele>
        <time>2021-02-23T09:54:58Z</time>
      </trkpt>
      <trkpt lat="49.27825" lon="-0.44958">
        <ele>20.1</ele>
        <time>2021-02-23T09:55:00Z</time>
      </trkpt>
      <trkpt lat="49.27824" lon="-0.4496">
        <ele>20.2</ele>
        <time>2021-02-23T09:55:01Z</time>
      </trkpt>
      <trkpt lat="49.27823" lon="-0.44965">
        <ele>20.2</ele>
        <time>2021-02-23T09:55:03Z</time>
      </trkpt>
      <trkpt lat="49.27821" lon="-0.44971">
        <ele>20.3</ele>
        <time>2021-02-23T09:55:05Z</time>
      </trkpt>
      <trkpt lat="49.27819" lon="-0.44977">
        <ele>20.3</ele>
        <time>2021-02-23T09:55:07Z</time>
      </trkpt>
      <trkpt lat="49.27818" lon="-0.44984">
        <ele>20.3</ele>
        <time>2021-02-23T09:55:09Z</time>
      </trkpt>
      <trkpt lat="49.27816" lon="-0.44992">
        <ele>20.3</ele>
        <time>2021-02-23T09:55:11Z</time>
      </trkpt>
      <trkpt lat="49.27816" lon="-0.44995">
        <ele>20.3</ele>
        <time>2021-02-23T09:55:12Z</time>
      </trkpt>
      <trkpt lat="49.27814" lon="-0.45001">
        <ele>20.3</ele>
        <time>2021-02-23T09:55:14Z</time>
      </trkpt>
      <trkpt lat="49.27813" lon="-0.45007">
        <ele>20.3</ele>
        <time>2021-02-23T09:55:16Z</time>
      </trkpt>
      <trkpt lat="49.27813" lon="-0.45011">
        <ele>20.3</ele>
        <time>2021-02-23T09:55:17Z</time>
      </trkpt>
      <trkpt lat="49.27813" lon="-0.45012">
        <ele>20.3</ele>
        <time>2021-02-23T09:55:18Z</time>
      </trkpt>
      <trkpt lat="49.27812" lon="-0.45014">
        <ele>20.2</ele>
        <time>2021-02-23T09:55:19Z</time>
      </trkpt>
      <trkpt lat="49.27812" lon="-0.45017">
        <ele>20.2</ele>
        <time>2021-02-23T09:55:20Z</time>
      </trkpt>
      <trkpt lat="49.27811" lon="-0.45023">
        <ele>20.2</ele>
        <time>2021-02-23T09:55:22Z</time>
      </trkpt>
      <trkpt lat="49.2781" lon="-0.45028">
        <ele>20.2</ele>
        <time>2021-02-23T09:55:24Z</time>
      </trkpt>
      <trkpt lat="49.2781" lon="-0.4503">
        <ele>20.2</ele>
        <time>2021-02-23T09:55:25Z</time>
      </trkpt>
      <trkpt lat="49.27809" lon="-0.45034">
        <ele>20.1</ele>
        <time>2021-02-23T09:55:27Z</time>
      </trkpt>
      <trkpt lat="49.27809" lon="-0.45036">
        <ele>20.1</ele>
        <time>2021-02-23T09:55:28Z</time>
      </trkpt>
      <trkpt lat="49.27808" lon="-0.45038">
        <ele>20.1</ele>
        <time>2021-02-23T09:55:29Z</time>
      </trkpt>
      <trkpt lat="49.27808" lon="-0.45043">
        <ele>20.1</ele>
        <time>2021-02-23T09:55:31Z</time>
      </trkpt>
      <trkpt lat="49.27807" lon="-0.45047">
        <ele>20</ele>
        <time>2021-02-23T09:55:33Z</time>
      </trkpt>
      <trkpt lat="49.27807" lon="-0.45049">
        <ele>20</ele>
        <time>2021-02-23T09:55:34Z</time>
      </trkpt>
      <trkpt lat="49.27807" lon="-0.45051">
        <ele>20</ele>
        <time>2021-02-23T09:55:35Z</time>
      </trkpt>
      <trkpt lat="49.27806" lon="-0.45056">
        <ele>19.9</ele>
        <time>2021-02-23T09:55:37Z</time>
      </trkpt>
      <trkpt lat="49.27806" lon="-0.45057">
        <ele>19.9</ele>
        <time>2021-02-23T09:55:38Z</time>
      </trkpt>
      <trkpt lat="49.27805" lon="-0.4506">
        <ele>19.9</ele>
        <time>2021-02-23T09:55:39Z</time>
      </trkpt>
      <trkpt lat="49.27805" lon="-0.45061">
        <ele>19.9</ele>
        <time>2021-02-23T09:55:40Z</time>
      </trkpt>
      <trkpt lat="49.27805" lon="-0.45063">
        <ele>19.8</ele>
        <time>2021-02-23T09:55:41Z</time>
      </trkpt>
      <trkpt lat="49.27805" lon="-0.45064">
        <ele>19.8</ele>
        <time>2021-02-23T09:55:42Z</time>
      </trkpt>
      <trkpt lat="49.27804" lon="-0.45068">
        <ele>19.7</ele>
        <time>2021-02-23T09:55:44Z</time>
      </trkpt>
      <trkpt lat="49.27804" lon="-0.45072">
        <ele>19.7</ele>
        <time>2021-02-23T09:55:46Z</time>
      </trkpt>
      <trkpt lat="49.27804" lon="-0.45076">
        <ele>19.6</ele>
        <time>2021-02-23T09:55:48Z</time>
      </trkpt>
      <trkpt lat="49.27804" lon="-0.45078">
        <ele>19.6</ele>
        <time>2021-02-23T09:55:49Z</time>
      </trkpt>
      <trkpt lat="49.27804" lon="-0.4508">
        <ele>19.5</ele>
        <time>2021-02-23T09:55:50Z</time>
      </trkpt>
      <trkpt lat="49.27804" lon="-0.45084">
        <ele>19.5</ele>
        <time>2021-02-23T09:55:52Z</time>
      </trkpt>
      <trkpt lat="49.27804" lon="-0.45088">
        <ele>19.4</ele>
        <time>2021-02-23T09:55:54Z</time>
      </trkpt>
      <trkpt lat="49.27804" lon="-0.4509">
        <ele>19.4</ele>
        <time>2021-02-23T09:55:55Z</time>
      </trkpt>
      <trkpt lat="49.27805" lon="-0.45093">
        <ele>19.3</ele>
        <time>2021-02-23T09:55:56Z</time>
      </trkpt>
      <trkpt lat="49.27805" lon="-0.45097">
        <ele>19.2</ele>
        <time>2021-02-23T09:55:58Z</time>
      </trkpt>
      <trkpt lat="49.27805" lon="-0.45099">
        <ele>19.2</ele>
        <time>2021-02-23T09:55:59Z</time>
      </trkpt>
      <trkpt lat="49.27806" lon="-0.45102">
        <ele>19.1</ele>
        <time>2021-02-23T09:56:00Z</time>
      </trkpt>
      <trkpt lat="49.27806" lon="-0.45107">
        <ele>19.1</ele>
        <time>2021-02-23T09:56:02Z</time>
      </trkpt>
      <trkpt lat="49.27806" lon="-0.45108">
        <ele>19</ele>
        <time>2021-02-23T09:56:03Z</time>
      </trkpt>
      <trkpt lat="49.27807" lon="-0.45112">
        <ele>19</ele>
        <time>2021-02-23T09:56:05Z</time>
      </trkpt>
      <trkpt lat="49.27807" lon="-0.45114">
        <ele>18.9</ele>
        <time>2021-02-23T09:56:06Z</time>
      </trkpt>
      <trkpt lat="49.27807" lon="-0.45119">
        <ele>18.8</ele>
        <time>2021-02-23T09:56:08Z</time>
      </trkpt>
      <trkpt lat="49.27806" lon="-0.45122">
        <ele>18.8</ele>
        <time>2021-02-23T09:56:09Z</time>
      </trkpt>
      <trkpt lat="49.27806" lon="-0.45125">
        <ele>18.7</ele>
        <time>2021-02-23T09:56:10Z</time>
      </trkpt>
      <trkpt lat="49.27806" lon="-0.45129">
        <ele>18.7</ele>
        <time>2021-02-23T09:56:12Z</time>
      </trkpt>
      <trkpt lat="49.27806" lon="-0.45131">
        <ele>18.6</ele>
        <time>2021-02-23T09:56:13Z</time>
      </trkpt>
      <trkpt lat="49.27805" lon="-0.45136">
        <ele>18.6</ele>
        <time>2021-02-23T09:56:15Z</time>
      </trkpt>
      <trkpt lat="49.27804" lon="-0.45138">
        <ele>18.5</ele>
        <time>2021-02-23T09:56:16Z</time>
      </trkpt>
      <trkpt lat="49.27804" lon="-0.45144">
        <ele>18.4</ele>
        <time>2021-02-23T09:56:18Z</time>
      </trkpt>
      <trkpt lat="49.27804" lon="-0.45151">
        <ele>18.4</ele>
        <time>2021-02-23T09:56:20Z</time>
      </trkpt>
      <trkpt lat="49.27804" lon="-0.45154">
        <ele>18.3</ele>
        <time>2021-02-23T09:56:21Z</time>
      </trkpt>
      <trkpt lat="49.27804" lon="-0.45159">
        <ele>18.3</ele>
        <time>2021-02-23T09:56:23Z</time>
      </trkpt>
      <trkpt lat="49.27804" lon="-0.45162">
        <ele>18.2</ele>
        <time>2021-02-23T09:56:24Z</time>
      </trkpt>
      <trkpt lat="49.27805" lon="-0.45166">
        <ele>18.2</ele>
        <time>2021-02-23T09:56:26Z</time>
      </trkpt>
      <trkpt lat="49.27805" lon="-0.45168">
        <ele>18.2</ele>
        <time>2021-02-23T09:56:27Z</time>
      </trkpt>
      <trkpt lat="49.27806" lon="-0.45172">
        <ele>18.2</ele>
        <time>2021-02-23T09:56:29Z</time>
      </trkpt>
      <trkpt lat="49.27808" lon="-0.45176">
        <ele>18.2</ele>
        <time>2021-02-23T09:56:31Z</time>
      </trkpt>
      <trkpt lat="49.27808" lon="-0.45178">
        <ele>18.2</ele>
        <time>2021-02-23T09:56:32Z</time>
      </trkpt>
      <trkpt lat="49.2781" lon="-0.45181">
        <ele>18.2</ele>
        <time>2021-02-23T09:56:34Z</time>
      </trkpt>
      <trkpt lat="49.2781" lon="-0.45183">
        <ele>18.2</ele>
        <time>2021-02-23T09:56:35Z</time>
      </trkpt>
      <trkpt lat="49.27811" lon="-0.45184">
        <ele>18.2</ele>
        <time>2021-02-23T09:56:36Z</time>
      </trkpt>
      <trkpt lat="49.27812" lon="-0.45187">
        <ele>18.2</ele>
        <time>2021-02-23T09:56:38Z</time>
      </trkpt>
      <trkpt lat="49.27814" lon="-0.4519">
        <ele>18.2</ele>
        <time>2021-02-23T09:56:40Z</time>
      </trkpt>
      <trkpt lat="49.27816" lon="-0.45193">
        <ele>18.2</ele>
        <time>2021-02-23T09:56:42Z</time>
      </trkpt>
      <trkpt lat="49.27819" lon="-0.45196">
        <ele>18.3</ele>
        <time>2021-02-23T09:56:44Z</time>
      </trkpt>
      <trkpt lat="49.27819" lon="-0.45197">
        <ele>18.3</ele>
        <time>2021-02-23T09:56:45Z</time>
      </trkpt>
      <trkpt lat="49.27822" lon="-0.45199">
        <ele>18.3</ele>
        <time>2021-02-23T09:56:47Z</time>
      </trkpt>
      <trkpt lat="49.27823" lon="-0.452">
        <ele>18.3</ele>
        <time>2021-02-23T09:56:48Z</time>
      </trkpt>
      <trkpt lat="49.27826" lon="-0.45201">
        <ele>18.3</ele>
        <time>2021-02-23T09:56:50Z</time>
      </trkpt>
      <trkpt lat="49.27829" lon="-0.45203">
        <ele>18.3</ele>
        <time>2021-02-23T09:56:52Z</time>
      </trkpt>
      <trkpt lat="49.27832" lon="-0.45203">
        <ele>18.3</ele>
        <time>2021-02-23T09:56:54Z</time>
      </trkpt>
      <trkpt lat="49.27835" lon="-0.45203">
        <ele>18.3</ele>
        <time>2021-02-23T09:56:56Z</time>
      </trkpt>
      <trkpt lat="49.27836" lon="-0.45203">
        <ele>18.3</ele>
        <time>2021-02-23T09:56:57Z</time>
      </trkpt>
      <trkpt lat="49.27839" lon="-0.45203">
        <ele>18.4</ele>
        <time>2021-02-23T09:56:59Z</time>
      </trkpt>
      <trkpt lat="49.2784" lon="-0.45203">
        <ele>18.4</ele>
        <time>2021-02-23T09:57:00Z</time>
      </trkpt>
      <trkpt lat="49.27842" lon="-0.45203">
        <ele>18.4</ele>
        <time>2021-02-23T09:57:01Z</time>
      </trkpt>
      <trkpt lat="49.27843" lon="-0.45203">
        <ele>18.4</ele>
        <time>2021-02-23T09:57:02Z</time>
      </trkpt>
      <trkpt lat="49.27847" lon="-0.45203">
        <ele>18.4</ele>
        <time>2021-02-23T09:57:04Z</time>
      </trkpt>
      <trkpt lat="49.27848" lon="-0.45203">
        <ele>18.4</ele>
        <time>2021-02-23T09:57:05Z</time>
      </trkpt>
      <trkpt lat="49.27852" lon="-0.45202">
        <ele>18.4</ele>
        <time>2021-02-23T09:57:07Z</time>
      </trkpt>
      <trkpt lat="49.27855" lon="-0.45201">
        <ele>18.5</ele>
        <time>2021-02-23T09:57:09Z</time>
      </trkpt>
      <trkpt lat="49.27856" lon="-0.45201">
        <ele>18.5</ele>
        <time>2021-02-23T09:57:10Z</time>
      </trkpt>
      <trkpt lat="49.27857" lon="-0.45201">
        <ele>18.5</ele>
        <time>2021-02-23T09:57:11Z</time>
      </trkpt>
      <trkpt lat="49.27858" lon="-0.452">
        <ele>18.5</ele>
        <time>2021-02-23T09:57:12Z</time>
      </trkpt>
      <trkpt lat="49.27861" lon="-0.452">
        <ele>18.5</ele>
        <time>2021-02-23T09:57:14Z</time>
      </trkpt>
      <trkpt lat="49.27863" lon="-0.45199">
        <ele>18.6</ele>
        <time>2021-02-23T09:57:15Z</time>
      </trkpt>
      <trkpt lat="49.27865" lon="-0.45199">
        <ele>18.6</ele>
        <time>2021-02-23T09:57:17Z</time>
      </trkpt>
      <trkpt lat="49.27866" lon="-0.45199">
        <ele>18.6</ele>
        <time>2021-02-23T09:57:18Z</time>
      </trkpt>
      <trkpt lat="49.27867" lon="-0.452">
        <ele>18.6</ele>
        <time>2021-02-23T09:57:19Z</time>
      </trkpt>
      <trkpt lat="49.27867" lon="-0.452">
        <ele>18.6</ele>
        <time>2021-02-23T09:57:21Z</time>
      </trkpt>
      <trkpt lat="49.27868" lon="-0.452">
        <ele>18.6</ele>
        <time>2021-02-23T09:57:22Z</time>
      </trkpt>
      <trkpt lat="49.27869" lon="-0.452">
        <ele>18.7</ele>
        <time>2021-02-23T09:57:24Z</time>
      </trkpt>
      <trkpt lat="49.2787" lon="-0.45199">
        <ele>18.7</ele>
        <time>2021-02-23T09:57:26Z</time>
      </trkpt>
      <trkpt lat="49.27871" lon="-0.45199">
        <ele>18.7</ele>
        <time>2021-02-23T09:57:27Z</time>
      </trkpt>
      <trkpt lat="49.27873" lon="-0.45198">
        <ele>18.7</ele>
        <time>2021-02-23T09:57:29Z</time>
      </trkpt>
      <trkpt lat="49.27873" lon="-0.45198">
        <ele>18.7</ele>
        <time>2021-02-23T09:57:30Z</time>
      </trkpt>
      <trkpt lat="49.27875" lon="-0.45197">
        <ele>18.7</ele>
        <time>2021-02-23T09:57:32Z</time>
      </trkpt>
      <trkpt lat="49.27877" lon="-0.45196">
        <ele>18.8</ele>
        <time>2021-02-23T09:57:33Z</time>
      </trkpt>
      <trkpt lat="49.27879" lon="-0.45195">
        <ele>18.8</ele>
        <time>2021-02-23T09:57:34Z</time>
      </trkpt>
      <trkpt lat="49.27881" lon="-0.45193">
        <ele>18.8</ele>
        <time>2021-02-23T09:57:36Z</time>
      </trkpt>
      <trkpt lat="49.27883" lon="-0.45192">
        <ele>18.9</ele>
        <time>2021-02-23T09:57:37Z</time>
      </trkpt>
      <trkpt lat="49.27885" lon="-0.45191">
        <ele>18.9</ele>
        <time>2021-02-23T09:57:38Z</time>
      </trkpt>
      <trkpt lat="49.27891" lon="-0.45188">
        <ele>19</ele>
        <time>2021-02-23T09:57:40Z</time>
      </trkpt>
      <trkpt lat="49.27897" lon="-0.45186">
        <ele>19.1</ele>
        <time>2021-02-23T09:57:42Z</time>
      </trkpt>
      <trkpt lat="49.27902" lon="-0.45182">
        <ele>19.2</ele>
        <time>2021-02-23T09:57:44Z</time>
      </trkpt>
      <trkpt lat="49.27904" lon="-0.45181">
        <ele>19.2</ele>
        <time>2021-02-23T09:57:45Z</time>
      </trkpt>
      <trkpt lat="49.27907" lon="-0.45178">
        <ele>19.3</ele>
        <time>2021-02-23T09:57:47Z</time>
      </trkpt>
      <trkpt lat="49.27911" lon="-0.45175">
        <ele>19.4</ele>
        <time>2021-02-23T09:57:49Z</time>
      </trkpt>
      <trkpt lat="49.27913" lon="-0.45172">
        <ele>19.4</ele>
        <time>2021-02-23T09:57:51Z</time>
      </trkpt>
      <trkpt lat="49.27915" lon="-0.45168">
        <ele>19.5</ele>
        <time>2021-02-23T09:57:53Z</time>
      </trkpt>
      <trkpt lat="49.27916" lon="-0.45167">
        <ele>19.5</ele>
        <time>2021-02-23T09:57:54Z</time>
      </trkpt>
      <trkpt lat="49.27918" lon="-0.45163">
        <ele>19.5</ele>
        <time>2021-02-23T09:57:56Z</time>
      </trkpt>
      <trkpt lat="49.2792" lon="-0.45162">
        <ele>19.6</ele>
        <time>2021-02-23T09:57:57Z</time>
      </trkpt>
      <trkpt lat="49.27922" lon="-0.45159">
        <ele>19.6</ele>
        <time>2021-02-23T09:57:59Z</time>
      </trkpt>
      <trkpt lat="49.27925" lon="-0.45156">
        <ele>19.7</ele>
        <time>2021-02-23T09:58:01Z</time>
      </trkpt>
      <trkpt lat="49.27928" lon="-0.45153">
        <ele>19.7</ele>
        <time>2021-02-23T09:58:03Z</time>
      </trkpt>
      <trkpt lat="49.27931" lon="-0.45151">
        <ele>19.7</ele>
        <time>2021-02-23T09:58:05Z</time>
      </trkpt>
      <trkpt lat="49.27932" lon="-0.45149">
        <ele>19.8</ele>
        <time>2021-02-23T09:58:06Z</time>
      </trkpt>
      <trkpt lat="49.27934" lon="-0.45148">
        <ele>19.8</ele>
        <time>2021-02-23T09:58:07Z</time>
      </trkpt>
      <trkpt lat="49.27936" lon="-0.45145">
        <ele>19.8</ele>
        <time>2021-02-23T09:58:09Z</time>
      </trkpt>
      <trkpt lat="49.27937" lon="-0.45143">
        <ele>19.8</ele>
        <time>2021-02-23T09:58:10Z</time>
      </trkpt>
      <trkpt lat="49.2794" lon="-0.45141">
        <ele>19.8</ele>
        <time>2021-02-23T09:58:12Z</time>
      </trkpt>
      <trkpt lat="49.27942" lon="-0.45139">
        <ele>19.8</ele>
        <time>2021-02-23T09:58:14Z</time>
      </trkpt>
      <trkpt lat="49.27943" lon="-0.45138">
        <ele>19.8</ele>
        <time>2021-02-23T09:58:15Z</time>
      </trkpt>
      <trkpt lat="49.27946" lon="-0.45135">
        <ele>19.8</ele>
        <time>2021-02-23T09:58:17Z</time>
      </trkpt>
      <trkpt lat="49.27947" lon="-0.45133">
        <ele>19.8</ele>
        <time>2021-02-23T09:58:18Z</time>
      </trkpt>
      <trkpt lat="49.27949" lon="-0.4513">
        <ele>19.8</ele>
        <time>2021-02-23T09:58:20Z</time>
      </trkpt>
      <trkpt lat="49.27951" lon="-0.45127">
        <ele>19.8</ele>
        <time>2021-02-23T09:58:22Z</time>
      </trkpt>
      <trkpt lat="49.27952" lon="-0.45125">
        <ele>19.8</ele>
        <time>2021-02-23T09:58:23Z</time>
      </trkpt>
      <trkpt lat="49.27953" lon="-0.45123">
        <ele>19.8</ele>
        <time>2021-02-23T09:58:24Z</time>
      </trkpt>
      <trkpt lat="49.27954" lon="-0.45122">
        <ele>19.8</ele>
        <time>2021-02-23T09:58:25Z</time>
      </trkpt>
      <trkpt lat="49.27956" lon="-0.45119">
        <ele>19.7</ele>
        <time>2021-02-23T09:58:27Z</time>
      </trkpt>
      <trkpt lat="49.27958" lon="-0.45117">
        <ele>19.7</ele>
        <time>2021-02-23T09:58:28Z</time>
      </trkpt>
      <trkpt lat="49.27959" lon="-0.45115">
        <ele>19.7</ele>
        <time>2021-02-23T09:58:29Z</time>
      </trkpt>
      <trkpt lat="49.2796" lon="-0.45112">
        <ele>19.7</ele>
        <time>2021-02-23T09:58:31Z</time>
      </trkpt>
      <trkpt lat="49.27963" lon="-0.45108">
        <ele>19.7</ele>
        <time>2021-02-23T09:58:33Z</time>
      </trkpt>
      <trkpt lat="49.27964" lon="-0.45106">
        <ele>19.7</ele>
        <time>2021-02-23T09:58:34Z</time>
      </trkpt>
      <trkpt lat="49.27965" lon="-0.45102">
        <ele>19.7</ele>
        <time>2021-02-23T09:58:36Z</time>
      </trkpt>
      <trkpt lat="49.27966" lon="-0.451">
        <ele>19.7</ele>
        <time>2021-02-23T09:58:37Z</time>
      </trkpt>
      <trkpt lat="49.27968" lon="-0.45095">
        <ele>19.6</ele>
        <time>2021-02-23T09:58:39Z</time>
      </trkpt>
      <trkpt lat="49.27969" lon="-0.45092">
        <ele>19.6</ele>
        <time>2021-02-23T09:58:40Z</time>
      </trkpt>
      <trkpt lat="49.2797" lon="-0.45091">
        <ele>19.6</ele>
        <time>2021-02-23T09:58:41Z</time>
      </trkpt>
      <trkpt lat="49.27971" lon="-0.45089">
        <ele>19.6</ele>
        <time>2021-02-23T09:58:42Z</time>
      </trkpt>
      <trkpt lat="49.27974" lon="-0.45084">
        <ele>19.6</ele>
        <time>2021-02-23T09:58:44Z</time>
      </trkpt>
      <trkpt lat="49.27975" lon="-0.45082">
        <ele>19.6</ele>
        <time>2021-02-23T09:58:45Z</time>
      </trkpt>
      <trkpt lat="49.27977" lon="-0.45077">
        <ele>19.6</ele>
        <time>2021-02-23T09:58:47Z</time>
      </trkpt>
      <trkpt lat="49.27979" lon="-0.45074">
        <ele>19.6</ele>
        <time>2021-02-23T09:58:48Z</time>
      </trkpt>
      <trkpt lat="49.27979" lon="-0.45073">
        <ele>19.6</ele>
        <time>2021-02-23T09:58:49Z</time>
      </trkpt>
      <trkpt lat="49.27981" lon="-0.45069">
        <ele>19.6</ele>
        <time>2021-02-23T09:58:51Z</time>
      </trkpt>
      <trkpt lat="49.27982" lon="-0.45064">
        <ele>19.6</ele>
        <time>2021-02-23T09:58:53Z</time>
      </trkpt>
      <trkpt lat="49.27983" lon="-0.45061">
        <ele>19.7</ele>
        <time>2021-02-23T09:58:55Z</time>
      </trkpt>
      <trkpt lat="49.27984" lon="-0.45058">
        <ele>19.7</ele>
        <time>2021-02-23T09:58:57Z</time>
      </trkpt>
      <trkpt lat="49.27985" lon="-0.45057">
        <ele>19.7</ele>
        <time>2021-02-23T09:58:58Z</time>
      </trkpt>
      <trkpt lat="49.27985" lon="-0.45056">
        <ele>19.7</ele>
        <time>2021-02-23T09:58:59Z</time>
      </trkpt>
      <trkpt lat="49.27986" lon="-0.45054">
        <ele>19.7</ele>
        <time>2021-02-23T09:59:00Z</time>
      </trkpt>
      <trkpt lat="49.27989" lon="-0.45052">
        <ele>19.7</ele>
        <time>2021-02-23T09:59:02Z</time>
      </trkpt>
      <trkpt lat="49.2799" lon="-0.45051">
        <ele>19.7</ele>
        <time>2021-02-23T09:59:03Z</time>
      </trkpt>
      <trkpt lat="49.27991" lon="-0.4505">
        <ele>19.7</ele>
        <time>2021-02-23T09:59:04Z</time>
      </trkpt>
      <trkpt lat="49.27993" lon="-0.4505">
        <ele>19.8</ele>
        <time>2021-02-23T09:59:06Z</time>
      </trkpt>
      <trkpt lat="49.27994" lon="-0.45049">
        <ele>19.8</ele>
        <time>2021-02-23T09:59:07Z</time>
      </trkpt>
      <trkpt lat="49.27997" lon="-0.45048">
        <ele>19.8</ele>
        <time>2021-02-23T09:59:09Z</time>
      </trkpt>
      <trkpt lat="49.27999" lon="-0.45048">
        <ele>19.8</ele>
        <time>2021-02-23T09:59:10Z</time>
      </trkpt>
      <trkpt lat="49.28002" lon="-0.45046">
        <ele>19.8</ele>
        <time>2021-02-23T09:59:12Z</time>
      </trkpt>
      <trkpt lat="49.28004" lon="-0.45045">
        <ele>19.8</ele>
        <time>2021-02-23T09:59:13Z</time>
      </trkpt>
      <trkpt lat="49.28005" lon="-0.45044">
        <ele>19.8</ele>
        <time>2021-02-23T09:59:14Z</time>
      </trkpt>
      <trkpt lat="49.28008" lon="-0.45042">
        <ele>19.8</ele>
        <time>2021-02-23T09:59:16Z</time>
      </trkpt>
      <trkpt lat="49.2801" lon="-0.4504">
        <ele>19.8</ele>
        <time>2021-02-23T09:59:18Z</time>
      </trkpt>
      <trkpt lat="49.28012" lon="-0.45039">
        <ele>19.8</ele>
        <time>2021-02-23T09:59:19Z</time>
      </trkpt>
      <trkpt lat="49.28015" lon="-0.45038">
        <ele>19.8</ele>
        <time>2021-02-23T09:59:21Z</time>
      </trkpt>
      <trkpt lat="49.28016" lon="-0.45037">
        <ele>19.8</ele>
        <time>2021-02-23T09:59:22Z</time>
      </trkpt>
      <trkpt lat="49.28018" lon="-0.45035">
        <ele>19.8</ele>
        <time>2021-02-23T09:59:24Z</time>
      </trkpt>
      <trkpt lat="49.2802" lon="-0.45032">
        <ele>19.8</ele>
        <time>2021-02-23T09:59:26Z</time>
      </trkpt>
      <trkpt lat="49.28021" lon="-0.4503">
        <ele>19.8</ele>
        <time>2021-02-23T09:59:27Z</time>
      </trkpt>
      <trkpt lat="49.28021" lon="-0.45028">
        <ele>19.9</ele>
        <time>2021-02-23T09:59:28Z</time>
      </trkpt>
      <trkpt lat="49.28023" lon="-0.45024">
        <ele>19.9</ele>
        <time>2021-02-23T09:59:30Z</time>
      </trkpt>
      <trkpt lat="49.28025" lon="-0.4502">
        <ele>19.9</ele>
        <time>2021-02-23T09:59:32Z</time>
      </trkpt>
      <trkpt lat="49.28025" lon="-0.45018">
        <ele>20</ele>
        <time>2021-02-23T09:59:33Z</time>
      </trkpt>
      <trkpt lat="49.28026" lon="-0.45013">
        <ele>20</ele>
        <time>2021-02-23T09:59:35Z</time>
      </trkpt>
      <trkpt lat="49.28027" lon="-0.45008">
        <ele>20.1</ele>
        <time>2021-02-23T09:59:37Z</time>
      </trkpt>
      <trkpt lat="49.28028" lon="-0.45003">
        <ele>20.2</ele>
        <time>2021-02-23T09:59:39Z</time>
      </trkpt>
      <trkpt lat="49.2803" lon="-0.44997">
        <ele>20.3</ele>
        <time>2021-02-23T09:59:41Z</time>
      </trkpt>
      <trkpt lat="49.2803" lon="-0.44993">
        <ele>20.4</ele>
        <time>2021-02-23T09:59:43Z</time>
      </trkpt>
      <trkpt lat="49.28031" lon="-0.4499">
        <ele>20.5</ele>
        <time>2021-02-23T09:59:44Z</time>
      </trkpt>
      <trkpt lat="49.28032" lon="-0.44985">
        <ele>20.6</ele>
        <time>2021-02-23T09:59:46Z</time>
      </trkpt>
      <trkpt lat="49.28033" lon="-0.44981">
        <ele>20.7</ele>
        <time>2021-02-23T09:59:48Z</time>
      </trkpt>
      <trkpt lat="49.28034" lon="-0.44978">
        <ele>20.8</ele>
        <time>2021-02-23T09:59:50Z</time>
      </trkpt>
      <trkpt lat="49.28035" lon="-0.44975">
        <ele>20.9</ele>
        <time>2021-02-23T09:59:51Z</time>
      </trkpt>
      <trkpt lat="49.28036" lon="-0.44971">
        <ele>21</ele>
        <time>2021-02-23T09:59:53Z</time>
      </trkpt>
      <trkpt lat="49.28038" lon="-0.44966">
        <ele>21.2</ele>
        <time>2021-02-23T09:59:55Z</time>
      </trkpt>
      <trkpt lat="49.28039" lon="-0.44964">
        <ele>21.3</ele>
        <time>2021-02-23T09:59:57Z</time>
      </trkpt>
      <trkpt lat="49.2804" lon="-0.44962">
        <ele>21.4</ele>
        <time>2021-02-23T09:59:58Z</time>
      </trkpt>
      <trkpt lat="49.28041" lon="-0.4496">
        <ele>21.4</ele>
        <time>2021-02-23T09:59:59Z</time>
      </trkpt>
      <trkpt lat="49.28042" lon="-0.44958">
        <ele>21.5</ele>
        <time>2021-02-23T10:00:00Z</time>
      </trkpt>
      <trkpt lat="49.28045" lon="-0.44953">
        <ele>21.8</ele>
        <time>2021-02-23T10:00:02Z</time>
      </trkpt>
      <trkpt lat="49.28045" lon="-0.44951">
        <ele>21.9</ele>
        <time>2021-02-23T10:00:04Z</time>
      </trkpt>
      <trkpt lat="49.28046" lon="-0.4495">
        <ele>22</ele>
        <time>2021-02-23T10:00:05Z</time>
      </trkpt>
      <trkpt lat="49.28049" lon="-0.44945">
        <ele>22.3</ele>
        <time>2021-02-23T10:00:07Z</time>
      </trkpt>
      <trkpt lat="49.2805" lon="-0.44944">
        <ele>22.4</ele>
        <time>2021-02-23T10:00:09Z</time>
      </trkpt>
      <trkpt lat="49.28051" lon="-0.44942">
        <ele>22.5</ele>
        <time>2021-02-23T10:00:10Z</time>
      </trkpt>
      <trkpt lat="49.28054" lon="-0.4494">
        <ele>22.7</ele>
        <time>2021-02-23T10:00:12Z</time>
      </trkpt>
      <trkpt lat="49.28056" lon="-0.44938">
        <ele>22.9</ele>
        <time>2021-02-23T10:00:14Z</time>
      </trkpt>
      <trkpt lat="49.28058" lon="-0.44936">
        <ele>23</ele>
        <time>2021-02-23T10:00:15Z</time>
      </trkpt>
      <trkpt lat="49.2806" lon="-0.44933">
        <ele>23.3</ele>
        <time>2021-02-23T10:00:17Z</time>
      </trkpt>
      <trkpt lat="49.28061" lon="-0.44932">
        <ele>23.4</ele>
        <time>2021-02-23T10:00:18Z</time>
      </trkpt>
      <trkpt lat="49.28064" lon="-0.44929">
        <ele>23.6</ele>
        <time>2021-02-23T10:00:20Z</time>
      </trkpt>
      <trkpt lat="49.28065" lon="-0.44927">
        <ele>23.7</ele>
        <time>2021-02-23T10:00:21Z</time>
      </trkpt>
      <trkpt lat="49.28067" lon="-0.44925">
        <ele>23.9</ele>
        <time>2021-02-23T10:00:23Z</time>
      </trkpt>
      <trkpt lat="49.2807" lon="-0.44921">
        <ele>24.2</ele>
        <time>2021-02-23T10:00:25Z</time>
      </trkpt>
      <trkpt lat="49.28071" lon="-0.44919">
        <ele>24.3</ele>
        <time>2021-02-23T10:00:27Z</time>
      </trkpt>
      <trkpt lat="49.28072" lon="-0.44918">
        <ele>24.4</ele>
        <time>2021-02-23T10:00:28Z</time>
      </trkpt>
      <trkpt lat="49.28074" lon="-0.44916">
        <ele>24.5</ele>
        <time>2021-02-23T10:00:30Z</time>
      </trkpt>
      <trkpt lat="49.28076" lon="-0.44913">
        <ele>24.7</ele>
        <time>2021-02-23T10:00:32Z</time>
      </trkpt>
      <trkpt lat="49.28079" lon="-0.4491">
        <ele>24.9</ele>
        <time>2021-02-23T10:00:34Z</time>
      </trkpt>
      <trkpt lat="49.28079" lon="-0.44909">
        <ele>24.9</ele>
        <time>2021-02-23T10:00:35Z</time>
      </trkpt>
      <trkpt lat="49.2808" lon="-0.44907">
        <ele>25</ele>
        <time>2021-02-23T10:00:36Z</time>
      </trkpt>
      <trkpt lat="49.28082" lon="-0.44905">
        <ele>25.1</ele>
        <time>2021-02-23T10:00:38Z</time>
      </trkpt>
      <trkpt lat="49.28083" lon="-0.44904">
        <ele>25.2</ele>
        <time>2021-02-23T10:00:39Z</time>
      </trkpt>
      <trkpt lat="49.28084" lon="-0.44901">
        <ele>25.3</ele>
        <time>2021-02-23T10:00:41Z</time>
      </trkpt>
      <trkpt lat="49.28085" lon="-0.449">
        <ele>25.4</ele>
        <time>2021-02-23T10:00:42Z</time>
      </trkpt>
      <trkpt lat="49.28087" lon="-0.44896">
        <ele>25.5</ele>
        <time>2021-02-23T10:00:44Z</time>
      </trkpt>
      <trkpt lat="49.28087" lon="-0.44894">
        <ele>25.6</ele>
        <time>2021-02-23T10:00:45Z</time>
      </trkpt>
      <trkpt lat="49.28088" lon="-0.4489">
        <ele>25.7</ele>
        <time>2021-02-23T10:00:47Z</time>
      </trkpt>
      <trkpt lat="49.28088" lon="-0.44886">
        <ele>25.8</ele>
        <time>2021-02-23T10:00:49Z</time>
      </trkpt>
      <trkpt lat="49.28089" lon="-0.44885">
        <ele>25.9</ele>
        <time>2021-02-23T10:00:50Z</time>
      </trkpt>
      <trkpt lat="49.2809" lon="-0.44885">
        <ele>25.9</ele>
        <time>2021-02-23T10:00:51Z</time>
      </trkpt>
      <trkpt lat="49.28092" lon="-0.44885">
        <ele>26</ele>
        <time>2021-02-23T10:00:53Z</time>
      </trkpt>
      <trkpt lat="49.28092" lon="-0.44885">
        <ele>26</ele>
        <time>2021-02-23T10:00:54Z</time>
      </trkpt>
      <trkpt lat="49.28093" lon="-0.44885">
        <ele>26.1</ele>
        <time>2021-02-23T10:00:56Z</time>
      </trkpt>
      <trkpt lat="49.28094" lon="-0.44883">
        <ele>26.1</ele>
        <time>2021-02-23T10:00:58Z</time>
      </trkpt>
      <trkpt lat="49.28095" lon="-0.44883">
        <ele>26.1</ele>
        <time>2021-02-23T10:00:59Z</time>
      </trkpt>
      <trkpt lat="49.28096" lon="-0.44881">
        <ele>26.2</ele>
        <time>2021-02-23T10:01:01Z</time>
      </trkpt>
      <trkpt lat="49.28097" lon="-0.4488">
        <ele>26.3</ele>
        <time>2021-02-23T10:01:02Z</time>
      </trkpt>
      <trkpt lat="49.281" lon="-0.44878">
        <ele>26.4</ele>
        <time>2021-02-23T10:01:04Z</time>
      </trkpt>
      <trkpt lat="49.28102" lon="-0.44875">
        <ele>26.6</ele>
        <time>2021-02-23T10:01:06Z</time>
      </trkpt>
      <trkpt lat="49.28104" lon="-0.44872">
        <ele>26.7</ele>
        <time>2021-02-23T10:01:08Z</time>
      </trkpt>
      <trkpt lat="49.28105" lon="-0.44871">
        <ele>26.8</ele>
        <time>2021-02-23T10:01:09Z</time>
      </trkpt>
      <trkpt lat="49.28108" lon="-0.44867">
        <ele>27</ele>
        <time>2021-02-23T10:01:11Z</time>
      </trkpt>
      <trkpt lat="49.28111" lon="-0.44863">
        <ele>27.2</ele>
        <time>2021-02-23T10:01:13Z</time>
      </trkpt>
      <trkpt lat="49.28114" lon="-0.44861">
        <ele>27.3</ele>
        <time>2021-02-23T10:01:14Z</time>
      </trkpt>
      <trkpt lat="49.28114" lon="-0.4486">
        <ele>27.4</ele>
        <time>2021-02-23T10:01:15Z</time>
      </trkpt>
      <trkpt lat="49.28118" lon="-0.44858">
        <ele>27.6</ele>
        <time>2021-02-23T10:01:17Z</time>
      </trkpt>
      <trkpt lat="49.28121" lon="-0.44855">
        <ele>27.8</ele>
        <time>2021-02-23T10:01:18Z</time>
      </trkpt>
      <trkpt lat="49.28122" lon="-0.44854">
        <ele>27.8</ele>
        <time>2021-02-23T10:01:19Z</time>
      </trkpt>
      <trkpt lat="49.28124" lon="-0.44851">
        <ele>28</ele>
        <time>2021-02-23T10:01:21Z</time>
      </trkpt>
      <trkpt lat="49.28126" lon="-0.4485">
        <ele>28.1</ele>
        <time>2021-02-23T10:01:22Z</time>
      </trkpt>
      <trkpt lat="49.28129" lon="-0.44847">
        <ele>28.3</ele>
        <time>2021-02-23T10:01:24Z</time>
      </trkpt>
      <trkpt lat="49.2813" lon="-0.44846">
        <ele>28.4</ele>
        <time>2021-02-23T10:01:25Z</time>
      </trkpt>
      <trkpt lat="49.28133" lon="-0.44843">
        <ele>28.6</ele>
        <time>2021-02-23T10:01:27Z</time>
      </trkpt>
      <trkpt lat="49.28134" lon="-0.44842">
        <ele>28.7</ele>
        <time>2021-02-23T10:01:28Z</time>
      </trkpt>
      <trkpt lat="49.28135" lon="-0.44841">
        <ele>28.8</ele>
        <time>2021-02-23T10:01:29Z</time>
      </trkpt>
      <trkpt lat="49.28136" lon="-0.4484">
        <ele>28.9</ele>
        <time>2021-02-23T10:01:30Z</time>
      </trkpt>
      <trkpt lat="49.28138" lon="-0.44838">
        <ele>29</ele>
        <time>2021-02-23T10:01:31Z</time>
      </trkpt>
      <trkpt lat="49.28139" lon="-0.44837">
        <ele>29.1</ele>
        <time>2021-02-23T10:01:32Z</time>
      </trkpt>
      <trkpt lat="49.28141" lon="-0.44834">
        <ele>29.2</ele>
        <time>2021-02-23T10:01:34Z</time>
      </trkpt>
      <trkpt lat="49.28143" lon="-0.44832">
        <ele>29.4</ele>
        <time>2021-02-23T10:01:36Z</time>
      </trkpt>
      <trkpt lat="49.28144" lon="-0.44831">
        <ele>29.5</ele>
        <time>2021-02-23T10:01:37Z</time>
      </trkpt>
      <trkpt lat="49.28147" lon="-0.44828">
        <ele>29.7</ele>
        <time>2021-02-23T10:01:39Z</time>
      </trkpt>
      <trkpt lat="49.2815" lon="-0.44825">
        <ele>29.9</ele>
        <time>2021-02-23T10:01:41Z</time>
      </trkpt>
      <trkpt lat="49.28151" lon="-0.44824">
        <ele>29.9</ele>
        <time>2021-02-23T10:01:42Z</time>
      </trkpt>
      <trkpt lat="49.28155" lon="-0.44822">
        <ele>30.1</ele>
        <time>2021-02-23T10:01:44Z</time>
      </trkpt>
      <trkpt lat="49.28158" lon="-0.4482">
        <ele>30.3</ele>
        <time>2021-02-23T10:01:46Z</time>
      </trkpt>
      <trkpt lat="49.2816" lon="-0.44818">
        <ele>30.5</ele>
        <time>2021-02-23T10:01:48Z</time>
      </trkpt>
      <trkpt lat="49.28161" lon="-0.44817">
        <ele>30.5</ele>
        <time>2021-02-23T10:01:49Z</time>
      </trkpt>
      <trkpt lat="49.28163" lon="-0.44815">
        <ele>30.7</ele>
        <time>2021-02-23T10:01:51Z</time>
      </trkpt>
      <trkpt lat="49.28164" lon="-0.44814">
        <ele>30.7</ele>
        <time>2021-02-23T10:01:52Z</time>
      </trkpt>
      <trkpt lat="49.28165" lon="-0.44812">
        <ele>30.8</ele>
        <time>2021-02-23T10:01:53Z</time>
      </trkpt>
      <trkpt lat="49.28167" lon="-0.4481">
        <ele>30.9</ele>
        <time>2021-02-23T10:01:55Z</time>
      </trkpt>
      <trkpt lat="49.28169" lon="-0.44807">
        <ele>31.1</ele>
        <time>2021-02-23T10:01:57Z</time>
      </trkpt>
      <trkpt lat="49.28169" lon="-0.44805">
        <ele>31.1</ele>
        <time>2021-02-23T10:01:58Z</time>
      </trkpt>
      <trkpt lat="49.2817" lon="-0.44804">
        <ele>31.2</ele>
        <time>2021-02-23T10:01:59Z</time>
      </trkpt>
      <trkpt lat="49.28172" lon="-0.44801">
        <ele>31.3</ele>
        <time>2021-02-23T10:02:01Z</time>
      </trkpt>
      <trkpt lat="49.28174" lon="-0.44798">
        <ele>31.5</ele>
        <time>2021-02-23T10:02:03Z</time>
      </trkpt>
      <trkpt lat="49.28175" lon="-0.44797">
        <ele>31.5</ele>
        <time>2021-02-23T10:02:04Z</time>
      </trkpt>
      <trkpt lat="49.28176" lon="-0.44796">
        <ele>31.6</ele>
        <time>2021-02-23T10:02:05Z</time>
      </trkpt>
      <trkpt lat="49.28178" lon="-0.44793">
        <ele>31.8</ele>
        <time>2021-02-23T10:02:07Z</time>
      </trkpt>
      <trkpt lat="49.28179" lon="-0.44791">
        <ele>31.8</ele>
        <time>2021-02-23T10:02:08Z</time>
      </trkpt>
      <trkpt lat="49.2818" lon="-0.4479">
        <ele>31.9</ele>
        <time>2021-02-23T10:02:09Z</time>
      </trkpt>
      <trkpt lat="49.28183" lon="-0.44787">
        <ele>32.1</ele>
        <time>2021-02-23T10:02:11Z</time>
      </trkpt>
      <trkpt lat="49.28184" lon="-0.44786">
        <ele>32.2</ele>
        <time>2021-02-23T10:02:12Z</time>
      </trkpt>
      <trkpt lat="49.28185" lon="-0.44785">
        <ele>32.2</ele>
        <time>2021-02-23T10:02:13Z</time>
      </trkpt>
      <trkpt lat="49.28186" lon="-0.44783">
        <ele>32.3</ele>
        <time>2021-02-23T10:02:14Z</time>
      </trkpt>
      <trkpt lat="49.28189" lon="-0.44781">
        <ele>32.5</ele>
        <time>2021-02-23T10:02:16Z</time>
      </trkpt>
      <trkpt lat="49.28191" lon="-0.44778">
        <ele>32.7</ele>
        <time>2021-02-23T10:02:18Z</time>
      </trkpt>
      <trkpt lat="49.28193" lon="-0.44776">
        <ele>32.8</ele>
        <time>2021-02-23T10:02:20Z</time>
      </trkpt>
      <trkpt lat="49.28194" lon="-0.44774">
        <ele>32.9</ele>
        <time>2021-02-23T10:02:21Z</time>
      </trkpt>
      <trkpt lat="49.28196" lon="-0.44771">
        <ele>33.1</ele>
        <time>2021-02-23T10:02:23Z</time>
      </trkpt>
      <trkpt lat="49.28199" lon="-0.44769">
        <ele>33.3</ele>
        <time>2021-02-23T10:02:25Z</time>
      </trkpt>
      <trkpt lat="49.28201" lon="-0.44768">
        <ele>33.4</ele>
        <time>2021-02-23T10:02:27Z</time>
      </trkpt>
      <trkpt lat="49.28202" lon="-0.44767">
        <ele>33.5</ele>
        <time>2021-02-23T10:02:29Z</time>
      </trkpt>
      <trkpt lat="49.28203" lon="-0.44766">
        <ele>33.6</ele>
        <time>2021-02-23T10:02:30Z</time>
      </trkpt>
      <trkpt lat="49.28205" lon="-0.44765">
        <ele>33.7</ele>
        <time>2021-02-23T10:02:31Z</time>
      </trkpt>
      <trkpt lat="49.28208" lon="-0.44762">
        <ele>33.9</ele>
        <time>2021-02-23T10:02:33Z</time>
      </trkpt>
      <trkpt lat="49.28211" lon="-0.44759">
        <ele>34.2</ele>
        <time>2021-02-23T10:02:35Z</time>
      </trkpt>
      <trkpt lat="49.28212" lon="-0.44758">
        <ele>34.3</ele>
        <time>2021-02-23T10:02:36Z</time>
      </trkpt>
      <trkpt lat="49.28215" lon="-0.44755">
        <ele>34.6</ele>
        <time>2021-02-23T10:02:38Z</time>
      </trkpt>
      <trkpt lat="49.28218" lon="-0.44752">
        <ele>34.8</ele>
        <time>2021-02-23T10:02:40Z</time>
      </trkpt>
      <trkpt lat="49.28221" lon="-0.44749">
        <ele>35.1</ele>
        <time>2021-02-23T10:02:42Z</time>
      </trkpt>
      <trkpt lat="49.28225" lon="-0.44746">
        <ele>35.4</ele>
        <time>2021-02-23T10:02:44Z</time>
      </trkpt>
      <trkpt lat="49.28229" lon="-0.44743">
        <ele>35.8</ele>
        <time>2021-02-23T10:02:46Z</time>
      </trkpt>
      <trkpt lat="49.28232" lon="-0.44741">
        <ele>36.1</ele>
        <time>2021-02-23T10:02:47Z</time>
      </trkpt>
      <trkpt lat="49.28233" lon="-0.44741">
        <ele>36.2</ele>
        <time>2021-02-23T10:02:48Z</time>
      </trkpt>
      <trkpt lat="49.28238" lon="-0.44738">
        <ele>36.5</ele>
        <time>2021-02-23T10:02:50Z</time>
      </trkpt>
      <trkpt lat="49.28241" lon="-0.44736">
        <ele>36.8</ele>
        <time>2021-02-23T10:02:52Z</time>
      </trkpt>
      <trkpt lat="49.28243" lon="-0.44734">
        <ele>36.9</ele>
        <time>2021-02-23T10:02:53Z</time>
      </trkpt>
      <trkpt lat="49.28244" lon="-0.44732">
        <ele>37</ele>
        <time>2021-02-23T10:02:55Z</time>
      </trkpt>
      <trkpt lat="49.28245" lon="-0.44731">
        <ele>37.1</ele>
        <time>2021-02-23T10:02:56Z</time>
      </trkpt>
      <trkpt lat="49.28246" lon="-0.4473">
        <ele>37.2</ele>
        <time>2021-02-23T10:02:57Z</time>
      </trkpt>
      <trkpt lat="49.28248" lon="-0.44731">
        <ele>37.3</ele>
        <time>2021-02-23T10:02:59Z</time>
      </trkpt>
      <trkpt lat="49.28248" lon="-0.44731">
        <ele>37.3</ele>
        <time>2021-02-23T10:03:00Z</time>
      </trkpt>
      <trkpt lat="49.2825" lon="-0.4473">
        <ele>37.4</ele>
        <time>2021-02-23T10:03:02Z</time>
      </trkpt>
      <trkpt lat="49.28251" lon="-0.4473">
        <ele>37.5</ele>
        <time>2021-02-23T10:03:04Z</time>
      </trkpt>
      <trkpt lat="49.28252" lon="-0.44729">
        <ele>37.5</ele>
        <time>2021-02-23T10:03:05Z</time>
      </trkpt>
      <trkpt lat="49.28252" lon="-0.44729">
        <ele>37.6</ele>
        <time>2021-02-23T10:03:06Z</time>
      </trkpt>
      <trkpt lat="49.28253" lon="-0.44728">
        <ele>37.6</ele>
        <time>2021-02-23T10:03:08Z</time>
      </trkpt>
      <trkpt lat="49.28254" lon="-0.44728">
        <ele>37.6</ele>
        <time>2021-02-23T10:03:10Z</time>
      </trkpt>
      <trkpt lat="49.28254" lon="-0.44728">
        <ele>37.7</ele>
        <time>2021-02-23T10:03:11Z</time>
      </trkpt>
      <trkpt lat="49.28254" lon="-0.44728">
        <ele>37.7</ele>
        <time>2021-02-23T10:03:13Z</time>
      </trkpt>
      <trkpt lat="49.28254" lon="-0.44728">
        <ele>37.7</ele>
        <time>2021-02-23T10:03:14Z</time>
      </trkpt>
      <trkpt lat="49.28254" lon="-0.44728">
        <ele>37.7</ele>
        <time>2021-02-23T10:03:15Z</time>
      </trkpt>
      <trkpt lat="49.28254" lon="-0.44728">
        <ele>37.7</ele>
        <time>2021-02-23T10:03:16Z</time>
      </trkpt>
      <trkpt lat="49.28254" lon="-0.44728">
        <ele>37.7</ele>
        <time>2021-02-23T10:03:18Z</time>
      </trkpt>
      <trkpt lat="49.28254" lon="-0.44728">
        <ele>37.7</ele>
        <time>2021-02-23T10:03:19Z</time>
      </trkpt>
      <trkpt lat="49.28254" lon="-0.44728">
        <ele>37.7</ele>
        <time>2021-02-23T10:03:21Z</time>
      </trkpt>
      <trkpt lat="49.28254" lon="-0.44728">
        <ele>37.7</ele>
        <time>2021-02-23T10:03:22Z</time>
      </trkpt>
      <trkpt lat="49.28254" lon="-0.44728">
        <ele>37.7</ele>
        <time>2021-02-23T10:03:23Z</time>
      </trkpt>
      <trkpt lat="49.28253" lon="-0.44728">
        <ele>37.7</ele>
        <time>2021-02-23T10:03:25Z</time>
      </trkpt>
      <trkpt lat="49.28253" lon="-0.44728">
        <ele>37.7</ele>
        <time>2021-02-23T10:03:27Z</time>
      </trkpt>
      <trkpt lat="49.28253" lon="-0.44728">
        <ele>37.7</ele>
        <time>2021-02-23T10:03:28Z</time>
      </trkpt>
      <trkpt lat="49.28253" lon="-0.44728">
        <ele>37.7</ele>
        <time>2021-02-23T10:03:30Z</time>
      </trkpt>
      <trkpt lat="49.28253" lon="-0.44728">
        <ele>37.7</ele>
        <time>2021-02-23T10:03:32Z</time>
      </trkpt>
      <trkpt lat="49.28253" lon="-0.44728">
        <ele>37.7</ele>
        <time>2021-02-23T10:03:33Z</time>
      </trkpt>
      <trkpt lat="49.28253" lon="-0.44728">
        <ele>37.7</ele>
        <time>2021-02-23T10:03:34Z</time>
      </trkpt>
      <trkpt lat="49.28253" lon="-0.44728">
        <ele>37.7</ele>
        <time>2021-02-23T10:03:35Z</time>
      </trkpt>
      <trkpt lat="49.28253" lon="-0.44728">
        <ele>37.7</ele>
        <time>2021-02-23T10:03:37Z</time>
      </trkpt>
      <trkpt lat="49.28255" lon="-0.44727">
        <ele>37.8</ele>
        <time>2021-02-23T10:03:39Z</time>
      </trkpt>
      <trkpt lat="49.28257" lon="-0.44725">
        <ele>38</ele>
        <time>2021-02-23T10:03:41Z</time>
      </trkpt>
      <trkpt lat="49.28258" lon="-0.44723">
        <ele>38</ele>
        <time>2021-02-23T10:03:43Z</time>
      </trkpt>
      <trkpt lat="49.2826" lon="-0.44722">
        <ele>38.1</ele>
        <time>2021-02-23T10:03:44Z</time>
      </trkpt>
      <trkpt lat="49.2826" lon="-0.44721">
        <ele>38.2</ele>
        <time>2021-02-23T10:03:45Z</time>
      </trkpt>
      <trkpt lat="49.28261" lon="-0.4472">
        <ele>38.2</ele>
        <time>2021-02-23T10:03:46Z</time>
      </trkpt>
      <trkpt lat="49.28264" lon="-0.44719">
        <ele>38.3</ele>
        <time>2021-02-23T10:03:48Z</time>
      </trkpt>
      <trkpt lat="49.28265" lon="-0.44718">
        <ele>38.4</ele>
        <time>2021-02-23T10:03:49Z</time>
      </trkpt>
      <trkpt lat="49.28266" lon="-0.44718">
        <ele>38.4</ele>
        <time>2021-02-23T10:03:50Z</time>
      </trkpt>
      <trkpt lat="49.2827" lon="-0.44717">
        <ele>38.6</ele>
        <time>2021-02-23T10:03:52Z</time>
      </trkpt>
      <trkpt lat="49.28273" lon="-0.44716">
        <ele>38.7</ele>
        <time>2021-02-23T10:03:54Z</time>
      </trkpt>
      <trkpt lat="49.28277" lon="-0.44715">
        <ele>38.8</ele>
        <time>2021-02-23T10:03:55Z</time>
      </trkpt>
      <trkpt lat="49.28278" lon="-0.44714">
        <ele>38.9</ele>
        <time>2021-02-23T10:03:56Z</time>
      </trkpt>
      <trkpt lat="49.2828" lon="-0.44714">
        <ele>38.9</ele>
        <time>2021-02-23T10:03:57Z</time>
      </trkpt>
      <trkpt lat="49.28283" lon="-0.44712">
        <ele>39.1</ele>
        <time>2021-02-23T10:03:59Z</time>
      </trkpt>
      <trkpt lat="49.28286" lon="-0.44711">
        <ele>39.1</ele>
        <time>2021-02-23T10:04:00Z</time>
      </trkpt>
      <trkpt lat="49.28288" lon="-0.4471">
        <ele>39.2</ele>
        <time>2021-02-23T10:04:01Z</time>
      </trkpt>
      <trkpt lat="49.28291" lon="-0.44708">
        <ele>39.3</ele>
        <time>2021-02-23T10:04:03Z</time>
      </trkpt>
      <trkpt lat="49.28292" lon="-0.44708">
        <ele>39.3</ele>
        <time>2021-02-23T10:04:04Z</time>
      </trkpt>
      <trkpt lat="49.28293" lon="-0.44708">
        <ele>39.3</ele>
        <time>2021-02-23T10:04:05Z</time>
      </trkpt>
      <trkpt lat="49.28296" lon="-0.44709">
        <ele>39.4</ele>
        <time>2021-02-23T10:04:07Z</time>
      </trkpt>
      <trkpt lat="49.28299" lon="-0.44709">
        <ele>39.5</ele>
        <time>2021-02-23T10:04:09Z</time>
      </trkpt>
      <trkpt lat="49.28302" lon="-0.44709">
        <ele>39.5</ele>
        <time>2021-02-23T10:04:11Z</time>
      </trkpt>
      <trkpt lat="49.28305" lon="-0.44709">
        <ele>39.6</ele>
        <time>2021-02-23T10:04:13Z</time>
      </trkpt>
      <trkpt lat="49.28307" lon="-0.44709">
        <ele>39.6</ele>
        <time>2021-02-23T10:04:15Z</time>
      </trkpt>
      <trkpt lat="49.28309" lon="-0.44709">
        <ele>39.6</ele>
        <time>2021-02-23T10:04:16Z</time>
      </trkpt>
      <trkpt lat="49.28309" lon="-0.44709">
        <ele>39.7</ele>
        <time>2021-02-23T10:04:17Z</time>
      </trkpt>
      <trkpt lat="49.28311" lon="-0.44709">
        <ele>39.7</ele>
        <time>2021-02-23T10:04:18Z</time>
      </trkpt>
      <trkpt lat="49.28312" lon="-0.44709">
        <ele>39.7</ele>
        <time>2021-02-23T10:04:19Z</time>
      </trkpt>
      <trkpt lat="49.28317" lon="-0.44709">
        <ele>39.8</ele>
        <time>2021-02-23T10:04:21Z</time>
      </trkpt>
      <trkpt lat="49.28319" lon="-0.44709">
        <ele>39.8</ele>
        <time>2021-02-23T10:04:22Z</time>
      </trkpt>
      <trkpt lat="49.28322" lon="-0.44709">
        <ele>39.9</ele>
        <time>2021-02-23T10:04:24Z</time>
      </trkpt>
      <trkpt lat="49.28326" lon="-0.44708">
        <ele>40</ele>
        <time>2021-02-23T10:04:26Z</time>
      </trkpt>
      <trkpt lat="49.28328" lon="-0.44708">
        <ele>40</ele>
        <time>2021-02-23T10:04:27Z</time>
      </trkpt>
      <trkpt lat="49.28331" lon="-0.44708">
        <ele>40.1</ele>
        <time>2021-02-23T10:04:29Z</time>
      </trkpt>
      <trkpt lat="49.28335" lon="-0.44707">
        <ele>40.2</ele>
        <time>2021-02-23T10:04:31Z</time>
      </trkpt>
      <trkpt lat="49.28337" lon="-0.44707">
        <ele>40.2</ele>
        <time>2021-02-23T10:04:32Z</time>
      </trkpt>
      <trkpt lat="49.28341" lon="-0.44706">
        <ele>40.3</ele>
        <time>2021-02-23T10:04:34Z</time>
      </trkpt>
      <trkpt lat="49.28345" lon="-0.44706">
        <ele>40.4</ele>
        <time>2021-02-23T10:04:36Z</time>
      </trkpt>
      <trkpt lat="49.28348" lon="-0.44706">
        <ele>40.5</ele>
        <time>2021-02-23T10:04:37Z</time>
      </trkpt>
      <trkpt lat="49.28352" lon="-0.44706">
        <ele>40.6</ele>
        <time>2021-02-23T10:04:39Z</time>
      </trkpt>
      <trkpt lat="49.28354" lon="-0.44706">
        <ele>40.6</ele>
        <time>2021-02-23T10:04:40Z</time>
      </trkpt>
      <trkpt lat="49.28357" lon="-0.44706">
        <ele>40.7</ele>
        <time>2021-02-23T10:04:42Z</time>
      </trkpt>
      <trkpt lat="49.28359" lon="-0.44705">
        <ele>40.8</ele>
        <time>2021-02-23T10:04:43Z</time>
      </trkpt>
      <trkpt lat="49.28362" lon="-0.44705">
        <ele>40.9</ele>
        <time>2021-02-23T10:04:45Z</time>
      </trkpt>
      <trkpt lat="49.28366" lon="-0.44704">
        <ele>41</ele>
        <time>2021-02-23T10:04:47Z</time>
      </trkpt>
      <trkpt lat="49.28368" lon="-0.44704">
        <ele>41.1</ele>
        <time>2021-02-23T10:04:49Z</time>
      </trkpt>
      <trkpt lat="49.2837" lon="-0.44704">
        <ele>41.1</ele>
        <time>2021-02-23T10:04:50Z</time>
      </trkpt>
      <trkpt lat="49.28372" lon="-0.44704">
        <ele>41.2</ele>
        <time>2021-02-23T10:04:52Z</time>
      </trkpt>
      <trkpt lat="49.28373" lon="-0.44704">
        <ele>41.3</ele>
        <time>2021-02-23T10:04:54Z</time>
      </trkpt>
      <trkpt lat="49.28373" lon="-0.44703">
        <ele>41.3</ele>
        <time>2021-02-23T10:04:55Z</time>
      </trkpt>
      <trkpt lat="49.28374" lon="-0.44703">
        <ele>41.3</ele>
        <time>2021-02-23T10:04:56Z</time>
      </trkpt>
      <trkpt lat="49.28374" lon="-0.44704">
        <ele>41.3</ele>
        <time>2021-02-23T10:04:58Z</time>
      </trkpt>
      <trkpt lat="49.28376" lon="-0.44704">
        <ele>41.4</ele>
        <time>2021-02-23T10:04:59Z</time>
      </trkpt>
      <trkpt lat="49.28378" lon="-0.44702">
        <ele>41.5</ele>
        <time>2021-02-23T10:05:01Z</time>
      </trkpt>
      <trkpt lat="49.28382" lon="-0.44698">
        <ele>41.7</ele>
        <time>2021-02-23T10:05:03Z</time>
      </trkpt>
      <trkpt lat="49.28383" lon="-0.44696">
        <ele>41.9</ele>
        <time>2021-02-23T10:05:04Z</time>
      </trkpt>
      <trkpt lat="49.28383" lon="-0.44694">
        <ele>41.9</ele>
        <time>2021-02-23T10:05:05Z</time>
      </trkpt>
      <trkpt lat="49.28384" lon="-0.44693">
        <ele>42</ele>
        <time>2021-02-23T10:05:06Z</time>
      </trkpt>
      <trkpt lat="49.28385" lon="-0.44691">
        <ele>42</ele>
        <time>2021-02-23T10:05:07Z</time>
      </trkpt>
      <trkpt lat="49.28386" lon="-0.44685">
        <ele>42.1</ele>
        <time>2021-02-23T10:05:09Z</time>
      </trkpt>
      <trkpt lat="49.28386" lon="-0.4468">
        <ele>42.1</ele>
        <time>2021-02-23T10:05:10Z</time>
      </trkpt>
      <trkpt lat="49.28386" lon="-0.44679">
        <ele>42.2</ele>
        <time>2021-02-23T10:05:11Z</time>
      </trkpt>
      <trkpt lat="49.28386" lon="-0.44676">
        <ele>42.2</ele>
        <time>2021-02-23T10:05:12Z</time>
      </trkpt>
      <trkpt lat="49.28386" lon="-0.4467">
        <ele>42.3</ele>
        <time>2021-02-23T10:05:14Z</time>
      </trkpt>
      <trkpt lat="49.28386" lon="-0.44667">
        <ele>42.3</ele>
        <time>2021-02-23T10:05:15Z</time>
      </trkpt>
      <trkpt lat="49.28386" lon="-0.44662">
        <ele>42.3</ele>
        <time>2021-02-23T10:05:17Z</time>
      </trkpt>
      <trkpt lat="49.28386" lon="-0.44657">
        <ele>42.4</ele>
        <time>2021-02-23T10:05:19Z</time>
      </trkpt>
      <trkpt lat="49.28385" lon="-0.44652">
        <ele>42.4</ele>
        <time>2021-02-23T10:05:21Z</time>
      </trkpt>
      <trkpt lat="49.28385" lon="-0.44647">
        <ele>42.5</ele>
        <time>2021-02-23T10:05:23Z</time>
      </trkpt>
      <trkpt lat="49.28385" lon="-0.44644">
        <ele>42.5</ele>
        <time>2021-02-23T10:05:24Z</time>
      </trkpt>
      <trkpt lat="49.28385" lon="-0.44639">
        <ele>42.6</ele>
        <time>2021-02-23T10:05:26Z</time>
      </trkpt>
      <trkpt lat="49.28384" lon="-0.44637">
        <ele>42.6</ele>
        <time>2021-02-23T10:05:27Z</time>
      </trkpt>
      <trkpt lat="49.28384" lon="-0.44634">
        <ele>42.7</ele>
        <time>2021-02-23T10:05:28Z</time>
      </trkpt>
      <trkpt lat="49.28384" lon="-0.44632">
        <ele>42.7</ele>
        <time>2021-02-23T10:05:29Z</time>
      </trkpt>
      <trkpt lat="49.28384" lon="-0.4463">
        <ele>42.7</ele>
        <time>2021-02-23T10:05:30Z</time>
      </trkpt>
      <trkpt lat="49.28383" lon="-0.44625">
        <ele>42.8</ele>
        <time>2021-02-23T10:05:32Z</time>
      </trkpt>
      <trkpt lat="49.28383" lon="-0.44623">
        <ele>42.8</ele>
        <time>2021-02-23T10:05:33Z</time>
      </trkpt>
      <trkpt lat="49.28383" lon="-0.44621">
        <ele>42.9</ele>
        <time>2021-02-23T10:05:34Z</time>
      </trkpt>
      <trkpt lat="49.28383" lon="-0.44618">
        <ele>42.9</ele>
        <time>2021-02-23T10:05:35Z</time>
      </trkpt>
      <trkpt lat="49.28382" lon="-0.44613">
        <ele>43</ele>
        <time>2021-02-23T10:05:37Z</time>
      </trkpt>
      <trkpt lat="49.28382" lon="-0.44611">
        <ele>43</ele>
        <time>2021-02-23T10:05:38Z</time>
      </trkpt>
      <trkpt lat="49.28382" lon="-0.44606">
        <ele>43.1</ele>
        <time>2021-02-23T10:05:40Z</time>
      </trkpt>
      <trkpt lat="49.28382" lon="-0.44603">
        <ele>43.1</ele>
        <time>2021-02-23T10:05:41Z</time>
      </trkpt>
      <trkpt lat="49.28382" lon="-0.44598">
        <ele>43.2</ele>
        <time>2021-02-23T10:05:43Z</time>
      </trkpt>
      <trkpt lat="49.28383" lon="-0.44593">
        <ele>43.3</ele>
        <time>2021-02-23T10:05:45Z</time>
      </trkpt>
      <trkpt lat="49.28383" lon="-0.44591">
        <ele>43.3</ele>
        <time>2021-02-23T10:05:46Z</time>
      </trkpt>
      <trkpt lat="49.28383" lon="-0.44588">
        <ele>43.4</ele>
        <time>2021-02-23T10:05:47Z</time>
      </trkpt>
      <trkpt lat="49.28383" lon="-0.44583">
        <ele>43.4</ele>
        <time>2021-02-23T10:05:49Z</time>
      </trkpt>
      <trkpt lat="49.28383" lon="-0.44578">
        <ele>43.5</ele>
        <time>2021-02-23T10:05:51Z</time>
      </trkpt>
      <trkpt lat="49.28384" lon="-0.44576">
        <ele>43.5</ele>
        <time>2021-02-23T10:05:52Z</time>
      </trkpt>
      <trkpt lat="49.28384" lon="-0.44573">
        <ele>43.6</ele>
        <time>2021-02-23T10:05:53Z</time>
      </trkpt>
      <trkpt lat="49.28384" lon="-0.44568">
        <ele>43.7</ele>
        <time>2021-02-23T10:05:55Z</time>
      </trkpt>
      <trkpt lat="49.28385" lon="-0.44563">
        <ele>43.7</ele>
        <time>2021-02-23T10:05:57Z</time>
      </trkpt>
      <trkpt lat="49.28385" lon="-0.4456">
        <ele>43.8</ele>
        <time>2021-02-23T10:05:58Z</time>
      </trkpt>
      <trkpt lat="49.28386" lon="-0.44554">
        <ele>43.8</ele>
        <time>2021-02-23T10:06:00Z</time>
      </trkpt>
      <trkpt lat="49.28386" lon="-0.4455">
        <ele>43.9</ele>
        <time>2021-02-23T10:06:01Z</time>
      </trkpt>
      <trkpt lat="49.28386" lon="-0.44549">
        <ele>43.9</ele>
        <time>2021-02-23T10:06:02Z</time>
      </trkpt>
      <trkpt lat="49.28386" lon="-0.44548">
        <ele>43.9</ele>
        <time>2021-02-23T10:06:03Z</time>
      </trkpt>
      <trkpt lat="49.28386" lon="-0.44543">
        <ele>43.9</ele>
        <time>2021-02-23T10:06:05Z</time>
      </trkpt>
      <trkpt lat="49.28386" lon="-0.44538">
        <ele>44</ele>
        <time>2021-02-23T10:06:07Z</time>
      </trkpt>
      <trkpt lat="49.28386" lon="-0.44534">
        <ele>44</ele>
        <time>2021-02-23T10:06:09Z</time>
      </trkpt>
      <trkpt lat="49.28385" lon="-0.4453">
        <ele>44.1</ele>
        <time>2021-02-23T10:06:11Z</time>
      </trkpt>
      <trkpt lat="49.28385" lon="-0.44527">
        <ele>44.1</ele>
        <time>2021-02-23T10:06:12Z</time>
      </trkpt>
      <trkpt lat="49.28385" lon="-0.44523">
        <ele>44.2</ele>
        <time>2021-02-23T10:06:14Z</time>
      </trkpt>
      <trkpt lat="49.28385" lon="-0.4452">
        <ele>44.2</ele>
        <time>2021-02-23T10:06:15Z</time>
      </trkpt>
      <trkpt lat="49.28384" lon="-0.44515">
        <ele>44.3</ele>
        <time>2021-02-23T10:06:17Z</time>
      </trkpt>
      <trkpt lat="49.28384" lon="-0.44512">
        <ele>44.3</ele>
        <time>2021-02-23T10:06:18Z</time>
      </trkpt>
      <trkpt lat="49.28384" lon="-0.44511">
        <ele>44.4</ele>
        <time>2021-02-23T10:06:19Z</time>
      </trkpt>
      <trkpt lat="49.28384" lon="-0.44505">
        <ele>44.4</ele>
        <time>2021-02-23T10:06:21Z</time>
      </trkpt>
      <trkpt lat="49.28384" lon="-0.44503">
        <ele>44.5</ele>
        <time>2021-02-23T10:06:22Z</time>
      </trkpt>
      <trkpt lat="49.28384" lon="-0.445">
        <ele>44.5</ele>
        <time>2021-02-23T10:06:23Z</time>
      </trkpt>
      <trkpt lat="49.28384" lon="-0.44495">
        <ele>44.6</ele>
        <time>2021-02-23T10:06:25Z</time>
      </trkpt>
      <trkpt lat="49.28383" lon="-0.44489">
        <ele>44.7</ele>
        <time>2021-02-23T10:06:27Z</time>
      </trkpt>
      <trkpt lat="49.28383" lon="-0.44487">
        <ele>44.7</ele>
        <time>2021-02-23T10:06:28Z</time>
      </trkpt>
      <trkpt lat="49.28383" lon="-0.44482">
        <ele>44.7</ele>
        <time>2021-02-23T10:06:30Z</time>
      </trkpt>
      <trkpt lat="49.28384" lon="-0.44478">
        <ele>44.8</ele>
        <time>2021-02-23T10:06:32Z</time>
      </trkpt>
      <trkpt lat="49.28384" lon="-0.44475">
        <ele>44.8</ele>
        <time>2021-02-23T10:06:33Z</time>
      </trkpt>
      <trkpt lat="49.28384" lon="-0.44473">
        <ele>44.8</ele>
        <time>2021-02-23T10:06:34Z</time>
      </trkpt>
      <trkpt lat="49.28384" lon="-0.44468">
        <ele>44.9</ele>
        <time>2021-02-23T10:06:36Z</time>
      </trkpt>
      <trkpt lat="49.28384" lon="-0.44466">
        <ele>44.9</ele>
        <time>2021-02-23T10:06:37Z</time>
      </trkpt>
      <trkpt lat="49.28384" lon="-0.4446">
        <ele>45</ele>
        <time>2021-02-23T10:06:39Z</time>
      </trkpt>
      <trkpt lat="49.28384" lon="-0.44457">
        <ele>45</ele>
        <time>2021-02-23T10:06:40Z</time>
      </trkpt>
      <trkpt lat="49.28384" lon="-0.44455">
        <ele>45</ele>
        <time>2021-02-23T10:06:41Z</time>
      </trkpt>
      <trkpt lat="49.28385" lon="-0.4445">
        <ele>45.1</ele>
        <time>2021-02-23T10:06:43Z</time>
      </trkpt>
      <trkpt lat="49.28385" lon="-0.44447">
        <ele>45.1</ele>
        <time>2021-02-23T10:06:44Z</time>
      </trkpt>
      <trkpt lat="49.28385" lon="-0.44445">
        <ele>45.1</ele>
        <time>2021-02-23T10:06:45Z</time>
      </trkpt>
      <trkpt lat="49.28385" lon="-0.44443">
        <ele>45.2</ele>
        <time>2021-02-23T10:06:46Z</time>
      </trkpt>
      <trkpt lat="49.28385" lon="-0.44438">
        <ele>45.2</ele>
        <time>2021-02-23T10:06:48Z</time>
      </trkpt>
      <trkpt lat="49.28386" lon="-0.44431">
        <ele>45.3</ele>
        <time>2021-02-23T10:06:50Z</time>
      </trkpt>
      <trkpt lat="49.28387" lon="-0.44428">
        <ele>45.4</ele>
        <time>2021-02-23T10:06:52Z</time>
      </trkpt>
      <trkpt lat="49.28388" lon="-0.44426">
        <ele>45.4</ele>
        <time>2021-02-23T10:06:54Z</time>
      </trkpt>
      <trkpt lat="49.28388" lon="-0.44423">
        <ele>45.5</ele>
        <time>2021-02-23T10:06:56Z</time>
      </trkpt>
      <trkpt lat="49.28389" lon="-0.4442">
        <ele>45.5</ele>
        <time>2021-02-23T10:06:58Z</time>
      </trkpt>
      <trkpt lat="49.2839" lon="-0.44417">
        <ele>45.6</ele>
        <time>2021-02-23T10:06:59Z</time>
      </trkpt>
      <trkpt lat="49.28391" lon="-0.44417">
        <ele>45.6</ele>
        <time>2021-02-23T10:07:00Z</time>
      </trkpt>
      <trkpt lat="49.28393" lon="-0.44417">
        <ele>45.6</ele>
        <time>2021-02-23T10:07:02Z</time>
      </trkpt>
      <trkpt lat="49.28394" lon="-0.44417">
        <ele>45.6</ele>
        <time>2021-02-23T10:07:03Z</time>
      </trkpt>
      <trkpt lat="49.28395" lon="-0.44417">
        <ele>45.6</ele>
        <time>2021-02-23T10:07:04Z</time>
      </trkpt>
      <trkpt lat="49.28396" lon="-0.44417">
        <ele>45.6</ele>
        <time>2021-02-23T10:07:06Z</time>
      </trkpt>
      <trkpt lat="49.28396" lon="-0.44416">
        <ele>45.6</ele>
        <time>2021-02-23T10:07:08Z</time>
      </trkpt>
      <trkpt lat="49.28396" lon="-0.44416">
        <ele>45.6</ele>
        <time>2021-02-23T10:07:09Z</time>
      </trkpt>
      <trkpt lat="49.28396" lon="-0.44415">
        <ele>45.6</ele>
        <time>2021-02-23T10:07:10Z</time>
      </trkpt>
      <trkpt lat="49.28395" lon="-0.44415">
        <ele>45.6</ele>
        <time>2021-02-23T10:07:11Z</time>
      </trkpt>
      <trkpt lat="49.28395" lon="-0.44415">
        <ele>45.6</ele>
        <time>2021-02-23T10:07:12Z</time>
      </trkpt>
      <trkpt lat="49.28395" lon="-0.44415">
        <ele>45.6</ele>
        <time>2021-02-23T10:07:14Z</time>
      </trkpt>
      <trkpt lat="49.28395" lon="-0.44415">
        <ele>45.6</ele>
        <time>2021-02-23T10:07:16Z</time>
      </trkpt>
      <trkpt lat="49.28395" lon="-0.44415">
        <ele>45.6</ele>
        <time>2021-02-23T10:07:17Z</time>
      </trkpt>
      <trkpt lat="49.28395" lon="-0.44415">
        <ele>45.6</ele>
        <time>2021-02-23T10:07:19Z</time>
      </trkpt>
      <trkpt lat="49.28395" lon="-0.44415">
        <ele>45.6</ele>
        <time>2021-02-23T10:07:20Z</time>
      </trkpt>
      <trkpt lat="49.28395" lon="-0.44415">
        <ele>45.6</ele>
        <time>2021-02-23T10:07:22Z</time>
      </trkpt>
      <trkpt lat="49.28395" lon="-0.44415">
        <ele>45.6</ele>
        <time>2021-02-23T10:07:23Z</time>
      </trkpt>
      <trkpt lat="49.28395" lon="-0.44415">
        <ele>45.6</ele>
        <time>2021-02-23T10:07:24Z</time>
      </trkpt>
      <trkpt lat="49.28395" lon="-0.44415">
        <ele>45.6</ele>
        <time>2021-02-23T10:07:26Z</time>
      </trkpt>
      <trkpt lat="49.28395" lon="-0.44415">
        <ele>45.6</ele>
        <time>2021-02-23T10:07:27Z</time>
      </trkpt>
      <trkpt lat="49.28395" lon="-0.44415">
        <ele>45.6</ele>
        <time>2021-02-23T10:07:29Z</time>
      </trkpt>
      <trkpt lat="49.28395" lon="-0.44415">
        <ele>45.6</ele>
        <time>2021-02-23T10:07:30Z</time>
      </trkpt>
      <trkpt lat="49.28395" lon="-0.44415">
        <ele>45.6</ele>
        <time>2021-02-23T10:07:32Z</time>
      </trkpt>
      <trkpt lat="49.28395" lon="-0.44415">
        <ele>45.6</ele>
        <time>2021-02-23T10:07:33Z</time>
      </trkpt>
      <trkpt lat="49.28395" lon="-0.44415">
        <ele>45.6</ele>
        <time>2021-02-23T10:07:35Z</time>
      </trkpt>
      <trkpt lat="49.28395" lon="-0.44415">
        <ele>45.6</ele>
        <time>2021-02-23T10:07:37Z</time>
      </trkpt>
      <trkpt lat="49.28395" lon="-0.44415">
        <ele>45.6</ele>
        <time>2021-02-23T10:07:39Z</time>
      </trkpt>
      <trkpt lat="49.28395" lon="-0.44415">
        <ele>45.6</ele>
        <time>2021-02-23T10:07:40Z</time>
      </trkpt>
      <trkpt lat="49.28395" lon="-0.44415">
        <ele>45.6</ele>
        <time>2021-02-23T10:07:41Z</time>
      </trkpt>
      <trkpt lat="49.28395" lon="-0.44415">
        <ele>45.6</ele>
        <time>2021-02-23T10:07:43Z</time>
      </trkpt>
      <trkpt lat="49.28395" lon="-0.44415">
        <ele>45.6</ele>
        <time>2021-02-23T10:07:44Z</time>
      </trkpt>
      <trkpt lat="49.28395" lon="-0.44415">
        <ele>45.6</ele>
        <time>2021-02-23T10:07:45Z</time>
      </trkpt>
      <trkpt lat="49.28395" lon="-0.44415">
        <ele>45.6</ele>
        <time>2021-02-23T10:07:46Z</time>
      </trkpt>
      <trkpt lat="49.28395" lon="-0.44415">
        <ele>45.6</ele>
        <time>2021-02-23T10:07:48Z</time>
      </trkpt>
      <trkpt lat="49.28395" lon="-0.44415">
        <ele>45.6</ele>
        <time>2021-02-23T10:07:49Z</time>
      </trkpt>
      <trkpt lat="49.28395" lon="-0.44415">
        <ele>45.6</ele>
        <time>2021-02-23T10:07:51Z</time>
      </trkpt>
      <trkpt lat="49.28395" lon="-0.44415">
        <ele>45.6</ele>
        <time>2021-02-23T10:07:52Z</time>
      </trkpt>
      <trkpt lat="49.28395" lon="-0.44415">
        <ele>45.6</ele>
        <time>2021-02-23T10:07:53Z</time>
      </trkpt>
      <trkpt lat="49.28395" lon="-0.44415">
        <ele>45.6</ele>
        <time>2021-02-23T10:07:54Z</time>
      </trkpt>
      <trkpt lat="49.28395" lon="-0.44415">
        <ele>45.6</ele>
        <time>2021-02-23T10:07:56Z</time>
      </trkpt>
      <trkpt lat="49.28395" lon="-0.44415">
        <ele>45.6</ele>
        <time>2021-02-23T10:07:58Z</time>
      </trkpt>
      <trkpt lat="49.28395" lon="-0.44415">
        <ele>45.6</ele>
        <time>2021-02-23T10:07:59Z</time>
      </trkpt>
      <trkpt lat="49.28395" lon="-0.44415">
        <ele>45.6</ele>
        <time>2021-02-23T10:08:01Z</time>
      </trkpt>
      <trkpt lat="49.28395" lon="-0.44415">
        <ele>45.6</ele>
        <time>2021-02-23T10:08:03Z</time>
      </trkpt>
      <trkpt lat="49.28395" lon="-0.44415">
        <ele>45.6</ele>
        <time>2021-02-23T10:08:04Z</time>
      </trkpt>
      <trkpt lat="49.28395" lon="-0.44415">
        <ele>45.6</ele>
        <time>2021-02-23T10:08:06Z</time>
      </trkpt>
      <trkpt lat="49.28395" lon="-0.44415">
        <ele>45.6</ele>
        <time>2021-02-23T10:08:08Z</time>
      </trkpt>
      <trkpt lat="49.28395" lon="-0.4441">
        <ele>45.6</ele>
        <time>2021-02-23T10:08:10Z</time>
      </trkpt>
      <trkpt lat="49.28395" lon="-0.44405">
        <ele>45.6</ele>
        <time>2021-02-23T10:08:12Z</time>
      </trkpt>
      <trkpt lat="49.28395" lon="-0.44403">
        <ele>45.6</ele>
        <time>2021-02-23T10:08:14Z</time>
      </trkpt>
      <trkpt lat="49.28395" lon="-0.44403">
        <ele>45.6</ele>
        <time>2021-02-23T10:08:15Z</time>
      </trkpt>
      <trkpt lat="49.28395" lon="-0.44402">
        <ele>45.6</ele>
        <time>2021-02-23T10:08:17Z</time>
      </trkpt>
      <trkpt lat="49.28395" lon="-0.44402">
        <ele>45.6</ele>
        <time>2021-02-23T10:08:19Z</time>
      </trkpt>
      <trkpt lat="49.28395" lon="-0.44401">
        <ele>45.6</ele>
        <time>2021-02-23T10:08:21Z</time>
      </trkpt>
      <trkpt lat="49.28395" lon="-0.444">
        <ele>45.6</ele>
        <time>2021-02-23T10:08:22Z</time>
      </trkpt>
      <trkpt lat="49.28395" lon="-0.444">
        <ele>45.6</ele>
        <time>2021-02-23T10:08:24Z</time>
      </trkpt>
      <trkpt lat="49.28395" lon="-0.444">
        <ele>45.6</ele>
        <time>2021-02-23T10:08:25Z</time>
      </trkpt>
      <trkpt lat="49.28395" lon="-0.444">
        <ele>45.6</ele>
        <time>2021-02-23T10:08:27Z</time>
      </trkpt>
      <trkpt lat="49.28395" lon="-0.444">
        <ele>45.6</ele>
        <time>2021-02-23T10:08:29Z</time>
      </trkpt>
      <trkpt lat="49.28395" lon="-0.44401">
        <ele>45.6</ele>
        <time>2021-02-23T10:08:30Z</time>
      </trkpt>
      <trkpt lat="49.28395" lon="-0.44401">
        <ele>45.6</ele>
        <time>2021-02-23T10:08:31Z</time>
      </trkpt>
      <trkpt lat="49.28393" lon="-0.44407">
        <ele>45.6</ele>
        <time>2021-02-23T10:08:33Z</time>
      </trkpt>
      <trkpt lat="49.28392" lon="-0.4441">
        <ele>45.6</ele>
        <time>2021-02-23T10:08:35Z</time>
      </trkpt>
      <trkpt lat="49.28392" lon="-0.44411">
        <ele>45.6</ele>
        <time>2021-02-23T10:08:37Z</time>
      </trkpt>
      <trkpt lat="49.28392" lon="-0.44412">
        <ele>45.6</ele>
        <time>2021-02-23T10:08:39Z</time>
      </trkpt>
      <trkpt lat="49.28392" lon="-0.44412">
        <ele>45.6</ele>
        <time>2021-02-23T10:08:40Z</time>
      </trkpt>
      <trkpt lat="49.28392" lon="-0.44412">
        <ele>45.6</ele>
        <time>2021-02-23T10:08:41Z</time>
      </trkpt>
      <trkpt lat="49.28392" lon="-0.44412">
        <ele>45.6</ele>
        <time>2021-02-23T10:08:42Z</time>
      </trkpt>
      <trkpt lat="49.28392" lon="-0.44412">
        <ele>45.6</ele>
        <time>2021-02-23T10:08:44Z</time>
      </trkpt>
      <trkpt lat="49.28392" lon="-0.44412">
        <ele>45.6</ele>
        <time>2021-02-23T10:08:46Z</time>
      </trkpt>
      <trkpt lat="49.28392" lon="-0.44412">
        <ele>45.6</ele>
        <time>2021-02-23T10:08:47Z</time>
      </trkpt>
      <trkpt lat="49.28392" lon="-0.44412">
        <ele>45.6</ele>
        <time>2021-02-23T10:08:49Z</time>
      </trkpt>
      <trkpt lat="49.28392" lon="-0.44412">
        <ele>45.6</ele>
        <time>2021-02-23T10:08:51Z</time>
      </trkpt>
      <trkpt lat="49.28392" lon="-0.44412">
        <ele>45.6</ele>
        <time>2021-02-23T10:08:52Z</time>
      </trkpt>
      <trkpt lat="49.28392" lon="-0.44412">
        <ele>45.6</ele>
        <time>2021-02-23T10:08:54Z</time>
      </trkpt>
      <trkpt lat="49.28392" lon="-0.44412">
        <ele>45.6</ele>
        <time>2021-02-23T10:08:56Z</time>
      </trkpt>
      <trkpt lat="49.28392" lon="-0.44412">
        <ele>45.6</ele>
        <time>2021-02-23T10:08:58Z</time>
      </trkpt>
      <trkpt lat="49.28392" lon="-0.44413">
        <ele>45.6</ele>
        <time>2021-02-23T10:09:00Z</time>
      </trkpt>
      <trkpt lat="49.28392" lon="-0.44413">
        <ele>45.6</ele>
        <time>2021-02-23T10:09:01Z</time>
      </trkpt>
      <trkpt lat="49.28392" lon="-0.44413">
        <ele>45.6</ele>
        <time>2021-02-23T10:09:03Z</time>
      </trkpt>
      <trkpt lat="49.28392" lon="-0.44413">
        <ele>45.6</ele>
        <time>2021-02-23T10:09:05Z</time>
      </trkpt>
      <trkpt lat="49.28392" lon="-0.44413">
        <ele>45.6</ele>
        <time>2021-02-23T10:09:06Z</time>
      </trkpt>
      <trkpt lat="49.28392" lon="-0.44413">
        <ele>45.6</ele>
        <time>2021-02-23T10:09:07Z</time>
      </trkpt>
      <trkpt lat="49.28392" lon="-0.44413">
        <ele>45.6</ele>
        <time>2021-02-23T10:09:09Z</time>
      </trkpt>
      <trkpt lat="49.28392" lon="-0.44413">
        <ele>45.6</ele>
        <time>2021-02-23T10:09:10Z</time>
      </trkpt>
      <trkpt lat="49.28392" lon="-0.44414">
        <ele>45.6</ele>
        <time>2021-02-23T10:09:11Z</time>
      </trkpt>
      <trkpt lat="49.28392" lon="-0.44414">
        <ele>45.6</ele>
        <time>2021-02-23T10:09:13Z</time>
      </trkpt>
      <trkpt lat="49.28392" lon="-0.44414">
        <ele>45.6</ele>
        <time>2021-02-23T10:09:15Z</time>
      </trkpt>
      <trkpt lat="49.28392" lon="-0.44414">
        <ele>45.6</ele>
        <time>2021-02-23T10:09:16Z</time>
      </trkpt>
      <trkpt lat="49.28391" lon="-0.44414">
        <ele>45.6</ele>
        <time>2021-02-23T10:09:18Z</time>
      </trkpt>
      <trkpt lat="49.28391" lon="-0.44414">
        <ele>45.7</ele>
        <time>2021-02-23T10:09:19Z</time>
      </trkpt>
      <trkpt lat="49.28391" lon="-0.44414">
        <ele>45.7</ele>
        <time>2021-02-23T10:09:20Z</time>
      </trkpt>
      <trkpt lat="49.28391" lon="-0.44414">
        <ele>45.7</ele>
        <time>2021-02-23T10:09:22Z</time>
      </trkpt>
      <trkpt lat="49.28391" lon="-0.44414">
        <ele>45.7</ele>
        <time>2021-02-23T10:09:24Z</time>
      </trkpt>
      <trkpt lat="49.28391" lon="-0.44414">
        <ele>45.7</ele>
        <time>2021-02-23T10:09:26Z</time>
      </trkpt>
      <trkpt lat="49.28392" lon="-0.44414">
        <ele>45.7</ele>
        <time>2021-02-23T10:09:28Z</time>
      </trkpt>
      <trkpt lat="49.28392" lon="-0.44414">
        <ele>45.7</ele>
        <time>2021-02-23T10:09:30Z</time>
      </trkpt>
      <trkpt lat="49.28392" lon="-0.44414">
        <ele>45.7</ele>
        <time>2021-02-23T10:09:31Z</time>
      </trkpt>
      <trkpt lat="49.28392" lon="-0.44414">
        <ele>45.7</ele>
        <time>2021-02-23T10:09:33Z</time>
      </trkpt>
      <trkpt lat="49.28392" lon="-0.44414">
        <ele>45.7</ele>
        <time>2021-02-23T10:09:34Z</time>
      </trkpt>
      <trkpt lat="49.28392" lon="-0.44414">
        <ele>45.7</ele>
        <time>2021-02-23T10:09:36Z</time>
      </trkpt>
      <trkpt lat="49.28391" lon="-0.44414">
        <ele>45.7</ele>
        <time>2021-02-23T10:09:38Z</time>
      </trkpt>
      <trkpt lat="49.28391" lon="-0.44414">
        <ele>45.7</ele>
        <time>2021-02-23T10:09:39Z</time>
      </trkpt>
      <trkpt lat="49.28391" lon="-0.44414">
        <ele>45.7</ele>
        <time>2021-02-23T10:09:40Z</time>
      </trkpt>
      <trkpt lat="49.28391" lon="-0.44414">
        <ele>45.7</ele>
        <time>2021-02-23T10:09:42Z</time>
      </trkpt>
      <trkpt lat="49.28391" lon="-0.44414">
        <ele>45.7</ele>
        <time>2021-02-23T10:09:43Z</time>
      </trkpt>
      <trkpt lat="49.28391" lon="-0.44414">
        <ele>45.7</ele>
        <time>2021-02-23T10:09:44Z</time>
      </trkpt>
      <trkpt lat="49.28391" lon="-0.44414">
        <ele>45.7</ele>
        <time>2021-02-23T10:09:46Z</time>
      </trkpt>
      <trkpt lat="49.28391" lon="-0.44414">
        <ele>45.7</ele>
        <time>2021-02-23T10:09:47Z</time>
      </trkpt>
      <trkpt lat="49.28391" lon="-0.44414">
        <ele>45.7</ele>
        <time>2021-02-23T10:09:49Z</time>
      </trkpt>
      <trkpt lat="49.28391" lon="-0.44414">
        <ele>45.7</ele>
        <time>2021-02-23T10:09:50Z</time>
      </trkpt>
      <trkpt lat="49.28391" lon="-0.44414">
        <ele>45.7</ele>
        <time>2021-02-23T10:09:52Z</time>
      </trkpt>
      <trkpt lat="49.28391" lon="-0.44414">
        <ele>45.7</ele>
        <time>2021-02-23T10:09:53Z</time>
      </trkpt>
      <trkpt lat="49.28391" lon="-0.44414">
        <ele>45.7</ele>
        <time>2021-02-23T10:09:54Z</time>
      </trkpt>
      <trkpt lat="49.28391" lon="-0.44414">
        <ele>45.7</ele>
        <time>2021-02-23T10:09:56Z</time>
      </trkpt>
      <trkpt lat="49.28391" lon="-0.44414">
        <ele>45.7</ele>
        <time>2021-02-23T10:09:57Z</time>
      </trkpt>
      <trkpt lat="49.28391" lon="-0.44414">
        <ele>45.7</ele>
        <time>2021-02-23T10:09:59Z</time>
      </trkpt>
      <trkpt lat="49.28391" lon="-0.44414">
        <ele>45.7</ele>
        <time>2021-02-23T10:10:00Z</time>
      </trkpt>
      <trkpt lat="49.28391" lon="-0.44415">
        <ele>45.7</ele>
        <time>2021-02-23T10:10:02Z</time>
      </trkpt>
      <trkpt lat="49.28391" lon="-0.44415">
        <ele>45.7</ele>
        <time>2021-02-23T10:10:04Z</time>
      </trkpt>
      <trkpt lat="49.28391" lon="-0.44415">
        <ele>45.7</ele>
        <time>2021-02-23T10:10:06Z</time>
      </trkpt>
      <trkpt lat="49.28392" lon="-0.44414">
        <ele>45.7</ele>
        <time>2021-02-23T10:10:08Z</time>
      </trkpt>
      <trkpt lat="49.28393" lon="-0.44414">
        <ele>45.7</ele>
        <time>2021-02-23T10:10:10Z</time>
      </trkpt>
      <trkpt lat="49.28393" lon="-0.44414">
        <ele>45.7</ele>
        <time>2021-02-23T10:10:11Z</time>
      </trkpt>
      <trkpt lat="49.28394" lon="-0.44413">
        <ele>45.7</ele>
        <time>2021-02-23T10:10:12Z</time>
      </trkpt>
      <trkpt lat="49.28394" lon="-0.44413">
        <ele>45.7</ele>
        <time>2021-02-23T10:10:13Z</time>
      </trkpt>
      <trkpt lat="49.28394" lon="-0.44413">
        <ele>45.7</ele>
        <time>2021-02-23T10:10:15Z</time>
      </trkpt>
      <trkpt lat="49.28395" lon="-0.44413">
        <ele>45.7</ele>
        <time>2021-02-23T10:10:16Z</time>
      </trkpt>
      <trkpt lat="49.28394" lon="-0.44413">
        <ele>45.7</ele>
        <time>2021-02-23T10:10:18Z</time>
      </trkpt>
      <trkpt lat="49.28394" lon="-0.44413">
        <ele>45.7</ele>
        <time>2021-02-23T10:10:19Z</time>
      </trkpt>
      <trkpt lat="49.28394" lon="-0.44413">
        <ele>45.7</ele>
        <time>2021-02-23T10:10:21Z</time>
      </trkpt>
      <trkpt lat="49.28394" lon="-0.44414">
        <ele>45.7</ele>
        <time>2021-02-23T10:10:22Z</time>
      </trkpt>
      <trkpt lat="49.28394" lon="-0.44414">
        <ele>45.7</ele>
        <time>2021-02-23T10:10:24Z</time>
      </trkpt>
      <trkpt lat="49.28394" lon="-0.44414">
        <ele>45.7</ele>
        <time>2021-02-23T10:10:25Z</time>
      </trkpt>
      <trkpt lat="49.28394" lon="-0.44414">
        <ele>45.7</ele>
        <time>2021-02-23T10:10:26Z</time>
      </trkpt>
      <trkpt lat="49.28395" lon="-0.44414">
        <ele>45.7</ele>
        <time>2021-02-23T10:10:27Z</time>
      </trkpt>
      <trkpt lat="49.28395" lon="-0.44414">
        <ele>45.7</ele>
        <time>2021-02-23T10:10:29Z</time>
      </trkpt>
      <trkpt lat="49.28395" lon="-0.44415">
        <ele>45.7</ele>
        <time>2021-02-23T10:10:31Z</time>
      </trkpt>
      <trkpt lat="49.28395" lon="-0.44415">
        <ele>45.7</ele>
        <time>2021-02-23T10:10:33Z</time>
      </trkpt>
      <trkpt lat="49.28395" lon="-0.44415">
        <ele>45.7</ele>
        <time>2021-02-23T10:10:34Z</time>
      </trkpt>
      <trkpt lat="49.28394" lon="-0.44415">
        <ele>45.7</ele>
        <time>2021-02-23T10:10:35Z</time>
      </trkpt>
      <trkpt lat="49.28395" lon="-0.44415">
        <ele>45.7</ele>
        <time>2021-02-23T10:10:37Z</time>
      </trkpt>
      <trkpt lat="49.28395" lon="-0.44415">
        <ele>45.7</ele>
        <time>2021-02-23T10:10:38Z</time>
      </trkpt>
      <trkpt lat="49.28395" lon="-0.44415">
        <ele>45.7</ele>
        <time>2021-02-23T10:10:39Z</time>
      </trkpt>
      <trkpt lat="49.28395" lon="-0.44415">
        <ele>45.7</ele>
        <time>2021-02-23T10:10:41Z</time>
      </trkpt>
      <trkpt lat="49.28395" lon="-0.44416">
        <ele>45.7</ele>
        <time>2021-02-23T10:10:43Z</time>
      </trkpt>
      <trkpt lat="49.28395" lon="-0.44416">
        <ele>45.7</ele>
        <time>2021-02-23T10:10:44Z</time>
      </trkpt>
      <trkpt lat="49.28395" lon="-0.44415">
        <ele>45.7</ele>
        <time>2021-02-23T10:10:46Z</time>
      </trkpt>
      <trkpt lat="49.28395" lon="-0.44415">
        <ele>45.7</ele>
        <time>2021-02-23T10:10:48Z</time>
      </trkpt>
      <trkpt lat="49.28395" lon="-0.44415">
        <ele>45.7</ele>
        <time>2021-02-23T10:10:50Z</time>
      </trkpt>
      <trkpt lat="49.28395" lon="-0.44415">
        <ele>45.7</ele>
        <time>2021-02-23T10:10:51Z</time>
      </trkpt>
      <trkpt lat="49.28395" lon="-0.44415">
        <ele>45.7</ele>
        <time>2021-02-23T10:10:53Z</time>
      </trkpt>
      <trkpt lat="49.28395" lon="-0.44415">
        <ele>45.7</ele>
        <time>2021-02-23T10:10:54Z</time>
      </trkpt>
      <trkpt lat="49.28395" lon="-0.44415">
        <ele>45.7</ele>
        <time>2021-02-23T10:10:56Z</time>
      </trkpt>
      <trkpt lat="49.28395" lon="-0.44415">
        <ele>45.7</ele>
        <time>2021-02-23T10:10:57Z</time>
      </trkpt>
      <trkpt lat="49.28395" lon="-0.44415">
        <ele>45.7</ele>
        <time>2021-02-23T10:10:59Z</time>
      </trkpt>
      <trkpt lat="49.28395" lon="-0.44415">
        <ele>45.7</ele>
        <time>2021-02-23T10:11:00Z</time>
      </trkpt>
      <trkpt lat="49.28395" lon="-0.44415">
        <ele>45.7</ele>
        <time>2021-02-23T10:11:01Z</time>
      </trkpt>
      <trkpt lat="49.28394" lon="-0.44415">
        <ele>45.7</ele>
        <time>2021-02-23T10:11:03Z</time>
      </trkpt>
      <trkpt lat="49.28394" lon="-0.44415">
        <ele>45.7</ele>
        <time>2021-02-23T10:11:05Z</time>
      </trkpt>
      <trkpt lat="49.28394" lon="-0.44415">
        <ele>45.7</ele>
        <time>2021-02-23T10:11:06Z</time>
      </trkpt>
      <trkpt lat="49.28394" lon="-0.44415">
        <ele>45.7</ele>
        <time>2021-02-23T10:11:07Z</time>
      </trkpt>
      <trkpt lat="49.28394" lon="-0.44415">
        <ele>45.7</ele>
        <time>2021-02-23T10:11:09Z</time>
      </trkpt>
      <trkpt lat="49.28394" lon="-0.44415">
        <ele>45.7</ele>
        <time>2021-02-23T10:11:10Z</time>
      </trkpt>
      <trkpt lat="49.28394" lon="-0.44415">
        <ele>45.7</ele>
        <time>2021-02-23T10:11:12Z</time>
      </trkpt>
      <trkpt lat="49.28394" lon="-0.44415">
        <ele>45.7</ele>
        <time>2021-02-23T10:11:13Z</time>
      </trkpt>
      <trkpt lat="49.28394" lon="-0.44415">
        <ele>45.7</ele>
        <time>2021-02-23T10:11:14Z</time>
      </trkpt>
      <trkpt lat="49.28394" lon="-0.44415">
        <ele>45.7</ele>
        <time>2021-02-23T10:11:16Z</time>
      </trkpt>
      <trkpt lat="49.28394" lon="-0.44415">
        <ele>45.7</ele>
        <time>2021-02-23T10:11:17Z</time>
      </trkpt>
      <trkpt lat="49.28394" lon="-0.44415">
        <ele>45.7</ele>
        <time>2021-02-23T10:11:18Z</time>
      </trkpt>
      <trkpt lat="49.28394" lon="-0.44414">
        <ele>45.7</ele>
        <time>2021-02-23T10:11:20Z</time>
      </trkpt>
      <trkpt lat="49.28394" lon="-0.44414">
        <ele>45.7</ele>
        <time>2021-02-23T10:11:21Z</time>
      </trkpt>
      <trkpt lat="49.28394" lon="-0.44414">
        <ele>45.7</ele>
        <time>2021-02-23T10:11:23Z</time>
      </trkpt>
      <trkpt lat="49.28394" lon="-0.44414">
        <ele>45.7</ele>
        <time>2021-02-23T10:11:25Z</time>
      </trkpt>
      <trkpt lat="49.28394" lon="-0.44414">
        <ele>45.7</ele>
        <time>2021-02-23T10:11:27Z</time>
      </trkpt>
      <trkpt lat="49.28394" lon="-0.44414">
        <ele>45.7</ele>
        <time>2021-02-23T10:11:28Z</time>
      </trkpt>
      <trkpt lat="49.28394" lon="-0.44414">
        <ele>45.7</ele>
        <time>2021-02-23T10:11:30Z</time>
      </trkpt>
      <trkpt lat="49.28394" lon="-0.44414">
        <ele>45.7</ele>
        <time>2021-02-23T10:11:31Z</time>
      </trkpt>
      <trkpt lat="49.28394" lon="-0.44414">
        <ele>45.7</ele>
        <time>2021-02-23T10:11:32Z</time>
      </trkpt>
      <trkpt lat="49.28394" lon="-0.44414">
        <ele>45.7</ele>
        <time>2021-02-23T10:11:34Z</time>
      </trkpt>
      <trkpt lat="49.28394" lon="-0.44414">
        <ele>45.7</ele>
        <time>2021-02-23T10:11:35Z</time>
      </trkpt>
      <trkpt lat="49.28394" lon="-0.44414">
        <ele>45.7</ele>
        <time>2021-02-23T10:11:37Z</time>
      </trkpt>
      <trkpt lat="49.28395" lon="-0.44414">
        <ele>45.7</ele>
        <time>2021-02-23T10:11:39Z</time>
      </trkpt>
      <trkpt lat="49.28395" lon="-0.44414">
        <ele>45.7</ele>
        <time>2021-02-23T10:11:40Z</time>
      </trkpt>
      <trkpt lat="49.28394" lon="-0.44414">
        <ele>45.7</ele>
        <time>2021-02-23T10:11:42Z</time>
      </trkpt>
      <trkpt lat="49.28394" lon="-0.44414">
        <ele>45.7</ele>
        <time>2021-02-23T10:11:44Z</time>
      </trkpt>
      <trkpt lat="49.28394" lon="-0.44414">
        <ele>45.7</ele>
        <time>2021-02-23T10:11:45Z</time>
      </trkpt>
      <trkpt lat="49.28394" lon="-0.44414">
        <ele>45.7</ele>
        <time>2021-02-23T10:11:47Z</time>
      </trkpt>
      <trkpt lat="49.28394" lon="-0.44414">
        <ele>45.7</ele>
        <time>2021-02-23T10:11:48Z</time>
      </trkpt>
      <trkpt lat="49.28393" lon="-0.44414">
        <ele>45.7</ele>
        <time>2021-02-23T10:11:50Z</time>
      </trkpt>
      <trkpt lat="49.28393" lon="-0.44414">
        <ele>45.7</ele>
        <time>2021-02-23T10:11:51Z</time>
      </trkpt>
      <trkpt lat="49.28393" lon="-0.44414">
        <ele>45.7</ele>
        <time>2021-02-23T10:11:53Z</time>
      </trkpt>
      <trkpt lat="49.28393" lon="-0.44414">
        <ele>45.7</ele>
        <time>2021-02-23T10:11:55Z</time>
      </trkpt>
      <trkpt lat="49.28393" lon="-0.44414">
        <ele>45.7</ele>
        <time>2021-02-23T10:11:56Z</time>
      </trkpt>
      <trkpt lat="49.28393" lon="-0.44414">
        <ele>45.7</ele>
        <time>2021-02-23T10:11:58Z</time>
      </trkpt>
      <trkpt lat="49.28393" lon="-0.44414">
        <ele>45.7</ele>
        <time>2021-02-23T10:11:59Z</time>
      </trkpt>
      <trkpt lat="49.28393" lon="-0.44414">
        <ele>45.7</ele>
        <time>2021-02-23T10:12:00Z</time>
      </trkpt>
      <trkpt lat="49.28393" lon="-0.44414">
        <ele>45.7</ele>
        <time>2021-02-23T10:12:02Z</time>
      </trkpt>
      <trkpt lat="49.28394" lon="-0.44414">
        <ele>45.7</ele>
        <time>2021-02-23T10:12:04Z</time>
      </trkpt>
      <trkpt lat="49.28394" lon="-0.44415">
        <ele>45.7</ele>
        <time>2021-02-23T10:12:06Z</time>
      </trkpt>
      <trkpt lat="49.28394" lon="-0.44414">
        <ele>45.7</ele>
        <time>2021-02-23T10:12:07Z</time>
      </trkpt>
      <trkpt lat="49.28394" lon="-0.44414">
        <ele>45.7</ele>
        <time>2021-02-23T10:12:08Z</time>
      </trkpt>
      <trkpt lat="49.28394" lon="-0.44414">
        <ele>45.7</ele>
        <time>2021-02-23T10:12:09Z</time>
      </trkpt>
      <trkpt lat="49.28394" lon="-0.44415">
        <ele>45.7</ele>
        <time>2021-02-23T10:12:10Z</time>
      </trkpt>
      <trkpt lat="49.28394" lon="-0.44416">
        <ele>45.7</ele>
        <time>2021-02-23T10:12:12Z</time>
      </trkpt>
      <trkpt lat="49.28394" lon="-0.44416">
        <ele>45.7</ele>
        <time>2021-02-23T10:12:14Z</time>
      </trkpt>
      <trkpt lat="49.28394" lon="-0.44416">
        <ele>45.7</ele>
        <time>2021-02-23T10:12:15Z</time>
      </trkpt>
      <trkpt lat="49.28393" lon="-0.44415">
        <ele>45.7</ele>
        <time>2021-02-23T10:12:17Z</time>
      </trkpt>
      <trkpt lat="49.28393" lon="-0.44415">
        <ele>45.7</ele>
        <time>2021-02-23T10:12:19Z</time>
      </trkpt>
      <trkpt lat="49.28393" lon="-0.44415">
        <ele>45.7</ele>
        <time>2021-02-23T10:12:20Z</time>
      </trkpt>
      <trkpt lat="49.28393" lon="-0.44415">
        <ele>45.7</ele>
        <time>2021-02-23T10:12:21Z</time>
      </trkpt>
      <trkpt lat="49.28393" lon="-0.44414">
        <ele>45.7</ele>
        <time>2021-02-23T10:12:23Z</time>
      </trkpt>
      <trkpt lat="49.28393" lon="-0.44414">
        <ele>45.7</ele>
        <time>2021-02-23T10:12:24Z</time>
      </trkpt>
      <trkpt lat="49.28393" lon="-0.44414">
        <ele>45.7</ele>
        <time>2021-02-23T10:12:25Z</time>
      </trkpt>
      <trkpt lat="49.28393" lon="-0.44414">
        <ele>45.7</ele>
        <time>2021-02-23T10:12:26Z</time>
      </trkpt>
      <trkpt lat="49.28393" lon="-0.44414">
        <ele>45.7</ele>
        <time>2021-02-23T10:12:27Z</time>
      </trkpt>
      <trkpt lat="49.28393" lon="-0.44414">
        <ele>45.7</ele>
        <time>2021-02-23T10:12:29Z</time>
      </trkpt>
      <trkpt lat="49.28393" lon="-0.44413">
        <ele>45.7</ele>
        <time>2021-02-23T10:12:30Z</time>
      </trkpt>
      <trkpt lat="49.28393" lon="-0.44413">
        <ele>45.7</ele>
        <time>2021-02-23T10:12:32Z</time>
      </trkpt>
      <trkpt lat="49.28393" lon="-0.44413">
        <ele>45.7</ele>
        <time>2021-02-23T10:12:33Z</time>
      </trkpt>
      <trkpt lat="49.28393" lon="-0.44413">
        <ele>45.7</ele>
        <time>2021-02-23T10:12:35Z</time>
      </trkpt>
      <trkpt lat="49.28393" lon="-0.44413">
        <ele>45.7</ele>
        <time>2021-02-23T10:12:36Z</time>
      </trkpt>
      <trkpt lat="49.28393" lon="-0.44413">
        <ele>45.8</ele>
        <time>2021-02-23T10:12:38Z</time>
      </trkpt>
      <trkpt lat="49.28393" lon="-0.44413">
        <ele>45.8</ele>
        <time>2021-02-23T10:12:39Z</time>
      </trkpt>
      <trkpt lat="49.28393" lon="-0.44413">
        <ele>45.8</ele>
        <time>2021-02-23T10:12:40Z</time>
      </trkpt>
      <trkpt lat="49.28394" lon="-0.44414">
        <ele>45.8</ele>
        <time>2021-02-23T10:12:41Z</time>
      </trkpt>
      <trkpt lat="49.28395" lon="-0.44414">
        <ele>45.8</ele>
        <time>2021-02-23T10:12:43Z</time>
      </trkpt>
      <trkpt lat="49.28395" lon="-0.44414">
        <ele>45.8</ele>
        <time>2021-02-23T10:12:45Z</time>
      </trkpt>
      <trkpt lat="49.28394" lon="-0.44415">
        <ele>45.8</ele>
        <time>2021-02-23T10:12:47Z</time>
      </trkpt>
      <trkpt lat="49.28394" lon="-0.44415">
        <ele>45.8</ele>
        <time>2021-02-23T10:12:48Z</time>
      </trkpt>
      <trkpt lat="49.28394" lon="-0.44415">
        <ele>45.8</ele>
        <time>2021-02-23T10:12:50Z</time>
      </trkpt>
      <trkpt lat="49.28394" lon="-0.44415">
        <ele>45.8</ele>
        <time>2021-02-23T10:12:51Z</time>
      </trkpt>
      <trkpt lat="49.28394" lon="-0.44415">
        <ele>45.8</ele>
        <time>2021-02-23T10:12:52Z</time>
      </trkpt>
      <trkpt lat="49.28394" lon="-0.44415">
        <ele>45.8</ele>
        <time>2021-02-23T10:12:54Z</time>
      </trkpt>
      <trkpt lat="49.28394" lon="-0.44415">
        <ele>45.8</ele>
        <time>2021-02-23T10:12:55Z</time>
      </trkpt>
      <trkpt lat="49.28394" lon="-0.44415">
        <ele>45.8</ele>
        <time>2021-02-23T10:12:57Z</time>
      </trkpt>
      <trkpt lat="49.28394" lon="-0.44415">
        <ele>45.8</ele>
        <time>2021-02-23T10:12:59Z</time>
      </trkpt>
      <trkpt lat="49.28394" lon="-0.44415">
        <ele>45.8</ele>
        <time>2021-02-23T10:13:01Z</time>
      </trkpt>
      <trkpt lat="49.28394" lon="-0.44415">
        <ele>45.8</ele>
        <time>2021-02-23T10:13:03Z</time>
      </trkpt>
      <trkpt lat="49.28394" lon="-0.44415">
        <ele>45.8</ele>
        <time>2021-02-23T10:13:04Z</time>
      </trkpt>
      <trkpt lat="49.28394" lon="-0.44415">
        <ele>45.8</ele>
        <time>2021-02-23T10:13:06Z</time>
      </trkpt>
      <trkpt lat="49.28394" lon="-0.44415">
        <ele>45.8</ele>
        <time>2021-02-23T10:13:08Z</time>
      </trkpt>
      <trkpt lat="49.28394" lon="-0.44415">
        <ele>45.8</ele>
        <time>2021-02-23T10:13:09Z</time>
      </trkpt>
      <trkpt lat="49.28394" lon="-0.44415">
        <ele>45.8</ele>
        <time>2021-02-23T10:13:10Z</time>
      </trkpt>
      <trkpt lat="49.28395" lon="-0.44415">
        <ele>45.8</ele>
        <time>2021-02-23T10:13:12Z</time>
      </trkpt>
      <trkpt lat="49.28395" lon="-0.44415">
        <ele>45.8</ele>
        <time>2021-02-23T10:13:13Z</time>
      </trkpt>
      <trkpt lat="49.28395" lon="-0.44415">
        <ele>45.8</ele>
        <time>2021-02-23T10:13:15Z</time>
      </trkpt>
      <trkpt lat="49.28395" lon="-0.44413">
        <ele>45.8</ele>
        <time>2021-02-23T10:13:17Z</time>
      </trkpt>
      <trkpt lat="49.28395" lon="-0.44412">
        <ele>45.8</ele>
        <time>2021-02-23T10:13:18Z</time>
      </trkpt>
      <trkpt lat="49.28395" lon="-0.44412">
        <ele>45.8</ele>
        <time>2021-02-23T10:13:19Z</time>
      </trkpt>
      <trkpt lat="49.28396" lon="-0.44411">
        <ele>45.8</ele>
        <time>2021-02-23T10:13:20Z</time>
      </trkpt>
      <trkpt lat="49.28395" lon="-0.44411">
        <ele>45.8</ele>
        <time>2021-02-23T10:13:21Z</time>
      </trkpt>
      <trkpt lat="49.28394" lon="-0.44412">
        <ele>45.8</ele>
        <time>2021-02-23T10:13:23Z</time>
      </trkpt>
      <trkpt lat="49.28394" lon="-0.44413">
        <ele>45.8</ele>
        <time>2021-02-23T10:13:24Z</time>
      </trkpt>
      <trkpt lat="49.28394" lon="-0.44413">
        <ele>45.8</ele>
        <time>2021-02-23T10:13:26Z</time>
      </trkpt>
      <trkpt lat="49.28393" lon="-0.44413">
        <ele>45.8</ele>
        <time>2021-02-23T10:13:28Z</time>
      </trkpt>
      <trkpt lat="49.28394" lon="-0.44413">
        <ele>45.8</ele>
        <time>2021-02-23T10:13:30Z</time>
      </trkpt>
      <trkpt lat="49.28394" lon="-0.44414">
        <ele>45.8</ele>
        <time>2021-02-23T10:13:32Z</time>
      </trkpt>
      <trkpt lat="49.28394" lon="-0.44414">
        <ele>45.8</ele>
        <time>2021-02-23T10:13:33Z</time>
      </trkpt>
      <trkpt lat="49.28394" lon="-0.44414">
        <ele>45.8</ele>
        <time>2021-02-23T10:13:34Z</time>
      </trkpt>
      <trkpt lat="49.28393" lon="-0.44414">
        <ele>45.8</ele>
        <time>2021-02-23T10:13:36Z</time>
      </trkpt>
      <trkpt lat="49.28392" lon="-0.44414">
        <ele>45.8</ele>
        <time>2021-02-23T10:13:37Z</time>
      </trkpt>
      <trkpt lat="49.28391" lon="-0.44415">
        <ele>45.8</ele>
        <time>2021-02-23T10:13:39Z</time>
      </trkpt>
      <trkpt lat="49.28391" lon="-0.44415">
        <ele>45.8</ele>
        <time>2021-02-23T10:13:41Z</time>
      </trkpt>
      <trkpt lat="49.28391" lon="-0.44415">
        <ele>45.8</ele>
        <time>2021-02-23T10:13:43Z</time>
      </trkpt>
      <trkpt lat="49.28391" lon="-0.44415">
        <ele>45.8</ele>
        <time>2021-02-23T10:13:44Z</time>
      </trkpt>
      <trkpt lat="49.28391" lon="-0.44415">
        <ele>45.8</ele>
        <time>2021-02-23T10:13:46Z</time>
      </trkpt>
      <trkpt lat="49.28392" lon="-0.44416">
        <ele>45.8</ele>
        <time>2021-02-23T10:13:47Z</time>
      </trkpt>
      <trkpt lat="49.28392" lon="-0.44416">
        <ele>45.8</ele>
        <time>2021-02-23T10:13:49Z</time>
      </trkpt>
      <trkpt lat="49.28392" lon="-0.44416">
        <ele>45.8</ele>
        <time>2021-02-23T10:13:51Z</time>
      </trkpt>
      <trkpt lat="49.28392" lon="-0.44416">
        <ele>45.8</ele>
        <time>2021-02-23T10:13:52Z</time>
      </trkpt>
      <trkpt lat="49.28392" lon="-0.44416">
        <ele>45.8</ele>
        <time>2021-02-23T10:13:54Z</time>
      </trkpt>
      <trkpt lat="49.28392" lon="-0.44416">
        <ele>45.8</ele>
        <time>2021-02-23T10:13:56Z</time>
      </trkpt>
      <trkpt lat="49.28392" lon="-0.44416">
        <ele>45.8</ele>
        <time>2021-02-23T10:13:58Z</time>
      </trkpt>
      <trkpt lat="49.28392" lon="-0.44416">
        <ele>45.8</ele>
        <time>2021-02-23T10:13:59Z</time>
      </trkpt>
      <trkpt lat="49.28392" lon="-0.44417">
        <ele>45.8</ele>
        <time>2021-02-23T10:14:01Z</time>
      </trkpt>
      <trkpt lat="49.28392" lon="-0.44417">
        <ele>45.8</ele>
        <time>2021-02-23T10:14:03Z</time>
      </trkpt>
      <trkpt lat="49.28391" lon="-0.44416">
        <ele>45.8</ele>
        <time>2021-02-23T10:14:04Z</time>
      </trkpt>
      <trkpt lat="49.2839" lon="-0.44416">
        <ele>45.8</ele>
        <time>2021-02-23T10:14:06Z</time>
      </trkpt>
      <trkpt lat="49.2839" lon="-0.44416">
        <ele>45.8</ele>
        <time>2021-02-23T10:14:07Z</time>
      </trkpt>
      <trkpt lat="49.28389" lon="-0.44415">
        <ele>45.8</ele>
        <time>2021-02-23T10:14:09Z</time>
      </trkpt>
      <trkpt lat="49.28389" lon="-0.44415">
        <ele>45.8</ele>
        <time>2021-02-23T10:14:10Z</time>
      </trkpt>
      <trkpt lat="49.28389" lon="-0.44416">
        <ele>45.8</ele>
        <time>2021-02-23T10:14:12Z</time>
      </trkpt>
      <trkpt lat="49.28388" lon="-0.44417">
        <ele>45.8</ele>
        <time>2021-02-23T10:14:13Z</time>
      </trkpt>
      <trkpt lat="49.28388" lon="-0.44417">
        <ele>45.8</ele>
        <time>2021-02-23T10:14:14Z</time>
      </trkpt>
      <trkpt lat="49.28388" lon="-0.44417">
        <ele>45.8</ele>
        <time>2021-02-23T10:14:15Z</time>
      </trkpt>
      <trkpt lat="49.28389" lon="-0.44417">
        <ele>45.8</ele>
        <time>2021-02-23T10:14:17Z</time>
      </trkpt>
      <trkpt lat="49.28389" lon="-0.44417">
        <ele>45.8</ele>
        <time>2021-02-23T10:14:18Z</time>
      </trkpt>
      <trkpt lat="49.28389" lon="-0.44417">
        <ele>45.8</ele>
        <time>2021-02-23T10:14:20Z</time>
      </trkpt>
      <trkpt lat="49.28389" lon="-0.44417">
        <ele>45.8</ele>
        <time>2021-02-23T10:14:21Z</time>
      </trkpt>
      <trkpt lat="49.2839" lon="-0.44417">
        <ele>45.8</ele>
        <time>2021-02-23T10:14:22Z</time>
      </trkpt>
      <trkpt lat="49.2839" lon="-0.44417">
        <ele>45.8</ele>
        <time>2021-02-23T10:14:24Z</time>
      </trkpt>
      <trkpt lat="49.2839" lon="-0.44417">
        <ele>45.8</ele>
        <time>2021-02-23T10:14:26Z</time>
      </trkpt>
      <trkpt lat="49.2839" lon="-0.44417">
        <ele>45.8</ele>
        <time>2021-02-23T10:14:28Z</time>
      </trkpt>
      <trkpt lat="49.28391" lon="-0.44417">
        <ele>45.8</ele>
        <time>2021-02-23T10:14:29Z</time>
      </trkpt>
      <trkpt lat="49.28391" lon="-0.44417">
        <ele>45.8</ele>
        <time>2021-02-23T10:14:31Z</time>
      </trkpt>
      <trkpt lat="49.28391" lon="-0.44417">
        <ele>45.8</ele>
        <time>2021-02-23T10:14:33Z</time>
      </trkpt>
      <trkpt lat="49.28391" lon="-0.44417">
        <ele>45.8</ele>
        <time>2021-02-23T10:14:34Z</time>
      </trkpt>
      <trkpt lat="49.28392" lon="-0.44417">
        <ele>45.8</ele>
        <time>2021-02-23T10:14:36Z</time>
      </trkpt>
      <trkpt lat="49.28392" lon="-0.44417">
        <ele>45.8</ele>
        <time>2021-02-23T10:14:38Z</time>
      </trkpt>
      <trkpt lat="49.28392" lon="-0.44417">
        <ele>45.8</ele>
        <time>2021-02-23T10:14:40Z</time>
      </trkpt>
      <trkpt lat="49.28392" lon="-0.44417">
        <ele>45.8</ele>
        <time>2021-02-23T10:14:42Z</time>
      </trkpt>
      <trkpt lat="49.28393" lon="-0.44417">
        <ele>45.8</ele>
        <time>2021-02-23T10:14:43Z</time>
      </trkpt>
      <trkpt lat="49.28393" lon="-0.44417">
        <ele>45.8</ele>
        <time>2021-02-23T10:14:45Z</time>
      </trkpt>
      <trkpt lat="49.28393" lon="-0.44417">
        <ele>45.8</ele>
        <time>2021-02-23T10:14:46Z</time>
      </trkpt>
      <trkpt lat="49.28394" lon="-0.44417">
        <ele>45.8</ele>
        <time>2021-02-23T10:14:48Z</time>
      </trkpt>
      <trkpt lat="49.28394" lon="-0.44417">
        <ele>45.8</ele>
        <time>2021-02-23T10:14:50Z</time>
      </trkpt>
      <trkpt lat="49.28394" lon="-0.44417">
        <ele>45.8</ele>
        <time>2021-02-23T10:14:51Z</time>
      </trkpt>
      <trkpt lat="49.28394" lon="-0.44417">
        <ele>45.8</ele>
        <time>2021-02-23T10:14:53Z</time>
      </trkpt>
      <trkpt lat="49.28395" lon="-0.44417">
        <ele>45.8</ele>
        <time>2021-02-23T10:14:55Z</time>
      </trkpt>
      <trkpt lat="49.28395" lon="-0.44417">
        <ele>45.8</ele>
        <time>2021-02-23T10:14:57Z</time>
      </trkpt>
      <trkpt lat="49.28395" lon="-0.44417">
        <ele>45.8</ele>
        <time>2021-02-23T10:14:58Z</time>
      </trkpt>
      <trkpt lat="49.28395" lon="-0.44417">
        <ele>45.8</ele>
        <time>2021-02-23T10:14:59Z</time>
      </trkpt>
      <trkpt lat="49.284" lon="-0.44419">
        <ele>45.9</ele>
        <time>2021-02-23T10:15:00Z</time>
      </trkpt>
      <trkpt lat="49.28401" lon="-0.44419">
        <ele>45.9</ele>
        <time>2021-02-23T10:15:01Z</time>
      </trkpt>
      <trkpt lat="49.28405" lon="-0.44421">
        <ele>45.9</ele>
        <time>2021-02-23T10:15:03Z</time>
      </trkpt>
      <trkpt lat="49.28406" lon="-0.44421">
        <ele>45.9</ele>
        <time>2021-02-23T10:15:04Z</time>
      </trkpt>
      <trkpt lat="49.28409" lon="-0.44422">
        <ele>45.9</ele>
        <time>2021-02-23T10:15:05Z</time>
      </trkpt>
      <trkpt lat="49.2841" lon="-0.44422">
        <ele>45.9</ele>
        <time>2021-02-23T10:15:06Z</time>
      </trkpt>
      <trkpt lat="49.28413" lon="-0.44422">
        <ele>45.9</ele>
        <time>2021-02-23T10:15:08Z</time>
      </trkpt>
      <trkpt lat="49.28414" lon="-0.44422">
        <ele>45.9</ele>
        <time>2021-02-23T10:15:09Z</time>
      </trkpt>
      <trkpt lat="49.28419" lon="-0.44421">
        <ele>46</ele>
        <time>2021-02-23T10:15:11Z</time>
      </trkpt>
      <trkpt lat="49.2842" lon="-0.44421">
        <ele>46</ele>
        <time>2021-02-23T10:15:13Z</time>
      </trkpt>
      <trkpt lat="49.28422" lon="-0.44421">
        <ele>46</ele>
        <time>2021-02-23T10:15:14Z</time>
      </trkpt>
      <trkpt lat="49.28425" lon="-0.44421">
        <ele>46</ele>
        <time>2021-02-23T10:15:16Z</time>
      </trkpt>
      <trkpt lat="49.28426" lon="-0.44421">
        <ele>46</ele>
        <time>2021-02-23T10:15:17Z</time>
      </trkpt>
      <trkpt lat="49.28428" lon="-0.44421">
        <ele>46</ele>
        <time>2021-02-23T10:15:18Z</time>
      </trkpt>
      <trkpt lat="49.2843" lon="-0.44421">
        <ele>46</ele>
        <time>2021-02-23T10:15:20Z</time>
      </trkpt>
      <trkpt lat="49.28433" lon="-0.44422">
        <ele>46.1</ele>
        <time>2021-02-23T10:15:21Z</time>
      </trkpt>
      <trkpt lat="49.28434" lon="-0.44422">
        <ele>46.1</ele>
        <time>2021-02-23T10:15:22Z</time>
      </trkpt>
      <trkpt lat="49.28438" lon="-0.44422">
        <ele>46.1</ele>
        <time>2021-02-23T10:15:23Z</time>
      </trkpt>
      <trkpt lat="49.28439" lon="-0.44422">
        <ele>46.2</ele>
        <time>2021-02-23T10:15:24Z</time>
      </trkpt>
      <trkpt lat="49.28442" lon="-0.44422">
        <ele>46.2</ele>
        <time>2021-02-23T10:15:26Z</time>
      </trkpt>
      <trkpt lat="49.28444" lon="-0.44422">
        <ele>46.2</ele>
        <time>2021-02-23T10:15:28Z</time>
      </trkpt>
      <trkpt lat="49.28444" lon="-0.44422">
        <ele>46.2</ele>
        <time>2021-02-23T10:15:29Z</time>
      </trkpt>
      <trkpt lat="49.28445" lon="-0.44422">
        <ele>46.2</ele>
        <time>2021-02-23T10:15:31Z</time>
      </trkpt>
      <trkpt lat="49.28446" lon="-0.44422">
        <ele>46.2</ele>
        <time>2021-02-23T10:15:33Z</time>
      </trkpt>
      <trkpt lat="49.28448" lon="-0.44422">
        <ele>46.3</ele>
        <time>2021-02-23T10:15:34Z</time>
      </trkpt>
      <trkpt lat="49.28452" lon="-0.44423">
        <ele>46.3</ele>
        <time>2021-02-23T10:15:35Z</time>
      </trkpt>
      <trkpt lat="49.28456" lon="-0.44423">
        <ele>46.4</ele>
        <time>2021-02-23T10:15:37Z</time>
      </trkpt>
      <trkpt lat="49.28462" lon="-0.44423">
        <ele>46.4</ele>
        <time>2021-02-23T10:15:38Z</time>
      </trkpt>
      <trkpt lat="49.28465" lon="-0.44423">
        <ele>46.4</ele>
        <time>2021-02-23T10:15:40Z</time>
      </trkpt>
      <trkpt lat="49.28468" lon="-0.44424">
        <ele>46.5</ele>
        <time>2021-02-23T10:15:41Z</time>
      </trkpt>
      <trkpt lat="49.28471" lon="-0.44424">
        <ele>46.5</ele>
        <time>2021-02-23T10:15:43Z</time>
      </trkpt>
      <trkpt lat="49.28472" lon="-0.44424">
        <ele>46.5</ele>
        <time>2021-02-23T10:15:44Z</time>
      </trkpt>
      <trkpt lat="49.28474" lon="-0.44424">
        <ele>46.5</ele>
        <time>2021-02-23T10:15:45Z</time>
      </trkpt>
      <trkpt lat="49.28477" lon="-0.44424">
        <ele>46.5</ele>
        <time>2021-02-23T10:15:47Z</time>
      </trkpt>
      <trkpt lat="49.28481" lon="-0.44424">
        <ele>46.6</ele>
        <time>2021-02-23T10:15:48Z</time>
      </trkpt>
      <trkpt lat="49.28486" lon="-0.44425">
        <ele>46.6</ele>
        <time>2021-02-23T10:15:50Z</time>
      </trkpt>
      <trkpt lat="49.28487" lon="-0.44425">
        <ele>46.6</ele>
        <time>2021-02-23T10:15:51Z</time>
      </trkpt>
      <trkpt lat="49.28489" lon="-0.44425">
        <ele>46.6</ele>
        <time>2021-02-23T10:15:52Z</time>
      </trkpt>
      <trkpt lat="49.28491" lon="-0.44424">
        <ele>46.6</ele>
        <time>2021-02-23T10:15:54Z</time>
      </trkpt>
      <trkpt lat="49.28495" lon="-0.44425">
        <ele>46.7</ele>
        <time>2021-02-23T10:15:56Z</time>
      </trkpt>
      <trkpt lat="49.28497" lon="-0.44425">
        <ele>46.7</ele>
        <time>2021-02-23T10:15:57Z</time>
      </trkpt>
      <trkpt lat="49.285" lon="-0.44425">
        <ele>46.7</ele>
        <time>2021-02-23T10:15:59Z</time>
      </trkpt>
      <trkpt lat="49.28503" lon="-0.44425">
        <ele>46.7</ele>
        <time>2021-02-23T10:16:00Z</time>
      </trkpt>
      <trkpt lat="49.28507" lon="-0.44425">
        <ele>46.7</ele>
        <time>2021-02-23T10:16:02Z</time>
      </trkpt>
      <trkpt lat="49.28508" lon="-0.44425">
        <ele>46.8</ele>
        <time>2021-02-23T10:16:03Z</time>
      </trkpt>
      <trkpt lat="49.28513" lon="-0.44425">
        <ele>46.8</ele>
        <time>2021-02-23T10:16:05Z</time>
      </trkpt>
      <trkpt lat="49.28514" lon="-0.44425">
        <ele>46.8</ele>
        <time>2021-02-23T10:16:07Z</time>
      </trkpt>
      <trkpt lat="49.28515" lon="-0.44424">
        <ele>46.8</ele>
        <time>2021-02-23T10:16:08Z</time>
      </trkpt>
      <trkpt lat="49.28518" lon="-0.44424">
        <ele>46.8</ele>
        <time>2021-02-23T10:16:09Z</time>
      </trkpt>
      <trkpt lat="49.2852" lon="-0.44424">
        <ele>46.9</ele>
        <time>2021-02-23T10:16:11Z</time>
      </trkpt>
      <trkpt lat="49.28523" lon="-0.44424">
        <ele>46.9</ele>
        <time>2021-02-23T10:16:13Z</time>
      </trkpt>
      <trkpt lat="49.28525" lon="-0.44424">
        <ele>46.9</ele>
        <time>2021-02-23T10:16:14Z</time>
      </trkpt>
      <trkpt lat="49.28527" lon="-0.44424">
        <ele>46.9</ele>
        <time>2021-02-23T10:16:16Z</time>
      </trkpt>
      <trkpt lat="49.28529" lon="-0.44423">
        <ele>47</ele>
        <time>2021-02-23T10:16:17Z</time>
      </trkpt>
      <trkpt lat="49.28532" lon="-0.44423">
        <ele>47</ele>
        <time>2021-02-23T10:16:19Z</time>
      </trkpt>
      <trkpt lat="49.28533" lon="-0.44422">
        <ele>47</ele>
        <time>2021-02-23T10:16:20Z</time>
      </trkpt>
      <trkpt lat="49.28536" lon="-0.44421">
        <ele>47</ele>
        <time>2021-02-23T10:16:22Z</time>
      </trkpt>
      <trkpt lat="49.2854" lon="-0.44421">
        <ele>47.1</ele>
        <time>2021-02-23T10:16:24Z</time>
      </trkpt>
      <trkpt lat="49.28542" lon="-0.44421">
        <ele>47.1</ele>
        <time>2021-02-23T10:16:26Z</time>
      </trkpt>
      <trkpt lat="49.28543" lon="-0.44422">
        <ele>47.1</ele>
        <time>2021-02-23T10:16:27Z</time>
      </trkpt>
      <trkpt lat="49.28545" lon="-0.44422">
        <ele>47.2</ele>
        <time>2021-02-23T10:16:29Z</time>
      </trkpt>
      <trkpt lat="49.28548" lon="-0.44423">
        <ele>47.2</ele>
        <time>2021-02-23T10:16:31Z</time>
      </trkpt>
      <trkpt lat="49.28551" lon="-0.44423">
        <ele>47.2</ele>
        <time>2021-02-23T10:16:33Z</time>
      </trkpt>
      <trkpt lat="49.28553" lon="-0.44424">
        <ele>47.3</ele>
        <time>2021-02-23T10:16:34Z</time>
      </trkpt>
      <trkpt lat="49.28554" lon="-0.44424">
        <ele>47.3</ele>
        <time>2021-02-23T10:16:35Z</time>
      </trkpt>
      <trkpt lat="49.28559" lon="-0.44425">
        <ele>47.3</ele>
        <time>2021-02-23T10:16:37Z</time>
      </trkpt>
      <trkpt lat="49.28565" lon="-0.44426">
        <ele>47.4</ele>
        <time>2021-02-23T10:16:39Z</time>
      </trkpt>
      <trkpt lat="49.28567" lon="-0.44426">
        <ele>47.4</ele>
        <time>2021-02-23T10:16:40Z</time>
      </trkpt>
      <trkpt lat="49.28571" lon="-0.44426">
        <ele>47.5</ele>
        <time>2021-02-23T10:16:42Z</time>
      </trkpt>
      <trkpt lat="49.28575" lon="-0.44426">
        <ele>47.5</ele>
        <time>2021-02-23T10:16:44Z</time>
      </trkpt>
      <trkpt lat="49.28577" lon="-0.44426">
        <ele>47.5</ele>
        <time>2021-02-23T10:16:45Z</time>
      </trkpt>
      <trkpt lat="49.2858" lon="-0.44427">
        <ele>47.6</ele>
        <time>2021-02-23T10:16:47Z</time>
      </trkpt>
      <trkpt lat="49.28582" lon="-0.44427">
        <ele>47.6</ele>
        <time>2021-02-23T10:16:48Z</time>
      </trkpt>
      <trkpt lat="49.28585" lon="-0.44427">
        <ele>47.6</ele>
        <time>2021-02-23T10:16:50Z</time>
      </trkpt>
      <trkpt lat="49.28589" lon="-0.44427">
        <ele>47.7</ele>
        <time>2021-02-23T10:16:52Z</time>
      </trkpt>
      <trkpt lat="49.28592" lon="-0.44427">
        <ele>47.7</ele>
        <time>2021-02-23T10:16:54Z</time>
      </trkpt>
      <trkpt lat="49.28594" lon="-0.44427">
        <ele>47.8</ele>
        <time>2021-02-23T10:16:55Z</time>
      </trkpt>
      <trkpt lat="49.28598" lon="-0.44427">
        <ele>47.8</ele>
        <time>2021-02-23T10:16:57Z</time>
      </trkpt>
      <trkpt lat="49.28602" lon="-0.44428">
        <ele>47.9</ele>
        <time>2021-02-23T10:16:59Z</time>
      </trkpt>
      <trkpt lat="49.28605" lon="-0.44428">
        <ele>48</ele>
        <time>2021-02-23T10:17:00Z</time>
      </trkpt>
      <trkpt lat="49.28606" lon="-0.44428">
        <ele>48</ele>
        <time>2021-02-23T10:17:01Z</time>
      </trkpt>
      <trkpt lat="49.28608" lon="-0.44429">
        <ele>48</ele>
        <time>2021-02-23T10:17:02Z</time>
      </trkpt>
      <trkpt lat="49.28609" lon="-0.44429">
        <ele>48.1</ele>
        <time>2021-02-23T10:17:03Z</time>
      </trkpt>
      <trkpt lat="49.28611" lon="-0.44429">
        <ele>48.1</ele>
        <time>2021-02-23T10:17:04Z</time>
      </trkpt>
      <trkpt lat="49.28615" lon="-0.44429">
        <ele>48.2</ele>
        <time>2021-02-23T10:17:06Z</time>
      </trkpt>
      <trkpt lat="49.28618" lon="-0.44429">
        <ele>48.2</ele>
        <time>2021-02-23T10:17:08Z</time>
      </trkpt>
      <trkpt lat="49.2862" lon="-0.44429">
        <ele>48.3</ele>
        <time>2021-02-23T10:17:09Z</time>
      </trkpt>
      <trkpt lat="49.28622" lon="-0.44429">
        <ele>48.3</ele>
        <time>2021-02-23T10:17:10Z</time>
      </trkpt>
      <trkpt lat="49.28625" lon="-0.44429">
        <ele>48.3</ele>
        <time>2021-02-23T10:17:12Z</time>
      </trkpt>
      <trkpt lat="49.28626" lon="-0.44429">
        <ele>48.4</ele>
        <time>2021-02-23T10:17:13Z</time>
      </trkpt>
      <trkpt lat="49.28628" lon="-0.44429">
        <ele>48.4</ele>
        <time>2021-02-23T10:17:14Z</time>
      </trkpt>
      <trkpt lat="49.28631" lon="-0.44429">
        <ele>48.5</ele>
        <time>2021-02-23T10:17:16Z</time>
      </trkpt>
      <trkpt lat="49.28633" lon="-0.44429">
        <ele>48.5</ele>
        <time>2021-02-23T10:17:17Z</time>
      </trkpt>
      <trkpt lat="49.28634" lon="-0.44429">
        <ele>48.5</ele>
        <time>2021-02-23T10:17:18Z</time>
      </trkpt>
      <trkpt lat="49.28637" lon="-0.44429">
        <ele>48.6</ele>
        <time>2021-02-23T10:17:20Z</time>
      </trkpt>
      <trkpt lat="49.28641" lon="-0.44429">
        <ele>48.7</ele>
        <time>2021-02-23T10:17:22Z</time>
      </trkpt>
      <trkpt lat="49.28644" lon="-0.4443">
        <ele>48.7</ele>
        <time>2021-02-23T10:17:24Z</time>
      </trkpt>
      <trkpt lat="49.28646" lon="-0.4443">
        <ele>48.7</ele>
        <time>2021-02-23T10:17:25Z</time>
      </trkpt>
      <trkpt lat="49.28647" lon="-0.4443">
        <ele>48.8</ele>
        <time>2021-02-23T10:17:26Z</time>
      </trkpt>
      <trkpt lat="49.28651" lon="-0.4443">
        <ele>48.9</ele>
        <time>2021-02-23T10:17:28Z</time>
      </trkpt>
      <trkpt lat="49.28654" lon="-0.44431">
        <ele>48.9</ele>
        <time>2021-02-23T10:17:30Z</time>
      </trkpt>
      <trkpt lat="49.28656" lon="-0.44431">
        <ele>49</ele>
        <time>2021-02-23T10:17:31Z</time>
      </trkpt>
      <trkpt lat="49.2866" lon="-0.44431">
        <ele>49</ele>
        <time>2021-02-23T10:17:33Z</time>
      </trkpt>
      <trkpt lat="49.28663" lon="-0.44432">
        <ele>49.1</ele>
        <time>2021-02-23T10:17:35Z</time>
      </trkpt>
      <trkpt lat="49.28666" lon="-0.44432">
        <ele>49.2</ele>
        <time>2021-02-23T10:17:37Z</time>
      </trkpt>
      <trkpt lat="49.28668" lon="-0.44432">
        <ele>49.2</ele>
        <time>2021-02-23T10:17:38Z</time>
      </trkpt>
      <trkpt lat="49.28669" lon="-0.44432">
        <ele>49.2</ele>
        <time>2021-02-23T10:17:39Z</time>
      </trkpt>
      <trkpt lat="49.28674" lon="-0.44433">
        <ele>49.3</ele>
        <time>2021-02-23T10:17:41Z</time>
      </trkpt>
      <trkpt lat="49.28675" lon="-0.44433">
        <ele>49.4</ele>
        <time>2021-02-23T10:17:43Z</time>
      </trkpt>
      <trkpt lat="49.28677" lon="-0.44433">
        <ele>49.4</ele>
        <time>2021-02-23T10:17:45Z</time>
      </trkpt>
      <trkpt lat="49.28678" lon="-0.44433">
        <ele>49.4</ele>
        <time>2021-02-23T10:17:47Z</time>
      </trkpt>
      <trkpt lat="49.2868" lon="-0.44433">
        <ele>49.5</ele>
        <time>2021-02-23T10:17:48Z</time>
      </trkpt>
      <trkpt lat="49.28681" lon="-0.44433">
        <ele>49.5</ele>
        <time>2021-02-23T10:17:49Z</time>
      </trkpt>
      <trkpt lat="49.28683" lon="-0.44433">
        <ele>49.5</ele>
        <time>2021-02-23T10:17:50Z</time>
      </trkpt>
      <trkpt lat="49.28685" lon="-0.44433">
        <ele>49.6</ele>
        <time>2021-02-23T10:17:52Z</time>
      </trkpt>
      <trkpt lat="49.28688" lon="-0.44433">
        <ele>49.6</ele>
        <time>2021-02-23T10:17:54Z</time>
      </trkpt>
      <trkpt lat="49.28689" lon="-0.44433">
        <ele>49.7</ele>
        <time>2021-02-23T10:17:55Z</time>
      </trkpt>
      <trkpt lat="49.28691" lon="-0.44434">
        <ele>49.7</ele>
        <time>2021-02-23T10:17:56Z</time>
      </trkpt>
      <trkpt lat="49.28693" lon="-0.44433">
        <ele>49.7</ele>
        <time>2021-02-23T10:17:58Z</time>
      </trkpt>
      <trkpt lat="49.28694" lon="-0.44433">
        <ele>49.8</ele>
        <time>2021-02-23T10:17:59Z</time>
      </trkpt>
      <trkpt lat="49.28695" lon="-0.44433">
        <ele>49.8</ele>
        <time>2021-02-23T10:18:00Z</time>
      </trkpt>
      <trkpt lat="49.28697" lon="-0.44433">
        <ele>49.8</ele>
        <time>2021-02-23T10:18:01Z</time>
      </trkpt>
      <trkpt lat="49.28698" lon="-0.44433">
        <ele>49.8</ele>
        <time>2021-02-23T10:18:02Z</time>
      </trkpt>
      <trkpt lat="49.28701" lon="-0.44433">
        <ele>49.9</ele>
        <time>2021-02-23T10:18:03Z</time>
      </trkpt>
      <trkpt lat="49.28704" lon="-0.44433">
        <ele>49.9</ele>
        <time>2021-02-23T10:18:05Z</time>
      </trkpt>
      <trkpt lat="49.28706" lon="-0.44433">
        <ele>50</ele>
        <time>2021-02-23T10:18:06Z</time>
      </trkpt>
      <trkpt lat="49.28711" lon="-0.44433">
        <ele>50</ele>
        <time>2021-02-23T10:18:08Z</time>
      </trkpt>
      <trkpt lat="49.28713" lon="-0.44433">
        <ele>50.1</ele>
        <time>2021-02-23T10:18:09Z</time>
      </trkpt>
      <trkpt lat="49.28716" lon="-0.44433">
        <ele>50.1</ele>
        <time>2021-02-23T10:18:11Z</time>
      </trkpt>
      <trkpt lat="49.28719" lon="-0.44433">
        <ele>50.2</ele>
        <time>2021-02-23T10:18:12Z</time>
      </trkpt>
      <trkpt lat="49.28721" lon="-0.44433">
        <ele>50.2</ele>
        <time>2021-02-23T10:18:14Z</time>
      </trkpt>
      <trkpt lat="49.28724" lon="-0.44433">
        <ele>50.3</ele>
        <time>2021-02-23T10:18:15Z</time>
      </trkpt>
      <trkpt lat="49.28727" lon="-0.44433">
        <ele>50.3</ele>
        <time>2021-02-23T10:18:17Z</time>
      </trkpt>
      <trkpt lat="49.28729" lon="-0.44433">
        <ele>50.3</ele>
        <time>2021-02-23T10:18:18Z</time>
      </trkpt>
      <trkpt lat="49.28732" lon="-0.44433">
        <ele>50.4</ele>
        <time>2021-02-23T10:18:20Z</time>
      </trkpt>
      <trkpt lat="49.28733" lon="-0.44433">
        <ele>50.4</ele>
        <time>2021-02-23T10:18:21Z</time>
      </trkpt>
      <trkpt lat="49.28735" lon="-0.44434">
        <ele>50.4</ele>
        <time>2021-02-23T10:18:22Z</time>
      </trkpt>
      <trkpt lat="49.28738" lon="-0.44434">
        <ele>50.4</ele>
        <time>2021-02-23T10:18:24Z</time>
      </trkpt>
      <trkpt lat="49.28739" lon="-0.44434">
        <ele>50.4</ele>
        <time>2021-02-23T10:18:25Z</time>
      </trkpt>
      <trkpt lat="49.28742" lon="-0.44435">
        <ele>50.5</ele>
        <time>2021-02-23T10:18:27Z</time>
      </trkpt>
      <trkpt lat="49.28745" lon="-0.44435">
        <ele>50.5</ele>
        <time>2021-02-23T10:18:28Z</time>
      </trkpt>
      <trkpt lat="49.28746" lon="-0.44435">
        <ele>50.5</ele>
        <time>2021-02-23T10:18:29Z</time>
      </trkpt>
      <trkpt lat="49.28749" lon="-0.44436">
        <ele>50.5</ele>
        <time>2021-02-23T10:18:31Z</time>
      </trkpt>
      <trkpt lat="49.2875" lon="-0.44436">
        <ele>50.5</ele>
        <time>2021-02-23T10:18:32Z</time>
      </trkpt>
      <trkpt lat="49.28754" lon="-0.44436">
        <ele>50.5</ele>
        <time>2021-02-23T10:18:33Z</time>
      </trkpt>
      <trkpt lat="49.28755" lon="-0.44436">
        <ele>50.5</ele>
        <time>2021-02-23T10:18:34Z</time>
      </trkpt>
      <trkpt lat="49.28758" lon="-0.44437">
        <ele>50.5</ele>
        <time>2021-02-23T10:18:36Z</time>
      </trkpt>
      <trkpt lat="49.2876" lon="-0.44437">
        <ele>50.5</ele>
        <time>2021-02-23T10:18:37Z</time>
      </trkpt>
      <trkpt lat="49.28763" lon="-0.44437">
        <ele>50.5</ele>
        <time>2021-02-23T10:18:39Z</time>
      </trkpt>
      <trkpt lat="49.28764" lon="-0.44437">
        <ele>50.5</ele>
        <time>2021-02-23T10:18:40Z</time>
      </trkpt>
      <trkpt lat="49.28767" lon="-0.44437">
        <ele>50.5</ele>
        <time>2021-02-23T10:18:42Z</time>
      </trkpt>
      <trkpt lat="49.28768" lon="-0.44437">
        <ele>50.5</ele>
        <time>2021-02-23T10:18:43Z</time>
      </trkpt>
      <trkpt lat="49.28769" lon="-0.44437">
        <ele>50.5</ele>
        <time>2021-02-23T10:18:44Z</time>
      </trkpt>
      <trkpt lat="49.28771" lon="-0.44437">
        <ele>50.5</ele>
        <time>2021-02-23T10:18:45Z</time>
      </trkpt>
      <trkpt lat="49.28774" lon="-0.44438">
        <ele>50.5</ele>
        <time>2021-02-23T10:18:47Z</time>
      </trkpt>
      <trkpt lat="49.28776" lon="-0.44438">
        <ele>50.6</ele>
        <time>2021-02-23T10:18:48Z</time>
      </trkpt>
      <trkpt lat="49.28777" lon="-0.44439">
        <ele>50.6</ele>
        <time>2021-02-23T10:18:49Z</time>
      </trkpt>
      <trkpt lat="49.28781" lon="-0.44439">
        <ele>50.6</ele>
        <time>2021-02-23T10:18:51Z</time>
      </trkpt>
      <trkpt lat="49.28784" lon="-0.44439">
        <ele>50.6</ele>
        <time>2021-02-23T10:18:52Z</time>
      </trkpt>
      <trkpt lat="49.28785" lon="-0.4444">
        <ele>50.6</ele>
        <time>2021-02-23T10:18:53Z</time>
      </trkpt>
      <trkpt lat="49.2879" lon="-0.44439">
        <ele>50.7</ele>
        <time>2021-02-23T10:18:55Z</time>
      </trkpt>
      <trkpt lat="49.28791" lon="-0.44439">
        <ele>50.7</ele>
        <time>2021-02-23T10:18:56Z</time>
      </trkpt>
      <trkpt lat="49.28793" lon="-0.4444">
        <ele>50.7</ele>
        <time>2021-02-23T10:18:57Z</time>
      </trkpt>
      <trkpt lat="49.28797" lon="-0.4444">
        <ele>50.7</ele>
        <time>2021-02-23T10:18:59Z</time>
      </trkpt>
      <trkpt lat="49.288" lon="-0.4444">
        <ele>50.8</ele>
        <time>2021-02-23T10:19:01Z</time>
      </trkpt>
      <trkpt lat="49.28802" lon="-0.4444">
        <ele>50.8</ele>
        <time>2021-02-23T10:19:02Z</time>
      </trkpt>
      <trkpt lat="49.28807" lon="-0.44441">
        <ele>50.8</ele>
        <time>2021-02-23T10:19:04Z</time>
      </trkpt>
      <trkpt lat="49.28808" lon="-0.44441">
        <ele>50.8</ele>
        <time>2021-02-23T10:19:06Z</time>
      </trkpt>
      <trkpt lat="49.2881" lon="-0.44441">
        <ele>50.8</ele>
        <time>2021-02-23T10:19:07Z</time>
      </trkpt>
      <trkpt lat="49.28811" lon="-0.44442">
        <ele>50.8</ele>
        <time>2021-02-23T10:19:09Z</time>
      </trkpt>
      <trkpt lat="49.28813" lon="-0.44442">
        <ele>50.8</ele>
        <time>2021-02-23T10:19:10Z</time>
      </trkpt>
      <trkpt lat="49.28816" lon="-0.44442">
        <ele>50.8</ele>
        <time>2021-02-23T10:19:11Z</time>
      </trkpt>
      <trkpt lat="49.28817" lon="-0.44442">
        <ele>50.8</ele>
        <time>2021-02-23T10:19:12Z</time>
      </trkpt>
      <trkpt lat="49.2882" lon="-0.44443">
        <ele>50.9</ele>
        <time>2021-02-23T10:19:14Z</time>
      </trkpt>
      <trkpt lat="49.28822" lon="-0.44443">
        <ele>50.9</ele>
        <time>2021-02-23T10:19:15Z</time>
      </trkpt>
      <trkpt lat="49.28825" lon="-0.44442">
        <ele>50.9</ele>
        <time>2021-02-23T10:19:17Z</time>
      </trkpt>
      <trkpt lat="49.28826" lon="-0.44442">
        <ele>50.9</ele>
        <time>2021-02-23T10:19:18Z</time>
      </trkpt>
      <trkpt lat="49.28828" lon="-0.44442">
        <ele>50.9</ele>
        <time>2021-02-23T10:19:19Z</time>
      </trkpt>
      <trkpt lat="49.28829" lon="-0.44442">
        <ele>50.9</ele>
        <time>2021-02-23T10:19:20Z</time>
      </trkpt>
      <trkpt lat="49.28833" lon="-0.44442">
        <ele>50.9</ele>
        <time>2021-02-23T10:19:21Z</time>
      </trkpt>
      <trkpt lat="49.28834" lon="-0.44442">
        <ele>50.9</ele>
        <time>2021-02-23T10:19:22Z</time>
      </trkpt>
      <trkpt lat="49.28837" lon="-0.44441">
        <ele>50.9</ele>
        <time>2021-02-23T10:19:24Z</time>
      </trkpt>
      <trkpt lat="49.2884" lon="-0.44441">
        <ele>50.9</ele>
        <time>2021-02-23T10:19:26Z</time>
      </trkpt>
      <trkpt lat="49.28842" lon="-0.4444">
        <ele>50.9</ele>
        <time>2021-02-23T10:19:27Z</time>
      </trkpt>
      <trkpt lat="49.28845" lon="-0.4444">
        <ele>50.9</ele>
        <time>2021-02-23T10:19:29Z</time>
      </trkpt>
      <trkpt lat="49.28847" lon="-0.4444">
        <ele>50.9</ele>
        <time>2021-02-23T10:19:30Z</time>
      </trkpt>
      <trkpt lat="49.2885" lon="-0.44439">
        <ele>50.9</ele>
        <time>2021-02-23T10:19:32Z</time>
      </trkpt>
      <trkpt lat="49.28854" lon="-0.44439">
        <ele>50.9</ele>
        <time>2021-02-23T10:19:34Z</time>
      </trkpt>
      <trkpt lat="49.28857" lon="-0.44439">
        <ele>51</ele>
        <time>2021-02-23T10:19:35Z</time>
      </trkpt>
      <trkpt lat="49.2886" lon="-0.44439">
        <ele>51</ele>
        <time>2021-02-23T10:19:36Z</time>
      </trkpt>
      <trkpt lat="49.28864" lon="-0.44438">
        <ele>51</ele>
        <time>2021-02-23T10:19:38Z</time>
      </trkpt>
      <trkpt lat="49.28865" lon="-0.44439">
        <ele>51</ele>
        <time>2021-02-23T10:19:39Z</time>
      </trkpt>
      <trkpt lat="49.28869" lon="-0.44439">
        <ele>51</ele>
        <time>2021-02-23T10:19:41Z</time>
      </trkpt>
      <trkpt lat="49.28873" lon="-0.44439">
        <ele>51</ele>
        <time>2021-02-23T10:19:43Z</time>
      </trkpt>
      <trkpt lat="49.28874" lon="-0.44439">
        <ele>51</ele>
        <time>2021-02-23T10:19:44Z</time>
      </trkpt>
      <trkpt lat="49.28877" lon="-0.44439">
        <ele>51</ele>
        <time>2021-02-23T10:19:46Z</time>
      </trkpt>
      <trkpt lat="49.28879" lon="-0.44439">
        <ele>51</ele>
        <time>2021-02-23T10:19:47Z</time>
      </trkpt>
      <trkpt lat="49.28882" lon="-0.44439">
        <ele>51</ele>
        <time>2021-02-23T10:19:49Z</time>
      </trkpt>
      <trkpt lat="49.28885" lon="-0.4444">
        <ele>51</ele>
        <time>2021-02-23T10:19:50Z</time>
      </trkpt>
      <trkpt lat="49.2889" lon="-0.4444">
        <ele>51</ele>
        <time>2021-02-23T10:19:52Z</time>
      </trkpt>
      <trkpt lat="49.28892" lon="-0.44441">
        <ele>51</ele>
        <time>2021-02-23T10:19:54Z</time>
      </trkpt>
      <trkpt lat="49.28894" lon="-0.44441">
        <ele>51</ele>
        <time>2021-02-23T10:19:55Z</time>
      </trkpt>
      <trkpt lat="49.28895" lon="-0.44441">
        <ele>51</ele>
        <time>2021-02-23T10:19:56Z</time>
      </trkpt>
      <trkpt lat="49.28898" lon="-0.44442">
        <ele>51</ele>
        <time>2021-02-23T10:19:58Z</time>
      </trkpt>
      <trkpt lat="49.28901" lon="-0.44442">
        <ele>51</ele>
        <time>2021-02-23T10:20:00Z</time>
      </trkpt>
      <trkpt lat="49.28903" lon="-0.44442">
        <ele>51.1</ele>
        <time>2021-02-23T10:20:01Z</time>
      </trkpt>
      <trkpt lat="49.28907" lon="-0.44443">
        <ele>51.1</ele>
        <time>2021-02-23T10:20:04Z</time>
      </trkpt>
      <trkpt lat="49.28909" lon="-0.44443">
        <ele>51.1</ele>
        <time>2021-02-23T10:20:05Z</time>
      </trkpt>
      <trkpt lat="49.28911" lon="-0.44443">
        <ele>51.1</ele>
        <time>2021-02-23T10:20:06Z</time>
      </trkpt>
      <trkpt lat="49.28914" lon="-0.44444">
        <ele>51.1</ele>
        <time>2021-02-23T10:20:07Z</time>
      </trkpt>
      <trkpt lat="49.28918" lon="-0.44444">
        <ele>51.1</ele>
        <time>2021-02-23T10:20:09Z</time>
      </trkpt>
      <trkpt lat="49.2892" lon="-0.44445">
        <ele>51.1</ele>
        <time>2021-02-23T10:20:11Z</time>
      </trkpt>
      <trkpt lat="49.28921" lon="-0.44445">
        <ele>51.1</ele>
        <time>2021-02-23T10:20:12Z</time>
      </trkpt>
      <trkpt lat="49.28924" lon="-0.44445">
        <ele>51.2</ele>
        <time>2021-02-23T10:20:13Z</time>
      </trkpt>
      <trkpt lat="49.28927" lon="-0.44445">
        <ele>51.2</ele>
        <time>2021-02-23T10:20:15Z</time>
      </trkpt>
      <trkpt lat="49.2893" lon="-0.44446">
        <ele>51.2</ele>
        <time>2021-02-23T10:20:17Z</time>
      </trkpt>
      <trkpt lat="49.28933" lon="-0.44446">
        <ele>51.2</ele>
        <time>2021-02-23T10:20:18Z</time>
      </trkpt>
      <trkpt lat="49.28934" lon="-0.44446">
        <ele>51.2</ele>
        <time>2021-02-23T10:20:19Z</time>
      </trkpt>
      <trkpt lat="49.28937" lon="-0.44446">
        <ele>51.2</ele>
        <time>2021-02-23T10:20:21Z</time>
      </trkpt>
      <trkpt lat="49.28939" lon="-0.44446">
        <ele>51.2</ele>
        <time>2021-02-23T10:20:22Z</time>
      </trkpt>
      <trkpt lat="49.28942" lon="-0.44446">
        <ele>51.2</ele>
        <time>2021-02-23T10:20:24Z</time>
      </trkpt>
      <trkpt lat="49.28945" lon="-0.44446">
        <ele>51.2</ele>
        <time>2021-02-23T10:20:26Z</time>
      </trkpt>
      <trkpt lat="49.28948" lon="-0.44446">
        <ele>51.2</ele>
        <time>2021-02-23T10:20:27Z</time>
      </trkpt>
      <trkpt lat="49.2895" lon="-0.44447">
        <ele>51.2</ele>
        <time>2021-02-23T10:20:28Z</time>
      </trkpt>
      <trkpt lat="49.28954" lon="-0.44447">
        <ele>51.2</ele>
        <time>2021-02-23T10:20:30Z</time>
      </trkpt>
      <trkpt lat="49.28956" lon="-0.44448">
        <ele>51.2</ele>
        <time>2021-02-23T10:20:31Z</time>
      </trkpt>
      <trkpt lat="49.2896" lon="-0.44448">
        <ele>51.2</ele>
        <time>2021-02-23T10:20:33Z</time>
      </trkpt>
      <trkpt lat="49.28962" lon="-0.44448">
        <ele>51.1</ele>
        <time>2021-02-23T10:20:35Z</time>
      </trkpt>
      <trkpt lat="49.28963" lon="-0.44448">
        <ele>51.1</ele>
        <time>2021-02-23T10:20:36Z</time>
      </trkpt>
      <trkpt lat="49.28966" lon="-0.44449">
        <ele>51.1</ele>
        <time>2021-02-23T10:20:38Z</time>
      </trkpt>
      <trkpt lat="49.28967" lon="-0.44449">
        <ele>51.1</ele>
        <time>2021-02-23T10:20:39Z</time>
      </trkpt>
      <trkpt lat="49.28969" lon="-0.44449">
        <ele>51.1</ele>
        <time>2021-02-23T10:20:40Z</time>
      </trkpt>
      <trkpt lat="49.2897" lon="-0.44449">
        <ele>51.1</ele>
        <time>2021-02-23T10:20:41Z</time>
      </trkpt>
      <trkpt lat="49.28972" lon="-0.44451">
        <ele>51.1</ele>
        <time>2021-02-23T10:20:43Z</time>
      </trkpt>
      <trkpt lat="49.28973" lon="-0.44453">
        <ele>51.1</ele>
        <time>2021-02-23T10:20:44Z</time>
      </trkpt>
      <trkpt lat="49.28973" lon="-0.44457">
        <ele>51</ele>
        <time>2021-02-23T10:20:45Z</time>
      </trkpt>
      <trkpt lat="49.28973" lon="-0.44459">
        <ele>50.9</ele>
        <time>2021-02-23T10:20:47Z</time>
      </trkpt>
      <trkpt lat="49.28973" lon="-0.44461">
        <ele>50.9</ele>
        <time>2021-02-23T10:20:48Z</time>
      </trkpt>
      <trkpt lat="49.28973" lon="-0.44464">
        <ele>50.9</ele>
        <time>2021-02-23T10:20:49Z</time>
      </trkpt>
      <trkpt lat="49.28972" lon="-0.44468">
        <ele>50.8</ele>
        <time>2021-02-23T10:20:50Z</time>
      </trkpt>
      <trkpt lat="49.28971" lon="-0.44473">
        <ele>50.7</ele>
        <time>2021-02-23T10:20:52Z</time>
      </trkpt>
      <trkpt lat="49.28971" lon="-0.44475">
        <ele>50.6</ele>
        <time>2021-02-23T10:20:53Z</time>
      </trkpt>
      <trkpt lat="49.2897" lon="-0.44478">
        <ele>50.5</ele>
        <time>2021-02-23T10:20:54Z</time>
      </trkpt>
      <trkpt lat="49.2897" lon="-0.44482">
        <ele>50.4</ele>
        <time>2021-02-23T10:20:56Z</time>
      </trkpt>
      <trkpt lat="49.28969" lon="-0.44489">
        <ele>50.2</ele>
        <time>2021-02-23T10:20:58Z</time>
      </trkpt>
      <trkpt lat="49.28969" lon="-0.44491">
        <ele>50.1</ele>
        <time>2021-02-23T10:20:59Z</time>
      </trkpt>
      <trkpt lat="49.28968" lon="-0.44494">
        <ele>50</ele>
        <time>2021-02-23T10:21:00Z</time>
      </trkpt>
      <trkpt lat="49.28967" lon="-0.445">
        <ele>49.8</ele>
        <time>2021-02-23T10:21:02Z</time>
      </trkpt>
      <trkpt lat="49.28967" lon="-0.44502">
        <ele>49.8</ele>
        <time>2021-02-23T10:21:03Z</time>
      </trkpt>
      <trkpt lat="49.28966" lon="-0.44509">
        <ele>49.5</ele>
        <time>2021-02-23T10:21:05Z</time>
      </trkpt>
      <trkpt lat="49.28966" lon="-0.44511">
        <ele>49.5</ele>
        <time>2021-02-23T10:21:07Z</time>
      </trkpt>
      <trkpt lat="49.28966" lon="-0.44514">
        <ele>49.4</ele>
        <time>2021-02-23T10:21:08Z</time>
      </trkpt>
      <trkpt lat="49.28965" lon="-0.44519">
        <ele>49.2</ele>
        <time>2021-02-23T10:21:10Z</time>
      </trkpt>
      <trkpt lat="49.28964" lon="-0.44521">
        <ele>49.1</ele>
        <time>2021-02-23T10:21:11Z</time>
      </trkpt>
      <trkpt lat="49.28963" lon="-0.44524">
        <ele>49</ele>
        <time>2021-02-23T10:21:13Z</time>
      </trkpt>
      <trkpt lat="49.28963" lon="-0.44529">
        <ele>48.8</ele>
        <time>2021-02-23T10:21:15Z</time>
      </trkpt>
      <trkpt lat="49.28962" lon="-0.44533">
        <ele>48.7</ele>
        <time>2021-02-23T10:21:16Z</time>
      </trkpt>
      <trkpt lat="49.28961" lon="-0.44537">
        <ele>48.5</ele>
        <time>2021-02-23T10:21:18Z</time>
      </trkpt>
      <trkpt lat="49.28961" lon="-0.4454">
        <ele>48.5</ele>
        <time>2021-02-23T10:21:19Z</time>
      </trkpt>
      <trkpt lat="49.2896" lon="-0.44542">
        <ele>48.4</ele>
        <time>2021-02-23T10:21:20Z</time>
      </trkpt>
      <trkpt lat="49.28959" lon="-0.44547">
        <ele>48.2</ele>
        <time>2021-02-23T10:21:22Z</time>
      </trkpt>
      <trkpt lat="49.28958" lon="-0.44548">
        <ele>48.1</ele>
        <time>2021-02-23T10:21:23Z</time>
      </trkpt>
      <trkpt lat="49.28957" lon="-0.44553">
        <ele>47.9</ele>
        <time>2021-02-23T10:21:24Z</time>
      </trkpt>
      <trkpt lat="49.28957" lon="-0.44554">
        <ele>47.9</ele>
        <time>2021-02-23T10:21:25Z</time>
      </trkpt>
      <trkpt lat="49.28956" lon="-0.44559">
        <ele>47.7</ele>
        <time>2021-02-23T10:21:27Z</time>
      </trkpt>
      <trkpt lat="49.28955" lon="-0.4456">
        <ele>47.6</ele>
        <time>2021-02-23T10:21:28Z</time>
      </trkpt>
      <trkpt lat="49.28954" lon="-0.44566">
        <ele>47.4</ele>
        <time>2021-02-23T10:21:29Z</time>
      </trkpt>
      <trkpt lat="49.28953" lon="-0.4457">
        <ele>47.2</ele>
        <time>2021-02-23T10:21:31Z</time>
      </trkpt>
      <trkpt lat="49.28951" lon="-0.44575">
        <ele>47</ele>
        <time>2021-02-23T10:21:32Z</time>
      </trkpt>
      <trkpt lat="49.2895" lon="-0.4458">
        <ele>46.9</ele>
        <time>2021-02-23T10:21:34Z</time>
      </trkpt>
      <trkpt lat="49.2895" lon="-0.44581">
        <ele>46.8</ele>
        <time>2021-02-23T10:21:35Z</time>
      </trkpt>
      <trkpt lat="49.28949" lon="-0.44586">
        <ele>46.6</ele>
        <time>2021-02-23T10:21:37Z</time>
      </trkpt>
      <trkpt lat="49.28948" lon="-0.44587">
        <ele>46.6</ele>
        <time>2021-02-23T10:21:38Z</time>
      </trkpt>
      <trkpt lat="49.28948" lon="-0.4459">
        <ele>46.5</ele>
        <time>2021-02-23T10:21:39Z</time>
      </trkpt>
      <trkpt lat="49.28947" lon="-0.44595">
        <ele>46.3</ele>
        <time>2021-02-23T10:21:41Z</time>
      </trkpt>
      <trkpt lat="49.28946" lon="-0.44598">
        <ele>46.2</ele>
        <time>2021-02-23T10:21:42Z</time>
      </trkpt>
      <trkpt lat="49.28945" lon="-0.44601">
        <ele>46.1</ele>
        <time>2021-02-23T10:21:44Z</time>
      </trkpt>
      <trkpt lat="49.28945" lon="-0.44604">
        <ele>46</ele>
        <time>2021-02-23T10:21:45Z</time>
      </trkpt>
      <trkpt lat="49.28944" lon="-0.44606">
        <ele>45.9</ele>
        <time>2021-02-23T10:21:46Z</time>
      </trkpt>
      <trkpt lat="49.28943" lon="-0.44609">
        <ele>45.8</ele>
        <time>2021-02-23T10:21:47Z</time>
      </trkpt>
      <trkpt lat="49.28942" lon="-0.44613">
        <ele>45.7</ele>
        <time>2021-02-23T10:21:49Z</time>
      </trkpt>
      <trkpt lat="49.28941" lon="-0.44617">
        <ele>45.6</ele>
        <time>2021-02-23T10:21:50Z</time>
      </trkpt>
      <trkpt lat="49.2894" lon="-0.44622">
        <ele>45.5</ele>
        <time>2021-02-23T10:21:52Z</time>
      </trkpt>
      <trkpt lat="49.2894" lon="-0.44625">
        <ele>45.4</ele>
        <time>2021-02-23T10:21:53Z</time>
      </trkpt>
      <trkpt lat="49.28939" lon="-0.44628">
        <ele>45.3</ele>
        <time>2021-02-23T10:21:55Z</time>
      </trkpt>
      <trkpt lat="49.28938" lon="-0.4463">
        <ele>45.2</ele>
        <time>2021-02-23T10:21:56Z</time>
      </trkpt>
      <trkpt lat="49.28937" lon="-0.44634">
        <ele>45.2</ele>
        <time>2021-02-23T10:21:58Z</time>
      </trkpt>
      <trkpt lat="49.28936" lon="-0.44638">
        <ele>45.1</ele>
        <time>2021-02-23T10:21:59Z</time>
      </trkpt>
      <trkpt lat="49.28935" lon="-0.4464">
        <ele>45</ele>
        <time>2021-02-23T10:22:00Z</time>
      </trkpt>
      <trkpt lat="49.28934" lon="-0.44643">
        <ele>44.9</ele>
        <time>2021-02-23T10:22:01Z</time>
      </trkpt>
      <trkpt lat="49.28934" lon="-0.44646">
        <ele>44.9</ele>
        <time>2021-02-23T10:22:03Z</time>
      </trkpt>
      <trkpt lat="49.28933" lon="-0.4465">
        <ele>44.8</ele>
        <time>2021-02-23T10:22:04Z</time>
      </trkpt>
      <trkpt lat="49.28932" lon="-0.44654">
        <ele>44.7</ele>
        <time>2021-02-23T10:22:06Z</time>
      </trkpt>
      <trkpt lat="49.28931" lon="-0.44657">
        <ele>44.6</ele>
        <time>2021-02-23T10:22:08Z</time>
      </trkpt>
      <trkpt lat="49.2893" lon="-0.44661">
        <ele>44.6</ele>
        <time>2021-02-23T10:22:09Z</time>
      </trkpt>
      <trkpt lat="49.28929" lon="-0.44663">
        <ele>44.5</ele>
        <time>2021-02-23T10:22:11Z</time>
      </trkpt>
      <trkpt lat="49.28928" lon="-0.44667">
        <ele>44.4</ele>
        <time>2021-02-23T10:22:12Z</time>
      </trkpt>
      <trkpt lat="49.28927" lon="-0.44669">
        <ele>44.4</ele>
        <time>2021-02-23T10:22:13Z</time>
      </trkpt>
      <trkpt lat="49.28926" lon="-0.44672">
        <ele>44.3</ele>
        <time>2021-02-23T10:22:15Z</time>
      </trkpt>
      <trkpt lat="49.28925" lon="-0.44677">
        <ele>44.2</ele>
        <time>2021-02-23T10:22:17Z</time>
      </trkpt>
      <trkpt lat="49.28924" lon="-0.44682">
        <ele>44.1</ele>
        <time>2021-02-23T10:22:18Z</time>
      </trkpt>
      <trkpt lat="49.28924" lon="-0.44683">
        <ele>44.1</ele>
        <time>2021-02-23T10:22:19Z</time>
      </trkpt>
      <trkpt lat="49.28924" lon="-0.44688">
        <ele>44</ele>
        <time>2021-02-23T10:22:21Z</time>
      </trkpt>
      <trkpt lat="49.28924" lon="-0.4469">
        <ele>44</ele>
        <time>2021-02-23T10:22:22Z</time>
      </trkpt>
      <trkpt lat="49.28924" lon="-0.44692">
        <ele>43.9</ele>
        <time>2021-02-23T10:22:23Z</time>
      </trkpt>
      <trkpt lat="49.28923" lon="-0.44695">
        <ele>43.9</ele>
        <time>2021-02-23T10:22:24Z</time>
      </trkpt>
      <trkpt lat="49.28923" lon="-0.44698">
        <ele>43.8</ele>
        <time>2021-02-23T10:22:25Z</time>
      </trkpt>
      <trkpt lat="49.28922" lon="-0.44702">
        <ele>43.7</ele>
        <time>2021-02-23T10:22:27Z</time>
      </trkpt>
      <trkpt lat="49.28921" lon="-0.44706">
        <ele>43.6</ele>
        <time>2021-02-23T10:22:29Z</time>
      </trkpt>
      <trkpt lat="49.2892" lon="-0.44708">
        <ele>43.6</ele>
        <time>2021-02-23T10:22:30Z</time>
      </trkpt>
      <trkpt lat="49.2892" lon="-0.4471">
        <ele>43.6</ele>
        <time>2021-02-23T10:22:31Z</time>
      </trkpt>
      <trkpt lat="49.28919" lon="-0.44714">
        <ele>43.5</ele>
        <time>2021-02-23T10:22:32Z</time>
      </trkpt>
      <trkpt lat="49.28919" lon="-0.44716">
        <ele>43.4</ele>
        <time>2021-02-23T10:22:34Z</time>
      </trkpt>
      <trkpt lat="49.28918" lon="-0.44721">
        <ele>43.4</ele>
        <time>2021-02-23T10:22:35Z</time>
      </trkpt>
      <trkpt lat="49.28918" lon="-0.44724">
        <ele>43.3</ele>
        <time>2021-02-23T10:22:36Z</time>
      </trkpt>
      <trkpt lat="49.28917" lon="-0.44728">
        <ele>43.3</ele>
        <time>2021-02-23T10:22:38Z</time>
      </trkpt>
      <trkpt lat="49.28916" lon="-0.44733">
        <ele>43.2</ele>
        <time>2021-02-23T10:22:40Z</time>
      </trkpt>
      <trkpt lat="49.28915" lon="-0.44734">
        <ele>43.2</ele>
        <time>2021-02-23T10:22:41Z</time>
      </trkpt>
      <trkpt lat="49.28915" lon="-0.44738">
        <ele>43.1</ele>
        <time>2021-02-23T10:22:42Z</time>
      </trkpt>
      <trkpt lat="49.28914" lon="-0.4474">
        <ele>43.1</ele>
        <time>2021-02-23T10:22:43Z</time>
      </trkpt>
      <trkpt lat="49.28913" lon="-0.44742">
        <ele>43.1</ele>
        <time>2021-02-23T10:22:45Z</time>
      </trkpt>
      <trkpt lat="49.28912" lon="-0.44743">
        <ele>43.1</ele>
        <time>2021-02-23T10:22:46Z</time>
      </trkpt>
      <trkpt lat="49.28911" lon="-0.44745">
        <ele>43.1</ele>
        <time>2021-02-23T10:22:48Z</time>
      </trkpt>
      <trkpt lat="49.2891" lon="-0.44746">
        <ele>43</ele>
        <time>2021-02-23T10:22:49Z</time>
      </trkpt>
      <trkpt lat="49.28909" lon="-0.44751">
        <ele>43</ele>
        <time>2021-02-23T10:22:51Z</time>
      </trkpt>
      <trkpt lat="49.28909" lon="-0.44752">
        <ele>43</ele>
        <time>2021-02-23T10:22:52Z</time>
      </trkpt>
      <trkpt lat="49.28909" lon="-0.44755">
        <ele>43</ele>
        <time>2021-02-23T10:22:53Z</time>
      </trkpt>
      <trkpt lat="49.28908" lon="-0.4476">
        <ele>42.9</ele>
        <time>2021-02-23T10:22:55Z</time>
      </trkpt>
      <trkpt lat="49.28907" lon="-0.44766">
        <ele>42.8</ele>
        <time>2021-02-23T10:22:57Z</time>
      </trkpt>
      <trkpt lat="49.28907" lon="-0.44768">
        <ele>42.8</ele>
        <time>2021-02-23T10:22:58Z</time>
      </trkpt>
      <trkpt lat="49.28906" lon="-0.44771">
        <ele>42.8</ele>
        <time>2021-02-23T10:22:59Z</time>
      </trkpt>
      <trkpt lat="49.28906" lon="-0.44775">
        <ele>42.7</ele>
        <time>2021-02-23T10:23:01Z</time>
      </trkpt>
      <trkpt lat="49.28905" lon="-0.44778">
        <ele>42.7</ele>
        <time>2021-02-23T10:23:02Z</time>
      </trkpt>
      <trkpt lat="49.28904" lon="-0.44785">
        <ele>42.7</ele>
        <time>2021-02-23T10:23:04Z</time>
      </trkpt>
      <trkpt lat="49.28902" lon="-0.44794">
        <ele>42.6</ele>
        <time>2021-02-23T10:23:06Z</time>
      </trkpt>
      <trkpt lat="49.289" lon="-0.44799">
        <ele>42.5</ele>
        <time>2021-02-23T10:23:08Z</time>
      </trkpt>
      <trkpt lat="49.28899" lon="-0.44802">
        <ele>42.5</ele>
        <time>2021-02-23T10:23:09Z</time>
      </trkpt>
      <trkpt lat="49.28898" lon="-0.44807">
        <ele>42.4</ele>
        <time>2021-02-23T10:23:11Z</time>
      </trkpt>
      <trkpt lat="49.28896" lon="-0.44814">
        <ele>42.4</ele>
        <time>2021-02-23T10:23:13Z</time>
      </trkpt>
      <trkpt lat="49.28895" lon="-0.44816">
        <ele>42.3</ele>
        <time>2021-02-23T10:23:14Z</time>
      </trkpt>
      <trkpt lat="49.28894" lon="-0.44819">
        <ele>42.3</ele>
        <time>2021-02-23T10:23:15Z</time>
      </trkpt>
      <trkpt lat="49.28893" lon="-0.44823">
        <ele>42.2</ele>
        <time>2021-02-23T10:23:17Z</time>
      </trkpt>
      <trkpt lat="49.28892" lon="-0.44826">
        <ele>42.2</ele>
        <time>2021-02-23T10:23:18Z</time>
      </trkpt>
      <trkpt lat="49.28892" lon="-0.44827">
        <ele>42.2</ele>
        <time>2021-02-23T10:23:19Z</time>
      </trkpt>
      <trkpt lat="49.28891" lon="-0.44831">
        <ele>42.2</ele>
        <time>2021-02-23T10:23:21Z</time>
      </trkpt>
      <trkpt lat="49.2889" lon="-0.44834">
        <ele>42.1</ele>
        <time>2021-02-23T10:23:22Z</time>
      </trkpt>
      <trkpt lat="49.28889" lon="-0.44838">
        <ele>42.1</ele>
        <time>2021-02-23T10:23:24Z</time>
      </trkpt>
      <trkpt lat="49.28888" lon="-0.4484">
        <ele>42</ele>
        <time>2021-02-23T10:23:25Z</time>
      </trkpt>
      <trkpt lat="49.28887" lon="-0.44846">
        <ele>42</ele>
        <time>2021-02-23T10:23:27Z</time>
      </trkpt>
      <trkpt lat="49.28886" lon="-0.44848">
        <ele>42</ele>
        <time>2021-02-23T10:23:28Z</time>
      </trkpt>
      <trkpt lat="49.28885" lon="-0.44853">
        <ele>41.9</ele>
        <time>2021-02-23T10:23:30Z</time>
      </trkpt>
      <trkpt lat="49.28885" lon="-0.44855">
        <ele>41.9</ele>
        <time>2021-02-23T10:23:31Z</time>
      </trkpt>
      <trkpt lat="49.28884" lon="-0.4486">
        <ele>41.8</ele>
        <time>2021-02-23T10:23:33Z</time>
      </trkpt>
      <trkpt lat="49.28883" lon="-0.44866">
        <ele>41.8</ele>
        <time>2021-02-23T10:23:35Z</time>
      </trkpt>
      <trkpt lat="49.28881" lon="-0.4487">
        <ele>41.7</ele>
        <time>2021-02-23T10:23:37Z</time>
      </trkpt>
      <trkpt lat="49.2888" lon="-0.44874">
        <ele>41.6</ele>
        <time>2021-02-23T10:23:39Z</time>
      </trkpt>
      <trkpt lat="49.28879" lon="-0.44877">
        <ele>41.6</ele>
        <time>2021-02-23T10:23:40Z</time>
      </trkpt>
      <trkpt lat="49.28878" lon="-0.44879">
        <ele>41.6</ele>
        <time>2021-02-23T10:23:41Z</time>
      </trkpt>
      <trkpt lat="49.28878" lon="-0.44881">
        <ele>41.5</ele>
        <time>2021-02-23T10:23:42Z</time>
      </trkpt>
      <trkpt lat="49.28877" lon="-0.44883">
        <ele>41.5</ele>
        <time>2021-02-23T10:23:43Z</time>
      </trkpt>
      <trkpt lat="49.28875" lon="-0.44887">
        <ele>41.4</ele>
        <time>2021-02-23T10:23:45Z</time>
      </trkpt>
      <trkpt lat="49.28874" lon="-0.44891">
        <ele>41.3</ele>
        <time>2021-02-23T10:23:47Z</time>
      </trkpt>
      <trkpt lat="49.28873" lon="-0.44896">
        <ele>41.2</ele>
        <time>2021-02-23T10:23:49Z</time>
      </trkpt>
      <trkpt lat="49.28872" lon="-0.44898">
        <ele>41.2</ele>
        <time>2021-02-23T10:23:50Z</time>
      </trkpt>
      <trkpt lat="49.28871" lon="-0.44902">
        <ele>41.1</ele>
        <time>2021-02-23T10:23:52Z</time>
      </trkpt>
      <trkpt lat="49.2887" lon="-0.44904">
        <ele>41.1</ele>
        <time>2021-02-23T10:23:53Z</time>
      </trkpt>
      <trkpt lat="49.28869" lon="-0.44908">
        <ele>41</ele>
        <time>2021-02-23T10:23:55Z</time>
      </trkpt>
      <trkpt lat="49.28867" lon="-0.44913">
        <ele>40.9</ele>
        <time>2021-02-23T10:23:57Z</time>
      </trkpt>
      <trkpt lat="49.28866" lon="-0.44915">
        <ele>40.9</ele>
        <time>2021-02-23T10:23:58Z</time>
      </trkpt>
      <trkpt lat="49.28865" lon="-0.4492">
        <ele>40.7</ele>
        <time>2021-02-23T10:24:00Z</time>
      </trkpt>
      <trkpt lat="49.28863" lon="-0.44925">
        <ele>40.6</ele>
        <time>2021-02-23T10:24:02Z</time>
      </trkpt>
      <trkpt lat="49.28862" lon="-0.44928">
        <ele>40.5</ele>
        <time>2021-02-23T10:24:03Z</time>
      </trkpt>
      <trkpt lat="49.28862" lon="-0.4493">
        <ele>40.4</ele>
        <time>2021-02-23T10:24:04Z</time>
      </trkpt>
      <trkpt lat="49.28861" lon="-0.44932">
        <ele>40.4</ele>
        <time>2021-02-23T10:24:05Z</time>
      </trkpt>
      <trkpt lat="49.2886" lon="-0.44936">
        <ele>40.2</ele>
        <time>2021-02-23T10:24:07Z</time>
      </trkpt>
      <trkpt lat="49.28859" lon="-0.44938">
        <ele>40.2</ele>
        <time>2021-02-23T10:24:08Z</time>
      </trkpt>
      <trkpt lat="49.28858" lon="-0.4494">
        <ele>40.1</ele>
        <time>2021-02-23T10:24:09Z</time>
      </trkpt>
      <trkpt lat="49.28857" lon="-0.44945">
        <ele>40</ele>
        <time>2021-02-23T10:24:11Z</time>
      </trkpt>
      <trkpt lat="49.28855" lon="-0.4495">
        <ele>39.8</ele>
        <time>2021-02-23T10:24:13Z</time>
      </trkpt>
      <trkpt lat="49.28855" lon="-0.44952">
        <ele>39.8</ele>
        <time>2021-02-23T10:24:14Z</time>
      </trkpt>
      <trkpt lat="49.28854" lon="-0.44956">
        <ele>39.7</ele>
        <time>2021-02-23T10:24:16Z</time>
      </trkpt>
      <trkpt lat="49.28853" lon="-0.44958">
        <ele>39.7</ele>
        <time>2021-02-23T10:24:17Z</time>
      </trkpt>
      <trkpt lat="49.28852" lon="-0.4496">
        <ele>39.6</ele>
        <time>2021-02-23T10:24:18Z</time>
      </trkpt>
      <trkpt lat="49.28851" lon="-0.44964">
        <ele>39.5</ele>
        <time>2021-02-23T10:24:20Z</time>
      </trkpt>
      <trkpt lat="49.2885" lon="-0.44967">
        <ele>39.5</ele>
        <time>2021-02-23T10:24:22Z</time>
      </trkpt>
      <trkpt lat="49.28848" lon="-0.44971">
        <ele>39.4</ele>
        <time>2021-02-23T10:24:24Z</time>
      </trkpt>
      <trkpt lat="49.28845" lon="-0.44978">
        <ele>39.2</ele>
        <time>2021-02-23T10:24:26Z</time>
      </trkpt>
      <trkpt lat="49.28844" lon="-0.44981">
        <ele>39.1</ele>
        <time>2021-02-23T10:24:28Z</time>
      </trkpt>
      <trkpt lat="49.28843" lon="-0.44984">
        <ele>39</ele>
        <time>2021-02-23T10:24:30Z</time>
      </trkpt>
      <trkpt lat="49.28842" lon="-0.44987">
        <ele>39</ele>
        <time>2021-02-23T10:24:32Z</time>
      </trkpt>
      <trkpt lat="49.2884" lon="-0.4499">
        <ele>38.9</ele>
        <time>2021-02-23T10:24:34Z</time>
      </trkpt>
      <trkpt lat="49.28839" lon="-0.44994">
        <ele>38.8</ele>
        <time>2021-02-23T10:24:35Z</time>
      </trkpt>
      <trkpt lat="49.28838" lon="-0.44997">
        <ele>38.7</ele>
        <time>2021-02-23T10:24:36Z</time>
      </trkpt>
      <trkpt lat="49.28836" lon="-0.45001">
        <ele>38.6</ele>
        <time>2021-02-23T10:24:38Z</time>
      </trkpt>
      <trkpt lat="49.28835" lon="-0.45005">
        <ele>38.5</ele>
        <time>2021-02-23T10:24:40Z</time>
      </trkpt>
      <trkpt lat="49.28834" lon="-0.45007">
        <ele>38.4</ele>
        <time>2021-02-23T10:24:41Z</time>
      </trkpt>
      <trkpt lat="49.28833" lon="-0.45012">
        <ele>38.3</ele>
        <time>2021-02-23T10:24:43Z</time>
      </trkpt>
      <trkpt lat="49.28831" lon="-0.45017">
        <ele>38.2</ele>
        <time>2021-02-23T10:24:45Z</time>
      </trkpt>
      <trkpt lat="49.2883" lon="-0.45021">
        <ele>38.1</ele>
        <time>2021-02-23T10:24:46Z</time>
      </trkpt>
      <trkpt lat="49.2883" lon="-0.45022">
        <ele>38</ele>
        <time>2021-02-23T10:24:47Z</time>
      </trkpt>
      <trkpt lat="49.28829" lon="-0.45025">
        <ele>38</ele>
        <time>2021-02-23T10:24:48Z</time>
      </trkpt>
      <trkpt lat="49.28828" lon="-0.45028">
        <ele>37.9</ele>
        <time>2021-02-23T10:24:50Z</time>
      </trkpt>
      <trkpt lat="49.28827" lon="-0.45032">
        <ele>37.8</ele>
        <time>2021-02-23T10:24:52Z</time>
      </trkpt>
      <trkpt lat="49.28826" lon="-0.45033">
        <ele>37.8</ele>
        <time>2021-02-23T10:24:53Z</time>
      </trkpt>
      <trkpt lat="49.28825" lon="-0.45036">
        <ele>37.7</ele>
        <time>2021-02-23T10:24:54Z</time>
      </trkpt>
      <trkpt lat="49.28825" lon="-0.45037">
        <ele>37.6</ele>
        <time>2021-02-23T10:24:56Z</time>
      </trkpt>
      <trkpt lat="49.28824" lon="-0.45038">
        <ele>37.6</ele>
        <time>2021-02-23T10:24:57Z</time>
      </trkpt>
      <trkpt lat="49.28824" lon="-0.45039">
        <ele>37.6</ele>
        <time>2021-02-23T10:24:58Z</time>
      </trkpt>
      <trkpt lat="49.28823" lon="-0.45042">
        <ele>37.5</ele>
        <time>2021-02-23T10:24:59Z</time>
      </trkpt>
      <trkpt lat="49.28822" lon="-0.45044">
        <ele>37.5</ele>
        <time>2021-02-23T10:25:01Z</time>
      </trkpt>
      <trkpt lat="49.28821" lon="-0.45046">
        <ele>37.4</ele>
        <time>2021-02-23T10:25:02Z</time>
      </trkpt>
      <trkpt lat="49.28819" lon="-0.4505">
        <ele>37.3</ele>
        <time>2021-02-23T10:25:03Z</time>
      </trkpt>
      <trkpt lat="49.28817" lon="-0.45055">
        <ele>37.2</ele>
        <time>2021-02-23T10:25:05Z</time>
      </trkpt>
      <trkpt lat="49.28816" lon="-0.4506">
        <ele>37</ele>
        <time>2021-02-23T10:25:06Z</time>
      </trkpt>
      <trkpt lat="49.28814" lon="-0.45064">
        <ele>36.9</ele>
        <time>2021-02-23T10:25:07Z</time>
      </trkpt>
      <trkpt lat="49.28812" lon="-0.4507">
        <ele>36.8</ele>
        <time>2021-02-23T10:25:09Z</time>
      </trkpt>
      <trkpt lat="49.28811" lon="-0.45072">
        <ele>36.7</ele>
        <time>2021-02-23T10:25:10Z</time>
      </trkpt>
      <trkpt lat="49.2881" lon="-0.45077">
        <ele>36.6</ele>
        <time>2021-02-23T10:25:12Z</time>
      </trkpt>
      <trkpt lat="49.28809" lon="-0.45081">
        <ele>36.5</ele>
        <time>2021-02-23T10:25:13Z</time>
      </trkpt>
      <trkpt lat="49.28807" lon="-0.45084">
        <ele>36.4</ele>
        <time>2021-02-23T10:25:15Z</time>
      </trkpt>
      <trkpt lat="49.28806" lon="-0.45087">
        <ele>36.3</ele>
        <time>2021-02-23T10:25:16Z</time>
      </trkpt>
      <trkpt lat="49.28805" lon="-0.45091">
        <ele>36.2</ele>
        <time>2021-02-23T10:25:18Z</time>
      </trkpt>
      <trkpt lat="49.28804" lon="-0.45094">
        <ele>36.1</ele>
        <time>2021-02-23T10:25:19Z</time>
      </trkpt>
      <trkpt lat="49.28802" lon="-0.45097">
        <ele>36</ele>
        <time>2021-02-23T10:25:21Z</time>
      </trkpt>
      <trkpt lat="49.28802" lon="-0.451">
        <ele>36</ele>
        <time>2021-02-23T10:25:22Z</time>
      </trkpt>
      <trkpt lat="49.288" lon="-0.45103">
        <ele>35.9</ele>
        <time>2021-02-23T10:25:24Z</time>
      </trkpt>
      <trkpt lat="49.28799" lon="-0.45108">
        <ele>35.7</ele>
        <time>2021-02-23T10:25:25Z</time>
      </trkpt>
      <trkpt lat="49.28796" lon="-0.45113">
        <ele>35.5</ele>
        <time>2021-02-23T10:25:27Z</time>
      </trkpt>
      <trkpt lat="49.28796" lon="-0.45115">
        <ele>35.5</ele>
        <time>2021-02-23T10:25:28Z</time>
      </trkpt>
      <trkpt lat="49.28794" lon="-0.45118">
        <ele>35.4</ele>
        <time>2021-02-23T10:25:30Z</time>
      </trkpt>
      <trkpt lat="49.28793" lon="-0.45121">
        <ele>35.3</ele>
        <time>2021-02-23T10:25:32Z</time>
      </trkpt>
      <trkpt lat="49.28791" lon="-0.45125">
        <ele>35.2</ele>
        <time>2021-02-23T10:25:33Z</time>
      </trkpt>
      <trkpt lat="49.2879" lon="-0.45127">
        <ele>35.1</ele>
        <time>2021-02-23T10:25:34Z</time>
      </trkpt>
      <trkpt lat="49.28789" lon="-0.4513">
        <ele>35</ele>
        <time>2021-02-23T10:25:36Z</time>
      </trkpt>
      <trkpt lat="49.28788" lon="-0.45133">
        <ele>34.9</ele>
        <time>2021-02-23T10:25:38Z</time>
      </trkpt>
      <trkpt lat="49.28787" lon="-0.45134">
        <ele>34.9</ele>
        <time>2021-02-23T10:25:39Z</time>
      </trkpt>
      <trkpt lat="49.28786" lon="-0.45136">
        <ele>34.8</ele>
        <time>2021-02-23T10:25:40Z</time>
      </trkpt>
      <trkpt lat="49.28784" lon="-0.45141">
        <ele>34.6</ele>
        <time>2021-02-23T10:25:42Z</time>
      </trkpt>
      <trkpt lat="49.28783" lon="-0.45142">
        <ele>34.6</ele>
        <time>2021-02-23T10:25:43Z</time>
      </trkpt>
      <trkpt lat="49.28781" lon="-0.45147">
        <ele>34.4</ele>
        <time>2021-02-23T10:25:45Z</time>
      </trkpt>
      <trkpt lat="49.2878" lon="-0.45148">
        <ele>34.4</ele>
        <time>2021-02-23T10:25:46Z</time>
      </trkpt>
      <trkpt lat="49.28778" lon="-0.45153">
        <ele>34.1</ele>
        <time>2021-02-23T10:25:47Z</time>
      </trkpt>
      <trkpt lat="49.28777" lon="-0.45154">
        <ele>34.1</ele>
        <time>2021-02-23T10:25:48Z</time>
      </trkpt>
      <trkpt lat="49.28774" lon="-0.45159">
        <ele>33.8</ele>
        <time>2021-02-23T10:25:50Z</time>
      </trkpt>
      <trkpt lat="49.28773" lon="-0.45161">
        <ele>33.7</ele>
        <time>2021-02-23T10:25:51Z</time>
      </trkpt>
      <trkpt lat="49.28772" lon="-0.45166">
        <ele>33.5</ele>
        <time>2021-02-23T10:25:53Z</time>
      </trkpt>
      <trkpt lat="49.28771" lon="-0.45167">
        <ele>33.4</ele>
        <time>2021-02-23T10:25:54Z</time>
      </trkpt>
      <trkpt lat="49.2877" lon="-0.4517">
        <ele>33.3</ele>
        <time>2021-02-23T10:25:56Z</time>
      </trkpt>
      <trkpt lat="49.28769" lon="-0.45172">
        <ele>33.1</ele>
        <time>2021-02-23T10:25:58Z</time>
      </trkpt>
      <trkpt lat="49.28769" lon="-0.45176">
        <ele>33</ele>
        <time>2021-02-23T10:25:59Z</time>
      </trkpt>
      <trkpt lat="49.28768" lon="-0.45178">
        <ele>32.9</ele>
        <time>2021-02-23T10:26:01Z</time>
      </trkpt>
      <trkpt lat="49.28768" lon="-0.4518">
        <ele>32.8</ele>
        <time>2021-02-23T10:26:02Z</time>
      </trkpt>
      <trkpt lat="49.28767" lon="-0.45183">
        <ele>32.7</ele>
        <time>2021-02-23T10:26:03Z</time>
      </trkpt>
      <trkpt lat="49.28766" lon="-0.45188">
        <ele>32.5</ele>
        <time>2021-02-23T10:26:05Z</time>
      </trkpt>
      <trkpt lat="49.28766" lon="-0.4519">
        <ele>32.4</ele>
        <time>2021-02-23T10:26:06Z</time>
      </trkpt>
      <trkpt lat="49.28765" lon="-0.45194">
        <ele>32.2</ele>
        <time>2021-02-23T10:26:08Z</time>
      </trkpt>
      <trkpt lat="49.28765" lon="-0.45199">
        <ele>32</ele>
        <time>2021-02-23T10:26:09Z</time>
      </trkpt>
      <trkpt lat="49.28765" lon="-0.45205">
        <ele>31.7</ele>
        <time>2021-02-23T10:26:11Z</time>
      </trkpt>
      <trkpt lat="49.28764" lon="-0.45207">
        <ele>31.6</ele>
        <time>2021-02-23T10:26:12Z</time>
      </trkpt>
      <trkpt lat="49.28763" lon="-0.45212">
        <ele>31.3</ele>
        <time>2021-02-23T10:26:14Z</time>
      </trkpt>
      <trkpt lat="49.28763" lon="-0.45214">
        <ele>31.2</ele>
        <time>2021-02-23T10:26:15Z</time>
      </trkpt>
      <trkpt lat="49.28762" lon="-0.45219">
        <ele>30.9</ele>
        <time>2021-02-23T10:26:17Z</time>
      </trkpt>
      <trkpt lat="49.28762" lon="-0.45221">
        <ele>30.8</ele>
        <time>2021-02-23T10:26:18Z</time>
      </trkpt>
      <trkpt lat="49.28761" lon="-0.45224">
        <ele>30.6</ele>
        <time>2021-02-23T10:26:19Z</time>
      </trkpt>
      <trkpt lat="49.28761" lon="-0.45227">
        <ele>30.4</ele>
        <time>2021-02-23T10:26:21Z</time>
      </trkpt>
      <trkpt lat="49.28761" lon="-0.45231">
        <ele>30.2</ele>
        <time>2021-02-23T10:26:22Z</time>
      </trkpt>
      <trkpt lat="49.2876" lon="-0.45233">
        <ele>30.1</ele>
        <time>2021-02-23T10:26:23Z</time>
      </trkpt>
      <trkpt lat="49.2876" lon="-0.45238">
        <ele>29.9</ele>
        <time>2021-02-23T10:26:25Z</time>
      </trkpt>
      <trkpt lat="49.2876" lon="-0.4524">
        <ele>29.8</ele>
        <time>2021-02-23T10:26:26Z</time>
      </trkpt>
      <trkpt lat="49.2876" lon="-0.45242">
        <ele>29.6</ele>
        <time>2021-02-23T10:26:27Z</time>
      </trkpt>
      <trkpt lat="49.28759" lon="-0.45247">
        <ele>29.4</ele>
        <time>2021-02-23T10:26:29Z</time>
      </trkpt>
      <trkpt lat="49.28759" lon="-0.45254">
        <ele>29</ele>
        <time>2021-02-23T10:26:31Z</time>
      </trkpt>
      <trkpt lat="49.28759" lon="-0.45257">
        <ele>28.9</ele>
        <time>2021-02-23T10:26:32Z</time>
      </trkpt>
      <trkpt lat="49.28759" lon="-0.4526">
        <ele>28.7</ele>
        <time>2021-02-23T10:26:33Z</time>
      </trkpt>
      <trkpt lat="49.28758" lon="-0.45265">
        <ele>28.4</ele>
        <time>2021-02-23T10:26:35Z</time>
      </trkpt>
      <trkpt lat="49.28758" lon="-0.45267">
        <ele>28.3</ele>
        <time>2021-02-23T10:26:36Z</time>
      </trkpt>
      <trkpt lat="49.28759" lon="-0.45275">
        <ele>27.9</ele>
        <time>2021-02-23T10:26:38Z</time>
      </trkpt>
      <trkpt lat="49.28759" lon="-0.45278">
        <ele>27.8</ele>
        <time>2021-02-23T10:26:40Z</time>
      </trkpt>
      <trkpt lat="49.28759" lon="-0.4528">
        <ele>27.7</ele>
        <time>2021-02-23T10:26:41Z</time>
      </trkpt>
      <trkpt lat="49.28759" lon="-0.45286">
        <ele>27.3</ele>
        <time>2021-02-23T10:26:43Z</time>
      </trkpt>
      <trkpt lat="49.28759" lon="-0.45288">
        <ele>27.2</ele>
        <time>2021-02-23T10:26:44Z</time>
      </trkpt>
      <trkpt lat="49.28759" lon="-0.45291">
        <ele>27.1</ele>
        <time>2021-02-23T10:26:45Z</time>
      </trkpt>
      <trkpt lat="49.28759" lon="-0.45295">
        <ele>26.9</ele>
        <time>2021-02-23T10:26:47Z</time>
      </trkpt>
      <trkpt lat="49.28759" lon="-0.45299">
        <ele>26.6</ele>
        <time>2021-02-23T10:26:48Z</time>
      </trkpt>
      <trkpt lat="49.28759" lon="-0.45306">
        <ele>26.2</ele>
        <time>2021-02-23T10:26:50Z</time>
      </trkpt>
      <trkpt lat="49.28759" lon="-0.45308">
        <ele>26.1</ele>
        <time>2021-02-23T10:26:52Z</time>
      </trkpt>
      <trkpt lat="49.28759" lon="-0.45311">
        <ele>25.9</ele>
        <time>2021-02-23T10:26:53Z</time>
      </trkpt>
      <trkpt lat="49.28759" lon="-0.45313">
        <ele>25.8</ele>
        <time>2021-02-23T10:26:54Z</time>
      </trkpt>
      <trkpt lat="49.2876" lon="-0.45316">
        <ele>25.6</ele>
        <time>2021-02-23T10:26:56Z</time>
      </trkpt>
      <trkpt lat="49.2876" lon="-0.45319">
        <ele>25.4</ele>
        <time>2021-02-23T10:26:57Z</time>
      </trkpt>
      <trkpt lat="49.2876" lon="-0.45322">
        <ele>25.2</ele>
        <time>2021-02-23T10:26:59Z</time>
      </trkpt>
      <trkpt lat="49.2876" lon="-0.45329">
        <ele>24.7</ele>
        <time>2021-02-23T10:27:01Z</time>
      </trkpt>
      <trkpt lat="49.2876" lon="-0.45331">
        <ele>24.6</ele>
        <time>2021-02-23T10:27:02Z</time>
      </trkpt>
      <trkpt lat="49.2876" lon="-0.45333">
        <ele>24.4</ele>
        <time>2021-02-23T10:27:03Z</time>
      </trkpt>
      <trkpt lat="49.28761" lon="-0.45336">
        <ele>24.2</ele>
        <time>2021-02-23T10:27:04Z</time>
      </trkpt>
      <trkpt lat="49.28761" lon="-0.4534">
        <ele>23.9</ele>
        <time>2021-02-23T10:27:06Z</time>
      </trkpt>
      <trkpt lat="49.28761" lon="-0.45342">
        <ele>23.8</ele>
        <time>2021-02-23T10:27:07Z</time>
      </trkpt>
      <trkpt lat="49.28762" lon="-0.45345">
        <ele>23.6</ele>
        <time>2021-02-23T10:27:08Z</time>
      </trkpt>
      <trkpt lat="49.28762" lon="-0.45349">
        <ele>23.3</ele>
        <time>2021-02-23T10:27:09Z</time>
      </trkpt>
      <trkpt lat="49.28763" lon="-0.45352">
        <ele>23</ele>
        <time>2021-02-23T10:27:11Z</time>
      </trkpt>
      <trkpt lat="49.28764" lon="-0.45357">
        <ele>22.7</ele>
        <time>2021-02-23T10:27:12Z</time>
      </trkpt>
      <trkpt lat="49.28764" lon="-0.45361">
        <ele>22.4</ele>
        <time>2021-02-23T10:27:14Z</time>
      </trkpt>
      <trkpt lat="49.28765" lon="-0.45364">
        <ele>22.2</ele>
        <time>2021-02-23T10:27:15Z</time>
      </trkpt>
      <trkpt lat="49.28766" lon="-0.45368">
        <ele>21.9</ele>
        <time>2021-02-23T10:27:17Z</time>
      </trkpt>
      <trkpt lat="49.28766" lon="-0.4537">
        <ele>21.8</ele>
        <time>2021-02-23T10:27:18Z</time>
      </trkpt>
      <trkpt lat="49.28767" lon="-0.45372">
        <ele>21.6</ele>
        <time>2021-02-23T10:27:19Z</time>
      </trkpt>
      <trkpt lat="49.28768" lon="-0.45379">
        <ele>21.1</ele>
        <time>2021-02-23T10:27:21Z</time>
      </trkpt>
      <trkpt lat="49.28769" lon="-0.45382">
        <ele>20.9</ele>
        <time>2021-02-23T10:27:23Z</time>
      </trkpt>
      <trkpt lat="49.28769" lon="-0.45385">
        <ele>20.6</ele>
        <time>2021-02-23T10:27:24Z</time>
      </trkpt>
      <trkpt lat="49.2877" lon="-0.45388">
        <ele>20.4</ele>
        <time>2021-02-23T10:27:25Z</time>
      </trkpt>
      <trkpt lat="49.28771" lon="-0.45393">
        <ele>20</ele>
        <time>2021-02-23T10:27:27Z</time>
      </trkpt>
      <trkpt lat="49.28772" lon="-0.45395">
        <ele>19.9</ele>
        <time>2021-02-23T10:27:28Z</time>
      </trkpt>
      <trkpt lat="49.28773" lon="-0.454">
        <ele>19.5</ele>
        <time>2021-02-23T10:27:30Z</time>
      </trkpt>
      <trkpt lat="49.28773" lon="-0.45402">
        <ele>19.4</ele>
        <time>2021-02-23T10:27:31Z</time>
      </trkpt>
      <trkpt lat="49.28775" lon="-0.45407">
        <ele>19</ele>
        <time>2021-02-23T10:27:33Z</time>
      </trkpt>
      <trkpt lat="49.28776" lon="-0.45412">
        <ele>18.7</ele>
        <time>2021-02-23T10:27:34Z</time>
      </trkpt>
      <trkpt lat="49.28776" lon="-0.45417">
        <ele>18.5</ele>
        <time>2021-02-23T10:27:36Z</time>
      </trkpt>
      <trkpt lat="49.28777" lon="-0.45421">
        <ele>18.2</ele>
        <time>2021-02-23T10:27:38Z</time>
      </trkpt>
      <trkpt lat="49.28777" lon="-0.45424">
        <ele>18.1</ele>
        <time>2021-02-23T10:27:39Z</time>
      </trkpt>
      <trkpt lat="49.28778" lon="-0.45426">
        <ele>17.9</ele>
        <time>2021-02-23T10:27:40Z</time>
      </trkpt>
      <trkpt lat="49.28779" lon="-0.4543">
        <ele>17.8</ele>
        <time>2021-02-23T10:27:41Z</time>
      </trkpt>
      <trkpt lat="49.28779" lon="-0.45433">
        <ele>17.6</ele>
        <time>2021-02-23T10:27:43Z</time>
      </trkpt>
      <trkpt lat="49.28779" lon="-0.45438">
        <ele>17.4</ele>
        <time>2021-02-23T10:27:44Z</time>
      </trkpt>
      <trkpt lat="49.28779" lon="-0.45443">
        <ele>17.2</ele>
        <time>2021-02-23T10:27:46Z</time>
      </trkpt>
      <trkpt lat="49.28779" lon="-0.45447">
        <ele>17</ele>
        <time>2021-02-23T10:27:47Z</time>
      </trkpt>
      <trkpt lat="49.28779" lon="-0.45451">
        <ele>16.9</ele>
        <time>2021-02-23T10:27:49Z</time>
      </trkpt>
      <trkpt lat="49.2878" lon="-0.45455">
        <ele>16.7</ele>
        <time>2021-02-23T10:27:50Z</time>
      </trkpt>
      <trkpt lat="49.28781" lon="-0.45459">
        <ele>16.6</ele>
        <time>2021-02-23T10:27:52Z</time>
      </trkpt>
      <trkpt lat="49.28782" lon="-0.45464">
        <ele>16.4</ele>
        <time>2021-02-23T10:27:54Z</time>
      </trkpt>
      <trkpt lat="49.28783" lon="-0.45465">
        <ele>16.3</ele>
        <time>2021-02-23T10:27:55Z</time>
      </trkpt>
      <trkpt lat="49.28784" lon="-0.45468">
        <ele>16.2</ele>
        <time>2021-02-23T10:27:56Z</time>
      </trkpt>
      <trkpt lat="49.28785" lon="-0.45474">
        <ele>16</ele>
        <time>2021-02-23T10:27:58Z</time>
      </trkpt>
      <trkpt lat="49.28786" lon="-0.45476">
        <ele>15.9</ele>
        <time>2021-02-23T10:27:59Z</time>
      </trkpt>
      <trkpt lat="49.28786" lon="-0.45478">
        <ele>15.9</ele>
        <time>2021-02-23T10:28:00Z</time>
      </trkpt>
      <trkpt lat="49.28788" lon="-0.45484">
        <ele>15.6</ele>
        <time>2021-02-23T10:28:02Z</time>
      </trkpt>
      <trkpt lat="49.28789" lon="-0.45486">
        <ele>15.6</ele>
        <time>2021-02-23T10:28:04Z</time>
      </trkpt>
      <trkpt lat="49.2879" lon="-0.45488">
        <ele>15.5</ele>
        <time>2021-02-23T10:28:05Z</time>
      </trkpt>
      <trkpt lat="49.28791" lon="-0.45491">
        <ele>15</ele>
        <time>2021-02-23T10:28:06Z</time>
      </trkpt>
      <trkpt lat="49.28792" lon="-0.45495">
        <ele>15</ele>
        <time>2021-02-23T10:28:07Z</time>
      </trkpt>
      <trkpt lat="49.28792" lon="-0.45496">
        <ele>15</ele>
        <time>2021-02-23T10:28:08Z</time>
      </trkpt>
      <trkpt lat="49.28792" lon="-0.45499">
        <ele>15</ele>
        <time>2021-02-23T10:28:10Z</time>
      </trkpt>
      <trkpt lat="49.28792" lon="-0.45502">
        <ele>15</ele>
        <time>2021-02-23T10:28:11Z</time>
      </trkpt>
      <trkpt lat="49.28792" lon="-0.45506">
        <ele>13.7</ele>
        <time>2021-02-23T10:28:12Z</time>
      </trkpt>
      <trkpt lat="49.28792" lon="-0.45508">
        <ele>13.7</ele>
        <time>2021-02-23T10:28:13Z</time>
      </trkpt>
      <trkpt lat="49.28791" lon="-0.45511">
        <ele>13.7</ele>
        <time>2021-02-23T10:28:15Z</time>
      </trkpt>
      <trkpt lat="49.28791" lon="-0.45512">
        <ele>13.8</ele>
        <time>2021-02-23T10:28:16Z</time>
      </trkpt>
      <trkpt lat="49.2879" lon="-0.45513">
        <ele>13.8</ele>
        <time>2021-02-23T10:28:17Z</time>
      </trkpt>
      <trkpt lat="49.28788" lon="-0.45513">
        <ele>13.8</ele>
        <time>2021-02-23T10:28:18Z</time>
      </trkpt>
      <trkpt lat="49.28786" lon="-0.45513">
        <ele>13.8</ele>
        <time>2021-02-23T10:28:20Z</time>
      </trkpt>
      <trkpt lat="49.28783" lon="-0.45513">
        <ele>13.9</ele>
        <time>2021-02-23T10:28:22Z</time>
      </trkpt>
      <trkpt lat="49.28781" lon="-0.45513">
        <ele>13.9</ele>
        <time>2021-02-23T10:28:23Z</time>
      </trkpt>
      <trkpt lat="49.28778" lon="-0.45514">
        <ele>13.9</ele>
        <time>2021-02-23T10:28:25Z</time>
      </trkpt>
      <trkpt lat="49.28775" lon="-0.45514">
        <ele>14</ele>
        <time>2021-02-23T10:28:26Z</time>
      </trkpt>
      <trkpt lat="49.28774" lon="-0.45514">
        <ele>14</ele>
        <time>2021-02-23T10:28:27Z</time>
      </trkpt>
      <trkpt lat="49.28771" lon="-0.45515">
        <ele>14</ele>
        <time>2021-02-23T10:28:29Z</time>
      </trkpt>
      <trkpt lat="49.2877" lon="-0.45515">
        <ele>14</ele>
        <time>2021-02-23T10:28:30Z</time>
      </trkpt>
      <trkpt lat="49.28768" lon="-0.45515">
        <ele>14</ele>
        <time>2021-02-23T10:28:31Z</time>
      </trkpt>
      <trkpt lat="49.28766" lon="-0.45515">
        <ele>14.1</ele>
        <time>2021-02-23T10:28:33Z</time>
      </trkpt>
      <trkpt lat="49.28763" lon="-0.45515">
        <ele>14.1</ele>
        <time>2021-02-23T10:28:35Z</time>
      </trkpt>
      <trkpt lat="49.28761" lon="-0.45516">
        <ele>14.1</ele>
        <time>2021-02-23T10:28:37Z</time>
      </trkpt>
      <trkpt lat="49.28758" lon="-0.45516">
        <ele>14.1</ele>
        <time>2021-02-23T10:28:39Z</time>
      </trkpt>
      <trkpt lat="49.28755" lon="-0.45517">
        <ele>14.1</ele>
        <time>2021-02-23T10:28:41Z</time>
      </trkpt>
      <trkpt lat="49.28754" lon="-0.45517">
        <ele>14.1</ele>
        <time>2021-02-23T10:28:42Z</time>
      </trkpt>
      <trkpt lat="49.2875" lon="-0.45517">
        <ele>14.2</ele>
        <time>2021-02-23T10:28:44Z</time>
      </trkpt>
      <trkpt lat="49.28747" lon="-0.45518">
        <ele>14.2</ele>
        <time>2021-02-23T10:28:46Z</time>
      </trkpt>
      <trkpt lat="49.28745" lon="-0.45519">
        <ele>14.2</ele>
        <time>2021-02-23T10:28:47Z</time>
      </trkpt>
      <trkpt lat="49.28742" lon="-0.45519">
        <ele>14.2</ele>
        <time>2021-02-23T10:28:49Z</time>
      </trkpt>
      <trkpt lat="49.28739" lon="-0.45519">
        <ele>14.2</ele>
        <time>2021-02-23T10:28:50Z</time>
      </trkpt>
      <trkpt lat="49.28735" lon="-0.45519">
        <ele>14.2</ele>
        <time>2021-02-23T10:28:52Z</time>
      </trkpt>
      <trkpt lat="49.28732" lon="-0.45518">
        <ele>14.2</ele>
        <time>2021-02-23T10:28:53Z</time>
      </trkpt>
      <trkpt lat="49.28731" lon="-0.45518">
        <ele>14.2</ele>
        <time>2021-02-23T10:28:54Z</time>
      </trkpt>
      <trkpt lat="49.28729" lon="-0.45518">
        <ele>14.2</ele>
        <time>2021-02-23T10:28:55Z</time>
      </trkpt>
      <trkpt lat="49.28726" lon="-0.45518">
        <ele>14.1</ele>
        <time>2021-02-23T10:28:57Z</time>
      </trkpt>
      <trkpt lat="49.28724" lon="-0.45517">
        <ele>14.1</ele>
        <time>2021-02-23T10:28:58Z</time>
      </trkpt>
      <trkpt lat="49.28721" lon="-0.45516">
        <ele>14.1</ele>
        <time>2021-02-23T10:29:00Z</time>
      </trkpt>
      <trkpt lat="49.2872" lon="-0.45515">
        <ele>14.1</ele>
        <time>2021-02-23T10:29:01Z</time>
      </trkpt>
      <trkpt lat="49.28718" lon="-0.45514">
        <ele>14.1</ele>
        <time>2021-02-23T10:29:02Z</time>
      </trkpt>
      <trkpt lat="49.28716" lon="-0.45511">
        <ele>14</ele>
        <time>2021-02-23T10:29:04Z</time>
      </trkpt>
      <trkpt lat="49.28715" lon="-0.4551">
        <ele>14</ele>
        <time>2021-02-23T10:29:05Z</time>
      </trkpt>
      <trkpt lat="49.28713" lon="-0.45507">
        <ele>14</ele>
        <time>2021-02-23T10:29:06Z</time>
      </trkpt>
      <trkpt lat="49.28712" lon="-0.45507">
        <ele>14</ele>
        <time>2021-02-23T10:29:07Z</time>
      </trkpt>
      <trkpt lat="49.28709" lon="-0.45504">
        <ele>13.9</ele>
        <time>2021-02-23T10:29:09Z</time>
      </trkpt>
      <trkpt lat="49.28707" lon="-0.45503">
        <ele>13.9</ele>
        <time>2021-02-23T10:29:10Z</time>
      </trkpt>
      <trkpt lat="49.28704" lon="-0.45499">
        <ele>13.8</ele>
        <time>2021-02-23T10:29:12Z</time>
      </trkpt>
      <trkpt lat="49.28701" lon="-0.45497">
        <ele>13.8</ele>
        <time>2021-02-23T10:29:13Z</time>
      </trkpt>
      <trkpt lat="49.28697" lon="-0.45493">
        <ele>13.8</ele>
        <time>2021-02-23T10:29:15Z</time>
      </trkpt>
      <trkpt lat="49.28695" lon="-0.45491">
        <ele>13.7</ele>
        <time>2021-02-23T10:29:16Z</time>
      </trkpt>
      <trkpt lat="49.28691" lon="-0.45487">
        <ele>13.7</ele>
        <time>2021-02-23T10:29:18Z</time>
      </trkpt>
      <trkpt lat="49.2869" lon="-0.45486">
        <ele>13.7</ele>
        <time>2021-02-23T10:29:19Z</time>
      </trkpt>
      <trkpt lat="49.28688" lon="-0.45484">
        <ele>13.7</ele>
        <time>2021-02-23T10:29:20Z</time>
      </trkpt>
      <trkpt lat="49.28685" lon="-0.45481">
        <ele>13.7</ele>
        <time>2021-02-23T10:29:22Z</time>
      </trkpt>
      <trkpt lat="49.28684" lon="-0.4548">
        <ele>13.7</ele>
        <time>2021-02-23T10:29:23Z</time>
      </trkpt>
      <trkpt lat="49.28683" lon="-0.45479">
        <ele>13.7</ele>
        <time>2021-02-23T10:29:24Z</time>
      </trkpt>
      <trkpt lat="49.2868" lon="-0.45477">
        <ele>13.7</ele>
        <time>2021-02-23T10:29:25Z</time>
      </trkpt>
      <trkpt lat="49.28677" lon="-0.45475">
        <ele>13.7</ele>
        <time>2021-02-23T10:29:27Z</time>
      </trkpt>
      <trkpt lat="49.28676" lon="-0.45474">
        <ele>13.7</ele>
        <time>2021-02-23T10:29:28Z</time>
      </trkpt>
      <trkpt lat="49.28674" lon="-0.45473">
        <ele>13.7</ele>
        <time>2021-02-23T10:29:29Z</time>
      </trkpt>
      <trkpt lat="49.28671" lon="-0.45472">
        <ele>13.7</ele>
        <time>2021-02-23T10:29:31Z</time>
      </trkpt>
      <trkpt lat="49.2867" lon="-0.45471">
        <ele>13.7</ele>
        <time>2021-02-23T10:29:32Z</time>
      </trkpt>
      <trkpt lat="49.28668" lon="-0.45471">
        <ele>13.7</ele>
        <time>2021-02-23T10:29:33Z</time>
      </trkpt>
      <trkpt lat="49.28664" lon="-0.45469">
        <ele>13.7</ele>
        <time>2021-02-23T10:29:35Z</time>
      </trkpt>
      <trkpt lat="49.28662" lon="-0.45469">
        <ele>13.7</ele>
        <time>2021-02-23T10:29:37Z</time>
      </trkpt>
      <trkpt lat="49.2866" lon="-0.45468">
        <ele>13.7</ele>
        <time>2021-02-23T10:29:38Z</time>
      </trkpt>
      <trkpt lat="49.28658" lon="-0.45468">
        <ele>13.7</ele>
        <time>2021-02-23T10:29:39Z</time>
      </trkpt>
      <trkpt lat="49.28655" lon="-0.45467">
        <ele>13.7</ele>
        <time>2021-02-23T10:29:41Z</time>
      </trkpt>
      <trkpt lat="49.28654" lon="-0.45467">
        <ele>13.7</ele>
        <time>2021-02-23T10:29:42Z</time>
      </trkpt>
      <trkpt lat="49.28651" lon="-0.45466">
        <ele>13.7</ele>
        <time>2021-02-23T10:29:43Z</time>
      </trkpt>
      <trkpt lat="49.28649" lon="-0.45464">
        <ele>13.7</ele>
        <time>2021-02-23T10:29:45Z</time>
      </trkpt>
      <trkpt lat="49.28646" lon="-0.45463">
        <ele>13.7</ele>
        <time>2021-02-23T10:29:47Z</time>
      </trkpt>
      <trkpt lat="49.28644" lon="-0.45461">
        <ele>13.7</ele>
        <time>2021-02-23T10:29:48Z</time>
      </trkpt>
      <trkpt lat="49.28642" lon="-0.4546">
        <ele>13.7</ele>
        <time>2021-02-23T10:29:50Z</time>
      </trkpt>
      <trkpt lat="49.28639" lon="-0.4546">
        <ele>13.7</ele>
        <time>2021-02-23T10:29:51Z</time>
      </trkpt>
      <trkpt lat="49.28637" lon="-0.45458">
        <ele>13.7</ele>
        <time>2021-02-23T10:29:53Z</time>
      </trkpt>
      <trkpt lat="49.28634" lon="-0.45456">
        <ele>13.6</ele>
        <time>2021-02-23T10:29:54Z</time>
      </trkpt>
      <trkpt lat="49.28633" lon="-0.45455">
        <ele>13.6</ele>
        <time>2021-02-23T10:29:55Z</time>
      </trkpt>
      <trkpt lat="49.28629" lon="-0.45454">
        <ele>13.6</ele>
        <time>2021-02-23T10:29:57Z</time>
      </trkpt>
      <trkpt lat="49.28627" lon="-0.45452">
        <ele>13.6</ele>
        <time>2021-02-23T10:29:58Z</time>
      </trkpt>
      <trkpt lat="49.28625" lon="-0.45451">
        <ele>13.6</ele>
        <time>2021-02-23T10:30:00Z</time>
      </trkpt>
      <trkpt lat="49.28624" lon="-0.4545">
        <ele>13.6</ele>
        <time>2021-02-23T10:30:01Z</time>
      </trkpt>
      <trkpt lat="49.28622" lon="-0.45449">
        <ele>13.6</ele>
        <time>2021-02-23T10:30:02Z</time>
      </trkpt>
      <trkpt lat="49.28619" lon="-0.45447">
        <ele>13.6</ele>
        <time>2021-02-23T10:30:03Z</time>
      </trkpt>
      <trkpt lat="49.28618" lon="-0.45447">
        <ele>13.6</ele>
        <time>2021-02-23T10:30:04Z</time>
      </trkpt>
      <trkpt lat="49.28615" lon="-0.45445">
        <ele>13.6</ele>
        <time>2021-02-23T10:30:06Z</time>
      </trkpt>
      <trkpt lat="49.28614" lon="-0.45443">
        <ele>13.6</ele>
        <time>2021-02-23T10:30:07Z</time>
      </trkpt>
      <trkpt lat="49.28612" lon="-0.45442">
        <ele>13.6</ele>
        <time>2021-02-23T10:30:08Z</time>
      </trkpt>
      <trkpt lat="49.28609" lon="-0.4544">
        <ele>13.6</ele>
        <time>2021-02-23T10:30:10Z</time>
      </trkpt>
      <trkpt lat="49.28608" lon="-0.4544">
        <ele>13.6</ele>
        <time>2021-02-23T10:30:11Z</time>
      </trkpt>
      <trkpt lat="49.28606" lon="-0.45438">
        <ele>13.6</ele>
        <time>2021-02-23T10:30:12Z</time>
      </trkpt>
      <trkpt lat="49.28603" lon="-0.45436">
        <ele>13.6</ele>
        <time>2021-02-23T10:30:14Z</time>
      </trkpt>
      <trkpt lat="49.28602" lon="-0.45435">
        <ele>13.6</ele>
        <time>2021-02-23T10:30:15Z</time>
      </trkpt>
      <trkpt lat="49.286" lon="-0.45434">
        <ele>13.6</ele>
        <time>2021-02-23T10:30:17Z</time>
      </trkpt>
      <trkpt lat="49.28597" lon="-0.45433">
        <ele>13.6</ele>
        <time>2021-02-23T10:30:18Z</time>
      </trkpt>
      <trkpt lat="49.28595" lon="-0.45431">
        <ele>13.7</ele>
        <time>2021-02-23T10:30:20Z</time>
      </trkpt>
      <trkpt lat="49.28593" lon="-0.45429">
        <ele>13.7</ele>
        <time>2021-02-23T10:30:21Z</time>
      </trkpt>
      <trkpt lat="49.28592" lon="-0.45429">
        <ele>13.7</ele>
        <time>2021-02-23T10:30:22Z</time>
      </trkpt>
      <trkpt lat="49.28589" lon="-0.45427">
        <ele>13.7</ele>
        <time>2021-02-23T10:30:24Z</time>
      </trkpt>
      <trkpt lat="49.28587" lon="-0.45426">
        <ele>13.7</ele>
        <time>2021-02-23T10:30:26Z</time>
      </trkpt>
      <trkpt lat="49.28584" lon="-0.45424">
        <ele>13.7</ele>
        <time>2021-02-23T10:30:27Z</time>
      </trkpt>
      <trkpt lat="49.28583" lon="-0.45423">
        <ele>13.7</ele>
        <time>2021-02-23T10:30:28Z</time>
      </trkpt>
      <trkpt lat="49.2858" lon="-0.4542">
        <ele>13.7</ele>
        <time>2021-02-23T10:30:30Z</time>
      </trkpt>
      <trkpt lat="49.28579" lon="-0.45419">
        <ele>13.8</ele>
        <time>2021-02-23T10:30:31Z</time>
      </trkpt>
      <trkpt lat="49.28576" lon="-0.45417">
        <ele>13.8</ele>
        <time>2021-02-23T10:30:33Z</time>
      </trkpt>
      <trkpt lat="49.28575" lon="-0.45416">
        <ele>13.8</ele>
        <time>2021-02-23T10:30:34Z</time>
      </trkpt>
      <trkpt lat="49.28572" lon="-0.45414">
        <ele>13.8</ele>
        <time>2021-02-23T10:30:36Z</time>
      </trkpt>
      <trkpt lat="49.2857" lon="-0.45413">
        <ele>13.8</ele>
        <time>2021-02-23T10:30:37Z</time>
      </trkpt>
      <trkpt lat="49.28569" lon="-0.45412">
        <ele>13.8</ele>
        <time>2021-02-23T10:30:38Z</time>
      </trkpt>
      <trkpt lat="49.28564" lon="-0.45409">
        <ele>13.8</ele>
        <time>2021-02-23T10:30:40Z</time>
      </trkpt>
      <trkpt lat="49.28562" lon="-0.45408">
        <ele>13.8</ele>
        <time>2021-02-23T10:30:41Z</time>
      </trkpt>
      <trkpt lat="49.28561" lon="-0.45408">
        <ele>13.8</ele>
        <time>2021-02-23T10:30:42Z</time>
      </trkpt>
      <trkpt lat="49.28556" lon="-0.45406">
        <ele>13.8</ele>
        <time>2021-02-23T10:30:44Z</time>
      </trkpt>
      <trkpt lat="49.28555" lon="-0.45405">
        <ele>13.8</ele>
        <time>2021-02-23T10:30:46Z</time>
      </trkpt>
      <trkpt lat="49.28553" lon="-0.45404">
        <ele>13.9</ele>
        <time>2021-02-23T10:30:47Z</time>
      </trkpt>
      <trkpt lat="49.2855" lon="-0.45403">
        <ele>13.9</ele>
        <time>2021-02-23T10:30:49Z</time>
      </trkpt>
      <trkpt lat="49.28548" lon="-0.45402">
        <ele>13.9</ele>
        <time>2021-02-23T10:30:50Z</time>
      </trkpt>
      <trkpt lat="49.28545" lon="-0.45401">
        <ele>13.9</ele>
        <time>2021-02-23T10:30:52Z</time>
      </trkpt>
      <trkpt lat="49.28544" lon="-0.454">
        <ele>13.9</ele>
        <time>2021-02-23T10:30:53Z</time>
      </trkpt>
      <trkpt lat="49.28541" lon="-0.45399">
        <ele>14</ele>
        <time>2021-02-23T10:30:54Z</time>
      </trkpt>
      <trkpt lat="49.2854" lon="-0.45398">
        <ele>14</ele>
        <time>2021-02-23T10:30:55Z</time>
      </trkpt>
      <trkpt lat="49.28537" lon="-0.45397">
        <ele>14</ele>
        <time>2021-02-23T10:30:57Z</time>
      </trkpt>
      <trkpt lat="49.28534" lon="-0.45396">
        <ele>14</ele>
        <time>2021-02-23T10:30:59Z</time>
      </trkpt>
      <trkpt lat="49.28532" lon="-0.45394">
        <ele>14</ele>
        <time>2021-02-23T10:31:00Z</time>
      </trkpt>
      <trkpt lat="49.2853" lon="-0.45393">
        <ele>14</ele>
        <time>2021-02-23T10:31:02Z</time>
      </trkpt>
      <trkpt lat="49.28529" lon="-0.45392">
        <ele>14.1</ele>
        <time>2021-02-23T10:31:03Z</time>
      </trkpt>
      <trkpt lat="49.28526" lon="-0.45391">
        <ele>14.1</ele>
        <time>2021-02-23T10:31:04Z</time>
      </trkpt>
      <trkpt lat="49.28525" lon="-0.4539">
        <ele>14.1</ele>
        <time>2021-02-23T10:31:05Z</time>
      </trkpt>
      <trkpt lat="49.28522" lon="-0.45388">
        <ele>14.1</ele>
        <time>2021-02-23T10:31:07Z</time>
      </trkpt>
      <trkpt lat="49.28521" lon="-0.45388">
        <ele>14.1</ele>
        <time>2021-02-23T10:31:08Z</time>
      </trkpt>
      <trkpt lat="49.28518" lon="-0.45385">
        <ele>14.1</ele>
        <time>2021-02-23T10:31:09Z</time>
      </trkpt>
      <trkpt lat="49.28514" lon="-0.45383">
        <ele>14.1</ele>
        <time>2021-02-23T10:31:11Z</time>
      </trkpt>
      <trkpt lat="49.28513" lon="-0.45382">
        <ele>14.2</ele>
        <time>2021-02-23T10:31:12Z</time>
      </trkpt>
      <trkpt lat="49.28512" lon="-0.45381">
        <ele>14.2</ele>
        <time>2021-02-23T10:31:13Z</time>
      </trkpt>
      <trkpt lat="49.28509" lon="-0.4538">
        <ele>14.2</ele>
        <time>2021-02-23T10:31:15Z</time>
      </trkpt>
      <trkpt lat="49.28508" lon="-0.45378">
        <ele>14.2</ele>
        <time>2021-02-23T10:31:16Z</time>
      </trkpt>
      <trkpt lat="49.28506" lon="-0.45378">
        <ele>14.2</ele>
        <time>2021-02-23T10:31:17Z</time>
      </trkpt>
      <trkpt lat="49.28504" lon="-0.45377">
        <ele>14.2</ele>
        <time>2021-02-23T10:31:18Z</time>
      </trkpt>
      <trkpt lat="49.28502" lon="-0.45376">
        <ele>14.2</ele>
        <time>2021-02-23T10:31:20Z</time>
      </trkpt>
      <trkpt lat="49.28499" lon="-0.45375">
        <ele>14.2</ele>
        <time>2021-02-23T10:31:21Z</time>
      </trkpt>
      <trkpt lat="49.28497" lon="-0.45375">
        <ele>14.2</ele>
        <time>2021-02-23T10:31:22Z</time>
      </trkpt>
      <trkpt lat="49.28495" lon="-0.45375">
        <ele>14.3</ele>
        <time>2021-02-23T10:31:24Z</time>
      </trkpt>
      <trkpt lat="49.28493" lon="-0.45375">
        <ele>14.3</ele>
        <time>2021-02-23T10:31:25Z</time>
      </trkpt>
      <trkpt lat="49.28492" lon="-0.45375">
        <ele>14.3</ele>
        <time>2021-02-23T10:31:26Z</time>
      </trkpt>
      <trkpt lat="49.2849" lon="-0.45375">
        <ele>14.3</ele>
        <time>2021-02-23T10:31:27Z</time>
      </trkpt>
      <trkpt lat="49.28489" lon="-0.45374">
        <ele>14.4</ele>
        <time>2021-02-23T10:31:28Z</time>
      </trkpt>
      <trkpt lat="49.28488" lon="-0.45371">
        <ele>14.4</ele>
        <time>2021-02-23T10:31:30Z</time>
      </trkpt>
      <trkpt lat="49.28488" lon="-0.45369">
        <ele>14.4</ele>
        <time>2021-02-23T10:31:31Z</time>
      </trkpt>
      <trkpt lat="49.28488" lon="-0.45367">
        <ele>14.4</ele>
        <time>2021-02-23T10:31:32Z</time>
      </trkpt>
      <trkpt lat="49.28488" lon="-0.45364">
        <ele>14.4</ele>
        <time>2021-02-23T10:31:33Z</time>
      </trkpt>
      <trkpt lat="49.28488" lon="-0.45362">
        <ele>14.5</ele>
        <time>2021-02-23T10:31:34Z</time>
      </trkpt>
      <trkpt lat="49.28488" lon="-0.4536">
        <ele>14.5</ele>
        <time>2021-02-23T10:31:36Z</time>
      </trkpt>
      <trkpt lat="49.28488" lon="-0.45356">
        <ele>14.5</ele>
        <time>2021-02-23T10:31:38Z</time>
      </trkpt>
      <trkpt lat="49.28489" lon="-0.45354">
        <ele>14.6</ele>
        <time>2021-02-23T10:31:39Z</time>
      </trkpt>
      <trkpt lat="49.28489" lon="-0.45352">
        <ele>14.6</ele>
        <time>2021-02-23T10:31:41Z</time>
      </trkpt>
      <trkpt lat="49.28487" lon="-0.45349">
        <ele>14.6</ele>
        <time>2021-02-23T10:31:43Z</time>
      </trkpt>
      <trkpt lat="49.28487" lon="-0.45348">
        <ele>14.6</ele>
        <time>2021-02-23T10:31:44Z</time>
      </trkpt>
      <trkpt lat="49.28487" lon="-0.45347">
        <ele>14.6</ele>
        <time>2021-02-23T10:31:45Z</time>
      </trkpt>
      <trkpt lat="49.28488" lon="-0.45347">
        <ele>14.7</ele>
        <time>2021-02-23T10:31:47Z</time>
      </trkpt>
      <trkpt lat="49.28488" lon="-0.45346">
        <ele>14.7</ele>
        <time>2021-02-23T10:31:48Z</time>
      </trkpt>
      <trkpt lat="49.28489" lon="-0.45348">
        <ele>14.7</ele>
        <time>2021-02-23T10:31:50Z</time>
      </trkpt>
      <trkpt lat="49.2849" lon="-0.45349">
        <ele>14.7</ele>
        <time>2021-02-23T10:31:51Z</time>
      </trkpt>
      <trkpt lat="49.28489" lon="-0.4535">
        <ele>14.7</ele>
        <time>2021-02-23T10:31:52Z</time>
      </trkpt>
      <trkpt lat="49.28489" lon="-0.45352">
        <ele>14.7</ele>
        <time>2021-02-23T10:31:53Z</time>
      </trkpt>
      <trkpt lat="49.28489" lon="-0.45353">
        <ele>14.8</ele>
        <time>2021-02-23T10:31:54Z</time>
      </trkpt>
      <trkpt lat="49.28488" lon="-0.45359">
        <ele>14.8</ele>
        <time>2021-02-23T10:31:56Z</time>
      </trkpt>
      <trkpt lat="49.28488" lon="-0.45361">
        <ele>14.8</ele>
        <time>2021-02-23T10:31:57Z</time>
      </trkpt>
      <trkpt lat="49.28487" lon="-0.45364">
        <ele>14.9</ele>
        <time>2021-02-23T10:31:58Z</time>
      </trkpt>
      <trkpt lat="49.28487" lon="-0.45366">
        <ele>14.9</ele>
        <time>2021-02-23T10:31:59Z</time>
      </trkpt>
      <trkpt lat="49.28485" lon="-0.45371">
        <ele>15</ele>
        <time>2021-02-23T10:32:01Z</time>
      </trkpt>
      <trkpt lat="49.28485" lon="-0.45372">
        <ele>15</ele>
        <time>2021-02-23T10:32:03Z</time>
      </trkpt>
      <trkpt lat="49.28484" lon="-0.45373">
        <ele>15</ele>
        <time>2021-02-23T10:32:04Z</time>
      </trkpt>
      <trkpt lat="49.28484" lon="-0.45375">
        <ele>15</ele>
        <time>2021-02-23T10:32:05Z</time>
      </trkpt>
      <trkpt lat="49.28484" lon="-0.45378">
        <ele>15</ele>
        <time>2021-02-23T10:32:07Z</time>
      </trkpt>
      <trkpt lat="49.28483" lon="-0.4538">
        <ele>15</ele>
        <time>2021-02-23T10:32:08Z</time>
      </trkpt>
      <trkpt lat="49.28483" lon="-0.45381">
        <ele>15</ele>
        <time>2021-02-23T10:32:09Z</time>
      </trkpt>
      <trkpt lat="49.28481" lon="-0.45384">
        <ele>15.1</ele>
        <time>2021-02-23T10:32:10Z</time>
      </trkpt>
      <trkpt lat="49.28479" lon="-0.45388">
        <ele>15.1</ele>
        <time>2021-02-23T10:32:12Z</time>
      </trkpt>
      <trkpt lat="49.28476" lon="-0.45393">
        <ele>15.2</ele>
        <time>2021-02-23T10:32:14Z</time>
      </trkpt>
      <trkpt lat="49.28473" lon="-0.45397">
        <ele>15.2</ele>
        <time>2021-02-23T10:32:15Z</time>
      </trkpt>
      <trkpt lat="49.28472" lon="-0.45399">
        <ele>15.2</ele>
        <time>2021-02-23T10:32:16Z</time>
      </trkpt>
      <trkpt lat="49.28469" lon="-0.45402">
        <ele>15.3</ele>
        <time>2021-02-23T10:32:18Z</time>
      </trkpt>
      <trkpt lat="49.28466" lon="-0.45405">
        <ele>15.3</ele>
        <time>2021-02-23T10:32:19Z</time>
      </trkpt>
      <trkpt lat="49.28463" lon="-0.4541">
        <ele>15.4</ele>
        <time>2021-02-23T10:32:21Z</time>
      </trkpt>
      <trkpt lat="49.28462" lon="-0.45412">
        <ele>15.4</ele>
        <time>2021-02-23T10:32:22Z</time>
      </trkpt>
      <trkpt lat="49.2846" lon="-0.45413">
        <ele>15.4</ele>
        <time>2021-02-23T10:32:23Z</time>
      </trkpt>
      <trkpt lat="49.28457" lon="-0.45414">
        <ele>15.4</ele>
        <time>2021-02-23T10:32:25Z</time>
      </trkpt>
      <trkpt lat="49.28455" lon="-0.45416">
        <ele>15.5</ele>
        <time>2021-02-23T10:32:27Z</time>
      </trkpt>
      <trkpt lat="49.28453" lon="-0.45417">
        <ele>15.5</ele>
        <time>2021-02-23T10:32:28Z</time>
      </trkpt>
      <trkpt lat="49.28452" lon="-0.45418">
        <ele>15.5</ele>
        <time>2021-02-23T10:32:29Z</time>
      </trkpt>
      <trkpt lat="49.2845" lon="-0.45419">
        <ele>15.6</ele>
        <time>2021-02-23T10:32:31Z</time>
      </trkpt>
      <trkpt lat="49.28447" lon="-0.45421">
        <ele>15.6</ele>
        <time>2021-02-23T10:32:33Z</time>
      </trkpt>
      <trkpt lat="49.28445" lon="-0.45423">
        <ele>15.7</ele>
        <time>2021-02-23T10:32:34Z</time>
      </trkpt>
      <trkpt lat="49.28442" lon="-0.45425">
        <ele>15.7</ele>
        <time>2021-02-23T10:32:36Z</time>
      </trkpt>
      <trkpt lat="49.2844" lon="-0.45426">
        <ele>15.8</ele>
        <time>2021-02-23T10:32:37Z</time>
      </trkpt>
      <trkpt lat="49.28439" lon="-0.45426">
        <ele>15.8</ele>
        <time>2021-02-23T10:32:38Z</time>
      </trkpt>
      <trkpt lat="49.28436" lon="-0.45428">
        <ele>15.9</ele>
        <time>2021-02-23T10:32:39Z</time>
      </trkpt>
      <trkpt lat="49.28431" lon="-0.45429">
        <ele>16</ele>
        <time>2021-02-23T10:32:41Z</time>
      </trkpt>
      <trkpt lat="49.2843" lon="-0.45429">
        <ele>16</ele>
        <time>2021-02-23T10:32:42Z</time>
      </trkpt>
      <trkpt lat="49.28428" lon="-0.45429">
        <ele>16.1</ele>
        <time>2021-02-23T10:32:43Z</time>
      </trkpt>
      <trkpt lat="49.28426" lon="-0.45428">
        <ele>16.1</ele>
        <time>2021-02-23T10:32:45Z</time>
      </trkpt>
      <trkpt lat="49.28425" lon="-0.45426">
        <ele>16.1</ele>
        <time>2021-02-23T10:32:46Z</time>
      </trkpt>
      <trkpt lat="49.28424" lon="-0.45425">
        <ele>16.2</ele>
        <time>2021-02-23T10:32:48Z</time>
      </trkpt>
      <trkpt lat="49.28423" lon="-0.45423">
        <ele>16.2</ele>
        <time>2021-02-23T10:32:49Z</time>
      </trkpt>
      <trkpt lat="49.28421" lon="-0.45421">
        <ele>16.2</ele>
        <time>2021-02-23T10:32:50Z</time>
      </trkpt>
      <trkpt lat="49.28419" lon="-0.45419">
        <ele>16.3</ele>
        <time>2021-02-23T10:32:52Z</time>
      </trkpt>
      <trkpt lat="49.28417" lon="-0.45418">
        <ele>16.3</ele>
        <time>2021-02-23T10:32:53Z</time>
      </trkpt>
      <trkpt lat="49.28416" lon="-0.45418">
        <ele>16.3</ele>
        <time>2021-02-23T10:32:54Z</time>
      </trkpt>
      <trkpt lat="49.28414" lon="-0.45416">
        <ele>16.3</ele>
        <time>2021-02-23T10:32:55Z</time>
      </trkpt>
      <trkpt lat="49.28413" lon="-0.45415">
        <ele>16.3</ele>
        <time>2021-02-23T10:32:57Z</time>
      </trkpt>
      <trkpt lat="49.28411" lon="-0.45414">
        <ele>16.4</ele>
        <time>2021-02-23T10:32:58Z</time>
      </trkpt>
      <trkpt lat="49.28408" lon="-0.45414">
        <ele>16.4</ele>
        <time>2021-02-23T10:33:00Z</time>
      </trkpt>
      <trkpt lat="49.28404" lon="-0.45412">
        <ele>16.5</ele>
        <time>2021-02-23T10:33:01Z</time>
      </trkpt>
      <trkpt lat="49.284" lon="-0.45408">
        <ele>16.5</ele>
        <time>2021-02-23T10:33:03Z</time>
      </trkpt>
      <trkpt lat="49.28398" lon="-0.45407">
        <ele>16.6</ele>
        <time>2021-02-23T10:33:04Z</time>
      </trkpt>
      <trkpt lat="49.28397" lon="-0.45406">
        <ele>16.6</ele>
        <time>2021-02-23T10:33:05Z</time>
      </trkpt>
      <trkpt lat="49.28394" lon="-0.45403">
        <ele>16.6</ele>
        <time>2021-02-23T10:33:06Z</time>
      </trkpt>
      <trkpt lat="49.28393" lon="-0.45402">
        <ele>16.7</ele>
        <time>2021-02-23T10:33:07Z</time>
      </trkpt>
      <trkpt lat="49.28389" lon="-0.45399">
        <ele>16.7</ele>
        <time>2021-02-23T10:33:09Z</time>
      </trkpt>
      <trkpt lat="49.28388" lon="-0.45398">
        <ele>16.7</ele>
        <time>2021-02-23T10:33:10Z</time>
      </trkpt>
      <trkpt lat="49.28386" lon="-0.45395">
        <ele>16.8</ele>
        <time>2021-02-23T10:33:11Z</time>
      </trkpt>
      <trkpt lat="49.28384" lon="-0.45394">
        <ele>16.8</ele>
        <time>2021-02-23T10:33:12Z</time>
      </trkpt>
      <trkpt lat="49.28381" lon="-0.45392">
        <ele>16.8</ele>
        <time>2021-02-23T10:33:14Z</time>
      </trkpt>
      <trkpt lat="49.2838" lon="-0.45391">
        <ele>16.8</ele>
        <time>2021-02-23T10:33:15Z</time>
      </trkpt>
      <trkpt lat="49.28377" lon="-0.45389">
        <ele>16.9</ele>
        <time>2021-02-23T10:33:17Z</time>
      </trkpt>
      <trkpt lat="49.28376" lon="-0.45388">
        <ele>16.9</ele>
        <time>2021-02-23T10:33:18Z</time>
      </trkpt>
      <trkpt lat="49.28375" lon="-0.45387">
        <ele>16.9</ele>
        <time>2021-02-23T10:33:19Z</time>
      </trkpt>
      <trkpt lat="49.28373" lon="-0.45386">
        <ele>16.9</ele>
        <time>2021-02-23T10:33:20Z</time>
      </trkpt>
      <trkpt lat="49.28371" lon="-0.45384">
        <ele>16.9</ele>
        <time>2021-02-23T10:33:22Z</time>
      </trkpt>
      <trkpt lat="49.28368" lon="-0.45382">
        <ele>16.9</ele>
        <time>2021-02-23T10:33:23Z</time>
      </trkpt>
      <trkpt lat="49.28367" lon="-0.45381">
        <ele>16.9</ele>
        <time>2021-02-23T10:33:24Z</time>
      </trkpt>
      <trkpt lat="49.28365" lon="-0.4538">
        <ele>17</ele>
        <time>2021-02-23T10:33:26Z</time>
      </trkpt>
      <trkpt lat="49.28364" lon="-0.45379">
        <ele>17</ele>
        <time>2021-02-23T10:33:27Z</time>
      </trkpt>
      <trkpt lat="49.28362" lon="-0.45378">
        <ele>17</ele>
        <time>2021-02-23T10:33:28Z</time>
      </trkpt>
      <trkpt lat="49.28361" lon="-0.45376">
        <ele>17</ele>
        <time>2021-02-23T10:33:29Z</time>
      </trkpt>
      <trkpt lat="49.28357" lon="-0.45374">
        <ele>17</ele>
        <time>2021-02-23T10:33:31Z</time>
      </trkpt>
      <trkpt lat="49.28356" lon="-0.45373">
        <ele>17</ele>
        <time>2021-02-23T10:33:32Z</time>
      </trkpt>
      <trkpt lat="49.28353" lon="-0.45371">
        <ele>17</ele>
        <time>2021-02-23T10:33:34Z</time>
      </trkpt>
      <trkpt lat="49.28351" lon="-0.45369">
        <ele>17.1</ele>
        <time>2021-02-23T10:33:36Z</time>
      </trkpt>
      <trkpt lat="49.28349" lon="-0.45368">
        <ele>17.1</ele>
        <time>2021-02-23T10:33:37Z</time>
      </trkpt>
      <trkpt lat="49.28346" lon="-0.45367">
        <ele>17.1</ele>
        <time>2021-02-23T10:33:39Z</time>
      </trkpt>
      <trkpt lat="49.28343" lon="-0.45365">
        <ele>17.1</ele>
        <time>2021-02-23T10:33:40Z</time>
      </trkpt>
      <trkpt lat="49.28342" lon="-0.45365">
        <ele>17.1</ele>
        <time>2021-02-23T10:33:41Z</time>
      </trkpt>
      <trkpt lat="49.28338" lon="-0.45363">
        <ele>17.2</ele>
        <time>2021-02-23T10:33:42Z</time>
      </trkpt>
      <trkpt lat="49.28338" lon="-0.45363">
        <ele>17.2</ele>
        <time>2021-02-23T10:33:43Z</time>
      </trkpt>
      <trkpt lat="49.28336" lon="-0.45362">
        <ele>17.2</ele>
        <time>2021-02-23T10:33:45Z</time>
      </trkpt>
      <trkpt lat="49.28334" lon="-0.45361">
        <ele>17.2</ele>
        <time>2021-02-23T10:33:46Z</time>
      </trkpt>
      <trkpt lat="49.28331" lon="-0.4536">
        <ele>17.2</ele>
        <time>2021-02-23T10:33:47Z</time>
      </trkpt>
      <trkpt lat="49.2833" lon="-0.4536">
        <ele>17.2</ele>
        <time>2021-02-23T10:33:48Z</time>
      </trkpt>
      <trkpt lat="49.28327" lon="-0.45358">
        <ele>17.2</ele>
        <time>2021-02-23T10:33:50Z</time>
      </trkpt>
      <trkpt lat="49.28327" lon="-0.45357">
        <ele>17.2</ele>
        <time>2021-02-23T10:33:51Z</time>
      </trkpt>
      <trkpt lat="49.28323" lon="-0.45355">
        <ele>17.2</ele>
        <time>2021-02-23T10:33:53Z</time>
      </trkpt>
      <trkpt lat="49.28323" lon="-0.45355">
        <ele>17.2</ele>
        <time>2021-02-23T10:33:54Z</time>
      </trkpt>
      <trkpt lat="49.2832" lon="-0.45353">
        <ele>17.2</ele>
        <time>2021-02-23T10:33:56Z</time>
      </trkpt>
      <trkpt lat="49.28319" lon="-0.45352">
        <ele>17.2</ele>
        <time>2021-02-23T10:33:57Z</time>
      </trkpt>
      <trkpt lat="49.28316" lon="-0.4535">
        <ele>17.2</ele>
        <time>2021-02-23T10:33:58Z</time>
      </trkpt>
      <trkpt lat="49.28316" lon="-0.45349">
        <ele>17.2</ele>
        <time>2021-02-23T10:33:59Z</time>
      </trkpt>
      <trkpt lat="49.28313" lon="-0.45348">
        <ele>17.2</ele>
        <time>2021-02-23T10:34:00Z</time>
      </trkpt>
      <trkpt lat="49.28311" lon="-0.45346">
        <ele>17.2</ele>
        <time>2021-02-23T10:34:02Z</time>
      </trkpt>
      <trkpt lat="49.28307" lon="-0.45343">
        <ele>17.2</ele>
        <time>2021-02-23T10:34:04Z</time>
      </trkpt>
      <trkpt lat="49.28306" lon="-0.45342">
        <ele>17.2</ele>
        <time>2021-02-23T10:34:05Z</time>
      </trkpt>
      <trkpt lat="49.28303" lon="-0.4534">
        <ele>17.2</ele>
        <time>2021-02-23T10:34:07Z</time>
      </trkpt>
      <trkpt lat="49.28302" lon="-0.4534">
        <ele>17.2</ele>
        <time>2021-02-23T10:34:08Z</time>
      </trkpt>
      <trkpt lat="49.28301" lon="-0.45339">
        <ele>17.2</ele>
        <time>2021-02-23T10:34:09Z</time>
      </trkpt>
      <trkpt lat="49.28298" lon="-0.45338">
        <ele>17.2</ele>
        <time>2021-02-23T10:34:11Z</time>
      </trkpt>
      <trkpt lat="49.28296" lon="-0.45338">
        <ele>17.2</ele>
        <time>2021-02-23T10:34:13Z</time>
      </trkpt>
      <trkpt lat="49.28295" lon="-0.45338">
        <ele>17.2</ele>
        <time>2021-02-23T10:34:14Z</time>
      </trkpt>
      <trkpt lat="49.28292" lon="-0.45337">
        <ele>17.3</ele>
        <time>2021-02-23T10:34:16Z</time>
      </trkpt>
      <trkpt lat="49.28291" lon="-0.45337">
        <ele>17.3</ele>
        <time>2021-02-23T10:34:17Z</time>
      </trkpt>
      <trkpt lat="49.28288" lon="-0.45336">
        <ele>17.3</ele>
        <time>2021-02-23T10:34:19Z</time>
      </trkpt>
      <trkpt lat="49.28287" lon="-0.45335">
        <ele>17.3</ele>
        <time>2021-02-23T10:34:20Z</time>
      </trkpt>
      <trkpt lat="49.28284" lon="-0.45334">
        <ele>17.3</ele>
        <time>2021-02-23T10:34:22Z</time>
      </trkpt>
      <trkpt lat="49.28281" lon="-0.45333">
        <ele>17.3</ele>
        <time>2021-02-23T10:34:24Z</time>
      </trkpt>
      <trkpt lat="49.2828" lon="-0.45333">
        <ele>17.3</ele>
        <time>2021-02-23T10:34:25Z</time>
      </trkpt>
      <trkpt lat="49.28277" lon="-0.45333">
        <ele>17.3</ele>
        <time>2021-02-23T10:34:27Z</time>
      </trkpt>
      <trkpt lat="49.28275" lon="-0.45332">
        <ele>17.3</ele>
        <time>2021-02-23T10:34:28Z</time>
      </trkpt>
      <trkpt lat="49.28274" lon="-0.45332">
        <ele>17.3</ele>
        <time>2021-02-23T10:34:29Z</time>
      </trkpt>
      <trkpt lat="49.28271" lon="-0.45332">
        <ele>17.3</ele>
        <time>2021-02-23T10:34:31Z</time>
      </trkpt>
      <trkpt lat="49.28269" lon="-0.45332">
        <ele>17.3</ele>
        <time>2021-02-23T10:34:32Z</time>
      </trkpt>
      <trkpt lat="49.28266" lon="-0.45333">
        <ele>17.3</ele>
        <time>2021-02-23T10:34:34Z</time>
      </trkpt>
      <trkpt lat="49.28263" lon="-0.45334">
        <ele>17.3</ele>
        <time>2021-02-23T10:34:36Z</time>
      </trkpt>
      <trkpt lat="49.28259" lon="-0.45336">
        <ele>17.3</ele>
        <time>2021-02-23T10:34:38Z</time>
      </trkpt>
      <trkpt lat="49.28255" lon="-0.45337">
        <ele>17.3</ele>
        <time>2021-02-23T10:34:39Z</time>
      </trkpt>
      <trkpt lat="49.28254" lon="-0.45338">
        <ele>17.3</ele>
        <time>2021-02-23T10:34:40Z</time>
      </trkpt>
      <trkpt lat="49.28252" lon="-0.45338">
        <ele>17.3</ele>
        <time>2021-02-23T10:34:41Z</time>
      </trkpt>
      <trkpt lat="49.28251" lon="-0.45338">
        <ele>17.3</ele>
        <time>2021-02-23T10:34:42Z</time>
      </trkpt>
      <trkpt lat="49.28248" lon="-0.45339">
        <ele>17.3</ele>
        <time>2021-02-23T10:34:44Z</time>
      </trkpt>
      <trkpt lat="49.28247" lon="-0.45339">
        <ele>17.3</ele>
        <time>2021-02-23T10:34:45Z</time>
      </trkpt>
      <trkpt lat="49.28247" lon="-0.45339">
        <ele>17.3</ele>
        <time>2021-02-23T10:34:46Z</time>
      </trkpt>
      <trkpt lat="49.28244" lon="-0.4534">
        <ele>17.3</ele>
        <time>2021-02-23T10:34:48Z</time>
      </trkpt>
      <trkpt lat="49.28242" lon="-0.45341">
        <ele>17.3</ele>
        <time>2021-02-23T10:34:50Z</time>
      </trkpt>
      <trkpt lat="49.28241" lon="-0.45341">
        <ele>17.3</ele>
        <time>2021-02-23T10:34:51Z</time>
      </trkpt>
      <trkpt lat="49.28239" lon="-0.45342">
        <ele>17.3</ele>
        <time>2021-02-23T10:34:52Z</time>
      </trkpt>
      <trkpt lat="49.28237" lon="-0.45342">
        <ele>17.3</ele>
        <time>2021-02-23T10:34:54Z</time>
      </trkpt>
      <trkpt lat="49.28235" lon="-0.45344">
        <ele>17.3</ele>
        <time>2021-02-23T10:34:55Z</time>
      </trkpt>
      <trkpt lat="49.28231" lon="-0.45347">
        <ele>17.3</ele>
        <time>2021-02-23T10:34:57Z</time>
      </trkpt>
      <trkpt lat="49.28228" lon="-0.45349">
        <ele>17.3</ele>
        <time>2021-02-23T10:34:58Z</time>
      </trkpt>
      <trkpt lat="49.28224" lon="-0.45352">
        <ele>17.3</ele>
        <time>2021-02-23T10:35:00Z</time>
      </trkpt>
      <trkpt lat="49.28223" lon="-0.45352">
        <ele>17.3</ele>
        <time>2021-02-23T10:35:01Z</time>
      </trkpt>
      <trkpt lat="49.28222" lon="-0.45353">
        <ele>17.3</ele>
        <time>2021-02-23T10:35:02Z</time>
      </trkpt>
      <trkpt lat="49.2822" lon="-0.45354">
        <ele>17.3</ele>
        <time>2021-02-23T10:35:03Z</time>
      </trkpt>
      <trkpt lat="49.28219" lon="-0.45355">
        <ele>17.3</ele>
        <time>2021-02-23T10:35:04Z</time>
      </trkpt>
      <trkpt lat="49.28217" lon="-0.45356">
        <ele>17.3</ele>
        <time>2021-02-23T10:35:05Z</time>
      </trkpt>
      <trkpt lat="49.28214" lon="-0.45357">
        <ele>17.3</ele>
        <time>2021-02-23T10:35:07Z</time>
      </trkpt>
      <trkpt lat="49.28211" lon="-0.45358">
        <ele>17.3</ele>
        <time>2021-02-23T10:35:08Z</time>
      </trkpt>
      <trkpt lat="49.28207" lon="-0.45359">
        <ele>17.3</ele>
        <time>2021-02-23T10:35:10Z</time>
      </trkpt>
      <trkpt lat="49.28205" lon="-0.4536">
        <ele>17.3</ele>
        <time>2021-02-23T10:35:11Z</time>
      </trkpt>
      <trkpt lat="49.28202" lon="-0.45361">
        <ele>17.3</ele>
        <time>2021-02-23T10:35:13Z</time>
      </trkpt>
      <trkpt lat="49.28201" lon="-0.45361">
        <ele>17.3</ele>
        <time>2021-02-23T10:35:14Z</time>
      </trkpt>
      <trkpt lat="49.28198" lon="-0.45363">
        <ele>17.3</ele>
        <time>2021-02-23T10:35:16Z</time>
      </trkpt>
      <trkpt lat="49.28197" lon="-0.45364">
        <ele>17.3</ele>
        <time>2021-02-23T10:35:17Z</time>
      </trkpt>
      <trkpt lat="49.28193" lon="-0.45366">
        <ele>17.4</ele>
        <time>2021-02-23T10:35:19Z</time>
      </trkpt>
      <trkpt lat="49.2819" lon="-0.45368">
        <ele>17.4</ele>
        <time>2021-02-23T10:35:20Z</time>
      </trkpt>
      <trkpt lat="49.28187" lon="-0.4537">
        <ele>17.4</ele>
        <time>2021-02-23T10:35:22Z</time>
      </trkpt>
      <trkpt lat="49.28185" lon="-0.45371">
        <ele>17.5</ele>
        <time>2021-02-23T10:35:23Z</time>
      </trkpt>
      <trkpt lat="49.28182" lon="-0.45372">
        <ele>17.5</ele>
        <time>2021-02-23T10:35:25Z</time>
      </trkpt>
      <trkpt lat="49.28179" lon="-0.45373">
        <ele>17.5</ele>
        <time>2021-02-23T10:35:26Z</time>
      </trkpt>
      <trkpt lat="49.28177" lon="-0.45373">
        <ele>17.6</ele>
        <time>2021-02-23T10:35:28Z</time>
      </trkpt>
      <trkpt lat="49.28176" lon="-0.45374">
        <ele>17.6</ele>
        <time>2021-02-23T10:35:29Z</time>
      </trkpt>
      <trkpt lat="49.28174" lon="-0.45375">
        <ele>17.6</ele>
        <time>2021-02-23T10:35:30Z</time>
      </trkpt>
      <trkpt lat="49.28172" lon="-0.45375">
        <ele>17.7</ele>
        <time>2021-02-23T10:35:32Z</time>
      </trkpt>
      <trkpt lat="49.2817" lon="-0.45375">
        <ele>17.7</ele>
        <time>2021-02-23T10:35:33Z</time>
      </trkpt>
      <trkpt lat="49.28168" lon="-0.45376">
        <ele>17.7</ele>
        <time>2021-02-23T10:35:34Z</time>
      </trkpt>
      <trkpt lat="49.28165" lon="-0.45376">
        <ele>17.8</ele>
        <time>2021-02-23T10:35:35Z</time>
      </trkpt>
      <trkpt lat="49.28164" lon="-0.45376">
        <ele>17.8</ele>
        <time>2021-02-23T10:35:36Z</time>
      </trkpt>
      <trkpt lat="49.2816" lon="-0.45376">
        <ele>17.9</ele>
        <time>2021-02-23T10:35:38Z</time>
      </trkpt>
      <trkpt lat="49.28159" lon="-0.45377">
        <ele>17.9</ele>
        <time>2021-02-23T10:35:39Z</time>
      </trkpt>
      <trkpt lat="49.28158" lon="-0.45377">
        <ele>18</ele>
        <time>2021-02-23T10:35:40Z</time>
      </trkpt>
      <trkpt lat="49.28155" lon="-0.45377">
        <ele>18.1</ele>
        <time>2021-02-23T10:35:41Z</time>
      </trkpt>
      <trkpt lat="49.28153" lon="-0.45377">
        <ele>18.1</ele>
        <time>2021-02-23T10:35:43Z</time>
      </trkpt>
      <trkpt lat="49.28151" lon="-0.45377">
        <ele>18.2</ele>
        <time>2021-02-23T10:35:44Z</time>
      </trkpt>
      <trkpt lat="49.28148" lon="-0.45377">
        <ele>18.3</ele>
        <time>2021-02-23T10:35:45Z</time>
      </trkpt>
      <trkpt lat="49.28147" lon="-0.45377">
        <ele>18.3</ele>
        <time>2021-02-23T10:35:46Z</time>
      </trkpt>
      <trkpt lat="49.28143" lon="-0.45377">
        <ele>18.4</ele>
        <time>2021-02-23T10:35:48Z</time>
      </trkpt>
      <trkpt lat="49.28142" lon="-0.45378">
        <ele>18.4</ele>
        <time>2021-02-23T10:35:49Z</time>
      </trkpt>
      <trkpt lat="49.28139" lon="-0.45377">
        <ele>18.5</ele>
        <time>2021-02-23T10:35:51Z</time>
      </trkpt>
      <trkpt lat="49.28138" lon="-0.45377">
        <ele>18.5</ele>
        <time>2021-02-23T10:35:52Z</time>
      </trkpt>
      <trkpt lat="49.28135" lon="-0.45377">
        <ele>18.6</ele>
        <time>2021-02-23T10:35:53Z</time>
      </trkpt>
      <trkpt lat="49.28134" lon="-0.45377">
        <ele>18.6</ele>
        <time>2021-02-23T10:35:54Z</time>
      </trkpt>
      <trkpt lat="49.28132" lon="-0.45377">
        <ele>18.7</ele>
        <time>2021-02-23T10:35:56Z</time>
      </trkpt>
      <trkpt lat="49.28131" lon="-0.45377">
        <ele>18.7</ele>
        <time>2021-02-23T10:35:57Z</time>
      </trkpt>
      <trkpt lat="49.28128" lon="-0.45376">
        <ele>18.7</ele>
        <time>2021-02-23T10:35:58Z</time>
      </trkpt>
      <trkpt lat="49.28126" lon="-0.45377">
        <ele>18.8</ele>
        <time>2021-02-23T10:36:00Z</time>
      </trkpt>
      <trkpt lat="49.28124" lon="-0.45377">
        <ele>18.8</ele>
        <time>2021-02-23T10:36:02Z</time>
      </trkpt>
      <trkpt lat="49.28123" lon="-0.45378">
        <ele>18.8</ele>
        <time>2021-02-23T10:36:03Z</time>
      </trkpt>
      <trkpt lat="49.28119" lon="-0.45382">
        <ele>18.9</ele>
        <time>2021-02-23T10:36:05Z</time>
      </trkpt>
      <trkpt lat="49.28118" lon="-0.45382">
        <ele>18.9</ele>
        <time>2021-02-23T10:36:06Z</time>
      </trkpt>
      <trkpt lat="49.28116" lon="-0.45383">
        <ele>18.9</ele>
        <time>2021-02-23T10:36:07Z</time>
      </trkpt>
      <trkpt lat="49.28113" lon="-0.45384">
        <ele>18.9</ele>
        <time>2021-02-23T10:36:09Z</time>
      </trkpt>
      <trkpt lat="49.28112" lon="-0.45384">
        <ele>18.9</ele>
        <time>2021-02-23T10:36:10Z</time>
      </trkpt>
      <trkpt lat="49.28109" lon="-0.45385">
        <ele>19</ele>
        <time>2021-02-23T10:36:11Z</time>
      </trkpt>
      <trkpt lat="49.28105" lon="-0.45387">
        <ele>19</ele>
        <time>2021-02-23T10:36:13Z</time>
      </trkpt>
      <trkpt lat="49.28103" lon="-0.45388">
        <ele>19</ele>
        <time>2021-02-23T10:36:15Z</time>
      </trkpt>
      <trkpt lat="49.28102" lon="-0.45388">
        <ele>19</ele>
        <time>2021-02-23T10:36:16Z</time>
      </trkpt>
      <trkpt lat="49.281" lon="-0.4539">
        <ele>19</ele>
        <time>2021-02-23T10:36:17Z</time>
      </trkpt>
      <trkpt lat="49.28097" lon="-0.45392">
        <ele>19.1</ele>
        <time>2021-02-23T10:36:19Z</time>
      </trkpt>
      <trkpt lat="49.28094" lon="-0.45394">
        <ele>19.1</ele>
        <time>2021-02-23T10:36:20Z</time>
      </trkpt>
      <trkpt lat="49.2809" lon="-0.45396">
        <ele>19.1</ele>
        <time>2021-02-23T10:36:22Z</time>
      </trkpt>
      <trkpt lat="49.28088" lon="-0.45397">
        <ele>19.1</ele>
        <time>2021-02-23T10:36:23Z</time>
      </trkpt>
      <trkpt lat="49.28087" lon="-0.45397">
        <ele>19.1</ele>
        <time>2021-02-23T10:36:24Z</time>
      </trkpt>
      <trkpt lat="49.28082" lon="-0.45399">
        <ele>19.2</ele>
        <time>2021-02-23T10:36:26Z</time>
      </trkpt>
      <trkpt lat="49.2808" lon="-0.454">
        <ele>19.2</ele>
        <time>2021-02-23T10:36:28Z</time>
      </trkpt>
      <trkpt lat="49.28078" lon="-0.45401">
        <ele>19.2</ele>
        <time>2021-02-23T10:36:29Z</time>
      </trkpt>
      <trkpt lat="49.28077" lon="-0.45402">
        <ele>19.2</ele>
        <time>2021-02-23T10:36:30Z</time>
      </trkpt>
      <trkpt lat="49.28074" lon="-0.45404">
        <ele>19.2</ele>
        <time>2021-02-23T10:36:32Z</time>
      </trkpt>
      <trkpt lat="49.28072" lon="-0.45404">
        <ele>19.3</ele>
        <time>2021-02-23T10:36:33Z</time>
      </trkpt>
      <trkpt lat="49.28069" lon="-0.45405">
        <ele>19.3</ele>
        <time>2021-02-23T10:36:35Z</time>
      </trkpt>
      <trkpt lat="49.28068" lon="-0.45405">
        <ele>19.3</ele>
        <time>2021-02-23T10:36:36Z</time>
      </trkpt>
      <trkpt lat="49.28065" lon="-0.45406">
        <ele>19.4</ele>
        <time>2021-02-23T10:36:38Z</time>
      </trkpt>
      <trkpt lat="49.28062" lon="-0.45406">
        <ele>19.4</ele>
        <time>2021-02-23T10:36:39Z</time>
      </trkpt>
      <trkpt lat="49.2806" lon="-0.45407">
        <ele>19.4</ele>
        <time>2021-02-23T10:36:41Z</time>
      </trkpt>
      <trkpt lat="49.28057" lon="-0.45407">
        <ele>19.5</ele>
        <time>2021-02-23T10:36:42Z</time>
      </trkpt>
      <trkpt lat="49.28056" lon="-0.45407">
        <ele>19.5</ele>
        <time>2021-02-23T10:36:43Z</time>
      </trkpt>
      <trkpt lat="49.28053" lon="-0.45408">
        <ele>19.5</ele>
        <time>2021-02-23T10:36:44Z</time>
      </trkpt>
      <trkpt lat="49.2805" lon="-0.45409">
        <ele>19.6</ele>
        <time>2021-02-23T10:36:46Z</time>
      </trkpt>
      <trkpt lat="49.28049" lon="-0.45409">
        <ele>19.6</ele>
        <time>2021-02-23T10:36:47Z</time>
      </trkpt>
      <trkpt lat="49.28046" lon="-0.45409">
        <ele>19.6</ele>
        <time>2021-02-23T10:36:48Z</time>
      </trkpt>
      <trkpt lat="49.28045" lon="-0.45409">
        <ele>19.6</ele>
        <time>2021-02-23T10:36:49Z</time>
      </trkpt>
      <trkpt lat="49.28042" lon="-0.45409">
        <ele>19.7</ele>
        <time>2021-02-23T10:36:51Z</time>
      </trkpt>
      <trkpt lat="49.28041" lon="-0.45409">
        <ele>19.7</ele>
        <time>2021-02-23T10:36:52Z</time>
      </trkpt>
      <trkpt lat="49.28038" lon="-0.4541">
        <ele>19.7</ele>
        <time>2021-02-23T10:36:54Z</time>
      </trkpt>
      <trkpt lat="49.28036" lon="-0.45411">
        <ele>19.8</ele>
        <time>2021-02-23T10:36:55Z</time>
      </trkpt>
      <trkpt lat="49.28033" lon="-0.45412">
        <ele>19.8</ele>
        <time>2021-02-23T10:36:57Z</time>
      </trkpt>
      <trkpt lat="49.28028" lon="-0.45413">
        <ele>19.9</ele>
        <time>2021-02-23T10:36:59Z</time>
      </trkpt>
      <trkpt lat="49.28026" lon="-0.45413">
        <ele>19.9</ele>
        <time>2021-02-23T10:37:00Z</time>
      </trkpt>
      <trkpt lat="49.28025" lon="-0.45414">
        <ele>19.9</ele>
        <time>2021-02-23T10:37:01Z</time>
      </trkpt>
      <trkpt lat="49.2802" lon="-0.45415">
        <ele>19.9</ele>
        <time>2021-02-23T10:37:03Z</time>
      </trkpt>
      <trkpt lat="49.28019" lon="-0.45415">
        <ele>19.9</ele>
        <time>2021-02-23T10:37:05Z</time>
      </trkpt>
      <trkpt lat="49.28018" lon="-0.45416">
        <ele>19.9</ele>
        <time>2021-02-23T10:37:06Z</time>
      </trkpt>
      <trkpt lat="49.28015" lon="-0.45417">
        <ele>20</ele>
        <time>2021-02-23T10:37:07Z</time>
      </trkpt>
      <trkpt lat="49.28014" lon="-0.45417">
        <ele>20</ele>
        <time>2021-02-23T10:37:08Z</time>
      </trkpt>
      <trkpt lat="49.28011" lon="-0.45417">
        <ele>20</ele>
        <time>2021-02-23T10:37:10Z</time>
      </trkpt>
      <trkpt lat="49.28009" lon="-0.45418">
        <ele>20</ele>
        <time>2021-02-23T10:37:12Z</time>
      </trkpt>
      <trkpt lat="49.28007" lon="-0.45419">
        <ele>20</ele>
        <time>2021-02-23T10:37:13Z</time>
      </trkpt>
      <trkpt lat="49.28005" lon="-0.45419">
        <ele>20</ele>
        <time>2021-02-23T10:37:14Z</time>
      </trkpt>
      <trkpt lat="49.28002" lon="-0.45419">
        <ele>20.1</ele>
        <time>2021-02-23T10:37:15Z</time>
      </trkpt>
      <trkpt lat="49.28001" lon="-0.45419">
        <ele>20.1</ele>
        <time>2021-02-23T10:37:16Z</time>
      </trkpt>
      <trkpt lat="49.27999" lon="-0.4542">
        <ele>20.1</ele>
        <time>2021-02-23T10:37:18Z</time>
      </trkpt>
      <trkpt lat="49.27996" lon="-0.45421">
        <ele>20.1</ele>
        <time>2021-02-23T10:37:20Z</time>
      </trkpt>
      <trkpt lat="49.27995" lon="-0.45421">
        <ele>20.1</ele>
        <time>2021-02-23T10:37:21Z</time>
      </trkpt>
      <trkpt lat="49.27994" lon="-0.45421">
        <ele>20.1</ele>
        <time>2021-02-23T10:37:22Z</time>
      </trkpt>
      <trkpt lat="49.27991" lon="-0.45421">
        <ele>20.2</ele>
        <time>2021-02-23T10:37:24Z</time>
      </trkpt>
      <trkpt lat="49.2799" lon="-0.45422">
        <ele>20.2</ele>
        <time>2021-02-23T10:37:25Z</time>
      </trkpt>
      <trkpt lat="49.27987" lon="-0.45422">
        <ele>20.2</ele>
        <time>2021-02-23T10:37:27Z</time>
      </trkpt>
      <trkpt lat="49.27985" lon="-0.45423">
        <ele>20.2</ele>
        <time>2021-02-23T10:37:29Z</time>
      </trkpt>
      <trkpt lat="49.27983" lon="-0.45424">
        <ele>20.3</ele>
        <time>2021-02-23T10:37:30Z</time>
      </trkpt>
      <trkpt lat="49.27981" lon="-0.45426">
        <ele>20.3</ele>
        <time>2021-02-23T10:37:32Z</time>
      </trkpt>
      <trkpt lat="49.27977" lon="-0.45427">
        <ele>20.3</ele>
        <time>2021-02-23T10:37:34Z</time>
      </trkpt>
      <trkpt lat="49.27974" lon="-0.45429">
        <ele>20.3</ele>
        <time>2021-02-23T10:37:36Z</time>
      </trkpt>
      <trkpt lat="49.2797" lon="-0.45431">
        <ele>20.4</ele>
        <time>2021-02-23T10:37:38Z</time>
      </trkpt>
      <trkpt lat="49.27966" lon="-0.45434">
        <ele>20.4</ele>
        <time>2021-02-23T10:37:40Z</time>
      </trkpt>
      <trkpt lat="49.27965" lon="-0.45435">
        <ele>20.4</ele>
        <time>2021-02-23T10:37:41Z</time>
      </trkpt>
      <trkpt lat="49.27963" lon="-0.45436">
        <ele>20.4</ele>
        <time>2021-02-23T10:37:42Z</time>
      </trkpt>
      <trkpt lat="49.27959" lon="-0.45439">
        <ele>20.4</ele>
        <time>2021-02-23T10:37:44Z</time>
      </trkpt>
      <trkpt lat="49.27957" lon="-0.45439">
        <ele>20.4</ele>
        <time>2021-02-23T10:37:46Z</time>
      </trkpt>
      <trkpt lat="49.27955" lon="-0.4544">
        <ele>20.4</ele>
        <time>2021-02-23T10:37:47Z</time>
      </trkpt>
      <trkpt lat="49.27954" lon="-0.4544">
        <ele>20.4</ele>
        <time>2021-02-23T10:37:48Z</time>
      </trkpt>
      <trkpt lat="49.27952" lon="-0.4544">
        <ele>20.4</ele>
        <time>2021-02-23T10:37:49Z</time>
      </trkpt>
      <trkpt lat="49.2795" lon="-0.45441">
        <ele>20.4</ele>
        <time>2021-02-23T10:37:51Z</time>
      </trkpt>
      <trkpt lat="49.27949" lon="-0.45441">
        <ele>20.4</ele>
        <time>2021-02-23T10:37:52Z</time>
      </trkpt>
      <trkpt lat="49.27947" lon="-0.45442">
        <ele>20.3</ele>
        <time>2021-02-23T10:37:54Z</time>
      </trkpt>
      <trkpt lat="49.27946" lon="-0.45442">
        <ele>20.3</ele>
        <time>2021-02-23T10:37:55Z</time>
      </trkpt>
      <trkpt lat="49.27944" lon="-0.45442">
        <ele>20.3</ele>
        <time>2021-02-23T10:37:57Z</time>
      </trkpt>
      <trkpt lat="49.27943" lon="-0.45442">
        <ele>20.3</ele>
        <time>2021-02-23T10:37:58Z</time>
      </trkpt>
      <trkpt lat="49.27941" lon="-0.45443">
        <ele>20.3</ele>
        <time>2021-02-23T10:38:00Z</time>
      </trkpt>
      <trkpt lat="49.27939" lon="-0.45445">
        <ele>20.3</ele>
        <time>2021-02-23T10:38:01Z</time>
      </trkpt>
      <trkpt lat="49.27937" lon="-0.45446">
        <ele>20.3</ele>
        <time>2021-02-23T10:38:03Z</time>
      </trkpt>
      <trkpt lat="49.27933" lon="-0.45448">
        <ele>20.3</ele>
        <time>2021-02-23T10:38:04Z</time>
      </trkpt>
      <trkpt lat="49.27929" lon="-0.4545">
        <ele>20.3</ele>
        <time>2021-02-23T10:38:06Z</time>
      </trkpt>
      <trkpt lat="49.27926" lon="-0.45451">
        <ele>20.3</ele>
        <time>2021-02-23T10:38:08Z</time>
      </trkpt>
      <trkpt lat="49.27925" lon="-0.45452">
        <ele>20.3</ele>
        <time>2021-02-23T10:38:09Z</time>
      </trkpt>
      <trkpt lat="49.27923" lon="-0.45452">
        <ele>20.3</ele>
        <time>2021-02-23T10:38:10Z</time>
      </trkpt>
      <trkpt lat="49.27922" lon="-0.45453">
        <ele>20.3</ele>
        <time>2021-02-23T10:38:11Z</time>
      </trkpt>
      <trkpt lat="49.27919" lon="-0.45454">
        <ele>20.3</ele>
        <time>2021-02-23T10:38:13Z</time>
      </trkpt>
      <trkpt lat="49.27918" lon="-0.45455">
        <ele>20.3</ele>
        <time>2021-02-23T10:38:14Z</time>
      </trkpt>
      <trkpt lat="49.27916" lon="-0.45455">
        <ele>20.3</ele>
        <time>2021-02-23T10:38:15Z</time>
      </trkpt>
      <trkpt lat="49.27915" lon="-0.45456">
        <ele>20.3</ele>
        <time>2021-02-23T10:38:16Z</time>
      </trkpt>
      <trkpt lat="49.27913" lon="-0.45457">
        <ele>20.3</ele>
        <time>2021-02-23T10:38:17Z</time>
      </trkpt>
      <trkpt lat="49.27911" lon="-0.45458">
        <ele>20.3</ele>
        <time>2021-02-23T10:38:19Z</time>
      </trkpt>
      <trkpt lat="49.27907" lon="-0.45461">
        <ele>20.3</ele>
        <time>2021-02-23T10:38:21Z</time>
      </trkpt>
      <trkpt lat="49.27905" lon="-0.45462">
        <ele>20.3</ele>
        <time>2021-02-23T10:38:22Z</time>
      </trkpt>
      <trkpt lat="49.27904" lon="-0.45463">
        <ele>20.4</ele>
        <time>2021-02-23T10:38:23Z</time>
      </trkpt>
      <trkpt lat="49.27901" lon="-0.45465">
        <ele>20.4</ele>
        <time>2021-02-23T10:38:25Z</time>
      </trkpt>
      <trkpt lat="49.279" lon="-0.45466">
        <ele>20.4</ele>
        <time>2021-02-23T10:38:26Z</time>
      </trkpt>
      <trkpt lat="49.27898" lon="-0.45468">
        <ele>20.4</ele>
        <time>2021-02-23T10:38:27Z</time>
      </trkpt>
      <trkpt lat="49.27896" lon="-0.4547">
        <ele>20.4</ele>
        <time>2021-02-23T10:38:29Z</time>
      </trkpt>
      <trkpt lat="49.27893" lon="-0.45472">
        <ele>20.5</ele>
        <time>2021-02-23T10:38:31Z</time>
      </trkpt>
      <trkpt lat="49.2789" lon="-0.45473">
        <ele>20.5</ele>
        <time>2021-02-23T10:38:32Z</time>
      </trkpt>
      <trkpt lat="49.27888" lon="-0.45475">
        <ele>20.5</ele>
        <time>2021-02-23T10:38:34Z</time>
      </trkpt>
      <trkpt lat="49.27886" lon="-0.45477">
        <ele>20.6</ele>
        <time>2021-02-23T10:38:35Z</time>
      </trkpt>
      <trkpt lat="49.27885" lon="-0.45478">
        <ele>20.6</ele>
        <time>2021-02-23T10:38:36Z</time>
      </trkpt>
      <trkpt lat="49.27883" lon="-0.4548">
        <ele>20.6</ele>
        <time>2021-02-23T10:38:37Z</time>
      </trkpt>
      <trkpt lat="49.2788" lon="-0.45481">
        <ele>20.6</ele>
        <time>2021-02-23T10:38:39Z</time>
      </trkpt>
      <trkpt lat="49.27877" lon="-0.45483">
        <ele>20.7</ele>
        <time>2021-02-23T10:38:40Z</time>
      </trkpt>
      <trkpt lat="49.27876" lon="-0.45484">
        <ele>20.7</ele>
        <time>2021-02-23T10:38:41Z</time>
      </trkpt>
      <trkpt lat="49.27874" lon="-0.45486">
        <ele>20.7</ele>
        <time>2021-02-23T10:38:42Z</time>
      </trkpt>
      <trkpt lat="49.2787" lon="-0.45489">
        <ele>20.7</ele>
        <time>2021-02-23T10:38:44Z</time>
      </trkpt>
      <trkpt lat="49.27869" lon="-0.4549">
        <ele>20.7</ele>
        <time>2021-02-23T10:38:45Z</time>
      </trkpt>
      <trkpt lat="49.27865" lon="-0.45491">
        <ele>20.8</ele>
        <time>2021-02-23T10:38:47Z</time>
      </trkpt>
      <trkpt lat="49.27862" lon="-0.45493">
        <ele>20.8</ele>
        <time>2021-02-23T10:38:49Z</time>
      </trkpt>
      <trkpt lat="49.27861" lon="-0.45494">
        <ele>20.8</ele>
        <time>2021-02-23T10:38:50Z</time>
      </trkpt>
      <trkpt lat="49.27858" lon="-0.45495">
        <ele>20.8</ele>
        <time>2021-02-23T10:38:52Z</time>
      </trkpt>
      <trkpt lat="49.27857" lon="-0.45496">
        <ele>20.7</ele>
        <time>2021-02-23T10:38:53Z</time>
      </trkpt>
      <trkpt lat="49.27853" lon="-0.45498">
        <ele>20.7</ele>
        <time>2021-02-23T10:38:55Z</time>
      </trkpt>
      <trkpt lat="49.27852" lon="-0.45498">
        <ele>20.7</ele>
        <time>2021-02-23T10:38:56Z</time>
      </trkpt>
      <trkpt lat="49.2785" lon="-0.455">
        <ele>20.7</ele>
        <time>2021-02-23T10:38:58Z</time>
      </trkpt>
      <trkpt lat="49.27847" lon="-0.45502">
        <ele>20.7</ele>
        <time>2021-02-23T10:39:00Z</time>
      </trkpt>
      <trkpt lat="49.27845" lon="-0.45503">
        <ele>20.7</ele>
        <time>2021-02-23T10:39:01Z</time>
      </trkpt>
      <trkpt lat="49.27843" lon="-0.45504">
        <ele>20.6</ele>
        <time>2021-02-23T10:39:03Z</time>
      </trkpt>
      <trkpt lat="49.27841" lon="-0.45505">
        <ele>20.6</ele>
        <time>2021-02-23T10:39:04Z</time>
      </trkpt>
      <trkpt lat="49.2784" lon="-0.45505">
        <ele>20.6</ele>
        <time>2021-02-23T10:39:05Z</time>
      </trkpt>
      <trkpt lat="49.27838" lon="-0.45506">
        <ele>20.6</ele>
        <time>2021-02-23T10:39:06Z</time>
      </trkpt>
      <trkpt lat="49.27836" lon="-0.45507">
        <ele>20.6</ele>
        <time>2021-02-23T10:39:08Z</time>
      </trkpt>
      <trkpt lat="49.27833" lon="-0.45508">
        <ele>20.5</ele>
        <time>2021-02-23T10:39:09Z</time>
      </trkpt>
      <trkpt lat="49.27831" lon="-0.45509">
        <ele>20.5</ele>
        <time>2021-02-23T10:39:11Z</time>
      </trkpt>
      <trkpt lat="49.27828" lon="-0.4551">
        <ele>20.5</ele>
        <time>2021-02-23T10:39:13Z</time>
      </trkpt>
      <trkpt lat="49.27827" lon="-0.4551">
        <ele>20.5</ele>
        <time>2021-02-23T10:39:14Z</time>
      </trkpt>
      <trkpt lat="49.27824" lon="-0.45511">
        <ele>20.5</ele>
        <time>2021-02-23T10:39:15Z</time>
      </trkpt>
      <trkpt lat="49.27822" lon="-0.45512">
        <ele>20.5</ele>
        <time>2021-02-23T10:39:17Z</time>
      </trkpt>
      <trkpt lat="49.27821" lon="-0.45513">
        <ele>20.5</ele>
        <time>2021-02-23T10:39:18Z</time>
      </trkpt>
      <trkpt lat="49.2782" lon="-0.45513">
        <ele>20.4</ele>
        <time>2021-02-23T10:39:19Z</time>
      </trkpt>
      <trkpt lat="49.27815" lon="-0.45515">
        <ele>20.5</ele>
        <time>2021-02-23T10:39:21Z</time>
      </trkpt>
      <trkpt lat="49.27814" lon="-0.45515">
        <ele>20.5</ele>
        <time>2021-02-23T10:39:22Z</time>
      </trkpt>
      <trkpt lat="49.27812" lon="-0.45516">
        <ele>20.5</ele>
        <time>2021-02-23T10:39:23Z</time>
      </trkpt>
      <trkpt lat="49.27809" lon="-0.45517">
        <ele>20.5</ele>
        <time>2021-02-23T10:39:24Z</time>
      </trkpt>
      <trkpt lat="49.27806" lon="-0.45519">
        <ele>20.5</ele>
        <time>2021-02-23T10:39:26Z</time>
      </trkpt>
      <trkpt lat="49.27804" lon="-0.45519">
        <ele>20.6</ele>
        <time>2021-02-23T10:39:27Z</time>
      </trkpt>
      <trkpt lat="49.27801" lon="-0.4552">
        <ele>20.6</ele>
        <time>2021-02-23T10:39:29Z</time>
      </trkpt>
      <trkpt lat="49.27801" lon="-0.4552">
        <ele>20.6</ele>
        <time>2021-02-23T10:39:30Z</time>
      </trkpt>
      <trkpt lat="49.27798" lon="-0.45521">
        <ele>20.6</ele>
        <time>2021-02-23T10:39:31Z</time>
      </trkpt>
      <trkpt lat="49.27796" lon="-0.45522">
        <ele>20.7</ele>
        <time>2021-02-23T10:39:33Z</time>
      </trkpt>
      <trkpt lat="49.27794" lon="-0.45523">
        <ele>20.7</ele>
        <time>2021-02-23T10:39:34Z</time>
      </trkpt>
      <trkpt lat="49.27792" lon="-0.45524">
        <ele>20.7</ele>
        <time>2021-02-23T10:39:36Z</time>
      </trkpt>
      <trkpt lat="49.27789" lon="-0.45525">
        <ele>20.8</ele>
        <time>2021-02-23T10:39:38Z</time>
      </trkpt>
      <trkpt lat="49.27787" lon="-0.45527">
        <ele>20.8</ele>
        <time>2021-02-23T10:39:40Z</time>
      </trkpt>
      <trkpt lat="49.27786" lon="-0.45527">
        <ele>20.8</ele>
        <time>2021-02-23T10:39:41Z</time>
      </trkpt>
      <trkpt lat="49.27783" lon="-0.45528">
        <ele>20.8</ele>
        <time>2021-02-23T10:39:43Z</time>
      </trkpt>
      <trkpt lat="49.2778" lon="-0.45528">
        <ele>20.9</ele>
        <time>2021-02-23T10:39:45Z</time>
      </trkpt>
      <trkpt lat="49.27779" lon="-0.45528">
        <ele>20.8</ele>
        <time>2021-02-23T10:39:46Z</time>
      </trkpt>
      <trkpt lat="49.27777" lon="-0.45529">
        <ele>20.8</ele>
        <time>2021-02-23T10:39:47Z</time>
      </trkpt>
      <trkpt lat="49.27776" lon="-0.45529">
        <ele>20.8</ele>
        <time>2021-02-23T10:39:48Z</time>
      </trkpt>
      <trkpt lat="49.27773" lon="-0.45529">
        <ele>20.8</ele>
        <time>2021-02-23T10:39:49Z</time>
      </trkpt>
      <trkpt lat="49.27771" lon="-0.45529">
        <ele>20.7</ele>
        <time>2021-02-23T10:39:51Z</time>
      </trkpt>
      <trkpt lat="49.27769" lon="-0.45529">
        <ele>20.7</ele>
        <time>2021-02-23T10:39:52Z</time>
      </trkpt>
      <trkpt lat="49.27764" lon="-0.45528">
        <ele>20.6</ele>
        <time>2021-02-23T10:39:54Z</time>
      </trkpt>
      <trkpt lat="49.2776" lon="-0.45528">
        <ele>20.5</ele>
        <time>2021-02-23T10:39:56Z</time>
      </trkpt>
      <trkpt lat="49.27757" lon="-0.45528">
        <ele>20.4</ele>
        <time>2021-02-23T10:39:57Z</time>
      </trkpt>
      <trkpt lat="49.27756" lon="-0.45528">
        <ele>20.4</ele>
        <time>2021-02-23T10:39:58Z</time>
      </trkpt>
      <trkpt lat="49.27753" lon="-0.45528">
        <ele>20.3</ele>
        <time>2021-02-23T10:40:00Z</time>
      </trkpt>
      <trkpt lat="49.2775" lon="-0.45527">
        <ele>20.3</ele>
        <time>2021-02-23T10:40:02Z</time>
      </trkpt>
      <trkpt lat="49.27748" lon="-0.45527">
        <ele>20.2</ele>
        <time>2021-02-23T10:40:04Z</time>
      </trkpt>
      <trkpt lat="49.27745" lon="-0.45526">
        <ele>20.1</ele>
        <time>2021-02-23T10:40:06Z</time>
      </trkpt>
      <trkpt lat="49.27741" lon="-0.45524">
        <ele>20</ele>
        <time>2021-02-23T10:40:08Z</time>
      </trkpt>
      <trkpt lat="49.27739" lon="-0.45523">
        <ele>20</ele>
        <time>2021-02-23T10:40:10Z</time>
      </trkpt>
      <trkpt lat="49.27736" lon="-0.45522">
        <ele>19.9</ele>
        <time>2021-02-23T10:40:12Z</time>
      </trkpt>
      <trkpt lat="49.27734" lon="-0.45522">
        <ele>19.9</ele>
        <time>2021-02-23T10:40:13Z</time>
      </trkpt>
      <trkpt lat="49.27731" lon="-0.45521">
        <ele>19.8</ele>
        <time>2021-02-23T10:40:15Z</time>
      </trkpt>
      <trkpt lat="49.2773" lon="-0.4552">
        <ele>19.8</ele>
        <time>2021-02-23T10:40:16Z</time>
      </trkpt>
      <trkpt lat="49.27728" lon="-0.45518">
        <ele>19.7</ele>
        <time>2021-02-23T10:40:18Z</time>
      </trkpt>
      <trkpt lat="49.27726" lon="-0.45517">
        <ele>19.7</ele>
        <time>2021-02-23T10:40:19Z</time>
      </trkpt>
      <trkpt lat="49.27725" lon="-0.45516">
        <ele>19.7</ele>
        <time>2021-02-23T10:40:20Z</time>
      </trkpt>
      <trkpt lat="49.27722" lon="-0.45514">
        <ele>19.6</ele>
        <time>2021-02-23T10:40:22Z</time>
      </trkpt>
      <trkpt lat="49.27719" lon="-0.45512">
        <ele>19.6</ele>
        <time>2021-02-23T10:40:24Z</time>
      </trkpt>
      <trkpt lat="49.27717" lon="-0.45511">
        <ele>19.5</ele>
        <time>2021-02-23T10:40:26Z</time>
      </trkpt>
      <trkpt lat="49.27717" lon="-0.45511">
        <ele>19.5</ele>
        <time>2021-02-23T10:40:27Z</time>
      </trkpt>
      <trkpt lat="49.27716" lon="-0.45511">
        <ele>19.5</ele>
        <time>2021-02-23T10:40:29Z</time>
      </trkpt>
      <trkpt lat="49.27714" lon="-0.45511">
        <ele>19.5</ele>
        <time>2021-02-23T10:40:30Z</time>
      </trkpt>
      <trkpt lat="49.27712" lon="-0.4551">
        <ele>19.4</ele>
        <time>2021-02-23T10:40:32Z</time>
      </trkpt>
      <trkpt lat="49.2771" lon="-0.45509">
        <ele>19.4</ele>
        <time>2021-02-23T10:40:33Z</time>
      </trkpt>
      <trkpt lat="49.27707" lon="-0.45509">
        <ele>19.4</ele>
        <time>2021-02-23T10:40:35Z</time>
      </trkpt>
      <trkpt lat="49.27706" lon="-0.45508">
        <ele>19.3</ele>
        <time>2021-02-23T10:40:36Z</time>
      </trkpt>
      <trkpt lat="49.27704" lon="-0.45508">
        <ele>19.3</ele>
        <time>2021-02-23T10:40:38Z</time>
      </trkpt>
      <trkpt lat="49.27703" lon="-0.45508">
        <ele>19.3</ele>
        <time>2021-02-23T10:40:39Z</time>
      </trkpt>
      <trkpt lat="49.27702" lon="-0.45507">
        <ele>19.2</ele>
        <time>2021-02-23T10:40:40Z</time>
      </trkpt>
      <trkpt lat="49.27699" lon="-0.45507">
        <ele>19.2</ele>
        <time>2021-02-23T10:40:42Z</time>
      </trkpt>
      <trkpt lat="49.27695" lon="-0.45506">
        <ele>19.1</ele>
        <time>2021-02-23T10:40:44Z</time>
      </trkpt>
      <trkpt lat="49.27691" lon="-0.45504">
        <ele>19</ele>
        <time>2021-02-23T10:40:46Z</time>
      </trkpt>
      <trkpt lat="49.27688" lon="-0.45502">
        <ele>18.9</ele>
        <time>2021-02-23T10:40:47Z</time>
      </trkpt>
      <trkpt lat="49.27687" lon="-0.45502">
        <ele>18.9</ele>
        <time>2021-02-23T10:40:48Z</time>
      </trkpt>
      <trkpt lat="49.27684" lon="-0.455">
        <ele>18.8</ele>
        <time>2021-02-23T10:40:50Z</time>
      </trkpt>
      <trkpt lat="49.27681" lon="-0.455">
        <ele>18.8</ele>
        <time>2021-02-23T10:40:51Z</time>
      </trkpt>
      <trkpt lat="49.27679" lon="-0.455">
        <ele>18.7</ele>
        <time>2021-02-23T10:40:53Z</time>
      </trkpt>
      <trkpt lat="49.27677" lon="-0.455">
        <ele>18.7</ele>
        <time>2021-02-23T10:40:54Z</time>
      </trkpt>
      <trkpt lat="49.27676" lon="-0.455">
        <ele>18.7</ele>
        <time>2021-02-23T10:40:55Z</time>
      </trkpt>
      <trkpt lat="49.27674" lon="-0.455">
        <ele>18.7</ele>
        <time>2021-02-23T10:40:57Z</time>
      </trkpt>
      <trkpt lat="49.27672" lon="-0.455">
        <ele>18.6</ele>
        <time>2021-02-23T10:40:59Z</time>
      </trkpt>
      <trkpt lat="49.27671" lon="-0.455">
        <ele>18.6</ele>
        <time>2021-02-23T10:41:00Z</time>
      </trkpt>
      <trkpt lat="49.27669" lon="-0.45501">
        <ele>18.5</ele>
        <time>2021-02-23T10:41:01Z</time>
      </trkpt>
      <trkpt lat="49.27665" lon="-0.45501">
        <ele>18.5</ele>
        <time>2021-02-23T10:41:03Z</time>
      </trkpt>
      <trkpt lat="49.2766" lon="-0.45502">
        <ele>18.4</ele>
        <time>2021-02-23T10:41:05Z</time>
      </trkpt>
      <trkpt lat="49.27656" lon="-0.45501">
        <ele>18.3</ele>
        <time>2021-02-23T10:41:06Z</time>
      </trkpt>
      <trkpt lat="49.27651" lon="-0.45499">
        <ele>18.3</ele>
        <time>2021-02-23T10:41:08Z</time>
      </trkpt>
      <trkpt lat="49.27649" lon="-0.45498">
        <ele>18.2</ele>
        <time>2021-02-23T10:41:09Z</time>
      </trkpt>
      <trkpt lat="49.27647" lon="-0.45497">
        <ele>18.2</ele>
        <time>2021-02-23T10:41:10Z</time>
      </trkpt>
      <trkpt lat="49.27645" lon="-0.45496">
        <ele>18.2</ele>
        <time>2021-02-23T10:41:12Z</time>
      </trkpt>
      <trkpt lat="49.27643" lon="-0.45494">
        <ele>18.2</ele>
        <time>2021-02-23T10:41:13Z</time>
      </trkpt>
      <trkpt lat="49.27642" lon="-0.45491">
        <ele>18.1</ele>
        <time>2021-02-23T10:41:15Z</time>
      </trkpt>
      <trkpt lat="49.27641" lon="-0.45488">
        <ele>18.1</ele>
        <time>2021-02-23T10:41:16Z</time>
      </trkpt>
      <trkpt lat="49.2764" lon="-0.45487">
        <ele>18.1</ele>
        <time>2021-02-23T10:41:17Z</time>
      </trkpt>
      <trkpt lat="49.2764" lon="-0.45486">
        <ele>18.1</ele>
        <time>2021-02-23T10:41:18Z</time>
      </trkpt>
      <trkpt lat="49.27639" lon="-0.45481">
        <ele>18</ele>
        <time>2021-02-23T10:41:20Z</time>
      </trkpt>
      <trkpt lat="49.27639" lon="-0.4548">
        <ele>18</ele>
        <time>2021-02-23T10:41:21Z</time>
      </trkpt>
      <trkpt lat="49.27637" lon="-0.45476">
        <ele>18</ele>
        <time>2021-02-23T10:41:23Z</time>
      </trkpt>
      <trkpt lat="49.27636" lon="-0.45475">
        <ele>18</ele>
        <time>2021-02-23T10:41:24Z</time>
      </trkpt>
      <trkpt lat="49.27636" lon="-0.45473">
        <ele>17.9</ele>
        <time>2021-02-23T10:41:25Z</time>
      </trkpt>
      <trkpt lat="49.27636" lon="-0.45469">
        <ele>17.9</ele>
        <time>2021-02-23T10:41:27Z</time>
      </trkpt>
      <trkpt lat="49.27636" lon="-0.45465">
        <ele>17.9</ele>
        <time>2021-02-23T10:41:29Z</time>
      </trkpt>
      <trkpt lat="49.27635" lon="-0.45461">
        <ele>17.9</ele>
        <time>2021-02-23T10:41:31Z</time>
      </trkpt>
      <trkpt lat="49.27632" lon="-0.45455">
        <ele>17.8</ele>
        <time>2021-02-23T10:41:33Z</time>
      </trkpt>
      <trkpt lat="49.27631" lon="-0.45448">
        <ele>17.8</ele>
        <time>2021-02-23T10:41:35Z</time>
      </trkpt>
      <trkpt lat="49.27631" lon="-0.45444">
        <ele>17.8</ele>
        <time>2021-02-23T10:41:36Z</time>
      </trkpt>
      <trkpt lat="49.27629" lon="-0.45438">
        <ele>17.8</ele>
        <time>2021-02-23T10:41:38Z</time>
      </trkpt>
      <trkpt lat="49.27629" lon="-0.45436">
        <ele>17.8</ele>
        <time>2021-02-23T10:41:39Z</time>
      </trkpt>
      <trkpt lat="49.27627" lon="-0.45431">
        <ele>17.9</ele>
        <time>2021-02-23T10:41:41Z</time>
      </trkpt>
      <trkpt lat="49.27625" lon="-0.45427">
        <ele>17.9</ele>
        <time>2021-02-23T10:41:43Z</time>
      </trkpt>
      <trkpt lat="49.27625" lon="-0.45425">
        <ele>17.9</ele>
        <time>2021-02-23T10:41:44Z</time>
      </trkpt>
      <trkpt lat="49.27624" lon="-0.45421">
        <ele>18</ele>
        <time>2021-02-23T10:41:46Z</time>
      </trkpt>
      <trkpt lat="49.27623" lon="-0.45417">
        <ele>18</ele>
        <time>2021-02-23T10:41:48Z</time>
      </trkpt>
      <trkpt lat="49.27621" lon="-0.45414">
        <ele>18</ele>
        <time>2021-02-23T10:41:50Z</time>
      </trkpt>
      <trkpt lat="49.2762" lon="-0.4541">
        <ele>18.1</ele>
        <time>2021-02-23T10:41:52Z</time>
      </trkpt>
      <trkpt lat="49.27619" lon="-0.4541">
        <ele>18.1</ele>
        <time>2021-02-23T10:41:53Z</time>
      </trkpt>
      <trkpt lat="49.27619" lon="-0.45408">
        <ele>18.1</ele>
        <time>2021-02-23T10:41:54Z</time>
      </trkpt>
      <trkpt lat="49.27617" lon="-0.45405">
        <ele>18.2</ele>
        <time>2021-02-23T10:41:56Z</time>
      </trkpt>
      <trkpt lat="49.27616" lon="-0.454">
        <ele>18.3</ele>
        <time>2021-02-23T10:41:58Z</time>
      </trkpt>
      <trkpt lat="49.27615" lon="-0.454">
        <ele>18.3</ele>
        <time>2021-02-23T10:41:59Z</time>
      </trkpt>
      <trkpt lat="49.27614" lon="-0.45396">
        <ele>18.3</ele>
        <time>2021-02-23T10:42:01Z</time>
      </trkpt>
      <trkpt lat="49.27612" lon="-0.45393">
        <ele>18.4</ele>
        <time>2021-02-23T10:42:03Z</time>
      </trkpt>
      <trkpt lat="49.27611" lon="-0.45392">
        <ele>18.5</ele>
        <time>2021-02-23T10:42:04Z</time>
      </trkpt>
      <trkpt lat="49.27611" lon="-0.45386">
        <ele>18.6</ele>
        <time>2021-02-23T10:42:06Z</time>
      </trkpt>
      <trkpt lat="49.27611" lon="-0.45382">
        <ele>18.7</ele>
        <time>2021-02-23T10:42:08Z</time>
      </trkpt>
      <trkpt lat="49.27611" lon="-0.45378">
        <ele>18.7</ele>
        <time>2021-02-23T10:42:10Z</time>
      </trkpt>
      <trkpt lat="49.2761" lon="-0.45377">
        <ele>18.8</ele>
        <time>2021-02-23T10:42:11Z</time>
      </trkpt>
      <trkpt lat="49.2761" lon="-0.45373">
        <ele>18.9</ele>
        <time>2021-02-23T10:42:13Z</time>
      </trkpt>
      <trkpt lat="49.27609" lon="-0.45369">
        <ele>19</ele>
        <time>2021-02-23T10:42:15Z</time>
      </trkpt>
      <trkpt lat="49.27609" lon="-0.45365">
        <ele>19.1</ele>
        <time>2021-02-23T10:42:17Z</time>
      </trkpt>
      <trkpt lat="49.27608" lon="-0.45361">
        <ele>19.2</ele>
        <time>2021-02-23T10:42:19Z</time>
      </trkpt>
      <trkpt lat="49.27608" lon="-0.4536">
        <ele>19.2</ele>
        <time>2021-02-23T10:42:20Z</time>
      </trkpt>
      <trkpt lat="49.27607" lon="-0.45358">
        <ele>19.3</ele>
        <time>2021-02-23T10:42:21Z</time>
      </trkpt>
      <trkpt lat="49.27606" lon="-0.45355">
        <ele>19.4</ele>
        <time>2021-02-23T10:42:23Z</time>
      </trkpt>
      <trkpt lat="49.27605" lon="-0.45353">
        <ele>19.4</ele>
        <time>2021-02-23T10:42:24Z</time>
      </trkpt>
      <trkpt lat="49.27604" lon="-0.45351">
        <ele>19.6</ele>
        <time>2021-02-23T10:42:25Z</time>
      </trkpt>
      <trkpt lat="49.27601" lon="-0.45346">
        <ele>20.2</ele>
        <time>2021-02-23T10:42:27Z</time>
      </trkpt>
      <trkpt lat="49.27599" lon="-0.45345">
        <ele>20.4</ele>
        <time>2021-02-23T10:42:28Z</time>
      </trkpt>
      <trkpt lat="49.27598" lon="-0.45344">
        <ele>20.6</ele>
        <time>2021-02-23T10:42:29Z</time>
      </trkpt>
      <trkpt lat="49.27593" lon="-0.45341">
        <ele>21.2</ele>
        <time>2021-02-23T10:42:31Z</time>
      </trkpt>
      <trkpt lat="49.27591" lon="-0.45338">
        <ele>21.7</ele>
        <time>2021-02-23T10:42:32Z</time>
      </trkpt>
      <trkpt lat="49.2759" lon="-0.45337">
        <ele>21.8</ele>
        <time>2021-02-23T10:42:33Z</time>
      </trkpt>
      <trkpt lat="49.27586" lon="-0.45333">
        <ele>22.5</ele>
        <time>2021-02-23T10:42:35Z</time>
      </trkpt>
      <trkpt lat="49.27585" lon="-0.45331">
        <ele>22.8</ele>
        <time>2021-02-23T10:42:36Z</time>
      </trkpt>
      <trkpt lat="49.27584" lon="-0.45329">
        <ele>23.1</ele>
        <time>2021-02-23T10:42:38Z</time>
      </trkpt>
      <trkpt lat="49.27583" lon="-0.45328">
        <ele>23.2</ele>
        <time>2021-02-23T10:42:40Z</time>
      </trkpt>
      <trkpt lat="49.27582" lon="-0.45328">
        <ele>23.4</ele>
        <time>2021-02-23T10:42:41Z</time>
      </trkpt>
      <trkpt lat="49.27579" lon="-0.45326">
        <ele>23.8</ele>
        <time>2021-02-23T10:42:43Z</time>
      </trkpt>
      <trkpt lat="49.27577" lon="-0.45324">
        <ele>24.1</ele>
        <time>2021-02-23T10:42:44Z</time>
      </trkpt>
      <trkpt lat="49.27575" lon="-0.45323">
        <ele>24.5</ele>
        <time>2021-02-23T10:42:46Z</time>
      </trkpt>
      <trkpt lat="49.27573" lon="-0.45322">
        <ele>24.8</ele>
        <time>2021-02-23T10:42:47Z</time>
      </trkpt>
      <trkpt lat="49.27572" lon="-0.4532">
        <ele>25</ele>
        <time>2021-02-23T10:42:48Z</time>
      </trkpt>
      <trkpt lat="49.2757" lon="-0.45319">
        <ele>25.3</ele>
        <time>2021-02-23T10:42:49Z</time>
      </trkpt>
      <trkpt lat="49.27568" lon="-0.45318">
        <ele>25.7</ele>
        <time>2021-02-23T10:42:51Z</time>
      </trkpt>
      <trkpt lat="49.27567" lon="-0.45317">
        <ele>25.9</ele>
        <time>2021-02-23T10:42:52Z</time>
      </trkpt>
      <trkpt lat="49.27565" lon="-0.45317">
        <ele>26.1</ele>
        <time>2021-02-23T10:42:54Z</time>
      </trkpt>
      <trkpt lat="49.27564" lon="-0.45316">
        <ele>26.2</ele>
        <time>2021-02-23T10:42:55Z</time>
      </trkpt>
      <trkpt lat="49.27562" lon="-0.45316">
        <ele>26.5</ele>
        <time>2021-02-23T10:42:57Z</time>
      </trkpt>
      <trkpt lat="49.27559" lon="-0.45317">
        <ele>27</ele>
        <time>2021-02-23T10:42:59Z</time>
      </trkpt>
      <trkpt lat="49.27555" lon="-0.45317">
        <ele>27.6</ele>
        <time>2021-02-23T10:43:01Z</time>
      </trkpt>
      <trkpt lat="49.27552" lon="-0.45318">
        <ele>27.9</ele>
        <time>2021-02-23T10:43:02Z</time>
      </trkpt>
      <trkpt lat="49.27551" lon="-0.45318">
        <ele>28.1</ele>
        <time>2021-02-23T10:43:03Z</time>
      </trkpt>
      <trkpt lat="49.27549" lon="-0.45318">
        <ele>28.3</ele>
        <time>2021-02-23T10:43:04Z</time>
      </trkpt>
      <trkpt lat="49.27546" lon="-0.45319">
        <ele>28.8</ele>
        <time>2021-02-23T10:43:06Z</time>
      </trkpt>
      <trkpt lat="49.27544" lon="-0.4532">
        <ele>29.2</ele>
        <time>2021-02-23T10:43:07Z</time>
      </trkpt>
      <trkpt lat="49.27543" lon="-0.45321">
        <ele>29.3</ele>
        <time>2021-02-23T10:43:08Z</time>
      </trkpt>
      <trkpt lat="49.27541" lon="-0.45323">
        <ele>29.4</ele>
        <time>2021-02-23T10:43:10Z</time>
      </trkpt>
      <trkpt lat="49.27541" lon="-0.45323">
        <ele>29.4</ele>
        <time>2021-02-23T10:43:11Z</time>
      </trkpt>
      <trkpt lat="49.2754" lon="-0.45321">
        <ele>29.4</ele>
        <time>2021-02-23T10:43:12Z</time>
      </trkpt>
      <trkpt lat="49.27539" lon="-0.45319">
        <ele>29.5</ele>
        <time>2021-02-23T10:43:13Z</time>
      </trkpt>
      <trkpt lat="49.27539" lon="-0.45315">
        <ele>29.5</ele>
        <time>2021-02-23T10:43:15Z</time>
      </trkpt>
      <trkpt lat="49.27539" lon="-0.45313">
        <ele>29.6</ele>
        <time>2021-02-23T10:43:16Z</time>
      </trkpt>
      <trkpt lat="49.27538" lon="-0.4531">
        <ele>29.6</ele>
        <time>2021-02-23T10:43:18Z</time>
      </trkpt>
      <trkpt lat="49.27538" lon="-0.45309">
        <ele>29.6</ele>
        <time>2021-02-23T10:43:19Z</time>
      </trkpt>
      <trkpt lat="49.27537" lon="-0.45306">
        <ele>29.6</ele>
        <time>2021-02-23T10:43:21Z</time>
      </trkpt>
      <trkpt lat="49.27537" lon="-0.45303">
        <ele>29.7</ele>
        <time>2021-02-23T10:43:23Z</time>
      </trkpt>
      <trkpt lat="49.27537" lon="-0.45299">
        <ele>29.7</ele>
        <time>2021-02-23T10:43:25Z</time>
      </trkpt>
      <trkpt lat="49.27536" lon="-0.45294">
        <ele>29.7</ele>
        <time>2021-02-23T10:43:27Z</time>
      </trkpt>
      <trkpt lat="49.27536" lon="-0.45291">
        <ele>29.7</ele>
        <time>2021-02-23T10:43:28Z</time>
      </trkpt>
      <trkpt lat="49.27534" lon="-0.45285">
        <ele>29.7</ele>
        <time>2021-02-23T10:43:30Z</time>
      </trkpt>
      <trkpt lat="49.27533" lon="-0.4528">
        <ele>29.7</ele>
        <time>2021-02-23T10:43:32Z</time>
      </trkpt>
      <trkpt lat="49.27531" lon="-0.45276">
        <ele>29.7</ele>
        <time>2021-02-23T10:43:34Z</time>
      </trkpt>
      <trkpt lat="49.27531" lon="-0.45273">
        <ele>29.7</ele>
        <time>2021-02-23T10:43:35Z</time>
      </trkpt>
      <trkpt lat="49.2753" lon="-0.45271">
        <ele>29.7</ele>
        <time>2021-02-23T10:43:36Z</time>
      </trkpt>
      <trkpt lat="49.2753" lon="-0.45269">
        <ele>29.7</ele>
        <time>2021-02-23T10:43:37Z</time>
      </trkpt>
      <trkpt lat="49.2753" lon="-0.45265">
        <ele>29.6</ele>
        <time>2021-02-23T10:43:39Z</time>
      </trkpt>
      <trkpt lat="49.27531" lon="-0.4526">
        <ele>29.6</ele>
        <time>2021-02-23T10:43:41Z</time>
      </trkpt>
      <trkpt lat="49.27531" lon="-0.45259">
        <ele>29.6</ele>
        <time>2021-02-23T10:43:42Z</time>
      </trkpt>
    </trkseg>
  </trk>
</gpx>